<?xml version="1.0" encoding="UTF-8" standalone="no" ?>
<gpx xmlns="http://www.topografix.com/GPX/1/1" xmlns:xsi="http://www.w3.org/2001/XMLSchema-instance" xsi:schemaLocation="http://www.topografix.com/GPX/1/1 http://www.topografix.com/GPX/1/1/gpx.xsd" version="1.1" creator="VisuGPX - https://www.visugpx.com">
  <metadata>
    <name>Gorges du Verdon, la route des cretes</name>
    <desc><![CDATA[Verdon : route des crêtes]]></desc>
  </metadata>
  <trk>
    <name><![CDATA[06/07/2021 10:19]]></name>
    <trkseg>
      <trkpt lat="43.77964" lon="6.34007">
        <ele>984</ele>
        <time>2021-07-06T08:19:01Z</time>
      </trkpt>
      <trkpt lat="43.77962" lon="6.34008">
        <ele>983.9</ele>
        <time>2021-07-06T08:19:01Z</time>
      </trkpt>
      <trkpt lat="43.77967" lon="6.34009">
        <ele>983.7</ele>
        <time>2021-07-06T08:19:08Z</time>
      </trkpt>
      <trkpt lat="43.77968" lon="6.34009">
        <ele>983.8</ele>
        <time>2021-07-06T08:19:15Z</time>
      </trkpt>
      <trkpt lat="43.77968" lon="6.34009">
        <ele>983.7</ele>
        <time>2021-07-06T08:19:16Z</time>
      </trkpt>
      <trkpt lat="43.77967" lon="6.34006">
        <ele>980.8</ele>
        <time>2021-07-06T08:19:27Z</time>
      </trkpt>
      <trkpt lat="43.77968" lon="6.34006">
        <ele>981</ele>
        <time>2021-07-06T08:19:34Z</time>
      </trkpt>
      <trkpt lat="43.77967" lon="6.34005">
        <ele>981.3</ele>
        <time>2021-07-06T08:19:41Z</time>
      </trkpt>
      <trkpt lat="43.77967" lon="6.34005">
        <ele>981.4</ele>
        <time>2021-07-06T08:19:42Z</time>
      </trkpt>
      <trkpt lat="43.77966" lon="6.34006">
        <ele>978.8</ele>
        <time>2021-07-06T08:20:55Z</time>
      </trkpt>
      <trkpt lat="43.77965" lon="6.34009">
        <ele>984.6</ele>
        <time>2021-07-06T08:21:02Z</time>
      </trkpt>
      <trkpt lat="43.77959" lon="6.34017">
        <ele>986.5</ele>
        <time>2021-07-06T08:21:09Z</time>
      </trkpt>
      <trkpt lat="43.77952" lon="6.34022">
        <ele>984.7</ele>
        <time>2021-07-06T08:21:12Z</time>
      </trkpt>
      <trkpt lat="43.77943" lon="6.34028">
        <ele>982.5</ele>
        <time>2021-07-06T08:21:15Z</time>
      </trkpt>
      <trkpt lat="43.77936" lon="6.34033">
        <ele>981.4</ele>
        <time>2021-07-06T08:21:17Z</time>
      </trkpt>
      <trkpt lat="43.77928" lon="6.34039">
        <ele>981.8</ele>
        <time>2021-07-06T08:21:19Z</time>
      </trkpt>
      <trkpt lat="43.77921" lon="6.34048">
        <ele>980.2</ele>
        <time>2021-07-06T08:21:21Z</time>
      </trkpt>
      <trkpt lat="43.77913" lon="6.34059">
        <ele>978.6</ele>
        <time>2021-07-06T08:21:23Z</time>
      </trkpt>
      <trkpt lat="43.77907" lon="6.34071">
        <ele>977.7</ele>
        <time>2021-07-06T08:21:25Z</time>
      </trkpt>
      <trkpt lat="43.77902" lon="6.34085">
        <ele>976.1</ele>
        <time>2021-07-06T08:21:27Z</time>
      </trkpt>
      <trkpt lat="43.77897" lon="6.341">
        <ele>975.1</ele>
        <time>2021-07-06T08:21:29Z</time>
      </trkpt>
      <trkpt lat="43.77894" lon="6.34114">
        <ele>973.8</ele>
        <time>2021-07-06T08:21:31Z</time>
      </trkpt>
      <trkpt lat="43.77891" lon="6.34126">
        <ele>972.5</ele>
        <time>2021-07-06T08:21:33Z</time>
      </trkpt>
      <trkpt lat="43.77889" lon="6.34139">
        <ele>970.9</ele>
        <time>2021-07-06T08:21:35Z</time>
      </trkpt>
      <trkpt lat="43.77886" lon="6.34149">
        <ele>971.1</ele>
        <time>2021-07-06T08:21:37Z</time>
      </trkpt>
      <trkpt lat="43.77884" lon="6.34159">
        <ele>971</ele>
        <time>2021-07-06T08:21:39Z</time>
      </trkpt>
      <trkpt lat="43.77884" lon="6.34171">
        <ele>971.1</ele>
        <time>2021-07-06T08:21:42Z</time>
      </trkpt>
      <trkpt lat="43.77889" lon="6.34181">
        <ele>970.5</ele>
        <time>2021-07-06T08:21:45Z</time>
      </trkpt>
      <trkpt lat="43.77892" lon="6.34191">
        <ele>970.8</ele>
        <time>2021-07-06T08:21:47Z</time>
      </trkpt>
      <trkpt lat="43.77894" lon="6.34201">
        <ele>969.9</ele>
        <time>2021-07-06T08:21:49Z</time>
      </trkpt>
      <trkpt lat="43.77897" lon="6.34214">
        <ele>969.8</ele>
        <time>2021-07-06T08:21:51Z</time>
      </trkpt>
      <trkpt lat="43.77899" lon="6.34227">
        <ele>969</ele>
        <time>2021-07-06T08:21:53Z</time>
      </trkpt>
      <trkpt lat="43.779" lon="6.34239">
        <ele>967.6</ele>
        <time>2021-07-06T08:21:55Z</time>
      </trkpt>
      <trkpt lat="43.77902" lon="6.34252">
        <ele>967.5</ele>
        <time>2021-07-06T08:21:57Z</time>
      </trkpt>
      <trkpt lat="43.77902" lon="6.34267">
        <ele>967.1</ele>
        <time>2021-07-06T08:21:59Z</time>
      </trkpt>
      <trkpt lat="43.77904" lon="6.34283">
        <ele>966.4</ele>
        <time>2021-07-06T08:22:01Z</time>
      </trkpt>
      <trkpt lat="43.77907" lon="6.343">
        <ele>965.4</ele>
        <time>2021-07-06T08:22:03Z</time>
      </trkpt>
      <trkpt lat="43.77911" lon="6.34318">
        <ele>963.9</ele>
        <time>2021-07-06T08:22:05Z</time>
      </trkpt>
      <trkpt lat="43.77917" lon="6.34333">
        <ele>963.3</ele>
        <time>2021-07-06T08:22:07Z</time>
      </trkpt>
      <trkpt lat="43.7792" lon="6.3435">
        <ele>963.8</ele>
        <time>2021-07-06T08:22:09Z</time>
      </trkpt>
      <trkpt lat="43.77923" lon="6.34368">
        <ele>963</ele>
        <time>2021-07-06T08:22:11Z</time>
      </trkpt>
      <trkpt lat="43.77926" lon="6.34385">
        <ele>962.9</ele>
        <time>2021-07-06T08:22:13Z</time>
      </trkpt>
      <trkpt lat="43.77928" lon="6.344">
        <ele>961.6</ele>
        <time>2021-07-06T08:22:15Z</time>
      </trkpt>
      <trkpt lat="43.77929" lon="6.3441">
        <ele>961.5</ele>
        <time>2021-07-06T08:22:17Z</time>
      </trkpt>
      <trkpt lat="43.7793" lon="6.34421">
        <ele>961.7</ele>
        <time>2021-07-06T08:22:19Z</time>
      </trkpt>
      <trkpt lat="43.7793" lon="6.34434">
        <ele>962.2</ele>
        <time>2021-07-06T08:22:22Z</time>
      </trkpt>
      <trkpt lat="43.77931" lon="6.34449">
        <ele>963.3</ele>
        <time>2021-07-06T08:22:25Z</time>
      </trkpt>
      <trkpt lat="43.77932" lon="6.34463">
        <ele>962</ele>
        <time>2021-07-06T08:22:27Z</time>
      </trkpt>
      <trkpt lat="43.7793" lon="6.34475">
        <ele>961.5</ele>
        <time>2021-07-06T08:22:29Z</time>
      </trkpt>
      <trkpt lat="43.77927" lon="6.34488">
        <ele>962.4</ele>
        <time>2021-07-06T08:22:31Z</time>
      </trkpt>
      <trkpt lat="43.77926" lon="6.34503">
        <ele>961.4</ele>
        <time>2021-07-06T08:22:33Z</time>
      </trkpt>
      <trkpt lat="43.77925" lon="6.34515">
        <ele>961.6</ele>
        <time>2021-07-06T08:22:35Z</time>
      </trkpt>
      <trkpt lat="43.77924" lon="6.3453">
        <ele>959.4</ele>
        <time>2021-07-06T08:22:37Z</time>
      </trkpt>
      <trkpt lat="43.77921" lon="6.34547">
        <ele>958.7</ele>
        <time>2021-07-06T08:22:39Z</time>
      </trkpt>
      <trkpt lat="43.7792" lon="6.34562">
        <ele>958.4</ele>
        <time>2021-07-06T08:22:41Z</time>
      </trkpt>
      <trkpt lat="43.77919" lon="6.34576">
        <ele>957.5</ele>
        <time>2021-07-06T08:22:43Z</time>
      </trkpt>
      <trkpt lat="43.77919" lon="6.34591">
        <ele>959.1</ele>
        <time>2021-07-06T08:22:46Z</time>
      </trkpt>
      <trkpt lat="43.77921" lon="6.34605">
        <ele>958</ele>
        <time>2021-07-06T08:22:49Z</time>
      </trkpt>
      <trkpt lat="43.77923" lon="6.34616">
        <ele>957.7</ele>
        <time>2021-07-06T08:22:51Z</time>
      </trkpt>
      <trkpt lat="43.77925" lon="6.34626">
        <ele>957.4</ele>
        <time>2021-07-06T08:22:53Z</time>
      </trkpt>
      <trkpt lat="43.77929" lon="6.34636">
        <ele>959.7</ele>
        <time>2021-07-06T08:22:55Z</time>
      </trkpt>
      <trkpt lat="43.77932" lon="6.34649">
        <ele>960.7</ele>
        <time>2021-07-06T08:22:57Z</time>
      </trkpt>
      <trkpt lat="43.77934" lon="6.34659">
        <ele>958.1</ele>
        <time>2021-07-06T08:22:59Z</time>
      </trkpt>
      <trkpt lat="43.77936" lon="6.34669">
        <ele>957.2</ele>
        <time>2021-07-06T08:23:01Z</time>
      </trkpt>
      <trkpt lat="43.77938" lon="6.34679">
        <ele>955.9</ele>
        <time>2021-07-06T08:23:04Z</time>
      </trkpt>
      <trkpt lat="43.77941" lon="6.34689">
        <ele>954</ele>
        <time>2021-07-06T08:23:10Z</time>
      </trkpt>
      <trkpt lat="43.77942" lon="6.34701">
        <ele>954.4</ele>
        <time>2021-07-06T08:23:16Z</time>
      </trkpt>
      <trkpt lat="43.77948" lon="6.34708">
        <ele>959.1</ele>
        <time>2021-07-06T08:23:20Z</time>
      </trkpt>
      <trkpt lat="43.77955" lon="6.34715">
        <ele>956.9</ele>
        <time>2021-07-06T08:23:23Z</time>
      </trkpt>
      <trkpt lat="43.77963" lon="6.34721">
        <ele>955.6</ele>
        <time>2021-07-06T08:23:26Z</time>
      </trkpt>
      <trkpt lat="43.7797" lon="6.34725">
        <ele>955.7</ele>
        <time>2021-07-06T08:23:29Z</time>
      </trkpt>
      <trkpt lat="43.77978" lon="6.34722">
        <ele>954.2</ele>
        <time>2021-07-06T08:23:32Z</time>
      </trkpt>
      <trkpt lat="43.77986" lon="6.34719">
        <ele>952.9</ele>
        <time>2021-07-06T08:23:35Z</time>
      </trkpt>
      <trkpt lat="43.77994" lon="6.34716">
        <ele>952</ele>
        <time>2021-07-06T08:23:38Z</time>
      </trkpt>
      <trkpt lat="43.78002" lon="6.34711">
        <ele>950.7</ele>
        <time>2021-07-06T08:23:41Z</time>
      </trkpt>
      <trkpt lat="43.7801" lon="6.34707">
        <ele>950.3</ele>
        <time>2021-07-06T08:23:44Z</time>
      </trkpt>
      <trkpt lat="43.78018" lon="6.34703">
        <ele>948.7</ele>
        <time>2021-07-06T08:23:47Z</time>
      </trkpt>
      <trkpt lat="43.78026" lon="6.34706">
        <ele>950</ele>
        <time>2021-07-06T08:23:51Z</time>
      </trkpt>
      <trkpt lat="43.78032" lon="6.34712">
        <ele>950.4</ele>
        <time>2021-07-06T08:23:54Z</time>
      </trkpt>
      <trkpt lat="43.78039" lon="6.34714">
        <ele>950.4</ele>
        <time>2021-07-06T08:23:57Z</time>
      </trkpt>
      <trkpt lat="43.78047" lon="6.34714">
        <ele>951.6</ele>
        <time>2021-07-06T08:24:00Z</time>
      </trkpt>
      <trkpt lat="43.78055" lon="6.34714">
        <ele>951.7</ele>
        <time>2021-07-06T08:24:04Z</time>
      </trkpt>
      <trkpt lat="43.78062" lon="6.34711">
        <ele>952.4</ele>
        <time>2021-07-06T08:24:08Z</time>
      </trkpt>
      <trkpt lat="43.7807" lon="6.34711">
        <ele>953.4</ele>
        <time>2021-07-06T08:24:12Z</time>
      </trkpt>
      <trkpt lat="43.78075" lon="6.34719">
        <ele>954.4</ele>
        <time>2021-07-06T08:24:16Z</time>
      </trkpt>
      <trkpt lat="43.78083" lon="6.34725">
        <ele>955.9</ele>
        <time>2021-07-06T08:24:20Z</time>
      </trkpt>
      <trkpt lat="43.7809" lon="6.34726">
        <ele>956.4</ele>
        <time>2021-07-06T08:24:23Z</time>
      </trkpt>
      <trkpt lat="43.78098" lon="6.34725">
        <ele>957.8</ele>
        <time>2021-07-06T08:24:26Z</time>
      </trkpt>
      <trkpt lat="43.78106" lon="6.34727">
        <ele>960.4</ele>
        <time>2021-07-06T08:24:30Z</time>
      </trkpt>
      <trkpt lat="43.78113" lon="6.34735">
        <ele>961.6</ele>
        <time>2021-07-06T08:24:34Z</time>
      </trkpt>
      <trkpt lat="43.7811" lon="6.34748">
        <ele>958.8</ele>
        <time>2021-07-06T08:24:38Z</time>
      </trkpt>
      <trkpt lat="43.78106" lon="6.34759">
        <ele>959</ele>
        <time>2021-07-06T08:24:41Z</time>
      </trkpt>
      <trkpt lat="43.78105" lon="6.3477">
        <ele>957.3</ele>
        <time>2021-07-06T08:24:44Z</time>
      </trkpt>
      <trkpt lat="43.78102" lon="6.34779">
        <ele>956.7</ele>
        <time>2021-07-06T08:24:47Z</time>
      </trkpt>
      <trkpt lat="43.78098" lon="6.34791">
        <ele>955.9</ele>
        <time>2021-07-06T08:24:50Z</time>
      </trkpt>
      <trkpt lat="43.78095" lon="6.34801">
        <ele>956</ele>
        <time>2021-07-06T08:24:52Z</time>
      </trkpt>
      <trkpt lat="43.78091" lon="6.34811">
        <ele>955.6</ele>
        <time>2021-07-06T08:24:54Z</time>
      </trkpt>
      <trkpt lat="43.78086" lon="6.34824">
        <ele>955.1</ele>
        <time>2021-07-06T08:24:56Z</time>
      </trkpt>
      <trkpt lat="43.7808" lon="6.34837">
        <ele>954.5</ele>
        <time>2021-07-06T08:24:58Z</time>
      </trkpt>
      <trkpt lat="43.78075" lon="6.3485">
        <ele>953.3</ele>
        <time>2021-07-06T08:25:00Z</time>
      </trkpt>
      <trkpt lat="43.78068" lon="6.34861">
        <ele>951.8</ele>
        <time>2021-07-06T08:25:02Z</time>
      </trkpt>
      <trkpt lat="43.78064" lon="6.34874">
        <ele>950.3</ele>
        <time>2021-07-06T08:25:04Z</time>
      </trkpt>
      <trkpt lat="43.78059" lon="6.34888">
        <ele>950.2</ele>
        <time>2021-07-06T08:25:06Z</time>
      </trkpt>
      <trkpt lat="43.78053" lon="6.34902">
        <ele>949.9</ele>
        <time>2021-07-06T08:25:08Z</time>
      </trkpt>
      <trkpt lat="43.78046" lon="6.34918">
        <ele>948.7</ele>
        <time>2021-07-06T08:25:10Z</time>
      </trkpt>
      <trkpt lat="43.78042" lon="6.34934">
        <ele>947.5</ele>
        <time>2021-07-06T08:25:12Z</time>
      </trkpt>
      <trkpt lat="43.78038" lon="6.3495">
        <ele>947.4</ele>
        <time>2021-07-06T08:25:14Z</time>
      </trkpt>
      <trkpt lat="43.78037" lon="6.34967">
        <ele>946</ele>
        <time>2021-07-06T08:25:16Z</time>
      </trkpt>
      <trkpt lat="43.78036" lon="6.34983">
        <ele>946</ele>
        <time>2021-07-06T08:25:18Z</time>
      </trkpt>
      <trkpt lat="43.78035" lon="6.35002">
        <ele>945</ele>
        <time>2021-07-06T08:25:20Z</time>
      </trkpt>
      <trkpt lat="43.78033" lon="6.35018">
        <ele>943.8</ele>
        <time>2021-07-06T08:25:22Z</time>
      </trkpt>
      <trkpt lat="43.78033" lon="6.35035">
        <ele>942.8</ele>
        <time>2021-07-06T08:25:24Z</time>
      </trkpt>
      <trkpt lat="43.78032" lon="6.35051">
        <ele>943.5</ele>
        <time>2021-07-06T08:25:26Z</time>
      </trkpt>
      <trkpt lat="43.78031" lon="6.35067">
        <ele>943.3</ele>
        <time>2021-07-06T08:25:28Z</time>
      </trkpt>
      <trkpt lat="43.7803" lon="6.35083">
        <ele>942.3</ele>
        <time>2021-07-06T08:25:30Z</time>
      </trkpt>
      <trkpt lat="43.7803" lon="6.35099">
        <ele>941.6</ele>
        <time>2021-07-06T08:25:32Z</time>
      </trkpt>
      <trkpt lat="43.7803" lon="6.35115">
        <ele>940.9</ele>
        <time>2021-07-06T08:25:34Z</time>
      </trkpt>
      <trkpt lat="43.78028" lon="6.35131">
        <ele>940.9</ele>
        <time>2021-07-06T08:25:36Z</time>
      </trkpt>
      <trkpt lat="43.78027" lon="6.35147">
        <ele>939.9</ele>
        <time>2021-07-06T08:25:38Z</time>
      </trkpt>
      <trkpt lat="43.78027" lon="6.35162">
        <ele>939.4</ele>
        <time>2021-07-06T08:25:40Z</time>
      </trkpt>
      <trkpt lat="43.78027" lon="6.35179">
        <ele>939.3</ele>
        <time>2021-07-06T08:25:42Z</time>
      </trkpt>
      <trkpt lat="43.78026" lon="6.35194">
        <ele>939.8</ele>
        <time>2021-07-06T08:25:44Z</time>
      </trkpt>
      <trkpt lat="43.78025" lon="6.3521">
        <ele>939.9</ele>
        <time>2021-07-06T08:25:46Z</time>
      </trkpt>
      <trkpt lat="43.78024" lon="6.35226">
        <ele>939.9</ele>
        <time>2021-07-06T08:25:48Z</time>
      </trkpt>
      <trkpt lat="43.78025" lon="6.35241">
        <ele>940.4</ele>
        <time>2021-07-06T08:25:50Z</time>
      </trkpt>
      <trkpt lat="43.78025" lon="6.35258">
        <ele>938.6</ele>
        <time>2021-07-06T08:25:52Z</time>
      </trkpt>
      <trkpt lat="43.78023" lon="6.35274">
        <ele>938.1</ele>
        <time>2021-07-06T08:25:54Z</time>
      </trkpt>
      <trkpt lat="43.78022" lon="6.3529">
        <ele>937.9</ele>
        <time>2021-07-06T08:25:56Z</time>
      </trkpt>
      <trkpt lat="43.78022" lon="6.35307">
        <ele>937.5</ele>
        <time>2021-07-06T08:25:58Z</time>
      </trkpt>
      <trkpt lat="43.7802" lon="6.35326">
        <ele>935.8</ele>
        <time>2021-07-06T08:26:00Z</time>
      </trkpt>
      <trkpt lat="43.78017" lon="6.35343">
        <ele>935.5</ele>
        <time>2021-07-06T08:26:02Z</time>
      </trkpt>
      <trkpt lat="43.78014" lon="6.35362">
        <ele>935.2</ele>
        <time>2021-07-06T08:26:04Z</time>
      </trkpt>
      <trkpt lat="43.78012" lon="6.3538">
        <ele>935</ele>
        <time>2021-07-06T08:26:06Z</time>
      </trkpt>
      <trkpt lat="43.7801" lon="6.35398">
        <ele>934.2</ele>
        <time>2021-07-06T08:26:08Z</time>
      </trkpt>
      <trkpt lat="43.78007" lon="6.35417">
        <ele>934.1</ele>
        <time>2021-07-06T08:26:10Z</time>
      </trkpt>
      <trkpt lat="43.78005" lon="6.35434">
        <ele>934.1</ele>
        <time>2021-07-06T08:26:12Z</time>
      </trkpt>
      <trkpt lat="43.78002" lon="6.35449">
        <ele>934.5</ele>
        <time>2021-07-06T08:26:14Z</time>
      </trkpt>
      <trkpt lat="43.77999" lon="6.35466">
        <ele>933.5</ele>
        <time>2021-07-06T08:26:16Z</time>
      </trkpt>
      <trkpt lat="43.77996" lon="6.35484">
        <ele>932.7</ele>
        <time>2021-07-06T08:26:18Z</time>
      </trkpt>
      <trkpt lat="43.77992" lon="6.35501">
        <ele>932.3</ele>
        <time>2021-07-06T08:26:20Z</time>
      </trkpt>
      <trkpt lat="43.77989" lon="6.35518">
        <ele>932.2</ele>
        <time>2021-07-06T08:26:22Z</time>
      </trkpt>
      <trkpt lat="43.77986" lon="6.35535">
        <ele>931.5</ele>
        <time>2021-07-06T08:26:24Z</time>
      </trkpt>
      <trkpt lat="43.77984" lon="6.35552">
        <ele>930.7</ele>
        <time>2021-07-06T08:26:26Z</time>
      </trkpt>
      <trkpt lat="43.77981" lon="6.35569">
        <ele>930.6</ele>
        <time>2021-07-06T08:26:28Z</time>
      </trkpt>
      <trkpt lat="43.77978" lon="6.35587">
        <ele>930.2</ele>
        <time>2021-07-06T08:26:30Z</time>
      </trkpt>
      <trkpt lat="43.77975" lon="6.35604">
        <ele>929.7</ele>
        <time>2021-07-06T08:26:32Z</time>
      </trkpt>
      <trkpt lat="43.77973" lon="6.35619">
        <ele>930.2</ele>
        <time>2021-07-06T08:26:34Z</time>
      </trkpt>
      <trkpt lat="43.7797" lon="6.35635">
        <ele>929.9</ele>
        <time>2021-07-06T08:26:36Z</time>
      </trkpt>
      <trkpt lat="43.77968" lon="6.3565">
        <ele>929.6</ele>
        <time>2021-07-06T08:26:38Z</time>
      </trkpt>
      <trkpt lat="43.77965" lon="6.35665">
        <ele>929.8</ele>
        <time>2021-07-06T08:26:40Z</time>
      </trkpt>
      <trkpt lat="43.77962" lon="6.35681">
        <ele>930.8</ele>
        <time>2021-07-06T08:26:42Z</time>
      </trkpt>
      <trkpt lat="43.7796" lon="6.35696">
        <ele>930.8</ele>
        <time>2021-07-06T08:26:44Z</time>
      </trkpt>
      <trkpt lat="43.77958" lon="6.35711">
        <ele>930.7</ele>
        <time>2021-07-06T08:26:46Z</time>
      </trkpt>
      <trkpt lat="43.77956" lon="6.35726">
        <ele>930</ele>
        <time>2021-07-06T08:26:48Z</time>
      </trkpt>
      <trkpt lat="43.77954" lon="6.35741">
        <ele>929.4</ele>
        <time>2021-07-06T08:26:50Z</time>
      </trkpt>
      <trkpt lat="43.77953" lon="6.35756">
        <ele>928</ele>
        <time>2021-07-06T08:26:52Z</time>
      </trkpt>
      <trkpt lat="43.77952" lon="6.35769">
        <ele>928.3</ele>
        <time>2021-07-06T08:26:54Z</time>
      </trkpt>
      <trkpt lat="43.77952" lon="6.35781">
        <ele>927.9</ele>
        <time>2021-07-06T08:26:56Z</time>
      </trkpt>
      <trkpt lat="43.77952" lon="6.35793">
        <ele>927.1</ele>
        <time>2021-07-06T08:26:58Z</time>
      </trkpt>
      <trkpt lat="43.77952" lon="6.35805">
        <ele>926.8</ele>
        <time>2021-07-06T08:27:00Z</time>
      </trkpt>
      <trkpt lat="43.77952" lon="6.35818">
        <ele>926.5</ele>
        <time>2021-07-06T08:27:03Z</time>
      </trkpt>
      <trkpt lat="43.77951" lon="6.35832">
        <ele>927.1</ele>
        <time>2021-07-06T08:27:06Z</time>
      </trkpt>
      <trkpt lat="43.77951" lon="6.35843">
        <ele>927.2</ele>
        <time>2021-07-06T08:27:08Z</time>
      </trkpt>
      <trkpt lat="43.77951" lon="6.35854">
        <ele>927.9</ele>
        <time>2021-07-06T08:27:10Z</time>
      </trkpt>
      <trkpt lat="43.7795" lon="6.35865">
        <ele>929</ele>
        <time>2021-07-06T08:27:12Z</time>
      </trkpt>
      <trkpt lat="43.77949" lon="6.35877">
        <ele>928.7</ele>
        <time>2021-07-06T08:27:14Z</time>
      </trkpt>
      <trkpt lat="43.77948" lon="6.35888">
        <ele>929.2</ele>
        <time>2021-07-06T08:27:16Z</time>
      </trkpt>
      <trkpt lat="43.77946" lon="6.35901">
        <ele>929.5</ele>
        <time>2021-07-06T08:27:18Z</time>
      </trkpt>
      <trkpt lat="43.77944" lon="6.35915">
        <ele>930</ele>
        <time>2021-07-06T08:27:20Z</time>
      </trkpt>
      <trkpt lat="43.77944" lon="6.35928">
        <ele>929.7</ele>
        <time>2021-07-06T08:27:22Z</time>
      </trkpt>
      <trkpt lat="43.77943" lon="6.35941">
        <ele>929.8</ele>
        <time>2021-07-06T08:27:24Z</time>
      </trkpt>
      <trkpt lat="43.77942" lon="6.35952">
        <ele>929.3</ele>
        <time>2021-07-06T08:27:26Z</time>
      </trkpt>
      <trkpt lat="43.77941" lon="6.35965">
        <ele>928.6</ele>
        <time>2021-07-06T08:27:28Z</time>
      </trkpt>
      <trkpt lat="43.77941" lon="6.35976">
        <ele>928.1</ele>
        <time>2021-07-06T08:27:30Z</time>
      </trkpt>
      <trkpt lat="43.7794" lon="6.35988">
        <ele>928.5</ele>
        <time>2021-07-06T08:27:32Z</time>
      </trkpt>
      <trkpt lat="43.77941" lon="6.36">
        <ele>928.7</ele>
        <time>2021-07-06T08:27:34Z</time>
      </trkpt>
      <trkpt lat="43.77942" lon="6.36011">
        <ele>929.2</ele>
        <time>2021-07-06T08:27:36Z</time>
      </trkpt>
      <trkpt lat="43.77941" lon="6.36024">
        <ele>928.9</ele>
        <time>2021-07-06T08:27:38Z</time>
      </trkpt>
      <trkpt lat="43.77941" lon="6.36037">
        <ele>928.8</ele>
        <time>2021-07-06T08:27:40Z</time>
      </trkpt>
      <trkpt lat="43.77941" lon="6.36049">
        <ele>929</ele>
        <time>2021-07-06T08:27:42Z</time>
      </trkpt>
      <trkpt lat="43.7794" lon="6.36062">
        <ele>928.8</ele>
        <time>2021-07-06T08:27:44Z</time>
      </trkpt>
      <trkpt lat="43.7794" lon="6.36074">
        <ele>928.4</ele>
        <time>2021-07-06T08:27:46Z</time>
      </trkpt>
      <trkpt lat="43.7794" lon="6.36088">
        <ele>928.4</ele>
        <time>2021-07-06T08:27:48Z</time>
      </trkpt>
      <trkpt lat="43.7794" lon="6.36102">
        <ele>928.2</ele>
        <time>2021-07-06T08:27:50Z</time>
      </trkpt>
      <trkpt lat="43.77941" lon="6.36117">
        <ele>927.9</ele>
        <time>2021-07-06T08:27:52Z</time>
      </trkpt>
      <trkpt lat="43.7794" lon="6.36132">
        <ele>927.4</ele>
        <time>2021-07-06T08:27:54Z</time>
      </trkpt>
      <trkpt lat="43.77941" lon="6.36147">
        <ele>927.2</ele>
        <time>2021-07-06T08:27:56Z</time>
      </trkpt>
      <trkpt lat="43.77942" lon="6.36162">
        <ele>926.4</ele>
        <time>2021-07-06T08:27:58Z</time>
      </trkpt>
      <trkpt lat="43.77942" lon="6.36178">
        <ele>925.6</ele>
        <time>2021-07-06T08:28:00Z</time>
      </trkpt>
      <trkpt lat="43.77943" lon="6.36195">
        <ele>925</ele>
        <time>2021-07-06T08:28:02Z</time>
      </trkpt>
      <trkpt lat="43.77944" lon="6.36212">
        <ele>924</ele>
        <time>2021-07-06T08:28:04Z</time>
      </trkpt>
      <trkpt lat="43.77944" lon="6.3623">
        <ele>923.7</ele>
        <time>2021-07-06T08:28:06Z</time>
      </trkpt>
      <trkpt lat="43.77944" lon="6.3625">
        <ele>922.2</ele>
        <time>2021-07-06T08:28:08Z</time>
      </trkpt>
      <trkpt lat="43.77944" lon="6.36268">
        <ele>921.5</ele>
        <time>2021-07-06T08:28:10Z</time>
      </trkpt>
      <trkpt lat="43.77944" lon="6.36288">
        <ele>921</ele>
        <time>2021-07-06T08:28:12Z</time>
      </trkpt>
      <trkpt lat="43.77945" lon="6.36308">
        <ele>920.3</ele>
        <time>2021-07-06T08:28:14Z</time>
      </trkpt>
      <trkpt lat="43.77945" lon="6.36318">
        <ele>920.6</ele>
        <time>2021-07-06T08:28:15Z</time>
      </trkpt>
      <trkpt lat="43.77945" lon="6.36329">
        <ele>920.4</ele>
        <time>2021-07-06T08:28:16Z</time>
      </trkpt>
      <trkpt lat="43.77944" lon="6.36339">
        <ele>920.2</ele>
        <time>2021-07-06T08:28:17Z</time>
      </trkpt>
      <trkpt lat="43.77943" lon="6.36358">
        <ele>920.2</ele>
        <time>2021-07-06T08:28:19Z</time>
      </trkpt>
      <trkpt lat="43.7794" lon="6.36376">
        <ele>920.2</ele>
        <time>2021-07-06T08:28:21Z</time>
      </trkpt>
      <trkpt lat="43.77935" lon="6.36393">
        <ele>920.1</ele>
        <time>2021-07-06T08:28:23Z</time>
      </trkpt>
      <trkpt lat="43.77929" lon="6.3641">
        <ele>919.6</ele>
        <time>2021-07-06T08:28:25Z</time>
      </trkpt>
      <trkpt lat="43.77921" lon="6.36425">
        <ele>919.5</ele>
        <time>2021-07-06T08:28:27Z</time>
      </trkpt>
      <trkpt lat="43.77913" lon="6.36441">
        <ele>919.2</ele>
        <time>2021-07-06T08:28:29Z</time>
      </trkpt>
      <trkpt lat="43.77909" lon="6.36449">
        <ele>918.9</ele>
        <time>2021-07-06T08:28:30Z</time>
      </trkpt>
      <trkpt lat="43.77905" lon="6.36457">
        <ele>918.8</ele>
        <time>2021-07-06T08:28:31Z</time>
      </trkpt>
      <trkpt lat="43.77897" lon="6.36473">
        <ele>918.5</ele>
        <time>2021-07-06T08:28:33Z</time>
      </trkpt>
      <trkpt lat="43.77893" lon="6.36482">
        <ele>918.2</ele>
        <time>2021-07-06T08:28:34Z</time>
      </trkpt>
      <trkpt lat="43.77888" lon="6.36491">
        <ele>917.2</ele>
        <time>2021-07-06T08:28:35Z</time>
      </trkpt>
      <trkpt lat="43.77885" lon="6.365">
        <ele>916.4</ele>
        <time>2021-07-06T08:28:36Z</time>
      </trkpt>
      <trkpt lat="43.7788" lon="6.36508">
        <ele>916</ele>
        <time>2021-07-06T08:28:37Z</time>
      </trkpt>
      <trkpt lat="43.77875" lon="6.36518">
        <ele>915.4</ele>
        <time>2021-07-06T08:28:38Z</time>
      </trkpt>
      <trkpt lat="43.77871" lon="6.36527">
        <ele>914.9</ele>
        <time>2021-07-06T08:28:39Z</time>
      </trkpt>
      <trkpt lat="43.77867" lon="6.36536">
        <ele>914.9</ele>
        <time>2021-07-06T08:28:40Z</time>
      </trkpt>
      <trkpt lat="43.77862" lon="6.36544">
        <ele>914.9</ele>
        <time>2021-07-06T08:28:41Z</time>
      </trkpt>
      <trkpt lat="43.77857" lon="6.36553">
        <ele>914.7</ele>
        <time>2021-07-06T08:28:42Z</time>
      </trkpt>
      <trkpt lat="43.77853" lon="6.36562">
        <ele>915.2</ele>
        <time>2021-07-06T08:28:43Z</time>
      </trkpt>
      <trkpt lat="43.77849" lon="6.3657">
        <ele>915.3</ele>
        <time>2021-07-06T08:28:44Z</time>
      </trkpt>
      <trkpt lat="43.7784" lon="6.36585">
        <ele>914.6</ele>
        <time>2021-07-06T08:28:46Z</time>
      </trkpt>
      <trkpt lat="43.77832" lon="6.36602">
        <ele>914.6</ele>
        <time>2021-07-06T08:28:48Z</time>
      </trkpt>
      <trkpt lat="43.77825" lon="6.36617">
        <ele>915.7</ele>
        <time>2021-07-06T08:28:50Z</time>
      </trkpt>
      <trkpt lat="43.77818" lon="6.36631">
        <ele>916.2</ele>
        <time>2021-07-06T08:28:52Z</time>
      </trkpt>
      <trkpt lat="43.77812" lon="6.36645">
        <ele>917.1</ele>
        <time>2021-07-06T08:28:54Z</time>
      </trkpt>
      <trkpt lat="43.77806" lon="6.36658">
        <ele>916.7</ele>
        <time>2021-07-06T08:28:56Z</time>
      </trkpt>
      <trkpt lat="43.77799" lon="6.3667">
        <ele>916.8</ele>
        <time>2021-07-06T08:28:58Z</time>
      </trkpt>
      <trkpt lat="43.77793" lon="6.3668">
        <ele>924.1</ele>
        <time>2021-07-06T08:29:00Z</time>
      </trkpt>
      <trkpt lat="43.77788" lon="6.36691">
        <ele>919.7</ele>
        <time>2021-07-06T08:29:02Z</time>
      </trkpt>
      <trkpt lat="43.77784" lon="6.36702">
        <ele>918.7</ele>
        <time>2021-07-06T08:29:04Z</time>
      </trkpt>
      <trkpt lat="43.7778" lon="6.36713">
        <ele>919.3</ele>
        <time>2021-07-06T08:29:06Z</time>
      </trkpt>
      <trkpt lat="43.77778" lon="6.36724">
        <ele>919.8</ele>
        <time>2021-07-06T08:29:08Z</time>
      </trkpt>
      <trkpt lat="43.77775" lon="6.36735">
        <ele>919.8</ele>
        <time>2021-07-06T08:29:10Z</time>
      </trkpt>
      <trkpt lat="43.77774" lon="6.36745">
        <ele>919.5</ele>
        <time>2021-07-06T08:29:12Z</time>
      </trkpt>
      <trkpt lat="43.77772" lon="6.36755">
        <ele>919.6</ele>
        <time>2021-07-06T08:29:14Z</time>
      </trkpt>
      <trkpt lat="43.77772" lon="6.36766">
        <ele>919.9</ele>
        <time>2021-07-06T08:29:16Z</time>
      </trkpt>
      <trkpt lat="43.77774" lon="6.36776">
        <ele>920</ele>
        <time>2021-07-06T08:29:18Z</time>
      </trkpt>
      <trkpt lat="43.77776" lon="6.36787">
        <ele>920.5</ele>
        <time>2021-07-06T08:29:20Z</time>
      </trkpt>
      <trkpt lat="43.77777" lon="6.36797">
        <ele>920.3</ele>
        <time>2021-07-06T08:29:22Z</time>
      </trkpt>
      <trkpt lat="43.77778" lon="6.36807">
        <ele>919.9</ele>
        <time>2021-07-06T08:29:24Z</time>
      </trkpt>
      <trkpt lat="43.77781" lon="6.36817">
        <ele>919.2</ele>
        <time>2021-07-06T08:29:26Z</time>
      </trkpt>
      <trkpt lat="43.77784" lon="6.36826">
        <ele>919.8</ele>
        <time>2021-07-06T08:29:28Z</time>
      </trkpt>
      <trkpt lat="43.77787" lon="6.36836">
        <ele>920.2</ele>
        <time>2021-07-06T08:29:30Z</time>
      </trkpt>
      <trkpt lat="43.7779" lon="6.36845">
        <ele>919.5</ele>
        <time>2021-07-06T08:29:32Z</time>
      </trkpt>
      <trkpt lat="43.77794" lon="6.36855">
        <ele>919.7</ele>
        <time>2021-07-06T08:29:34Z</time>
      </trkpt>
      <trkpt lat="43.77797" lon="6.36865">
        <ele>920.4</ele>
        <time>2021-07-06T08:29:36Z</time>
      </trkpt>
      <trkpt lat="43.778" lon="6.36875">
        <ele>920.9</ele>
        <time>2021-07-06T08:29:38Z</time>
      </trkpt>
      <trkpt lat="43.77803" lon="6.36884">
        <ele>920.6</ele>
        <time>2021-07-06T08:29:40Z</time>
      </trkpt>
      <trkpt lat="43.77807" lon="6.36894">
        <ele>920.6</ele>
        <time>2021-07-06T08:29:42Z</time>
      </trkpt>
      <trkpt lat="43.77811" lon="6.36903">
        <ele>920.4</ele>
        <time>2021-07-06T08:29:44Z</time>
      </trkpt>
      <trkpt lat="43.77814" lon="6.36914">
        <ele>919.9</ele>
        <time>2021-07-06T08:29:46Z</time>
      </trkpt>
      <trkpt lat="43.77817" lon="6.36924">
        <ele>920.2</ele>
        <time>2021-07-06T08:29:48Z</time>
      </trkpt>
      <trkpt lat="43.77821" lon="6.36935">
        <ele>920.1</ele>
        <time>2021-07-06T08:29:50Z</time>
      </trkpt>
      <trkpt lat="43.77824" lon="6.36945">
        <ele>920.1</ele>
        <time>2021-07-06T08:29:52Z</time>
      </trkpt>
      <trkpt lat="43.77827" lon="6.36955">
        <ele>919.7</ele>
        <time>2021-07-06T08:29:54Z</time>
      </trkpt>
      <trkpt lat="43.77831" lon="6.36966">
        <ele>919.1</ele>
        <time>2021-07-06T08:29:56Z</time>
      </trkpt>
      <trkpt lat="43.77834" lon="6.36976">
        <ele>919.2</ele>
        <time>2021-07-06T08:29:58Z</time>
      </trkpt>
      <trkpt lat="43.77838" lon="6.36987">
        <ele>919</ele>
        <time>2021-07-06T08:30:00Z</time>
      </trkpt>
      <trkpt lat="43.77841" lon="6.36998">
        <ele>918.7</ele>
        <time>2021-07-06T08:30:02Z</time>
      </trkpt>
      <trkpt lat="43.77845" lon="6.3701">
        <ele>918.7</ele>
        <time>2021-07-06T08:30:04Z</time>
      </trkpt>
      <trkpt lat="43.77848" lon="6.37023">
        <ele>918.9</ele>
        <time>2021-07-06T08:30:06Z</time>
      </trkpt>
      <trkpt lat="43.77852" lon="6.37036">
        <ele>918.6</ele>
        <time>2021-07-06T08:30:08Z</time>
      </trkpt>
      <trkpt lat="43.77855" lon="6.37047">
        <ele>918.8</ele>
        <time>2021-07-06T08:30:10Z</time>
      </trkpt>
      <trkpt lat="43.77858" lon="6.37059">
        <ele>919.1</ele>
        <time>2021-07-06T08:30:12Z</time>
      </trkpt>
      <trkpt lat="43.77861" lon="6.37069">
        <ele>919.7</ele>
        <time>2021-07-06T08:30:14Z</time>
      </trkpt>
      <trkpt lat="43.77863" lon="6.3708">
        <ele>920</ele>
        <time>2021-07-06T08:30:16Z</time>
      </trkpt>
      <trkpt lat="43.77866" lon="6.3709">
        <ele>920.1</ele>
        <time>2021-07-06T08:30:18Z</time>
      </trkpt>
      <trkpt lat="43.77868" lon="6.37099">
        <ele>920.2</ele>
        <time>2021-07-06T08:30:20Z</time>
      </trkpt>
      <trkpt lat="43.77871" lon="6.3711">
        <ele>919.8</ele>
        <time>2021-07-06T08:30:22Z</time>
      </trkpt>
      <trkpt lat="43.77873" lon="6.3712">
        <ele>920.1</ele>
        <time>2021-07-06T08:30:24Z</time>
      </trkpt>
      <trkpt lat="43.77875" lon="6.3713">
        <ele>920.4</ele>
        <time>2021-07-06T08:30:26Z</time>
      </trkpt>
      <trkpt lat="43.77877" lon="6.37144">
        <ele>921.6</ele>
        <time>2021-07-06T08:30:29Z</time>
      </trkpt>
      <trkpt lat="43.77878" lon="6.37159">
        <ele>921.8</ele>
        <time>2021-07-06T08:30:32Z</time>
      </trkpt>
      <trkpt lat="43.77879" lon="6.37173">
        <ele>922.1</ele>
        <time>2021-07-06T08:30:35Z</time>
      </trkpt>
      <trkpt lat="43.77879" lon="6.37183">
        <ele>922.5</ele>
        <time>2021-07-06T08:30:37Z</time>
      </trkpt>
      <trkpt lat="43.77879" lon="6.37198">
        <ele>922.8</ele>
        <time>2021-07-06T08:30:40Z</time>
      </trkpt>
      <trkpt lat="43.77878" lon="6.37208">
        <ele>923</ele>
        <time>2021-07-06T08:30:42Z</time>
      </trkpt>
      <trkpt lat="43.77878" lon="6.37219">
        <ele>923.3</ele>
        <time>2021-07-06T08:30:44Z</time>
      </trkpt>
      <trkpt lat="43.77878" lon="6.37229">
        <ele>923.2</ele>
        <time>2021-07-06T08:30:46Z</time>
      </trkpt>
      <trkpt lat="43.77877" lon="6.3724">
        <ele>923.6</ele>
        <time>2021-07-06T08:30:48Z</time>
      </trkpt>
      <trkpt lat="43.77877" lon="6.37251">
        <ele>923.7</ele>
        <time>2021-07-06T08:30:50Z</time>
      </trkpt>
      <trkpt lat="43.77877" lon="6.37261">
        <ele>923.9</ele>
        <time>2021-07-06T08:30:52Z</time>
      </trkpt>
      <trkpt lat="43.77876" lon="6.37271">
        <ele>923.6</ele>
        <time>2021-07-06T08:30:54Z</time>
      </trkpt>
      <trkpt lat="43.77875" lon="6.37282">
        <ele>923</ele>
        <time>2021-07-06T08:30:56Z</time>
      </trkpt>
      <trkpt lat="43.77875" lon="6.37293">
        <ele>922.9</ele>
        <time>2021-07-06T08:30:58Z</time>
      </trkpt>
      <trkpt lat="43.77874" lon="6.37304">
        <ele>922.6</ele>
        <time>2021-07-06T08:31:00Z</time>
      </trkpt>
      <trkpt lat="43.77875" lon="6.37315">
        <ele>922.8</ele>
        <time>2021-07-06T08:31:02Z</time>
      </trkpt>
      <trkpt lat="43.77876" lon="6.37325">
        <ele>923.3</ele>
        <time>2021-07-06T08:31:04Z</time>
      </trkpt>
      <trkpt lat="43.77877" lon="6.37336">
        <ele>923.7</ele>
        <time>2021-07-06T08:31:06Z</time>
      </trkpt>
      <trkpt lat="43.77878" lon="6.37346">
        <ele>923.6</ele>
        <time>2021-07-06T08:31:08Z</time>
      </trkpt>
      <trkpt lat="43.77879" lon="6.37357">
        <ele>923.6</ele>
        <time>2021-07-06T08:31:10Z</time>
      </trkpt>
      <trkpt lat="43.77881" lon="6.37367">
        <ele>923.8</ele>
        <time>2021-07-06T08:31:12Z</time>
      </trkpt>
      <trkpt lat="43.77884" lon="6.37378">
        <ele>923.8</ele>
        <time>2021-07-06T08:31:14Z</time>
      </trkpt>
      <trkpt lat="43.77886" lon="6.37388">
        <ele>924</ele>
        <time>2021-07-06T08:31:16Z</time>
      </trkpt>
      <trkpt lat="43.7789" lon="6.37399">
        <ele>923.7</ele>
        <time>2021-07-06T08:31:18Z</time>
      </trkpt>
      <trkpt lat="43.77892" lon="6.37409">
        <ele>924</ele>
        <time>2021-07-06T08:31:20Z</time>
      </trkpt>
      <trkpt lat="43.77896" lon="6.37419">
        <ele>923.7</ele>
        <time>2021-07-06T08:31:22Z</time>
      </trkpt>
      <trkpt lat="43.779" lon="6.3743">
        <ele>923.2</ele>
        <time>2021-07-06T08:31:24Z</time>
      </trkpt>
      <trkpt lat="43.77904" lon="6.37442">
        <ele>922.6</ele>
        <time>2021-07-06T08:31:26Z</time>
      </trkpt>
      <trkpt lat="43.77908" lon="6.37453">
        <ele>922.4</ele>
        <time>2021-07-06T08:31:28Z</time>
      </trkpt>
      <trkpt lat="43.77914" lon="6.37464">
        <ele>922.1</ele>
        <time>2021-07-06T08:31:30Z</time>
      </trkpt>
      <trkpt lat="43.77918" lon="6.37475">
        <ele>922.7</ele>
        <time>2021-07-06T08:31:32Z</time>
      </trkpt>
      <trkpt lat="43.77922" lon="6.37486">
        <ele>922.2</ele>
        <time>2021-07-06T08:31:34Z</time>
      </trkpt>
      <trkpt lat="43.77928" lon="6.37499">
        <ele>921.6</ele>
        <time>2021-07-06T08:31:36Z</time>
      </trkpt>
      <trkpt lat="43.77933" lon="6.37512">
        <ele>921.4</ele>
        <time>2021-07-06T08:31:38Z</time>
      </trkpt>
      <trkpt lat="43.77938" lon="6.37524">
        <ele>920.9</ele>
        <time>2021-07-06T08:31:40Z</time>
      </trkpt>
      <trkpt lat="43.77944" lon="6.37536">
        <ele>920.2</ele>
        <time>2021-07-06T08:31:42Z</time>
      </trkpt>
      <trkpt lat="43.77949" lon="6.3755">
        <ele>919.8</ele>
        <time>2021-07-06T08:31:44Z</time>
      </trkpt>
      <trkpt lat="43.77954" lon="6.37565">
        <ele>919.2</ele>
        <time>2021-07-06T08:31:46Z</time>
      </trkpt>
      <trkpt lat="43.77961" lon="6.37579">
        <ele>918.9</ele>
        <time>2021-07-06T08:31:48Z</time>
      </trkpt>
      <trkpt lat="43.77967" lon="6.37594">
        <ele>918.4</ele>
        <time>2021-07-06T08:31:50Z</time>
      </trkpt>
      <trkpt lat="43.77973" lon="6.37609">
        <ele>917.9</ele>
        <time>2021-07-06T08:31:52Z</time>
      </trkpt>
      <trkpt lat="43.7798" lon="6.37625">
        <ele>916.9</ele>
        <time>2021-07-06T08:31:54Z</time>
      </trkpt>
      <trkpt lat="43.77987" lon="6.37642">
        <ele>915.9</ele>
        <time>2021-07-06T08:31:56Z</time>
      </trkpt>
      <trkpt lat="43.77994" lon="6.37657">
        <ele>915.4</ele>
        <time>2021-07-06T08:31:58Z</time>
      </trkpt>
      <trkpt lat="43.77998" lon="6.37666">
        <ele>915</ele>
        <time>2021-07-06T08:31:59Z</time>
      </trkpt>
      <trkpt lat="43.78001" lon="6.37674">
        <ele>914.5</ele>
        <time>2021-07-06T08:32:00Z</time>
      </trkpt>
      <trkpt lat="43.78006" lon="6.37683">
        <ele>913.7</ele>
        <time>2021-07-06T08:32:01Z</time>
      </trkpt>
      <trkpt lat="43.78009" lon="6.37693">
        <ele>913.5</ele>
        <time>2021-07-06T08:32:02Z</time>
      </trkpt>
      <trkpt lat="43.78013" lon="6.37702">
        <ele>913.1</ele>
        <time>2021-07-06T08:32:03Z</time>
      </trkpt>
      <trkpt lat="43.78016" lon="6.37712">
        <ele>912.6</ele>
        <time>2021-07-06T08:32:04Z</time>
      </trkpt>
      <trkpt lat="43.7802" lon="6.37723">
        <ele>912.4</ele>
        <time>2021-07-06T08:32:05Z</time>
      </trkpt>
      <trkpt lat="43.78024" lon="6.37732">
        <ele>911.9</ele>
        <time>2021-07-06T08:32:06Z</time>
      </trkpt>
      <trkpt lat="43.78028" lon="6.37743">
        <ele>911.4</ele>
        <time>2021-07-06T08:32:07Z</time>
      </trkpt>
      <trkpt lat="43.78031" lon="6.37753">
        <ele>910.9</ele>
        <time>2021-07-06T08:32:08Z</time>
      </trkpt>
      <trkpt lat="43.78034" lon="6.37763">
        <ele>910.4</ele>
        <time>2021-07-06T08:32:09Z</time>
      </trkpt>
      <trkpt lat="43.78037" lon="6.37773">
        <ele>910.7</ele>
        <time>2021-07-06T08:32:10Z</time>
      </trkpt>
      <trkpt lat="43.7804" lon="6.37784">
        <ele>910.7</ele>
        <time>2021-07-06T08:32:11Z</time>
      </trkpt>
      <trkpt lat="43.78042" lon="6.37795">
        <ele>910.9</ele>
        <time>2021-07-06T08:32:12Z</time>
      </trkpt>
      <trkpt lat="43.78045" lon="6.37806">
        <ele>910.6</ele>
        <time>2021-07-06T08:32:13Z</time>
      </trkpt>
      <trkpt lat="43.78047" lon="6.37816">
        <ele>910.2</ele>
        <time>2021-07-06T08:32:14Z</time>
      </trkpt>
      <trkpt lat="43.78048" lon="6.37827">
        <ele>909.6</ele>
        <time>2021-07-06T08:32:15Z</time>
      </trkpt>
      <trkpt lat="43.78049" lon="6.37838">
        <ele>909.2</ele>
        <time>2021-07-06T08:32:16Z</time>
      </trkpt>
      <trkpt lat="43.78051" lon="6.37851">
        <ele>909</ele>
        <time>2021-07-06T08:32:17Z</time>
      </trkpt>
      <trkpt lat="43.78052" lon="6.37862">
        <ele>908.4</ele>
        <time>2021-07-06T08:32:18Z</time>
      </trkpt>
      <trkpt lat="43.78054" lon="6.37873">
        <ele>908</ele>
        <time>2021-07-06T08:32:19Z</time>
      </trkpt>
      <trkpt lat="43.78054" lon="6.37884">
        <ele>907.6</ele>
        <time>2021-07-06T08:32:20Z</time>
      </trkpt>
      <trkpt lat="43.78054" lon="6.37895">
        <ele>908.3</ele>
        <time>2021-07-06T08:32:21Z</time>
      </trkpt>
      <trkpt lat="43.78055" lon="6.37905">
        <ele>908.1</ele>
        <time>2021-07-06T08:32:22Z</time>
      </trkpt>
      <trkpt lat="43.78055" lon="6.37915">
        <ele>908.7</ele>
        <time>2021-07-06T08:32:23Z</time>
      </trkpt>
      <trkpt lat="43.78056" lon="6.37934">
        <ele>908.6</ele>
        <time>2021-07-06T08:32:25Z</time>
      </trkpt>
      <trkpt lat="43.78058" lon="6.37951">
        <ele>908.3</ele>
        <time>2021-07-06T08:32:27Z</time>
      </trkpt>
      <trkpt lat="43.78058" lon="6.37967">
        <ele>908.1</ele>
        <time>2021-07-06T08:32:29Z</time>
      </trkpt>
      <trkpt lat="43.78058" lon="6.37979">
        <ele>908.1</ele>
        <time>2021-07-06T08:32:31Z</time>
      </trkpt>
      <trkpt lat="43.78058" lon="6.37989">
        <ele>909.3</ele>
        <time>2021-07-06T08:32:33Z</time>
      </trkpt>
      <trkpt lat="43.78058" lon="6.37999">
        <ele>909.9</ele>
        <time>2021-07-06T08:32:35Z</time>
      </trkpt>
      <trkpt lat="43.78059" lon="6.38012">
        <ele>909.9</ele>
        <time>2021-07-06T08:32:38Z</time>
      </trkpt>
      <trkpt lat="43.78059" lon="6.38024">
        <ele>910.7</ele>
        <time>2021-07-06T08:32:41Z</time>
      </trkpt>
      <trkpt lat="43.78058" lon="6.38036">
        <ele>911.6</ele>
        <time>2021-07-06T08:32:44Z</time>
      </trkpt>
      <trkpt lat="43.78059" lon="6.38049">
        <ele>912.1</ele>
        <time>2021-07-06T08:32:47Z</time>
      </trkpt>
      <trkpt lat="43.78059" lon="6.38061">
        <ele>913.2</ele>
        <time>2021-07-06T08:32:50Z</time>
      </trkpt>
      <trkpt lat="43.7806" lon="6.38072">
        <ele>914.1</ele>
        <time>2021-07-06T08:32:53Z</time>
      </trkpt>
      <trkpt lat="43.7806" lon="6.38083">
        <ele>914.6</ele>
        <time>2021-07-06T08:32:56Z</time>
      </trkpt>
      <trkpt lat="43.7806" lon="6.38095">
        <ele>914.9</ele>
        <time>2021-07-06T08:32:59Z</time>
      </trkpt>
      <trkpt lat="43.78061" lon="6.38106">
        <ele>915.2</ele>
        <time>2021-07-06T08:33:02Z</time>
      </trkpt>
      <trkpt lat="43.7806" lon="6.38117">
        <ele>916.6</ele>
        <time>2021-07-06T08:33:05Z</time>
      </trkpt>
      <trkpt lat="43.78059" lon="6.38129">
        <ele>917.2</ele>
        <time>2021-07-06T08:33:08Z</time>
      </trkpt>
      <trkpt lat="43.78058" lon="6.3814">
        <ele>918.4</ele>
        <time>2021-07-06T08:33:11Z</time>
      </trkpt>
      <trkpt lat="43.78057" lon="6.38152">
        <ele>918.5</ele>
        <time>2021-07-06T08:33:14Z</time>
      </trkpt>
      <trkpt lat="43.78057" lon="6.38162">
        <ele>919.5</ele>
        <time>2021-07-06T08:33:17Z</time>
      </trkpt>
      <trkpt lat="43.78056" lon="6.38173">
        <ele>920.2</ele>
        <time>2021-07-06T08:33:20Z</time>
      </trkpt>
      <trkpt lat="43.78055" lon="6.38184">
        <ele>921</ele>
        <time>2021-07-06T08:33:23Z</time>
      </trkpt>
      <trkpt lat="43.78054" lon="6.38195">
        <ele>921.9</ele>
        <time>2021-07-06T08:33:26Z</time>
      </trkpt>
      <trkpt lat="43.78054" lon="6.38206">
        <ele>922.7</ele>
        <time>2021-07-06T08:33:29Z</time>
      </trkpt>
      <trkpt lat="43.78055" lon="6.38218">
        <ele>923.3</ele>
        <time>2021-07-06T08:33:32Z</time>
      </trkpt>
      <trkpt lat="43.78056" lon="6.38229">
        <ele>924.3</ele>
        <time>2021-07-06T08:33:35Z</time>
      </trkpt>
      <trkpt lat="43.78056" lon="6.38239">
        <ele>925.3</ele>
        <time>2021-07-06T08:33:38Z</time>
      </trkpt>
      <trkpt lat="43.78056" lon="6.38249">
        <ele>926.5</ele>
        <time>2021-07-06T08:33:41Z</time>
      </trkpt>
      <trkpt lat="43.78057" lon="6.3826">
        <ele>928.6</ele>
        <time>2021-07-06T08:33:44Z</time>
      </trkpt>
      <trkpt lat="43.78057" lon="6.38272">
        <ele>928.7</ele>
        <time>2021-07-06T08:33:47Z</time>
      </trkpt>
      <trkpt lat="43.78057" lon="6.38283">
        <ele>928.6</ele>
        <time>2021-07-06T08:33:50Z</time>
      </trkpt>
      <trkpt lat="43.78057" lon="6.38295">
        <ele>928.6</ele>
        <time>2021-07-06T08:33:53Z</time>
      </trkpt>
      <trkpt lat="43.78056" lon="6.38307">
        <ele>929</ele>
        <time>2021-07-06T08:33:56Z</time>
      </trkpt>
      <trkpt lat="43.78055" lon="6.38319">
        <ele>929.4</ele>
        <time>2021-07-06T08:33:59Z</time>
      </trkpt>
      <trkpt lat="43.78055" lon="6.38331">
        <ele>930.3</ele>
        <time>2021-07-06T08:34:02Z</time>
      </trkpt>
      <trkpt lat="43.78054" lon="6.38343">
        <ele>930.9</ele>
        <time>2021-07-06T08:34:05Z</time>
      </trkpt>
      <trkpt lat="43.78055" lon="6.38354">
        <ele>932.1</ele>
        <time>2021-07-06T08:34:08Z</time>
      </trkpt>
      <trkpt lat="43.78055" lon="6.38366">
        <ele>932.8</ele>
        <time>2021-07-06T08:34:11Z</time>
      </trkpt>
      <trkpt lat="43.78055" lon="6.38377">
        <ele>933.5</ele>
        <time>2021-07-06T08:34:14Z</time>
      </trkpt>
      <trkpt lat="43.78054" lon="6.38389">
        <ele>934.5</ele>
        <time>2021-07-06T08:34:17Z</time>
      </trkpt>
      <trkpt lat="43.78054" lon="6.38402">
        <ele>935</ele>
        <time>2021-07-06T08:34:20Z</time>
      </trkpt>
      <trkpt lat="43.78054" lon="6.38414">
        <ele>935.5</ele>
        <time>2021-07-06T08:34:23Z</time>
      </trkpt>
      <trkpt lat="43.78055" lon="6.38426">
        <ele>935.9</ele>
        <time>2021-07-06T08:34:26Z</time>
      </trkpt>
      <trkpt lat="43.78056" lon="6.38438">
        <ele>936.3</ele>
        <time>2021-07-06T08:34:29Z</time>
      </trkpt>
      <trkpt lat="43.78058" lon="6.3845">
        <ele>937.3</ele>
        <time>2021-07-06T08:34:32Z</time>
      </trkpt>
      <trkpt lat="43.78058" lon="6.38462">
        <ele>938.3</ele>
        <time>2021-07-06T08:34:35Z</time>
      </trkpt>
      <trkpt lat="43.78059" lon="6.38474">
        <ele>938.8</ele>
        <time>2021-07-06T08:34:38Z</time>
      </trkpt>
      <trkpt lat="43.7806" lon="6.38486">
        <ele>938.4</ele>
        <time>2021-07-06T08:34:41Z</time>
      </trkpt>
      <trkpt lat="43.78061" lon="6.38497">
        <ele>938.5</ele>
        <time>2021-07-06T08:34:44Z</time>
      </trkpt>
      <trkpt lat="43.78061" lon="6.38509">
        <ele>939.1</ele>
        <time>2021-07-06T08:34:47Z</time>
      </trkpt>
      <trkpt lat="43.78061" lon="6.38521">
        <ele>940.2</ele>
        <time>2021-07-06T08:34:50Z</time>
      </trkpt>
      <trkpt lat="43.78059" lon="6.38533">
        <ele>941.1</ele>
        <time>2021-07-06T08:34:53Z</time>
      </trkpt>
      <trkpt lat="43.78056" lon="6.38545">
        <ele>941.9</ele>
        <time>2021-07-06T08:34:56Z</time>
      </trkpt>
      <trkpt lat="43.78052" lon="6.38556">
        <ele>942.8</ele>
        <time>2021-07-06T08:34:59Z</time>
      </trkpt>
      <trkpt lat="43.78049" lon="6.38566">
        <ele>943.2</ele>
        <time>2021-07-06T08:35:02Z</time>
      </trkpt>
      <trkpt lat="43.78046" lon="6.38578">
        <ele>942.8</ele>
        <time>2021-07-06T08:35:05Z</time>
      </trkpt>
      <trkpt lat="43.78042" lon="6.38588">
        <ele>943.1</ele>
        <time>2021-07-06T08:35:08Z</time>
      </trkpt>
      <trkpt lat="43.78039" lon="6.38599">
        <ele>943.7</ele>
        <time>2021-07-06T08:35:11Z</time>
      </trkpt>
      <trkpt lat="43.78036" lon="6.3861">
        <ele>944.6</ele>
        <time>2021-07-06T08:35:14Z</time>
      </trkpt>
      <trkpt lat="43.78034" lon="6.38621">
        <ele>944.5</ele>
        <time>2021-07-06T08:35:17Z</time>
      </trkpt>
      <trkpt lat="43.78033" lon="6.38633">
        <ele>945.6</ele>
        <time>2021-07-06T08:35:20Z</time>
      </trkpt>
      <trkpt lat="43.78034" lon="6.38646">
        <ele>946</ele>
        <time>2021-07-06T08:35:23Z</time>
      </trkpt>
      <trkpt lat="43.78034" lon="6.38658">
        <ele>947.4</ele>
        <time>2021-07-06T08:35:26Z</time>
      </trkpt>
      <trkpt lat="43.78034" lon="6.3867">
        <ele>948</ele>
        <time>2021-07-06T08:35:29Z</time>
      </trkpt>
      <trkpt lat="43.78034" lon="6.38681">
        <ele>948.6</ele>
        <time>2021-07-06T08:35:32Z</time>
      </trkpt>
      <trkpt lat="43.78034" lon="6.38694">
        <ele>949.2</ele>
        <time>2021-07-06T08:35:35Z</time>
      </trkpt>
      <trkpt lat="43.78035" lon="6.38707">
        <ele>949.6</ele>
        <time>2021-07-06T08:35:38Z</time>
      </trkpt>
      <trkpt lat="43.78035" lon="6.3872">
        <ele>950.7</ele>
        <time>2021-07-06T08:35:41Z</time>
      </trkpt>
      <trkpt lat="43.78036" lon="6.38732">
        <ele>951.6</ele>
        <time>2021-07-06T08:35:44Z</time>
      </trkpt>
      <trkpt lat="43.78037" lon="6.38745">
        <ele>952.3</ele>
        <time>2021-07-06T08:35:47Z</time>
      </trkpt>
      <trkpt lat="43.78038" lon="6.38757">
        <ele>953.4</ele>
        <time>2021-07-06T08:35:50Z</time>
      </trkpt>
      <trkpt lat="43.7804" lon="6.38769">
        <ele>954.1</ele>
        <time>2021-07-06T08:35:53Z</time>
      </trkpt>
      <trkpt lat="43.78041" lon="6.38781">
        <ele>955.2</ele>
        <time>2021-07-06T08:35:56Z</time>
      </trkpt>
      <trkpt lat="43.78043" lon="6.38794">
        <ele>955.6</ele>
        <time>2021-07-06T08:35:59Z</time>
      </trkpt>
      <trkpt lat="43.78045" lon="6.38806">
        <ele>955.8</ele>
        <time>2021-07-06T08:36:02Z</time>
      </trkpt>
      <trkpt lat="43.78048" lon="6.38818">
        <ele>956.6</ele>
        <time>2021-07-06T08:36:05Z</time>
      </trkpt>
      <trkpt lat="43.78051" lon="6.38831">
        <ele>957.3</ele>
        <time>2021-07-06T08:36:08Z</time>
      </trkpt>
      <trkpt lat="43.78054" lon="6.38843">
        <ele>958.2</ele>
        <time>2021-07-06T08:36:11Z</time>
      </trkpt>
      <trkpt lat="43.78057" lon="6.38855">
        <ele>959.2</ele>
        <time>2021-07-06T08:36:14Z</time>
      </trkpt>
      <trkpt lat="43.7806" lon="6.38868">
        <ele>959.7</ele>
        <time>2021-07-06T08:36:17Z</time>
      </trkpt>
      <trkpt lat="43.78062" lon="6.38881">
        <ele>959.9</ele>
        <time>2021-07-06T08:36:20Z</time>
      </trkpt>
      <trkpt lat="43.78065" lon="6.38893">
        <ele>961.2</ele>
        <time>2021-07-06T08:36:23Z</time>
      </trkpt>
      <trkpt lat="43.78068" lon="6.38905">
        <ele>962.3</ele>
        <time>2021-07-06T08:36:26Z</time>
      </trkpt>
      <trkpt lat="43.78071" lon="6.38916">
        <ele>963</ele>
        <time>2021-07-06T08:36:29Z</time>
      </trkpt>
      <trkpt lat="43.78074" lon="6.38928">
        <ele>964.2</ele>
        <time>2021-07-06T08:36:32Z</time>
      </trkpt>
      <trkpt lat="43.78076" lon="6.38939">
        <ele>964.8</ele>
        <time>2021-07-06T08:36:35Z</time>
      </trkpt>
      <trkpt lat="43.78079" lon="6.3895">
        <ele>965.8</ele>
        <time>2021-07-06T08:36:38Z</time>
      </trkpt>
      <trkpt lat="43.78082" lon="6.3896">
        <ele>966.1</ele>
        <time>2021-07-06T08:36:41Z</time>
      </trkpt>
      <trkpt lat="43.78085" lon="6.38971">
        <ele>966.8</ele>
        <time>2021-07-06T08:36:44Z</time>
      </trkpt>
      <trkpt lat="43.7809" lon="6.38981">
        <ele>968</ele>
        <time>2021-07-06T08:36:48Z</time>
      </trkpt>
      <trkpt lat="43.78092" lon="6.38991">
        <ele>969.2</ele>
        <time>2021-07-06T08:36:52Z</time>
      </trkpt>
      <trkpt lat="43.78097" lon="6.39001">
        <ele>969.7</ele>
        <time>2021-07-06T08:36:56Z</time>
      </trkpt>
      <trkpt lat="43.78101" lon="6.39011">
        <ele>969.8</ele>
        <time>2021-07-06T08:36:59Z</time>
      </trkpt>
      <trkpt lat="43.78104" lon="6.39022">
        <ele>970</ele>
        <time>2021-07-06T08:37:02Z</time>
      </trkpt>
      <trkpt lat="43.78106" lon="6.39034">
        <ele>970</ele>
        <time>2021-07-06T08:37:05Z</time>
      </trkpt>
      <trkpt lat="43.78105" lon="6.39045">
        <ele>970.7</ele>
        <time>2021-07-06T08:37:08Z</time>
      </trkpt>
      <trkpt lat="43.78098" lon="6.39052">
        <ele>972.6</ele>
        <time>2021-07-06T08:37:12Z</time>
      </trkpt>
      <trkpt lat="43.78089" lon="6.39053">
        <ele>974.2</ele>
        <time>2021-07-06T08:37:16Z</time>
      </trkpt>
      <trkpt lat="43.78082" lon="6.3905">
        <ele>974.4</ele>
        <time>2021-07-06T08:37:21Z</time>
      </trkpt>
      <trkpt lat="43.78082" lon="6.39049">
        <ele>974.8</ele>
        <time>2021-07-06T08:37:28Z</time>
      </trkpt>
      <trkpt lat="43.78082" lon="6.39049">
        <ele>975</ele>
        <time>2021-07-06T08:37:29Z</time>
      </trkpt>
      <trkpt lat="43.78089" lon="6.39054">
        <ele>974.3</ele>
        <time>2021-07-06T08:37:37Z</time>
      </trkpt>
      <trkpt lat="43.78088" lon="6.39059">
        <ele>976</ele>
        <time>2021-07-06T08:37:44Z</time>
      </trkpt>
      <trkpt lat="43.78089" lon="6.39059">
        <ele>975.6</ele>
        <time>2021-07-06T08:37:48Z</time>
      </trkpt>
      <trkpt lat="43.78085" lon="6.39054">
        <ele>974.7</ele>
        <time>2021-07-06T08:40:18Z</time>
      </trkpt>
      <trkpt lat="43.78082" lon="6.39048">
        <ele>974.7</ele>
        <time>2021-07-06T08:40:25Z</time>
      </trkpt>
      <trkpt lat="43.78082" lon="6.39046">
        <ele>974.9</ele>
        <time>2021-07-06T08:40:32Z</time>
      </trkpt>
      <trkpt lat="43.78083" lon="6.39035">
        <ele>973.2</ele>
        <time>2021-07-06T08:40:36Z</time>
      </trkpt>
      <trkpt lat="43.7808" lon="6.39025">
        <ele>973.6</ele>
        <time>2021-07-06T08:40:39Z</time>
      </trkpt>
      <trkpt lat="43.78078" lon="6.39015">
        <ele>973.2</ele>
        <time>2021-07-06T08:40:42Z</time>
      </trkpt>
      <trkpt lat="43.78075" lon="6.39005">
        <ele>974.2</ele>
        <time>2021-07-06T08:40:45Z</time>
      </trkpt>
      <trkpt lat="43.7807" lon="6.38996">
        <ele>975.1</ele>
        <time>2021-07-06T08:40:48Z</time>
      </trkpt>
      <trkpt lat="43.78065" lon="6.38987">
        <ele>976.3</ele>
        <time>2021-07-06T08:40:51Z</time>
      </trkpt>
      <trkpt lat="43.78061" lon="6.38978">
        <ele>976.5</ele>
        <time>2021-07-06T08:40:54Z</time>
      </trkpt>
      <trkpt lat="43.78055" lon="6.3897">
        <ele>976.5</ele>
        <time>2021-07-06T08:40:57Z</time>
      </trkpt>
      <trkpt lat="43.78049" lon="6.38961">
        <ele>976.2</ele>
        <time>2021-07-06T08:41:00Z</time>
      </trkpt>
      <trkpt lat="43.78043" lon="6.38952">
        <ele>976.8</ele>
        <time>2021-07-06T08:41:03Z</time>
      </trkpt>
      <trkpt lat="43.78037" lon="6.38944">
        <ele>978.1</ele>
        <time>2021-07-06T08:41:06Z</time>
      </trkpt>
      <trkpt lat="43.78031" lon="6.38936">
        <ele>978.1</ele>
        <time>2021-07-06T08:41:09Z</time>
      </trkpt>
      <trkpt lat="43.78027" lon="6.38927">
        <ele>978.4</ele>
        <time>2021-07-06T08:41:12Z</time>
      </trkpt>
      <trkpt lat="43.78022" lon="6.38916">
        <ele>978.8</ele>
        <time>2021-07-06T08:41:15Z</time>
      </trkpt>
      <trkpt lat="43.78019" lon="6.38906">
        <ele>980.3</ele>
        <time>2021-07-06T08:41:18Z</time>
      </trkpt>
      <trkpt lat="43.78014" lon="6.38897">
        <ele>981.2</ele>
        <time>2021-07-06T08:41:21Z</time>
      </trkpt>
      <trkpt lat="43.78007" lon="6.38893">
        <ele>982.9</ele>
        <time>2021-07-06T08:41:24Z</time>
      </trkpt>
      <trkpt lat="43.78" lon="6.38899">
        <ele>983</ele>
        <time>2021-07-06T08:41:27Z</time>
      </trkpt>
      <trkpt lat="43.77997" lon="6.3891">
        <ele>983.4</ele>
        <time>2021-07-06T08:41:30Z</time>
      </trkpt>
      <trkpt lat="43.77999" lon="6.38922">
        <ele>983.6</ele>
        <time>2021-07-06T08:41:33Z</time>
      </trkpt>
      <trkpt lat="43.78004" lon="6.38932">
        <ele>984.2</ele>
        <time>2021-07-06T08:41:36Z</time>
      </trkpt>
      <trkpt lat="43.7801" lon="6.38941">
        <ele>985.1</ele>
        <time>2021-07-06T08:41:39Z</time>
      </trkpt>
      <trkpt lat="43.78017" lon="6.38949">
        <ele>984.8</ele>
        <time>2021-07-06T08:41:42Z</time>
      </trkpt>
      <trkpt lat="43.78023" lon="6.38958">
        <ele>985</ele>
        <time>2021-07-06T08:41:45Z</time>
      </trkpt>
      <trkpt lat="43.78028" lon="6.3897">
        <ele>985.3</ele>
        <time>2021-07-06T08:41:48Z</time>
      </trkpt>
      <trkpt lat="43.78034" lon="6.3898">
        <ele>986.1</ele>
        <time>2021-07-06T08:41:51Z</time>
      </trkpt>
      <trkpt lat="43.7804" lon="6.38989">
        <ele>986.8</ele>
        <time>2021-07-06T08:41:54Z</time>
      </trkpt>
      <trkpt lat="43.78046" lon="6.38999">
        <ele>987.4</ele>
        <time>2021-07-06T08:41:57Z</time>
      </trkpt>
      <trkpt lat="43.78051" lon="6.39009">
        <ele>988</ele>
        <time>2021-07-06T08:42:00Z</time>
      </trkpt>
      <trkpt lat="43.78053" lon="6.39021">
        <ele>987</ele>
        <time>2021-07-06T08:42:03Z</time>
      </trkpt>
      <trkpt lat="43.78052" lon="6.39034">
        <ele>986.8</ele>
        <time>2021-07-06T08:42:06Z</time>
      </trkpt>
      <trkpt lat="43.78047" lon="6.39044">
        <ele>987.8</ele>
        <time>2021-07-06T08:42:10Z</time>
      </trkpt>
      <trkpt lat="43.78045" lon="6.39047">
        <ele>987.9</ele>
        <time>2021-07-06T08:42:17Z</time>
      </trkpt>
      <trkpt lat="43.78047" lon="6.39048">
        <ele>987</ele>
        <time>2021-07-06T08:42:24Z</time>
      </trkpt>
      <trkpt lat="43.78047" lon="6.39049">
        <ele>987.6</ele>
        <time>2021-07-06T08:42:26Z</time>
      </trkpt>
      <trkpt lat="43.78045" lon="6.39052">
        <ele>989.1</ele>
        <time>2021-07-06T08:42:33Z</time>
      </trkpt>
      <trkpt lat="43.78042" lon="6.39054">
        <ele>989.4</ele>
        <time>2021-07-06T08:42:40Z</time>
      </trkpt>
      <trkpt lat="43.7804" lon="6.39054">
        <ele>989.4</ele>
        <time>2021-07-06T08:42:47Z</time>
      </trkpt>
      <trkpt lat="43.78038" lon="6.39054">
        <ele>988.1</ele>
        <time>2021-07-06T08:42:54Z</time>
      </trkpt>
      <trkpt lat="43.78037" lon="6.39055">
        <ele>988</ele>
        <time>2021-07-06T08:42:58Z</time>
      </trkpt>
      <trkpt lat="43.78038" lon="6.39056">
        <ele>987.8</ele>
        <time>2021-07-06T08:44:04Z</time>
      </trkpt>
      <trkpt lat="43.78038" lon="6.39055">
        <ele>986.8</ele>
        <time>2021-07-06T08:44:05Z</time>
      </trkpt>
      <trkpt lat="43.78038" lon="6.39058">
        <ele>987</ele>
        <time>2021-07-06T08:44:12Z</time>
      </trkpt>
      <trkpt lat="43.78039" lon="6.39058">
        <ele>987.1</ele>
        <time>2021-07-06T08:44:16Z</time>
      </trkpt>
      <trkpt lat="43.78037" lon="6.39053">
        <ele>990.2</ele>
        <time>2021-07-06T08:45:09Z</time>
      </trkpt>
      <trkpt lat="43.78034" lon="6.39049">
        <ele>991.1</ele>
        <time>2021-07-06T08:45:16Z</time>
      </trkpt>
      <trkpt lat="43.78031" lon="6.39046">
        <ele>989.4</ele>
        <time>2021-07-06T08:45:23Z</time>
      </trkpt>
      <trkpt lat="43.78031" lon="6.39045">
        <ele>988.9</ele>
        <time>2021-07-06T08:45:30Z</time>
      </trkpt>
      <trkpt lat="43.78035" lon="6.39048">
        <ele>988.4</ele>
        <time>2021-07-06T08:45:41Z</time>
      </trkpt>
      <trkpt lat="43.78036" lon="6.39049">
        <ele>989.6</ele>
        <time>2021-07-06T08:45:48Z</time>
      </trkpt>
      <trkpt lat="43.78036" lon="6.39049">
        <ele>989.8</ele>
        <time>2021-07-06T08:45:51Z</time>
      </trkpt>
      <trkpt lat="43.7803" lon="6.39042">
        <ele>991.4</ele>
        <time>2021-07-06T08:46:42Z</time>
      </trkpt>
      <trkpt lat="43.78029" lon="6.3904">
        <ele>991.9</ele>
        <time>2021-07-06T08:46:49Z</time>
      </trkpt>
      <trkpt lat="43.78029" lon="6.3904">
        <ele>991.9</ele>
        <time>2021-07-06T08:46:50Z</time>
      </trkpt>
      <trkpt lat="43.78027" lon="6.3904">
        <ele>990.4</ele>
        <time>2021-07-06T08:46:59Z</time>
      </trkpt>
      <trkpt lat="43.78027" lon="6.3904">
        <ele>990.4</ele>
        <time>2021-07-06T08:47:00Z</time>
      </trkpt>
      <trkpt lat="43.78031" lon="6.3904">
        <ele>990.9</ele>
        <time>2021-07-06T08:58:07Z</time>
      </trkpt>
      <trkpt lat="43.78038" lon="6.39045">
        <ele>988.9</ele>
        <time>2021-07-06T08:58:14Z</time>
      </trkpt>
      <trkpt lat="43.78044" lon="6.39049">
        <ele>989.6</ele>
        <time>2021-07-06T08:58:21Z</time>
      </trkpt>
      <trkpt lat="43.78045" lon="6.39048">
        <ele>990.8</ele>
        <time>2021-07-06T08:58:28Z</time>
      </trkpt>
      <trkpt lat="43.78041" lon="6.39044">
        <ele>991.6</ele>
        <time>2021-07-06T08:58:36Z</time>
      </trkpt>
      <trkpt lat="43.78035" lon="6.39037">
        <ele>991.9</ele>
        <time>2021-07-06T08:58:39Z</time>
      </trkpt>
      <trkpt lat="43.78029" lon="6.39027">
        <ele>991.2</ele>
        <time>2021-07-06T08:58:43Z</time>
      </trkpt>
      <trkpt lat="43.78023" lon="6.39018">
        <ele>992.5</ele>
        <time>2021-07-06T08:58:47Z</time>
      </trkpt>
      <trkpt lat="43.78019" lon="6.39007">
        <ele>992.5</ele>
        <time>2021-07-06T08:58:51Z</time>
      </trkpt>
      <trkpt lat="43.78016" lon="6.38997">
        <ele>993.3</ele>
        <time>2021-07-06T08:58:54Z</time>
      </trkpt>
      <trkpt lat="43.78014" lon="6.38988">
        <ele>993.4</ele>
        <time>2021-07-06T08:58:57Z</time>
      </trkpt>
      <trkpt lat="43.78009" lon="6.38979">
        <ele>993</ele>
        <time>2021-07-06T08:59:00Z</time>
      </trkpt>
      <trkpt lat="43.78005" lon="6.3897">
        <ele>994.1</ele>
        <time>2021-07-06T08:59:03Z</time>
      </trkpt>
      <trkpt lat="43.77999" lon="6.38962">
        <ele>995.1</ele>
        <time>2021-07-06T08:59:06Z</time>
      </trkpt>
      <trkpt lat="43.77994" lon="6.38955">
        <ele>995.2</ele>
        <time>2021-07-06T08:59:09Z</time>
      </trkpt>
      <trkpt lat="43.77988" lon="6.38948">
        <ele>996.7</ele>
        <time>2021-07-06T08:59:12Z</time>
      </trkpt>
      <trkpt lat="43.77983" lon="6.38941">
        <ele>996.6</ele>
        <time>2021-07-06T08:59:15Z</time>
      </trkpt>
      <trkpt lat="43.77978" lon="6.38934">
        <ele>997.1</ele>
        <time>2021-07-06T08:59:18Z</time>
      </trkpt>
      <trkpt lat="43.77972" lon="6.38927">
        <ele>996.8</ele>
        <time>2021-07-06T08:59:21Z</time>
      </trkpt>
      <trkpt lat="43.77967" lon="6.38918">
        <ele>996.9</ele>
        <time>2021-07-06T08:59:24Z</time>
      </trkpt>
      <trkpt lat="43.77962" lon="6.3891">
        <ele>997.2</ele>
        <time>2021-07-06T08:59:27Z</time>
      </trkpt>
      <trkpt lat="43.77956" lon="6.38903">
        <ele>996.9</ele>
        <time>2021-07-06T08:59:30Z</time>
      </trkpt>
      <trkpt lat="43.77951" lon="6.38895">
        <ele>996.6</ele>
        <time>2021-07-06T08:59:33Z</time>
      </trkpt>
      <trkpt lat="43.77945" lon="6.38887">
        <ele>997.4</ele>
        <time>2021-07-06T08:59:36Z</time>
      </trkpt>
      <trkpt lat="43.7794" lon="6.38878">
        <ele>997.4</ele>
        <time>2021-07-06T08:59:39Z</time>
      </trkpt>
      <trkpt lat="43.77935" lon="6.38869">
        <ele>997.1</ele>
        <time>2021-07-06T08:59:42Z</time>
      </trkpt>
      <trkpt lat="43.77929" lon="6.38859">
        <ele>998.6</ele>
        <time>2021-07-06T08:59:45Z</time>
      </trkpt>
      <trkpt lat="43.77924" lon="6.3885">
        <ele>998.4</ele>
        <time>2021-07-06T08:59:48Z</time>
      </trkpt>
      <trkpt lat="43.77919" lon="6.38841">
        <ele>999.7</ele>
        <time>2021-07-06T08:59:51Z</time>
      </trkpt>
      <trkpt lat="43.77914" lon="6.38832">
        <ele>1000.4</ele>
        <time>2021-07-06T08:59:54Z</time>
      </trkpt>
      <trkpt lat="43.77909" lon="6.38823">
        <ele>1001.3</ele>
        <time>2021-07-06T08:59:57Z</time>
      </trkpt>
      <trkpt lat="43.77903" lon="6.38814">
        <ele>1001.3</ele>
        <time>2021-07-06T09:00:00Z</time>
      </trkpt>
      <trkpt lat="43.77898" lon="6.38805">
        <ele>1002.7</ele>
        <time>2021-07-06T09:00:03Z</time>
      </trkpt>
      <trkpt lat="43.77894" lon="6.38796">
        <ele>1003.9</ele>
        <time>2021-07-06T09:00:06Z</time>
      </trkpt>
      <trkpt lat="43.77889" lon="6.38786">
        <ele>1004.2</ele>
        <time>2021-07-06T09:00:09Z</time>
      </trkpt>
      <trkpt lat="43.77885" lon="6.38776">
        <ele>1004.7</ele>
        <time>2021-07-06T09:00:12Z</time>
      </trkpt>
      <trkpt lat="43.7788" lon="6.38765">
        <ele>1006.2</ele>
        <time>2021-07-06T09:00:15Z</time>
      </trkpt>
      <trkpt lat="43.77875" lon="6.38756">
        <ele>1005.9</ele>
        <time>2021-07-06T09:00:18Z</time>
      </trkpt>
      <trkpt lat="43.7787" lon="6.38746">
        <ele>1006.7</ele>
        <time>2021-07-06T09:00:21Z</time>
      </trkpt>
      <trkpt lat="43.77865" lon="6.38736">
        <ele>1007</ele>
        <time>2021-07-06T09:00:24Z</time>
      </trkpt>
      <trkpt lat="43.77861" lon="6.38727">
        <ele>1007.2</ele>
        <time>2021-07-06T09:00:27Z</time>
      </trkpt>
      <trkpt lat="43.77856" lon="6.38718">
        <ele>1008.4</ele>
        <time>2021-07-06T09:00:30Z</time>
      </trkpt>
      <trkpt lat="43.77851" lon="6.38708">
        <ele>1008.4</ele>
        <time>2021-07-06T09:00:33Z</time>
      </trkpt>
      <trkpt lat="43.77847" lon="6.38697">
        <ele>1009.1</ele>
        <time>2021-07-06T09:00:36Z</time>
      </trkpt>
      <trkpt lat="43.77843" lon="6.38687">
        <ele>1010.2</ele>
        <time>2021-07-06T09:00:39Z</time>
      </trkpt>
      <trkpt lat="43.77839" lon="6.38677">
        <ele>1010.8</ele>
        <time>2021-07-06T09:00:42Z</time>
      </trkpt>
      <trkpt lat="43.77835" lon="6.38666">
        <ele>1011.2</ele>
        <time>2021-07-06T09:00:45Z</time>
      </trkpt>
      <trkpt lat="43.77831" lon="6.38656">
        <ele>1012.4</ele>
        <time>2021-07-06T09:00:48Z</time>
      </trkpt>
      <trkpt lat="43.77827" lon="6.38645">
        <ele>1013.9</ele>
        <time>2021-07-06T09:00:51Z</time>
      </trkpt>
      <trkpt lat="43.77823" lon="6.38635">
        <ele>1014.8</ele>
        <time>2021-07-06T09:00:54Z</time>
      </trkpt>
      <trkpt lat="43.77819" lon="6.38625">
        <ele>1015.9</ele>
        <time>2021-07-06T09:00:57Z</time>
      </trkpt>
      <trkpt lat="43.77816" lon="6.38614">
        <ele>1016.9</ele>
        <time>2021-07-06T09:01:00Z</time>
      </trkpt>
      <trkpt lat="43.77812" lon="6.38604">
        <ele>1017.6</ele>
        <time>2021-07-06T09:01:03Z</time>
      </trkpt>
      <trkpt lat="43.7781" lon="6.38592">
        <ele>1018.4</ele>
        <time>2021-07-06T09:01:06Z</time>
      </trkpt>
      <trkpt lat="43.77806" lon="6.38582">
        <ele>1019</ele>
        <time>2021-07-06T09:01:09Z</time>
      </trkpt>
      <trkpt lat="43.77803" lon="6.38571">
        <ele>1020.8</ele>
        <time>2021-07-06T09:01:12Z</time>
      </trkpt>
      <trkpt lat="43.778" lon="6.38561">
        <ele>1021.9</ele>
        <time>2021-07-06T09:01:15Z</time>
      </trkpt>
      <trkpt lat="43.77796" lon="6.3855">
        <ele>1022.5</ele>
        <time>2021-07-06T09:01:18Z</time>
      </trkpt>
      <trkpt lat="43.77793" lon="6.3854">
        <ele>1023.2</ele>
        <time>2021-07-06T09:01:21Z</time>
      </trkpt>
      <trkpt lat="43.7779" lon="6.3853">
        <ele>1024.6</ele>
        <time>2021-07-06T09:01:24Z</time>
      </trkpt>
      <trkpt lat="43.77786" lon="6.3852">
        <ele>1025.4</ele>
        <time>2021-07-06T09:01:27Z</time>
      </trkpt>
      <trkpt lat="43.77782" lon="6.3851">
        <ele>1026.6</ele>
        <time>2021-07-06T09:01:30Z</time>
      </trkpt>
      <trkpt lat="43.77779" lon="6.385">
        <ele>1027.1</ele>
        <time>2021-07-06T09:01:33Z</time>
      </trkpt>
      <trkpt lat="43.77774" lon="6.3849">
        <ele>1027.7</ele>
        <time>2021-07-06T09:01:36Z</time>
      </trkpt>
      <trkpt lat="43.7777" lon="6.38479">
        <ele>1028.5</ele>
        <time>2021-07-06T09:01:39Z</time>
      </trkpt>
      <trkpt lat="43.77765" lon="6.3847">
        <ele>1029</ele>
        <time>2021-07-06T09:01:42Z</time>
      </trkpt>
      <trkpt lat="43.77761" lon="6.3846">
        <ele>1030.3</ele>
        <time>2021-07-06T09:01:45Z</time>
      </trkpt>
      <trkpt lat="43.77757" lon="6.38449">
        <ele>1031.2</ele>
        <time>2021-07-06T09:01:48Z</time>
      </trkpt>
      <trkpt lat="43.77753" lon="6.38439">
        <ele>1031.7</ele>
        <time>2021-07-06T09:01:51Z</time>
      </trkpt>
      <trkpt lat="43.77749" lon="6.38429">
        <ele>1032.1</ele>
        <time>2021-07-06T09:01:54Z</time>
      </trkpt>
      <trkpt lat="43.77745" lon="6.38418">
        <ele>1032.7</ele>
        <time>2021-07-06T09:01:57Z</time>
      </trkpt>
      <trkpt lat="43.77742" lon="6.38408">
        <ele>1033.4</ele>
        <time>2021-07-06T09:02:00Z</time>
      </trkpt>
      <trkpt lat="43.77738" lon="6.38398">
        <ele>1034.6</ele>
        <time>2021-07-06T09:02:03Z</time>
      </trkpt>
      <trkpt lat="43.77734" lon="6.38388">
        <ele>1035.2</ele>
        <time>2021-07-06T09:02:06Z</time>
      </trkpt>
      <trkpt lat="43.7773" lon="6.38378">
        <ele>1037.2</ele>
        <time>2021-07-06T09:02:09Z</time>
      </trkpt>
      <trkpt lat="43.77726" lon="6.38367">
        <ele>1037.5</ele>
        <time>2021-07-06T09:02:12Z</time>
      </trkpt>
      <trkpt lat="43.77723" lon="6.38357">
        <ele>1039.1</ele>
        <time>2021-07-06T09:02:15Z</time>
      </trkpt>
      <trkpt lat="43.7772" lon="6.38347">
        <ele>1040</ele>
        <time>2021-07-06T09:02:18Z</time>
      </trkpt>
      <trkpt lat="43.77716" lon="6.38337">
        <ele>1041.1</ele>
        <time>2021-07-06T09:02:21Z</time>
      </trkpt>
      <trkpt lat="43.77712" lon="6.38327">
        <ele>1042.7</ele>
        <time>2021-07-06T09:02:24Z</time>
      </trkpt>
      <trkpt lat="43.77709" lon="6.38317">
        <ele>1043.9</ele>
        <time>2021-07-06T09:02:27Z</time>
      </trkpt>
      <trkpt lat="43.77704" lon="6.38307">
        <ele>1045</ele>
        <time>2021-07-06T09:02:30Z</time>
      </trkpt>
      <trkpt lat="43.777" lon="6.38297">
        <ele>1046.3</ele>
        <time>2021-07-06T09:02:33Z</time>
      </trkpt>
      <trkpt lat="43.77695" lon="6.38287">
        <ele>1047.4</ele>
        <time>2021-07-06T09:02:36Z</time>
      </trkpt>
      <trkpt lat="43.7769" lon="6.38277">
        <ele>1048.1</ele>
        <time>2021-07-06T09:02:39Z</time>
      </trkpt>
      <trkpt lat="43.77684" lon="6.38268">
        <ele>1048.4</ele>
        <time>2021-07-06T09:02:42Z</time>
      </trkpt>
      <trkpt lat="43.77679" lon="6.3826">
        <ele>1048.3</ele>
        <time>2021-07-06T09:02:45Z</time>
      </trkpt>
      <trkpt lat="43.77673" lon="6.38252">
        <ele>1049.1</ele>
        <time>2021-07-06T09:02:48Z</time>
      </trkpt>
      <trkpt lat="43.77667" lon="6.38243">
        <ele>1049.2</ele>
        <time>2021-07-06T09:02:51Z</time>
      </trkpt>
      <trkpt lat="43.7766" lon="6.38235">
        <ele>1049.6</ele>
        <time>2021-07-06T09:02:54Z</time>
      </trkpt>
      <trkpt lat="43.77653" lon="6.38226">
        <ele>1049.4</ele>
        <time>2021-07-06T09:02:57Z</time>
      </trkpt>
      <trkpt lat="43.77647" lon="6.38217">
        <ele>1050.8</ele>
        <time>2021-07-06T09:03:00Z</time>
      </trkpt>
      <trkpt lat="43.77641" lon="6.3821">
        <ele>1053.6</ele>
        <time>2021-07-06T09:03:03Z</time>
      </trkpt>
      <trkpt lat="43.77634" lon="6.38202">
        <ele>1054.1</ele>
        <time>2021-07-06T09:03:06Z</time>
      </trkpt>
      <trkpt lat="43.77628" lon="6.38195">
        <ele>1053.7</ele>
        <time>2021-07-06T09:03:09Z</time>
      </trkpt>
      <trkpt lat="43.77621" lon="6.38187">
        <ele>1055</ele>
        <time>2021-07-06T09:03:12Z</time>
      </trkpt>
      <trkpt lat="43.77614" lon="6.38181">
        <ele>1056.2</ele>
        <time>2021-07-06T09:03:15Z</time>
      </trkpt>
      <trkpt lat="43.77607" lon="6.38175">
        <ele>1057.4</ele>
        <time>2021-07-06T09:03:18Z</time>
      </trkpt>
      <trkpt lat="43.77599" lon="6.38169">
        <ele>1058.5</ele>
        <time>2021-07-06T09:03:21Z</time>
      </trkpt>
      <trkpt lat="43.77592" lon="6.38163">
        <ele>1059.3</ele>
        <time>2021-07-06T09:03:24Z</time>
      </trkpt>
      <trkpt lat="43.77586" lon="6.38155">
        <ele>1059.6</ele>
        <time>2021-07-06T09:03:27Z</time>
      </trkpt>
      <trkpt lat="43.7758" lon="6.38148">
        <ele>1060.5</ele>
        <time>2021-07-06T09:03:30Z</time>
      </trkpt>
      <trkpt lat="43.77574" lon="6.38139">
        <ele>1060.7</ele>
        <time>2021-07-06T09:03:33Z</time>
      </trkpt>
      <trkpt lat="43.7757" lon="6.38129">
        <ele>1061.9</ele>
        <time>2021-07-06T09:03:36Z</time>
      </trkpt>
      <trkpt lat="43.77566" lon="6.3812">
        <ele>1064.5</ele>
        <time>2021-07-06T09:03:39Z</time>
      </trkpt>
      <trkpt lat="43.77562" lon="6.3811">
        <ele>1067</ele>
        <time>2021-07-06T09:03:42Z</time>
      </trkpt>
      <trkpt lat="43.77559" lon="6.381">
        <ele>1067.6</ele>
        <time>2021-07-06T09:03:45Z</time>
      </trkpt>
      <trkpt lat="43.77556" lon="6.38089">
        <ele>1068.9</ele>
        <time>2021-07-06T09:03:48Z</time>
      </trkpt>
      <trkpt lat="43.77554" lon="6.38077">
        <ele>1069.4</ele>
        <time>2021-07-06T09:03:51Z</time>
      </trkpt>
      <trkpt lat="43.77553" lon="6.38065">
        <ele>1070.2</ele>
        <time>2021-07-06T09:03:54Z</time>
      </trkpt>
      <trkpt lat="43.77552" lon="6.38053">
        <ele>1070.4</ele>
        <time>2021-07-06T09:03:57Z</time>
      </trkpt>
      <trkpt lat="43.77552" lon="6.38041">
        <ele>1071.8</ele>
        <time>2021-07-06T09:04:00Z</time>
      </trkpt>
      <trkpt lat="43.77551" lon="6.3803">
        <ele>1072.7</ele>
        <time>2021-07-06T09:04:03Z</time>
      </trkpt>
      <trkpt lat="43.77549" lon="6.38018">
        <ele>1072.8</ele>
        <time>2021-07-06T09:04:06Z</time>
      </trkpt>
      <trkpt lat="43.77544" lon="6.38009">
        <ele>1073.8</ele>
        <time>2021-07-06T09:04:09Z</time>
      </trkpt>
      <trkpt lat="43.77535" lon="6.38008">
        <ele>1073.2</ele>
        <time>2021-07-06T09:04:12Z</time>
      </trkpt>
      <trkpt lat="43.77526" lon="6.38013">
        <ele>1072.4</ele>
        <time>2021-07-06T09:04:15Z</time>
      </trkpt>
      <trkpt lat="43.77521" lon="6.38023">
        <ele>1073.4</ele>
        <time>2021-07-06T09:04:18Z</time>
      </trkpt>
      <trkpt lat="43.7752" lon="6.38036">
        <ele>1074.1</ele>
        <time>2021-07-06T09:04:21Z</time>
      </trkpt>
      <trkpt lat="43.77521" lon="6.38048">
        <ele>1075</ele>
        <time>2021-07-06T09:04:24Z</time>
      </trkpt>
      <trkpt lat="43.77521" lon="6.3806">
        <ele>1076.5</ele>
        <time>2021-07-06T09:04:27Z</time>
      </trkpt>
      <trkpt lat="43.77522" lon="6.38071">
        <ele>1078.8</ele>
        <time>2021-07-06T09:04:30Z</time>
      </trkpt>
      <trkpt lat="43.77523" lon="6.38081">
        <ele>1079.5</ele>
        <time>2021-07-06T09:04:33Z</time>
      </trkpt>
      <trkpt lat="43.77522" lon="6.38093">
        <ele>1080.5</ele>
        <time>2021-07-06T09:04:36Z</time>
      </trkpt>
      <trkpt lat="43.77522" lon="6.38106">
        <ele>1080.5</ele>
        <time>2021-07-06T09:04:39Z</time>
      </trkpt>
      <trkpt lat="43.7752" lon="6.38118">
        <ele>1080.8</ele>
        <time>2021-07-06T09:04:42Z</time>
      </trkpt>
      <trkpt lat="43.7752" lon="6.3813">
        <ele>1082.4</ele>
        <time>2021-07-06T09:04:45Z</time>
      </trkpt>
      <trkpt lat="43.77519" lon="6.38143">
        <ele>1083.5</ele>
        <time>2021-07-06T09:04:48Z</time>
      </trkpt>
      <trkpt lat="43.77518" lon="6.38155">
        <ele>1084.4</ele>
        <time>2021-07-06T09:04:51Z</time>
      </trkpt>
      <trkpt lat="43.77515" lon="6.38167">
        <ele>1085.3</ele>
        <time>2021-07-06T09:04:54Z</time>
      </trkpt>
      <trkpt lat="43.77515" lon="6.38179">
        <ele>1086.1</ele>
        <time>2021-07-06T09:04:57Z</time>
      </trkpt>
      <trkpt lat="43.77514" lon="6.38192">
        <ele>1088</ele>
        <time>2021-07-06T09:05:00Z</time>
      </trkpt>
      <trkpt lat="43.77513" lon="6.38204">
        <ele>1088.7</ele>
        <time>2021-07-06T09:05:03Z</time>
      </trkpt>
      <trkpt lat="43.77512" lon="6.38216">
        <ele>1089.7</ele>
        <time>2021-07-06T09:05:06Z</time>
      </trkpt>
      <trkpt lat="43.77511" lon="6.38228">
        <ele>1090.6</ele>
        <time>2021-07-06T09:05:09Z</time>
      </trkpt>
      <trkpt lat="43.77511" lon="6.38241">
        <ele>1091.1</ele>
        <time>2021-07-06T09:05:12Z</time>
      </trkpt>
      <trkpt lat="43.77511" lon="6.38252">
        <ele>1091.1</ele>
        <time>2021-07-06T09:05:15Z</time>
      </trkpt>
      <trkpt lat="43.7751" lon="6.38265">
        <ele>1092.4</ele>
        <time>2021-07-06T09:05:18Z</time>
      </trkpt>
      <trkpt lat="43.77512" lon="6.38278">
        <ele>1093.8</ele>
        <time>2021-07-06T09:05:21Z</time>
      </trkpt>
      <trkpt lat="43.77515" lon="6.3829">
        <ele>1092.9</ele>
        <time>2021-07-06T09:05:24Z</time>
      </trkpt>
      <trkpt lat="43.77518" lon="6.38303">
        <ele>1092.6</ele>
        <time>2021-07-06T09:05:27Z</time>
      </trkpt>
      <trkpt lat="43.77522" lon="6.38315">
        <ele>1093.7</ele>
        <time>2021-07-06T09:05:30Z</time>
      </trkpt>
      <trkpt lat="43.77526" lon="6.38326">
        <ele>1093.6</ele>
        <time>2021-07-06T09:05:33Z</time>
      </trkpt>
      <trkpt lat="43.77531" lon="6.38337">
        <ele>1094.2</ele>
        <time>2021-07-06T09:05:36Z</time>
      </trkpt>
      <trkpt lat="43.77533" lon="6.38349">
        <ele>1093.6</ele>
        <time>2021-07-06T09:05:39Z</time>
      </trkpt>
      <trkpt lat="43.77537" lon="6.38359">
        <ele>1093.2</ele>
        <time>2021-07-06T09:05:42Z</time>
      </trkpt>
      <trkpt lat="43.7754" lon="6.3837">
        <ele>1093.9</ele>
        <time>2021-07-06T09:05:46Z</time>
      </trkpt>
      <trkpt lat="43.77544" lon="6.38383">
        <ele>1094.8</ele>
        <time>2021-07-06T09:05:50Z</time>
      </trkpt>
      <trkpt lat="43.77549" lon="6.3839">
        <ele>1096.4</ele>
        <time>2021-07-06T09:05:55Z</time>
      </trkpt>
      <trkpt lat="43.7755" lon="6.38392">
        <ele>1080.9</ele>
        <time>2021-07-06T09:06:02Z</time>
      </trkpt>
      <trkpt lat="43.77548" lon="6.38399">
        <ele>1097.1</ele>
        <time>2021-07-06T09:06:09Z</time>
      </trkpt>
      <trkpt lat="43.77549" lon="6.38399">
        <ele>1098.7</ele>
        <time>2021-07-06T09:06:16Z</time>
      </trkpt>
      <trkpt lat="43.77544" lon="6.38405">
        <ele>1101.9</ele>
        <time>2021-07-06T09:06:23Z</time>
      </trkpt>
      <trkpt lat="43.77539" lon="6.38406">
        <ele>1101.5</ele>
        <time>2021-07-06T09:06:30Z</time>
      </trkpt>
      <trkpt lat="43.77538" lon="6.38406">
        <ele>1102.2</ele>
        <time>2021-07-06T09:06:37Z</time>
      </trkpt>
      <trkpt lat="43.77537" lon="6.38406">
        <ele>1101.9</ele>
        <time>2021-07-06T09:06:49Z</time>
      </trkpt>
      <trkpt lat="43.77537" lon="6.38406">
        <ele>1101.8</ele>
        <time>2021-07-06T09:06:50Z</time>
      </trkpt>
      <trkpt lat="43.77535" lon="6.38406">
        <ele>1103.4</ele>
        <time>2021-07-06T09:07:32Z</time>
      </trkpt>
      <trkpt lat="43.77535" lon="6.38407">
        <ele>1103.6</ele>
        <time>2021-07-06T09:07:36Z</time>
      </trkpt>
      <trkpt lat="43.77535" lon="6.38406">
        <ele>1102.9</ele>
        <time>2021-07-06T09:07:43Z</time>
      </trkpt>
      <trkpt lat="43.77535" lon="6.38406">
        <ele>1103.3</ele>
        <time>2021-07-06T09:07:44Z</time>
      </trkpt>
      <trkpt lat="43.77535" lon="6.38406">
        <ele>1104.1</ele>
        <time>2021-07-06T09:07:54Z</time>
      </trkpt>
      <trkpt lat="43.77536" lon="6.38406">
        <ele>1104.6</ele>
        <time>2021-07-06T09:08:01Z</time>
      </trkpt>
      <trkpt lat="43.77536" lon="6.38406">
        <ele>1104.2</ele>
        <time>2021-07-06T09:08:02Z</time>
      </trkpt>
      <trkpt lat="43.77529" lon="6.38408">
        <ele>1107.3</ele>
        <time>2021-07-06T09:08:10Z</time>
      </trkpt>
      <trkpt lat="43.77529" lon="6.38408">
        <ele>1106.1</ele>
        <time>2021-07-06T09:08:17Z</time>
      </trkpt>
      <trkpt lat="43.77529" lon="6.38408">
        <ele>1106.1</ele>
        <time>2021-07-06T09:08:18Z</time>
      </trkpt>
      <trkpt lat="43.77529" lon="6.38408">
        <ele>1105.7</ele>
        <time>2021-07-06T09:08:33Z</time>
      </trkpt>
      <trkpt lat="43.77529" lon="6.38408">
        <ele>1105.7</ele>
        <time>2021-07-06T09:08:34Z</time>
      </trkpt>
      <trkpt lat="43.77524" lon="6.38407">
        <ele>1111.3</ele>
        <time>2021-07-06T09:09:01Z</time>
      </trkpt>
      <trkpt lat="43.77522" lon="6.38406">
        <ele>1111.2</ele>
        <time>2021-07-06T09:09:08Z</time>
      </trkpt>
      <trkpt lat="43.77522" lon="6.38407">
        <ele>1111.3</ele>
        <time>2021-07-06T09:09:11Z</time>
      </trkpt>
      <trkpt lat="43.77522" lon="6.38406">
        <ele>1109.9</ele>
        <time>2021-07-06T09:09:29Z</time>
      </trkpt>
      <trkpt lat="43.77522" lon="6.38405">
        <ele>1109.8</ele>
        <time>2021-07-06T09:09:30Z</time>
      </trkpt>
      <trkpt lat="43.77522" lon="6.38405">
        <ele>1109.4</ele>
        <time>2021-07-06T09:09:43Z</time>
      </trkpt>
      <trkpt lat="43.77522" lon="6.38405">
        <ele>1109.4</ele>
        <time>2021-07-06T09:09:44Z</time>
      </trkpt>
      <trkpt lat="43.77522" lon="6.38404">
        <ele>1110.7</ele>
        <time>2021-07-06T09:09:52Z</time>
      </trkpt>
      <trkpt lat="43.77521" lon="6.38404">
        <ele>1110.6</ele>
        <time>2021-07-06T09:09:53Z</time>
      </trkpt>
      <trkpt lat="43.7752" lon="6.38404">
        <ele>1106.7</ele>
        <time>2021-07-06T09:10:07Z</time>
      </trkpt>
      <trkpt lat="43.7752" lon="6.38404">
        <ele>1106.7</ele>
        <time>2021-07-06T09:10:10Z</time>
      </trkpt>
      <trkpt lat="43.77519" lon="6.38403">
        <ele>1107.3</ele>
        <time>2021-07-06T09:10:34Z</time>
      </trkpt>
      <trkpt lat="43.77519" lon="6.38403">
        <ele>1107.2</ele>
        <time>2021-07-06T09:10:36Z</time>
      </trkpt>
      <trkpt lat="43.77518" lon="6.38403">
        <ele>1106.7</ele>
        <time>2021-07-06T09:10:47Z</time>
      </trkpt>
      <trkpt lat="43.77519" lon="6.38403">
        <ele>1107.5</ele>
        <time>2021-07-06T09:10:54Z</time>
      </trkpt>
      <trkpt lat="43.77519" lon="6.38403">
        <ele>1107.1</ele>
        <time>2021-07-06T09:10:56Z</time>
      </trkpt>
      <trkpt lat="43.77518" lon="6.38401">
        <ele>1106.4</ele>
        <time>2021-07-06T09:11:34Z</time>
      </trkpt>
      <trkpt lat="43.77516" lon="6.38401">
        <ele>1105.5</ele>
        <time>2021-07-06T09:11:41Z</time>
      </trkpt>
      <trkpt lat="43.77516" lon="6.38401">
        <ele>1105.5</ele>
        <time>2021-07-06T09:11:42Z</time>
      </trkpt>
      <trkpt lat="43.77515" lon="6.38401">
        <ele>1105.7</ele>
        <time>2021-07-06T09:11:52Z</time>
      </trkpt>
      <trkpt lat="43.77515" lon="6.38401">
        <ele>1105.7</ele>
        <time>2021-07-06T09:11:53Z</time>
      </trkpt>
      <trkpt lat="43.77517" lon="6.38393">
        <ele>1106.3</ele>
        <time>2021-07-06T09:14:55Z</time>
      </trkpt>
      <trkpt lat="43.77518" lon="6.38384">
        <ele>1104.4</ele>
        <time>2021-07-06T09:15:02Z</time>
      </trkpt>
      <trkpt lat="43.77518" lon="6.38377">
        <ele>1103.4</ele>
        <time>2021-07-06T09:15:09Z</time>
      </trkpt>
      <trkpt lat="43.77516" lon="6.3837">
        <ele>1102.6</ele>
        <time>2021-07-06T09:15:16Z</time>
      </trkpt>
      <trkpt lat="43.77514" lon="6.38366">
        <ele>1102.6</ele>
        <time>2021-07-06T09:15:23Z</time>
      </trkpt>
      <trkpt lat="43.77513" lon="6.38365">
        <ele>1104.4</ele>
        <time>2021-07-06T09:15:30Z</time>
      </trkpt>
      <trkpt lat="43.77513" lon="6.38365">
        <ele>1104.8</ele>
        <time>2021-07-06T09:15:31Z</time>
      </trkpt>
      <trkpt lat="43.77511" lon="6.38369">
        <ele>1107.1</ele>
        <time>2021-07-06T09:15:39Z</time>
      </trkpt>
      <trkpt lat="43.7751" lon="6.38369">
        <ele>1106.2</ele>
        <time>2021-07-06T09:15:44Z</time>
      </trkpt>
      <trkpt lat="43.7751" lon="6.38368">
        <ele>1107</ele>
        <time>2021-07-06T09:16:09Z</time>
      </trkpt>
      <trkpt lat="43.7751" lon="6.38368">
        <ele>1107</ele>
        <time>2021-07-06T09:16:10Z</time>
      </trkpt>
      <trkpt lat="43.77511" lon="6.3837">
        <ele>1107.9</ele>
        <time>2021-07-06T09:16:20Z</time>
      </trkpt>
      <trkpt lat="43.77511" lon="6.3837">
        <ele>1108</ele>
        <time>2021-07-06T09:16:22Z</time>
      </trkpt>
      <trkpt lat="43.77511" lon="6.3837">
        <ele>1107.6</ele>
        <time>2021-07-06T09:17:12Z</time>
      </trkpt>
      <trkpt lat="43.77511" lon="6.3837">
        <ele>1107.6</ele>
        <time>2021-07-06T09:17:13Z</time>
      </trkpt>
      <trkpt lat="43.77511" lon="6.38373">
        <ele>1106.5</ele>
        <time>2021-07-06T09:17:23Z</time>
      </trkpt>
      <trkpt lat="43.7751" lon="6.38373">
        <ele>1106</ele>
        <time>2021-07-06T09:17:25Z</time>
      </trkpt>
      <trkpt lat="43.7751" lon="6.38373">
        <ele>1105.3</ele>
        <time>2021-07-06T09:17:35Z</time>
      </trkpt>
      <trkpt lat="43.7751" lon="6.38373">
        <ele>1105.3</ele>
        <time>2021-07-06T09:17:36Z</time>
      </trkpt>
      <trkpt lat="43.77509" lon="6.38369">
        <ele>1104.3</ele>
        <time>2021-07-06T09:17:47Z</time>
      </trkpt>
      <trkpt lat="43.77509" lon="6.38369">
        <ele>1104.1</ele>
        <time>2021-07-06T09:17:50Z</time>
      </trkpt>
      <trkpt lat="43.77508" lon="6.38369">
        <ele>1105.1</ele>
        <time>2021-07-06T09:17:59Z</time>
      </trkpt>
      <trkpt lat="43.77508" lon="6.38369">
        <ele>1104.9</ele>
        <time>2021-07-06T09:18:00Z</time>
      </trkpt>
      <trkpt lat="43.77509" lon="6.3837">
        <ele>1105.4</ele>
        <time>2021-07-06T09:18:08Z</time>
      </trkpt>
      <trkpt lat="43.77509" lon="6.3837">
        <ele>1105.6</ele>
        <time>2021-07-06T09:18:11Z</time>
      </trkpt>
      <trkpt lat="43.7751" lon="6.38368">
        <ele>1106.2</ele>
        <time>2021-07-06T09:18:24Z</time>
      </trkpt>
      <trkpt lat="43.7751" lon="6.38369">
        <ele>1106.3</ele>
        <time>2021-07-06T09:18:30Z</time>
      </trkpt>
      <trkpt lat="43.7751" lon="6.38369">
        <ele>1107.3</ele>
        <time>2021-07-06T09:18:39Z</time>
      </trkpt>
      <trkpt lat="43.7751" lon="6.38369">
        <ele>1107.3</ele>
        <time>2021-07-06T09:18:40Z</time>
      </trkpt>
      <trkpt lat="43.77509" lon="6.38365">
        <ele>1106.4</ele>
        <time>2021-07-06T09:19:07Z</time>
      </trkpt>
      <trkpt lat="43.77507" lon="6.38364">
        <ele>1107.7</ele>
        <time>2021-07-06T09:19:14Z</time>
      </trkpt>
      <trkpt lat="43.77507" lon="6.38364">
        <ele>1107.8</ele>
        <time>2021-07-06T09:19:17Z</time>
      </trkpt>
      <trkpt lat="43.77511" lon="6.38367">
        <ele>1107</ele>
        <time>2021-07-06T09:20:27Z</time>
      </trkpt>
      <trkpt lat="43.7751" lon="6.3837">
        <ele>1106.2</ele>
        <time>2021-07-06T09:20:34Z</time>
      </trkpt>
      <trkpt lat="43.7751" lon="6.3837">
        <ele>1105</ele>
        <time>2021-07-06T09:20:39Z</time>
      </trkpt>
      <trkpt lat="43.7751" lon="6.38369">
        <ele>1105.5</ele>
        <time>2021-07-06T09:20:51Z</time>
      </trkpt>
      <trkpt lat="43.7751" lon="6.38369">
        <ele>1105.5</ele>
        <time>2021-07-06T09:20:52Z</time>
      </trkpt>
      <trkpt lat="43.77509" lon="6.38367">
        <ele>1106.1</ele>
        <time>2021-07-06T09:24:15Z</time>
      </trkpt>
      <trkpt lat="43.77509" lon="6.38367">
        <ele>1106.1</ele>
        <time>2021-07-06T09:24:17Z</time>
      </trkpt>
      <trkpt lat="43.77506" lon="6.38362">
        <ele>1108.1</ele>
        <time>2021-07-06T09:24:32Z</time>
      </trkpt>
      <trkpt lat="43.77502" lon="6.38359">
        <ele>1108.7</ele>
        <time>2021-07-06T09:24:39Z</time>
      </trkpt>
      <trkpt lat="43.77498" lon="6.38355">
        <ele>1110.1</ele>
        <time>2021-07-06T09:24:46Z</time>
      </trkpt>
      <trkpt lat="43.77498" lon="6.38355">
        <ele>1110.3</ele>
        <time>2021-07-06T09:24:52Z</time>
      </trkpt>
      <trkpt lat="43.77494" lon="6.38352">
        <ele>1110.8</ele>
        <time>2021-07-06T09:25:01Z</time>
      </trkpt>
      <trkpt lat="43.77494" lon="6.38352">
        <ele>1110.8</ele>
        <time>2021-07-06T09:25:07Z</time>
      </trkpt>
      <trkpt lat="43.77491" lon="6.3835">
        <ele>1110.4</ele>
        <time>2021-07-06T09:25:15Z</time>
      </trkpt>
      <trkpt lat="43.7749" lon="6.3835">
        <ele>1110.8</ele>
        <time>2021-07-06T09:25:20Z</time>
      </trkpt>
      <trkpt lat="43.77488" lon="6.38351">
        <ele>1109.8</ele>
        <time>2021-07-06T09:25:28Z</time>
      </trkpt>
      <trkpt lat="43.77488" lon="6.38351">
        <ele>1109.9</ele>
        <time>2021-07-06T09:25:30Z</time>
      </trkpt>
      <trkpt lat="43.77489" lon="6.38352">
        <ele>1110.2</ele>
        <time>2021-07-06T09:25:39Z</time>
      </trkpt>
      <trkpt lat="43.77489" lon="6.38352">
        <ele>1110.2</ele>
        <time>2021-07-06T09:25:40Z</time>
      </trkpt>
      <trkpt lat="43.77487" lon="6.3835">
        <ele>1110.3</ele>
        <time>2021-07-06T09:26:39Z</time>
      </trkpt>
      <trkpt lat="43.77486" lon="6.3835">
        <ele>1110.3</ele>
        <time>2021-07-06T09:26:42Z</time>
      </trkpt>
      <trkpt lat="43.77486" lon="6.38348">
        <ele>1109.7</ele>
        <time>2021-07-06T09:26:55Z</time>
      </trkpt>
      <trkpt lat="43.77486" lon="6.38348">
        <ele>1109.4</ele>
        <time>2021-07-06T09:26:56Z</time>
      </trkpt>
      <trkpt lat="43.77489" lon="6.38348">
        <ele>1108.8</ele>
        <time>2021-07-06T09:27:09Z</time>
      </trkpt>
      <trkpt lat="43.7749" lon="6.38348">
        <ele>1108.7</ele>
        <time>2021-07-06T09:27:12Z</time>
      </trkpt>
      <trkpt lat="43.77489" lon="6.38341">
        <ele>1106.4</ele>
        <time>2021-07-06T09:27:20Z</time>
      </trkpt>
      <trkpt lat="43.77484" lon="6.38333">
        <ele>1107.8</ele>
        <time>2021-07-06T09:27:26Z</time>
      </trkpt>
      <trkpt lat="43.77478" lon="6.38326">
        <ele>1108</ele>
        <time>2021-07-06T09:27:32Z</time>
      </trkpt>
      <trkpt lat="43.77472" lon="6.38319">
        <ele>1107.5</ele>
        <time>2021-07-06T09:27:39Z</time>
      </trkpt>
      <trkpt lat="43.77467" lon="6.38312">
        <ele>1107.1</ele>
        <time>2021-07-06T09:27:46Z</time>
      </trkpt>
      <trkpt lat="43.77461" lon="6.38304">
        <ele>1107.5</ele>
        <time>2021-07-06T09:27:52Z</time>
      </trkpt>
      <trkpt lat="43.77457" lon="6.38296">
        <ele>1107.7</ele>
        <time>2021-07-06T09:27:58Z</time>
      </trkpt>
      <trkpt lat="43.7745" lon="6.38294">
        <ele>1110.1</ele>
        <time>2021-07-06T09:28:05Z</time>
      </trkpt>
      <trkpt lat="43.77445" lon="6.383">
        <ele>1110.9</ele>
        <time>2021-07-06T09:28:12Z</time>
      </trkpt>
      <trkpt lat="43.77441" lon="6.38306">
        <ele>1112.8</ele>
        <time>2021-07-06T09:28:19Z</time>
      </trkpt>
      <trkpt lat="43.77441" lon="6.38307">
        <ele>1114.1</ele>
        <time>2021-07-06T09:28:26Z</time>
      </trkpt>
      <trkpt lat="43.77441" lon="6.38306">
        <ele>1115.4</ele>
        <time>2021-07-06T09:28:54Z</time>
      </trkpt>
      <trkpt lat="43.77444" lon="6.38306">
        <ele>1110.8</ele>
        <time>2021-07-06T09:29:01Z</time>
      </trkpt>
      <trkpt lat="43.77444" lon="6.38308">
        <ele>1113.6</ele>
        <time>2021-07-06T09:29:08Z</time>
      </trkpt>
      <trkpt lat="43.77444" lon="6.38309">
        <ele>1112.8</ele>
        <time>2021-07-06T09:29:16Z</time>
      </trkpt>
      <trkpt lat="43.77444" lon="6.38309">
        <ele>1112.8</ele>
        <time>2021-07-06T09:29:17Z</time>
      </trkpt>
      <trkpt lat="43.77443" lon="6.38307">
        <ele>1113.6</ele>
        <time>2021-07-06T09:29:34Z</time>
      </trkpt>
      <trkpt lat="43.77443" lon="6.38307">
        <ele>1113.9</ele>
        <time>2021-07-06T09:29:35Z</time>
      </trkpt>
      <trkpt lat="43.77442" lon="6.38307">
        <ele>1113.1</ele>
        <time>2021-07-06T09:29:56Z</time>
      </trkpt>
      <trkpt lat="43.77442" lon="6.38307">
        <ele>1113.2</ele>
        <time>2021-07-06T09:29:57Z</time>
      </trkpt>
      <trkpt lat="43.77446" lon="6.38302">
        <ele>1112</ele>
        <time>2021-07-06T09:30:15Z</time>
      </trkpt>
      <trkpt lat="43.77452" lon="6.38297">
        <ele>1110</ele>
        <time>2021-07-06T09:30:22Z</time>
      </trkpt>
      <trkpt lat="43.77458" lon="6.38297">
        <ele>1109</ele>
        <time>2021-07-06T09:30:29Z</time>
      </trkpt>
      <trkpt lat="43.77462" lon="6.38304">
        <ele>1110.9</ele>
        <time>2021-07-06T09:30:35Z</time>
      </trkpt>
      <trkpt lat="43.77467" lon="6.38312">
        <ele>1110.4</ele>
        <time>2021-07-06T09:30:41Z</time>
      </trkpt>
      <trkpt lat="43.77474" lon="6.38319">
        <ele>1109.1</ele>
        <time>2021-07-06T09:30:47Z</time>
      </trkpt>
      <trkpt lat="43.7748" lon="6.38325">
        <ele>1108.9</ele>
        <time>2021-07-06T09:30:53Z</time>
      </trkpt>
      <trkpt lat="43.77486" lon="6.38331">
        <ele>1107.4</ele>
        <time>2021-07-06T09:30:58Z</time>
      </trkpt>
      <trkpt lat="43.77492" lon="6.38338">
        <ele>1107.6</ele>
        <time>2021-07-06T09:31:04Z</time>
      </trkpt>
      <trkpt lat="43.77498" lon="6.38344">
        <ele>1108.3</ele>
        <time>2021-07-06T09:31:10Z</time>
      </trkpt>
      <trkpt lat="43.77504" lon="6.38352">
        <ele>1107.4</ele>
        <time>2021-07-06T09:31:17Z</time>
      </trkpt>
      <trkpt lat="43.77511" lon="6.38357">
        <ele>1106.7</ele>
        <time>2021-07-06T09:31:23Z</time>
      </trkpt>
      <trkpt lat="43.77517" lon="6.38365">
        <ele>1107.8</ele>
        <time>2021-07-06T09:31:30Z</time>
      </trkpt>
      <trkpt lat="43.77521" lon="6.38373">
        <ele>1105.9</ele>
        <time>2021-07-06T09:31:37Z</time>
      </trkpt>
      <trkpt lat="43.77525" lon="6.38384">
        <ele>1107</ele>
        <time>2021-07-06T09:31:44Z</time>
      </trkpt>
      <trkpt lat="43.77529" lon="6.38392">
        <ele>1107.5</ele>
        <time>2021-07-06T09:31:50Z</time>
      </trkpt>
      <trkpt lat="43.77535" lon="6.38401">
        <ele>1105.6</ele>
        <time>2021-07-06T09:31:56Z</time>
      </trkpt>
      <trkpt lat="43.77539" lon="6.38409">
        <ele>1105.9</ele>
        <time>2021-07-06T09:32:03Z</time>
      </trkpt>
      <trkpt lat="43.77536" lon="6.3841">
        <ele>1108.3</ele>
        <time>2021-07-06T09:32:10Z</time>
      </trkpt>
      <trkpt lat="43.77535" lon="6.38409">
        <ele>1108.3</ele>
        <time>2021-07-06T09:32:17Z</time>
      </trkpt>
      <trkpt lat="43.77536" lon="6.38413">
        <ele>1110</ele>
        <time>2021-07-06T09:32:28Z</time>
      </trkpt>
      <trkpt lat="43.77536" lon="6.38412">
        <ele>1110.3</ele>
        <time>2021-07-06T09:32:32Z</time>
      </trkpt>
      <trkpt lat="43.77536" lon="6.38409">
        <ele>1110.7</ele>
        <time>2021-07-06T09:32:39Z</time>
      </trkpt>
      <trkpt lat="43.77533" lon="6.38416">
        <ele>1110.6</ele>
        <time>2021-07-06T09:32:46Z</time>
      </trkpt>
      <trkpt lat="43.77532" lon="6.38421">
        <ele>1111.1</ele>
        <time>2021-07-06T09:32:53Z</time>
      </trkpt>
      <trkpt lat="43.77532" lon="6.38427">
        <ele>1109.6</ele>
        <time>2021-07-06T09:33:00Z</time>
      </trkpt>
      <trkpt lat="43.77532" lon="6.38429">
        <ele>1110.4</ele>
        <time>2021-07-06T09:33:07Z</time>
      </trkpt>
      <trkpt lat="43.77532" lon="6.38429">
        <ele>1110.6</ele>
        <time>2021-07-06T09:33:09Z</time>
      </trkpt>
      <trkpt lat="43.77533" lon="6.38432">
        <ele>1111.4</ele>
        <time>2021-07-06T09:33:22Z</time>
      </trkpt>
      <trkpt lat="43.77528" lon="6.38431">
        <ele>1112.8</ele>
        <time>2021-07-06T09:33:29Z</time>
      </trkpt>
      <trkpt lat="43.77528" lon="6.38434">
        <ele>1112.3</ele>
        <time>2021-07-06T09:33:36Z</time>
      </trkpt>
      <trkpt lat="43.77528" lon="6.38434">
        <ele>1112.6</ele>
        <time>2021-07-06T09:33:40Z</time>
      </trkpt>
      <trkpt lat="43.7753" lon="6.38436">
        <ele>1111.7</ele>
        <time>2021-07-06T09:34:40Z</time>
      </trkpt>
      <trkpt lat="43.7753" lon="6.38436">
        <ele>1111.7</ele>
        <time>2021-07-06T09:34:41Z</time>
      </trkpt>
      <trkpt lat="43.77529" lon="6.38436">
        <ele>1112.6</ele>
        <time>2021-07-06T09:34:58Z</time>
      </trkpt>
      <trkpt lat="43.77529" lon="6.38436">
        <ele>1112.6</ele>
        <time>2021-07-06T09:34:59Z</time>
      </trkpt>
      <trkpt lat="43.77529" lon="6.38438">
        <ele>1112</ele>
        <time>2021-07-06T09:35:11Z</time>
      </trkpt>
      <trkpt lat="43.77529" lon="6.38438">
        <ele>1111.6</ele>
        <time>2021-07-06T09:35:12Z</time>
      </trkpt>
      <trkpt lat="43.77532" lon="6.38439">
        <ele>1110.7</ele>
        <time>2021-07-06T09:35:19Z</time>
      </trkpt>
      <trkpt lat="43.77531" lon="6.3844">
        <ele>1110.9</ele>
        <time>2021-07-06T09:35:21Z</time>
      </trkpt>
      <trkpt lat="43.77532" lon="6.3844">
        <ele>1110.6</ele>
        <time>2021-07-06T09:35:34Z</time>
      </trkpt>
      <trkpt lat="43.77532" lon="6.3844">
        <ele>1110.6</ele>
        <time>2021-07-06T09:35:35Z</time>
      </trkpt>
      <trkpt lat="43.77528" lon="6.38443">
        <ele>1113.4</ele>
        <time>2021-07-06T09:35:43Z</time>
      </trkpt>
      <trkpt lat="43.77527" lon="6.38443">
        <ele>1112.9</ele>
        <time>2021-07-06T09:35:49Z</time>
      </trkpt>
      <trkpt lat="43.77525" lon="6.38447">
        <ele>1112.6</ele>
        <time>2021-07-06T09:35:58Z</time>
      </trkpt>
      <trkpt lat="43.77524" lon="6.38449">
        <ele>1112.4</ele>
        <time>2021-07-06T09:36:02Z</time>
      </trkpt>
      <trkpt lat="43.77525" lon="6.38449">
        <ele>1112.9</ele>
        <time>2021-07-06T09:36:11Z</time>
      </trkpt>
      <trkpt lat="43.77525" lon="6.38449">
        <ele>1112.8</ele>
        <time>2021-07-06T09:36:12Z</time>
      </trkpt>
      <trkpt lat="43.77526" lon="6.3845">
        <ele>1112.4</ele>
        <time>2021-07-06T09:36:22Z</time>
      </trkpt>
      <trkpt lat="43.77526" lon="6.3845">
        <ele>1112.5</ele>
        <time>2021-07-06T09:36:23Z</time>
      </trkpt>
      <trkpt lat="43.77525" lon="6.3845">
        <ele>1113.5</ele>
        <time>2021-07-06T09:36:34Z</time>
      </trkpt>
      <trkpt lat="43.77525" lon="6.3845">
        <ele>1113.5</ele>
        <time>2021-07-06T09:36:35Z</time>
      </trkpt>
      <trkpt lat="43.77525" lon="6.38455">
        <ele>1112.4</ele>
        <time>2021-07-06T09:36:54Z</time>
      </trkpt>
      <trkpt lat="43.77526" lon="6.38458">
        <ele>1113.3</ele>
        <time>2021-07-06T09:37:01Z</time>
      </trkpt>
      <trkpt lat="43.77525" lon="6.38461">
        <ele>1114.1</ele>
        <time>2021-07-06T09:37:08Z</time>
      </trkpt>
      <trkpt lat="43.77525" lon="6.38461">
        <ele>1113.5</ele>
        <time>2021-07-06T09:37:12Z</time>
      </trkpt>
      <trkpt lat="43.77526" lon="6.38466">
        <ele>1114.2</ele>
        <time>2021-07-06T09:37:43Z</time>
      </trkpt>
      <trkpt lat="43.77525" lon="6.38468">
        <ele>1113.5</ele>
        <time>2021-07-06T09:37:50Z</time>
      </trkpt>
      <trkpt lat="43.77525" lon="6.38468">
        <ele>1112.8</ele>
        <time>2021-07-06T09:37:59Z</time>
      </trkpt>
      <trkpt lat="43.77525" lon="6.38469">
        <ele>1112.3</ele>
        <time>2021-07-06T09:38:00Z</time>
      </trkpt>
      <trkpt lat="43.77524" lon="6.3847">
        <ele>1113.3</ele>
        <time>2021-07-06T09:38:39Z</time>
      </trkpt>
      <trkpt lat="43.77524" lon="6.3847">
        <ele>1112.7</ele>
        <time>2021-07-06T09:38:41Z</time>
      </trkpt>
      <trkpt lat="43.77525" lon="6.38471">
        <ele>1112.3</ele>
        <time>2021-07-06T09:38:51Z</time>
      </trkpt>
      <trkpt lat="43.77525" lon="6.38471">
        <ele>1112.4</ele>
        <time>2021-07-06T09:38:52Z</time>
      </trkpt>
      <trkpt lat="43.77525" lon="6.38474">
        <ele>1112.2</ele>
        <time>2021-07-06T09:39:01Z</time>
      </trkpt>
      <trkpt lat="43.77525" lon="6.38474">
        <ele>1112.6</ele>
        <time>2021-07-06T09:39:03Z</time>
      </trkpt>
      <trkpt lat="43.77525" lon="6.38473">
        <ele>1113.2</ele>
        <time>2021-07-06T09:39:12Z</time>
      </trkpt>
      <trkpt lat="43.77525" lon="6.38473">
        <ele>1112.9</ele>
        <time>2021-07-06T09:39:13Z</time>
      </trkpt>
      <trkpt lat="43.77525" lon="6.38473">
        <ele>1112.1</ele>
        <time>2021-07-06T09:39:47Z</time>
      </trkpt>
      <trkpt lat="43.77525" lon="6.38473">
        <ele>1112.8</ele>
        <time>2021-07-06T09:39:48Z</time>
      </trkpt>
      <trkpt lat="43.77529" lon="6.38473">
        <ele>1114.7</ele>
        <time>2021-07-06T09:40:02Z</time>
      </trkpt>
      <trkpt lat="43.7753" lon="6.38475">
        <ele>1113.8</ele>
        <time>2021-07-06T09:40:09Z</time>
      </trkpt>
      <trkpt lat="43.77531" lon="6.38475">
        <ele>1113</ele>
        <time>2021-07-06T09:40:16Z</time>
      </trkpt>
      <trkpt lat="43.77533" lon="6.38478">
        <ele>1113.1</ele>
        <time>2021-07-06T09:40:24Z</time>
      </trkpt>
      <trkpt lat="43.77533" lon="6.3848">
        <ele>1113.4</ele>
        <time>2021-07-06T09:40:31Z</time>
      </trkpt>
      <trkpt lat="43.77534" lon="6.3848">
        <ele>1113.4</ele>
        <time>2021-07-06T09:40:32Z</time>
      </trkpt>
      <trkpt lat="43.77534" lon="6.38481">
        <ele>1113.1</ele>
        <time>2021-07-06T09:40:41Z</time>
      </trkpt>
      <trkpt lat="43.77534" lon="6.38481">
        <ele>1113.1</ele>
        <time>2021-07-06T09:40:42Z</time>
      </trkpt>
      <trkpt lat="43.77534" lon="6.38484">
        <ele>1113.3</ele>
        <time>2021-07-06T09:40:55Z</time>
      </trkpt>
      <trkpt lat="43.77537" lon="6.38487">
        <ele>1112.2</ele>
        <time>2021-07-06T09:41:02Z</time>
      </trkpt>
      <trkpt lat="43.77539" lon="6.38489">
        <ele>1111.6</ele>
        <time>2021-07-06T09:41:09Z</time>
      </trkpt>
      <trkpt lat="43.7754" lon="6.38493">
        <ele>1110.6</ele>
        <time>2021-07-06T09:41:16Z</time>
      </trkpt>
      <trkpt lat="43.77541" lon="6.38494">
        <ele>1110.4</ele>
        <time>2021-07-06T09:41:23Z</time>
      </trkpt>
      <trkpt lat="43.77541" lon="6.38495">
        <ele>1110.3</ele>
        <time>2021-07-06T09:41:24Z</time>
      </trkpt>
      <trkpt lat="43.77545" lon="6.38499">
        <ele>1109.5</ele>
        <time>2021-07-06T09:41:31Z</time>
      </trkpt>
      <trkpt lat="43.77546" lon="6.38502">
        <ele>1108.2</ele>
        <time>2021-07-06T09:41:38Z</time>
      </trkpt>
      <trkpt lat="43.77546" lon="6.38502">
        <ele>1108.1</ele>
        <time>2021-07-06T09:41:42Z</time>
      </trkpt>
      <trkpt lat="43.77546" lon="6.38503">
        <ele>1108.1</ele>
        <time>2021-07-06T09:41:54Z</time>
      </trkpt>
      <trkpt lat="43.77546" lon="6.38503">
        <ele>1108.1</ele>
        <time>2021-07-06T09:41:55Z</time>
      </trkpt>
      <trkpt lat="43.77547" lon="6.38503">
        <ele>1108.4</ele>
        <time>2021-07-06T09:43:35Z</time>
      </trkpt>
      <trkpt lat="43.77547" lon="6.38503">
        <ele>1108.4</ele>
        <time>2021-07-06T09:43:36Z</time>
      </trkpt>
      <trkpt lat="43.77548" lon="6.38502">
        <ele>1107</ele>
        <time>2021-07-06T09:44:05Z</time>
      </trkpt>
      <trkpt lat="43.77548" lon="6.38502">
        <ele>1107.2</ele>
        <time>2021-07-06T09:44:06Z</time>
      </trkpt>
      <trkpt lat="43.77546" lon="6.38502">
        <ele>1105.4</ele>
        <time>2021-07-06T09:44:51Z</time>
      </trkpt>
      <trkpt lat="43.77546" lon="6.38502">
        <ele>1105.4</ele>
        <time>2021-07-06T09:44:52Z</time>
      </trkpt>
      <trkpt lat="43.77549" lon="6.38503">
        <ele>1108.4</ele>
        <time>2021-07-06T09:45:32Z</time>
      </trkpt>
      <trkpt lat="43.77549" lon="6.38503">
        <ele>1108.3</ele>
        <time>2021-07-06T09:45:36Z</time>
      </trkpt>
      <trkpt lat="43.77549" lon="6.38503">
        <ele>1107.9</ele>
        <time>2021-07-06T09:45:50Z</time>
      </trkpt>
      <trkpt lat="43.77549" lon="6.38503">
        <ele>1107.9</ele>
        <time>2021-07-06T09:45:51Z</time>
      </trkpt>
      <trkpt lat="43.77548" lon="6.38502">
        <ele>1107.8</ele>
        <time>2021-07-06T09:48:00Z</time>
      </trkpt>
      <trkpt lat="43.77548" lon="6.38502">
        <ele>1107.8</ele>
        <time>2021-07-06T09:48:01Z</time>
      </trkpt>
      <trkpt lat="43.77549" lon="6.38501">
        <ele>1107.9</ele>
        <time>2021-07-06T09:48:23Z</time>
      </trkpt>
      <trkpt lat="43.77549" lon="6.38501">
        <ele>1108</ele>
        <time>2021-07-06T09:48:24Z</time>
      </trkpt>
      <trkpt lat="43.77553" lon="6.38502">
        <ele>1109.6</ele>
        <time>2021-07-06T09:48:39Z</time>
      </trkpt>
      <trkpt lat="43.77556" lon="6.38507">
        <ele>1110.4</ele>
        <time>2021-07-06T09:48:46Z</time>
      </trkpt>
      <trkpt lat="43.77559" lon="6.3851">
        <ele>1108.1</ele>
        <time>2021-07-06T09:48:53Z</time>
      </trkpt>
      <trkpt lat="43.77559" lon="6.38509">
        <ele>1108</ele>
        <time>2021-07-06T09:48:58Z</time>
      </trkpt>
      <trkpt lat="43.77562" lon="6.38513">
        <ele>1107.7</ele>
        <time>2021-07-06T09:49:20Z</time>
      </trkpt>
      <trkpt lat="43.77563" lon="6.38514">
        <ele>1107.7</ele>
        <time>2021-07-06T09:49:26Z</time>
      </trkpt>
      <trkpt lat="43.77566" lon="6.38517">
        <ele>1108.3</ele>
        <time>2021-07-06T09:49:34Z</time>
      </trkpt>
      <trkpt lat="43.77567" lon="6.38521">
        <ele>1107.9</ele>
        <time>2021-07-06T09:49:41Z</time>
      </trkpt>
      <trkpt lat="43.77567" lon="6.38521">
        <ele>1107.8</ele>
        <time>2021-07-06T09:49:43Z</time>
      </trkpt>
      <trkpt lat="43.77567" lon="6.38522">
        <ele>1107</ele>
        <time>2021-07-06T09:49:53Z</time>
      </trkpt>
      <trkpt lat="43.77567" lon="6.38522">
        <ele>1107</ele>
        <time>2021-07-06T09:49:54Z</time>
      </trkpt>
      <trkpt lat="43.77569" lon="6.38525">
        <ele>1106.6</ele>
        <time>2021-07-06T09:50:18Z</time>
      </trkpt>
      <trkpt lat="43.7757" lon="6.38526">
        <ele>1107.2</ele>
        <time>2021-07-06T09:50:25Z</time>
      </trkpt>
      <trkpt lat="43.7757" lon="6.38526">
        <ele>1107.2</ele>
        <time>2021-07-06T09:50:26Z</time>
      </trkpt>
      <trkpt lat="43.77571" lon="6.38526">
        <ele>1107.8</ele>
        <time>2021-07-06T09:50:36Z</time>
      </trkpt>
      <trkpt lat="43.77571" lon="6.38526">
        <ele>1107.8</ele>
        <time>2021-07-06T09:50:37Z</time>
      </trkpt>
      <trkpt lat="43.77573" lon="6.38529">
        <ele>1105.3</ele>
        <time>2021-07-06T09:50:55Z</time>
      </trkpt>
      <trkpt lat="43.77575" lon="6.38533">
        <ele>1103.9</ele>
        <time>2021-07-06T09:51:02Z</time>
      </trkpt>
      <trkpt lat="43.77577" lon="6.38535">
        <ele>1103.9</ele>
        <time>2021-07-06T09:51:09Z</time>
      </trkpt>
      <trkpt lat="43.77578" lon="6.38541">
        <ele>1102.4</ele>
        <time>2021-07-06T09:51:16Z</time>
      </trkpt>
      <trkpt lat="43.77578" lon="6.38541">
        <ele>1101.7</ele>
        <time>2021-07-06T09:51:21Z</time>
      </trkpt>
      <trkpt lat="43.7758" lon="6.38545">
        <ele>1102.3</ele>
        <time>2021-07-06T09:51:35Z</time>
      </trkpt>
      <trkpt lat="43.77581" lon="6.38544">
        <ele>1102</ele>
        <time>2021-07-06T09:51:39Z</time>
      </trkpt>
      <trkpt lat="43.77581" lon="6.3855">
        <ele>1103.9</ele>
        <time>2021-07-06T09:51:46Z</time>
      </trkpt>
      <trkpt lat="43.77582" lon="6.38552">
        <ele>1103.7</ele>
        <time>2021-07-06T09:51:53Z</time>
      </trkpt>
      <trkpt lat="43.77582" lon="6.38553">
        <ele>1104.2</ele>
        <time>2021-07-06T09:51:54Z</time>
      </trkpt>
      <trkpt lat="43.77581" lon="6.3856">
        <ele>1104.2</ele>
        <time>2021-07-06T09:52:02Z</time>
      </trkpt>
      <trkpt lat="43.77578" lon="6.38565">
        <ele>1103.8</ele>
        <time>2021-07-06T09:52:09Z</time>
      </trkpt>
      <trkpt lat="43.77579" lon="6.38568">
        <ele>1105.2</ele>
        <time>2021-07-06T09:52:16Z</time>
      </trkpt>
      <trkpt lat="43.77579" lon="6.38572">
        <ele>1106.2</ele>
        <time>2021-07-06T09:52:23Z</time>
      </trkpt>
      <trkpt lat="43.77578" lon="6.38575">
        <ele>1106.2</ele>
        <time>2021-07-06T09:52:30Z</time>
      </trkpt>
      <trkpt lat="43.77578" lon="6.38575">
        <ele>1106.3</ele>
        <time>2021-07-06T09:52:31Z</time>
      </trkpt>
      <trkpt lat="43.77578" lon="6.38576">
        <ele>1105.5</ele>
        <time>2021-07-06T09:52:41Z</time>
      </trkpt>
      <trkpt lat="43.77577" lon="6.38575">
        <ele>1106.4</ele>
        <time>2021-07-06T09:52:47Z</time>
      </trkpt>
      <trkpt lat="43.77577" lon="6.38573">
        <ele>1106.1</ele>
        <time>2021-07-06T09:53:16Z</time>
      </trkpt>
      <trkpt lat="43.77577" lon="6.38573">
        <ele>1106</ele>
        <time>2021-07-06T09:53:17Z</time>
      </trkpt>
      <trkpt lat="43.7758" lon="6.38578">
        <ele>1105.2</ele>
        <time>2021-07-06T09:53:28Z</time>
      </trkpt>
      <trkpt lat="43.7758" lon="6.38584">
        <ele>1104.9</ele>
        <time>2021-07-06T09:53:35Z</time>
      </trkpt>
      <trkpt lat="43.77581" lon="6.38585">
        <ele>1104.3</ele>
        <time>2021-07-06T09:53:42Z</time>
      </trkpt>
      <trkpt lat="43.77581" lon="6.38585">
        <ele>1104.4</ele>
        <time>2021-07-06T09:53:43Z</time>
      </trkpt>
      <trkpt lat="43.77581" lon="6.38579">
        <ele>1103.9</ele>
        <time>2021-07-06T09:54:26Z</time>
      </trkpt>
      <trkpt lat="43.77581" lon="6.38578">
        <ele>1102.5</ele>
        <time>2021-07-06T09:54:33Z</time>
      </trkpt>
      <trkpt lat="43.77581" lon="6.38578">
        <ele>1102.7</ele>
        <time>2021-07-06T09:54:35Z</time>
      </trkpt>
      <trkpt lat="43.77579" lon="6.38573">
        <ele>1101</ele>
        <time>2021-07-06T09:54:43Z</time>
      </trkpt>
      <trkpt lat="43.7758" lon="6.3857">
        <ele>1103.1</ele>
        <time>2021-07-06T09:54:50Z</time>
      </trkpt>
      <trkpt lat="43.77579" lon="6.38569">
        <ele>1102.6</ele>
        <time>2021-07-06T09:54:57Z</time>
      </trkpt>
      <trkpt lat="43.7758" lon="6.38569">
        <ele>1102.9</ele>
        <time>2021-07-06T09:55:04Z</time>
      </trkpt>
      <trkpt lat="43.7758" lon="6.38569">
        <ele>1103.2</ele>
        <time>2021-07-06T09:55:05Z</time>
      </trkpt>
      <trkpt lat="43.77581" lon="6.38568">
        <ele>1102.3</ele>
        <time>2021-07-06T09:56:37Z</time>
      </trkpt>
      <trkpt lat="43.77581" lon="6.38568">
        <ele>1102.1</ele>
        <time>2021-07-06T09:56:38Z</time>
      </trkpt>
      <trkpt lat="43.77581" lon="6.38568">
        <ele>1102.4</ele>
        <time>2021-07-06T09:56:55Z</time>
      </trkpt>
      <trkpt lat="43.77581" lon="6.38568">
        <ele>1102.4</ele>
        <time>2021-07-06T09:56:56Z</time>
      </trkpt>
      <trkpt lat="43.77579" lon="6.38566">
        <ele>1105.5</ele>
        <time>2021-07-06T09:57:22Z</time>
      </trkpt>
      <trkpt lat="43.77579" lon="6.38566">
        <ele>1106</ele>
        <time>2021-07-06T09:57:25Z</time>
      </trkpt>
      <trkpt lat="43.77578" lon="6.38562">
        <ele>1104.1</ele>
        <time>2021-07-06T09:58:04Z</time>
      </trkpt>
      <trkpt lat="43.77579" lon="6.38557">
        <ele>1102.9</ele>
        <time>2021-07-06T09:58:11Z</time>
      </trkpt>
      <trkpt lat="43.77579" lon="6.38551">
        <ele>1103.2</ele>
        <time>2021-07-06T09:58:18Z</time>
      </trkpt>
      <trkpt lat="43.77579" lon="6.38549">
        <ele>1101.3</ele>
        <time>2021-07-06T09:58:25Z</time>
      </trkpt>
      <trkpt lat="43.7758" lon="6.38548">
        <ele>1099.9</ele>
        <time>2021-07-06T09:58:29Z</time>
      </trkpt>
      <trkpt lat="43.77579" lon="6.38543">
        <ele>1102.6</ele>
        <time>2021-07-06T09:58:39Z</time>
      </trkpt>
      <trkpt lat="43.77579" lon="6.38538">
        <ele>1101.8</ele>
        <time>2021-07-06T09:58:46Z</time>
      </trkpt>
      <trkpt lat="43.77579" lon="6.38535">
        <ele>1101.9</ele>
        <time>2021-07-06T09:58:53Z</time>
      </trkpt>
      <trkpt lat="43.77577" lon="6.38529">
        <ele>1103.4</ele>
        <time>2021-07-06T09:59:00Z</time>
      </trkpt>
      <trkpt lat="43.77576" lon="6.38519">
        <ele>1105.3</ele>
        <time>2021-07-06T09:59:07Z</time>
      </trkpt>
      <trkpt lat="43.77575" lon="6.38509">
        <ele>1102</ele>
        <time>2021-07-06T09:59:14Z</time>
      </trkpt>
      <trkpt lat="43.77574" lon="6.38499">
        <ele>1102.7</ele>
        <time>2021-07-06T09:59:21Z</time>
      </trkpt>
      <trkpt lat="43.77572" lon="6.3849">
        <ele>1101.4</ele>
        <time>2021-07-06T09:59:28Z</time>
      </trkpt>
      <trkpt lat="43.77569" lon="6.38483">
        <ele>1102.7</ele>
        <time>2021-07-06T09:59:35Z</time>
      </trkpt>
      <trkpt lat="43.77567" lon="6.38473">
        <ele>1100.7</ele>
        <time>2021-07-06T09:59:41Z</time>
      </trkpt>
      <trkpt lat="43.77565" lon="6.38463">
        <ele>1101.2</ele>
        <time>2021-07-06T09:59:48Z</time>
      </trkpt>
      <trkpt lat="43.77563" lon="6.38453">
        <ele>1100.8</ele>
        <time>2021-07-06T09:59:55Z</time>
      </trkpt>
      <trkpt lat="43.77563" lon="6.38443">
        <ele>1102.4</ele>
        <time>2021-07-06T10:00:02Z</time>
      </trkpt>
      <trkpt lat="43.77562" lon="6.38433">
        <ele>1100.5</ele>
        <time>2021-07-06T10:00:09Z</time>
      </trkpt>
      <trkpt lat="43.7756" lon="6.38424">
        <ele>1100.4</ele>
        <time>2021-07-06T10:00:16Z</time>
      </trkpt>
      <trkpt lat="43.7756" lon="6.38414">
        <ele>1100.6</ele>
        <time>2021-07-06T10:00:22Z</time>
      </trkpt>
      <trkpt lat="43.77556" lon="6.38408">
        <ele>1101.2</ele>
        <time>2021-07-06T10:00:29Z</time>
      </trkpt>
      <trkpt lat="43.77551" lon="6.38402">
        <ele>1102.2</ele>
        <time>2021-07-06T10:00:36Z</time>
      </trkpt>
      <trkpt lat="43.77546" lon="6.38399">
        <ele>1103.4</ele>
        <time>2021-07-06T10:00:43Z</time>
      </trkpt>
      <trkpt lat="43.77541" lon="6.38403">
        <ele>1102.7</ele>
        <time>2021-07-06T10:00:50Z</time>
      </trkpt>
      <trkpt lat="43.77541" lon="6.38405">
        <ele>1100.8</ele>
        <time>2021-07-06T10:00:57Z</time>
      </trkpt>
      <trkpt lat="43.77541" lon="6.38405">
        <ele>1100.8</ele>
        <time>2021-07-06T10:00:59Z</time>
      </trkpt>
      <trkpt lat="43.7754" lon="6.38404">
        <ele>1100.3</ele>
        <time>2021-07-06T10:01:08Z</time>
      </trkpt>
      <trkpt lat="43.7754" lon="6.38404">
        <ele>1100.3</ele>
        <time>2021-07-06T10:01:09Z</time>
      </trkpt>
      <trkpt lat="43.77539" lon="6.38404">
        <ele>1102</ele>
        <time>2021-07-06T10:01:19Z</time>
      </trkpt>
      <trkpt lat="43.77539" lon="6.38404">
        <ele>1102.9</ele>
        <time>2021-07-06T10:01:21Z</time>
      </trkpt>
      <trkpt lat="43.77537" lon="6.38403">
        <ele>1101.9</ele>
        <time>2021-07-06T10:01:32Z</time>
      </trkpt>
      <trkpt lat="43.77536" lon="6.38403">
        <ele>1102.1</ele>
        <time>2021-07-06T10:01:34Z</time>
      </trkpt>
      <trkpt lat="43.7753" lon="6.38396">
        <ele>1104.3</ele>
        <time>2021-07-06T10:01:51Z</time>
      </trkpt>
      <trkpt lat="43.77524" lon="6.38388">
        <ele>1105.3</ele>
        <time>2021-07-06T10:01:56Z</time>
      </trkpt>
      <trkpt lat="43.77521" lon="6.38378">
        <ele>1106.4</ele>
        <time>2021-07-06T10:02:00Z</time>
      </trkpt>
      <trkpt lat="43.77518" lon="6.38368">
        <ele>1106.5</ele>
        <time>2021-07-06T10:02:04Z</time>
      </trkpt>
      <trkpt lat="43.77513" lon="6.38359">
        <ele>1106.7</ele>
        <time>2021-07-06T10:02:08Z</time>
      </trkpt>
      <trkpt lat="43.77507" lon="6.38349">
        <ele>1106.5</ele>
        <time>2021-07-06T10:02:12Z</time>
      </trkpt>
      <trkpt lat="43.77502" lon="6.3834">
        <ele>1107.2</ele>
        <time>2021-07-06T10:02:17Z</time>
      </trkpt>
      <trkpt lat="43.77496" lon="6.38334">
        <ele>1107.3</ele>
        <time>2021-07-06T10:02:20Z</time>
      </trkpt>
      <trkpt lat="43.7749" lon="6.38328">
        <ele>1108.9</ele>
        <time>2021-07-06T10:02:23Z</time>
      </trkpt>
      <trkpt lat="43.77484" lon="6.38319">
        <ele>1108.9</ele>
        <time>2021-07-06T10:02:26Z</time>
      </trkpt>
      <trkpt lat="43.77478" lon="6.3831">
        <ele>1109.9</ele>
        <time>2021-07-06T10:02:29Z</time>
      </trkpt>
      <trkpt lat="43.77473" lon="6.38301">
        <ele>1110.4</ele>
        <time>2021-07-06T10:02:32Z</time>
      </trkpt>
      <trkpt lat="43.77467" lon="6.38294">
        <ele>1110.2</ele>
        <time>2021-07-06T10:02:35Z</time>
      </trkpt>
      <trkpt lat="43.77463" lon="6.38284">
        <ele>1110.1</ele>
        <time>2021-07-06T10:02:38Z</time>
      </trkpt>
      <trkpt lat="43.77459" lon="6.38273">
        <ele>1109.8</ele>
        <time>2021-07-06T10:02:42Z</time>
      </trkpt>
      <trkpt lat="43.77456" lon="6.38263">
        <ele>1109.4</ele>
        <time>2021-07-06T10:02:45Z</time>
      </trkpt>
      <trkpt lat="43.77453" lon="6.38252">
        <ele>1110.8</ele>
        <time>2021-07-06T10:02:48Z</time>
      </trkpt>
      <trkpt lat="43.77451" lon="6.38242">
        <ele>1111.2</ele>
        <time>2021-07-06T10:02:51Z</time>
      </trkpt>
      <trkpt lat="43.77448" lon="6.38231">
        <ele>1111.8</ele>
        <time>2021-07-06T10:02:54Z</time>
      </trkpt>
      <trkpt lat="43.77445" lon="6.38221">
        <ele>1112.3</ele>
        <time>2021-07-06T10:02:57Z</time>
      </trkpt>
      <trkpt lat="43.77442" lon="6.38209">
        <ele>1112.6</ele>
        <time>2021-07-06T10:03:00Z</time>
      </trkpt>
      <trkpt lat="43.77441" lon="6.38198">
        <ele>1112.4</ele>
        <time>2021-07-06T10:03:03Z</time>
      </trkpt>
      <trkpt lat="43.77438" lon="6.38187">
        <ele>1113.1</ele>
        <time>2021-07-06T10:03:06Z</time>
      </trkpt>
      <trkpt lat="43.77435" lon="6.38176">
        <ele>1113.5</ele>
        <time>2021-07-06T10:03:09Z</time>
      </trkpt>
      <trkpt lat="43.77432" lon="6.38165">
        <ele>1114.4</ele>
        <time>2021-07-06T10:03:12Z</time>
      </trkpt>
      <trkpt lat="43.77428" lon="6.38154">
        <ele>1115.8</ele>
        <time>2021-07-06T10:03:16Z</time>
      </trkpt>
      <trkpt lat="43.77426" lon="6.38142">
        <ele>1116.6</ele>
        <time>2021-07-06T10:03:21Z</time>
      </trkpt>
      <trkpt lat="43.77425" lon="6.3813">
        <ele>1116.9</ele>
        <time>2021-07-06T10:03:25Z</time>
      </trkpt>
      <trkpt lat="43.77423" lon="6.38117">
        <ele>1118.4</ele>
        <time>2021-07-06T10:03:29Z</time>
      </trkpt>
      <trkpt lat="43.77421" lon="6.38107">
        <ele>1118.7</ele>
        <time>2021-07-06T10:03:32Z</time>
      </trkpt>
      <trkpt lat="43.77419" lon="6.38097">
        <ele>1119.9</ele>
        <time>2021-07-06T10:03:35Z</time>
      </trkpt>
      <trkpt lat="43.77417" lon="6.38087">
        <ele>1120.1</ele>
        <time>2021-07-06T10:03:38Z</time>
      </trkpt>
      <trkpt lat="43.77414" lon="6.38077">
        <ele>1120.4</ele>
        <time>2021-07-06T10:03:41Z</time>
      </trkpt>
      <trkpt lat="43.77412" lon="6.38067">
        <ele>1120.3</ele>
        <time>2021-07-06T10:03:44Z</time>
      </trkpt>
      <trkpt lat="43.77409" lon="6.38057">
        <ele>1120.9</ele>
        <time>2021-07-06T10:03:47Z</time>
      </trkpt>
      <trkpt lat="43.77406" lon="6.38047">
        <ele>1121.5</ele>
        <time>2021-07-06T10:03:50Z</time>
      </trkpt>
      <trkpt lat="43.77402" lon="6.38039">
        <ele>1122</ele>
        <time>2021-07-06T10:03:53Z</time>
      </trkpt>
      <trkpt lat="43.77396" lon="6.38032">
        <ele>1122.9</ele>
        <time>2021-07-06T10:03:57Z</time>
      </trkpt>
      <trkpt lat="43.77394" lon="6.38021">
        <ele>1124</ele>
        <time>2021-07-06T10:04:01Z</time>
      </trkpt>
      <trkpt lat="43.77389" lon="6.3801">
        <ele>1124.5</ele>
        <time>2021-07-06T10:04:05Z</time>
      </trkpt>
      <trkpt lat="43.77385" lon="6.38001">
        <ele>1125</ele>
        <time>2021-07-06T10:04:08Z</time>
      </trkpt>
      <trkpt lat="43.77381" lon="6.37992">
        <ele>1126.2</ele>
        <time>2021-07-06T10:04:11Z</time>
      </trkpt>
      <trkpt lat="43.77376" lon="6.37983">
        <ele>1126</ele>
        <time>2021-07-06T10:04:14Z</time>
      </trkpt>
      <trkpt lat="43.77371" lon="6.37974">
        <ele>1127.3</ele>
        <time>2021-07-06T10:04:17Z</time>
      </trkpt>
      <trkpt lat="43.77367" lon="6.37966">
        <ele>1127.9</ele>
        <time>2021-07-06T10:04:20Z</time>
      </trkpt>
      <trkpt lat="43.77362" lon="6.37958">
        <ele>1128.1</ele>
        <time>2021-07-06T10:04:23Z</time>
      </trkpt>
      <trkpt lat="43.77354" lon="6.37952">
        <ele>1128.4</ele>
        <time>2021-07-06T10:04:27Z</time>
      </trkpt>
      <trkpt lat="43.77349" lon="6.37942">
        <ele>1130.1</ele>
        <time>2021-07-06T10:04:31Z</time>
      </trkpt>
      <trkpt lat="43.77346" lon="6.37932">
        <ele>1131.2</ele>
        <time>2021-07-06T10:04:35Z</time>
      </trkpt>
      <trkpt lat="43.77341" lon="6.37924">
        <ele>1132.9</ele>
        <time>2021-07-06T10:04:38Z</time>
      </trkpt>
      <trkpt lat="43.77335" lon="6.37916">
        <ele>1133.2</ele>
        <time>2021-07-06T10:04:41Z</time>
      </trkpt>
      <trkpt lat="43.7733" lon="6.37907">
        <ele>1133.9</ele>
        <time>2021-07-06T10:04:44Z</time>
      </trkpt>
      <trkpt lat="43.77325" lon="6.37898">
        <ele>1135.7</ele>
        <time>2021-07-06T10:04:47Z</time>
      </trkpt>
      <trkpt lat="43.77321" lon="6.37889">
        <ele>1136.5</ele>
        <time>2021-07-06T10:04:50Z</time>
      </trkpt>
      <trkpt lat="43.77316" lon="6.37881">
        <ele>1136.8</ele>
        <time>2021-07-06T10:04:53Z</time>
      </trkpt>
      <trkpt lat="43.77311" lon="6.37871">
        <ele>1136</ele>
        <time>2021-07-06T10:04:56Z</time>
      </trkpt>
      <trkpt lat="43.77306" lon="6.37863">
        <ele>1136.9</ele>
        <time>2021-07-06T10:04:59Z</time>
      </trkpt>
      <trkpt lat="43.77301" lon="6.37855">
        <ele>1137.5</ele>
        <time>2021-07-06T10:05:02Z</time>
      </trkpt>
      <trkpt lat="43.77297" lon="6.37846">
        <ele>1138.8</ele>
        <time>2021-07-06T10:05:05Z</time>
      </trkpt>
      <trkpt lat="43.77293" lon="6.37838">
        <ele>1139.6</ele>
        <time>2021-07-06T10:05:08Z</time>
      </trkpt>
      <trkpt lat="43.77288" lon="6.37829">
        <ele>1139.8</ele>
        <time>2021-07-06T10:05:11Z</time>
      </trkpt>
      <trkpt lat="43.77283" lon="6.3782">
        <ele>1140.8</ele>
        <time>2021-07-06T10:05:14Z</time>
      </trkpt>
      <trkpt lat="43.77278" lon="6.37812">
        <ele>1141.3</ele>
        <time>2021-07-06T10:05:17Z</time>
      </trkpt>
      <trkpt lat="43.77273" lon="6.37803">
        <ele>1142.4</ele>
        <time>2021-07-06T10:05:20Z</time>
      </trkpt>
      <trkpt lat="43.77267" lon="6.37794">
        <ele>1141.4</ele>
        <time>2021-07-06T10:05:23Z</time>
      </trkpt>
      <trkpt lat="43.77263" lon="6.37785">
        <ele>1142.2</ele>
        <time>2021-07-06T10:05:26Z</time>
      </trkpt>
      <trkpt lat="43.77258" lon="6.37777">
        <ele>1143</ele>
        <time>2021-07-06T10:05:29Z</time>
      </trkpt>
      <trkpt lat="43.77252" lon="6.37769">
        <ele>1143.3</ele>
        <time>2021-07-06T10:05:32Z</time>
      </trkpt>
      <trkpt lat="43.77247" lon="6.37761">
        <ele>1143.2</ele>
        <time>2021-07-06T10:05:35Z</time>
      </trkpt>
      <trkpt lat="43.77242" lon="6.37752">
        <ele>1143.7</ele>
        <time>2021-07-06T10:05:38Z</time>
      </trkpt>
      <trkpt lat="43.77237" lon="6.37744">
        <ele>1144.7</ele>
        <time>2021-07-06T10:05:41Z</time>
      </trkpt>
      <trkpt lat="43.77232" lon="6.37737">
        <ele>1145</ele>
        <time>2021-07-06T10:05:44Z</time>
      </trkpt>
      <trkpt lat="43.77227" lon="6.37728">
        <ele>1145.5</ele>
        <time>2021-07-06T10:05:47Z</time>
      </trkpt>
      <trkpt lat="43.77222" lon="6.37719">
        <ele>1146.2</ele>
        <time>2021-07-06T10:05:50Z</time>
      </trkpt>
      <trkpt lat="43.77216" lon="6.37712">
        <ele>1146.4</ele>
        <time>2021-07-06T10:05:53Z</time>
      </trkpt>
      <trkpt lat="43.7721" lon="6.37705">
        <ele>1147.2</ele>
        <time>2021-07-06T10:05:56Z</time>
      </trkpt>
      <trkpt lat="43.77204" lon="6.37698">
        <ele>1148.1</ele>
        <time>2021-07-06T10:05:59Z</time>
      </trkpt>
      <trkpt lat="43.77198" lon="6.3769">
        <ele>1148.6</ele>
        <time>2021-07-06T10:06:02Z</time>
      </trkpt>
      <trkpt lat="43.77193" lon="6.37683">
        <ele>1148.4</ele>
        <time>2021-07-06T10:06:05Z</time>
      </trkpt>
      <trkpt lat="43.77187" lon="6.37676">
        <ele>1149.4</ele>
        <time>2021-07-06T10:06:08Z</time>
      </trkpt>
      <trkpt lat="43.77181" lon="6.37669">
        <ele>1149.7</ele>
        <time>2021-07-06T10:06:11Z</time>
      </trkpt>
      <trkpt lat="43.77176" lon="6.37661">
        <ele>1149.4</ele>
        <time>2021-07-06T10:06:14Z</time>
      </trkpt>
      <trkpt lat="43.77171" lon="6.37653">
        <ele>1149.6</ele>
        <time>2021-07-06T10:06:17Z</time>
      </trkpt>
      <trkpt lat="43.77165" lon="6.37646">
        <ele>1149.7</ele>
        <time>2021-07-06T10:06:20Z</time>
      </trkpt>
      <trkpt lat="43.77159" lon="6.37639">
        <ele>1149.9</ele>
        <time>2021-07-06T10:06:23Z</time>
      </trkpt>
      <trkpt lat="43.77154" lon="6.37633">
        <ele>1150.8</ele>
        <time>2021-07-06T10:06:26Z</time>
      </trkpt>
      <trkpt lat="43.77148" lon="6.37624">
        <ele>1152.2</ele>
        <time>2021-07-06T10:06:30Z</time>
      </trkpt>
      <trkpt lat="43.77142" lon="6.37621">
        <ele>1154.1</ele>
        <time>2021-07-06T10:06:37Z</time>
      </trkpt>
      <trkpt lat="43.77147" lon="6.37631">
        <ele>1152.8</ele>
        <time>2021-07-06T10:06:41Z</time>
      </trkpt>
      <trkpt lat="43.77146" lon="6.37642">
        <ele>1153.6</ele>
        <time>2021-07-06T10:06:48Z</time>
      </trkpt>
      <trkpt lat="43.77144" lon="6.37647">
        <ele>1154.8</ele>
        <time>2021-07-06T10:06:55Z</time>
      </trkpt>
      <trkpt lat="43.77143" lon="6.37649">
        <ele>1154.2</ele>
        <time>2021-07-06T10:07:02Z</time>
      </trkpt>
      <trkpt lat="43.77144" lon="6.37647">
        <ele>1154.2</ele>
        <time>2021-07-06T10:07:09Z</time>
      </trkpt>
      <trkpt lat="43.77143" lon="6.37648">
        <ele>1153.6</ele>
        <time>2021-07-06T10:07:16Z</time>
      </trkpt>
      <trkpt lat="43.77137" lon="6.37653">
        <ele>1154</ele>
        <time>2021-07-06T10:07:23Z</time>
      </trkpt>
      <trkpt lat="43.77136" lon="6.3766">
        <ele>1157.5</ele>
        <time>2021-07-06T10:07:30Z</time>
      </trkpt>
      <trkpt lat="43.77136" lon="6.37661">
        <ele>1158.1</ele>
        <time>2021-07-06T10:07:37Z</time>
      </trkpt>
      <trkpt lat="43.77136" lon="6.37662">
        <ele>1157.2</ele>
        <time>2021-07-06T10:07:47Z</time>
      </trkpt>
      <trkpt lat="43.77136" lon="6.37662">
        <ele>1157.2</ele>
        <time>2021-07-06T10:07:48Z</time>
      </trkpt>
      <trkpt lat="43.77135" lon="6.37661">
        <ele>1157.1</ele>
        <time>2021-07-06T10:08:23Z</time>
      </trkpt>
      <trkpt lat="43.77135" lon="6.3766">
        <ele>1157.3</ele>
        <time>2021-07-06T10:08:24Z</time>
      </trkpt>
      <trkpt lat="43.77136" lon="6.37652">
        <ele>1159.5</ele>
        <time>2021-07-06T10:08:46Z</time>
      </trkpt>
      <trkpt lat="43.77138" lon="6.37651">
        <ele>1157.3</ele>
        <time>2021-07-06T10:08:53Z</time>
      </trkpt>
      <trkpt lat="43.77138" lon="6.37653">
        <ele>1158</ele>
        <time>2021-07-06T10:09:00Z</time>
      </trkpt>
      <trkpt lat="43.7714" lon="6.37651">
        <ele>1158.7</ele>
        <time>2021-07-06T10:09:07Z</time>
      </trkpt>
      <trkpt lat="43.77135" lon="6.37658">
        <ele>1158.1</ele>
        <time>2021-07-06T10:09:14Z</time>
      </trkpt>
      <trkpt lat="43.77135" lon="6.3766">
        <ele>1158.7</ele>
        <time>2021-07-06T10:09:21Z</time>
      </trkpt>
      <trkpt lat="43.77135" lon="6.37661">
        <ele>1158.1</ele>
        <time>2021-07-06T10:09:24Z</time>
      </trkpt>
      <trkpt lat="43.77136" lon="6.37664">
        <ele>1160.7</ele>
        <time>2021-07-06T10:09:32Z</time>
      </trkpt>
      <trkpt lat="43.77142" lon="6.37667">
        <ele>1160.2</ele>
        <time>2021-07-06T10:09:39Z</time>
      </trkpt>
      <trkpt lat="43.77145" lon="6.37668">
        <ele>1159.4</ele>
        <time>2021-07-06T10:09:46Z</time>
      </trkpt>
      <trkpt lat="43.77146" lon="6.37672">
        <ele>1161.5</ele>
        <time>2021-07-06T10:09:53Z</time>
      </trkpt>
      <trkpt lat="43.77147" lon="6.3768">
        <ele>1162.7</ele>
        <time>2021-07-06T10:10:00Z</time>
      </trkpt>
      <trkpt lat="43.77148" lon="6.37685">
        <ele>1165.9</ele>
        <time>2021-07-06T10:10:07Z</time>
      </trkpt>
      <trkpt lat="43.77147" lon="6.37691">
        <ele>1161.7</ele>
        <time>2021-07-06T10:10:14Z</time>
      </trkpt>
      <trkpt lat="43.77147" lon="6.37693">
        <ele>1160</ele>
        <time>2021-07-06T10:10:21Z</time>
      </trkpt>
      <trkpt lat="43.77147" lon="6.37693">
        <ele>1159.9</ele>
        <time>2021-07-06T10:10:22Z</time>
      </trkpt>
      <trkpt lat="43.77148" lon="6.37701">
        <ele>1161</ele>
        <time>2021-07-06T10:10:45Z</time>
      </trkpt>
      <trkpt lat="43.77149" lon="6.37709">
        <ele>1160.1</ele>
        <time>2021-07-06T10:10:52Z</time>
      </trkpt>
      <trkpt lat="43.7715" lon="6.37712">
        <ele>1161.1</ele>
        <time>2021-07-06T10:10:59Z</time>
      </trkpt>
      <trkpt lat="43.77152" lon="6.37717">
        <ele>1160.8</ele>
        <time>2021-07-06T10:11:06Z</time>
      </trkpt>
      <trkpt lat="43.77154" lon="6.3772">
        <ele>1161.9</ele>
        <time>2021-07-06T10:11:13Z</time>
      </trkpt>
      <trkpt lat="43.77154" lon="6.3772">
        <ele>1161.4</ele>
        <time>2021-07-06T10:11:16Z</time>
      </trkpt>
      <trkpt lat="43.77155" lon="6.37721">
        <ele>1160.8</ele>
        <time>2021-07-06T10:11:25Z</time>
      </trkpt>
      <trkpt lat="43.77155" lon="6.37721">
        <ele>1160.8</ele>
        <time>2021-07-06T10:11:26Z</time>
      </trkpt>
      <trkpt lat="43.77156" lon="6.37721">
        <ele>1159.7</ele>
        <time>2021-07-06T10:11:47Z</time>
      </trkpt>
      <trkpt lat="43.77158" lon="6.37722">
        <ele>1158.6</ele>
        <time>2021-07-06T10:11:54Z</time>
      </trkpt>
      <trkpt lat="43.77165" lon="6.37723">
        <ele>1157.3</ele>
        <time>2021-07-06T10:12:01Z</time>
      </trkpt>
      <trkpt lat="43.77168" lon="6.37723">
        <ele>1158</ele>
        <time>2021-07-06T10:12:08Z</time>
      </trkpt>
      <trkpt lat="43.77168" lon="6.37724">
        <ele>1158.4</ele>
        <time>2021-07-06T10:12:11Z</time>
      </trkpt>
      <trkpt lat="43.77169" lon="6.37725">
        <ele>1159.3</ele>
        <time>2021-07-06T10:12:19Z</time>
      </trkpt>
      <trkpt lat="43.77172" lon="6.37724">
        <ele>1157.2</ele>
        <time>2021-07-06T10:12:26Z</time>
      </trkpt>
      <trkpt lat="43.77174" lon="6.37724">
        <ele>1158</ele>
        <time>2021-07-06T10:12:33Z</time>
      </trkpt>
      <trkpt lat="43.77174" lon="6.37724">
        <ele>1157.3</ele>
        <time>2021-07-06T10:12:42Z</time>
      </trkpt>
      <trkpt lat="43.77174" lon="6.37725">
        <ele>1157.2</ele>
        <time>2021-07-06T10:12:43Z</time>
      </trkpt>
      <trkpt lat="43.77177" lon="6.37726">
        <ele>1156.9</ele>
        <time>2021-07-06T10:13:15Z</time>
      </trkpt>
      <trkpt lat="43.77177" lon="6.37727">
        <ele>1156.3</ele>
        <time>2021-07-06T10:13:21Z</time>
      </trkpt>
      <trkpt lat="43.77177" lon="6.37729">
        <ele>1155.8</ele>
        <time>2021-07-06T10:13:31Z</time>
      </trkpt>
      <trkpt lat="43.77177" lon="6.37729">
        <ele>1155.7</ele>
        <time>2021-07-06T10:13:32Z</time>
      </trkpt>
      <trkpt lat="43.77178" lon="6.37729">
        <ele>1156.6</ele>
        <time>2021-07-06T10:13:42Z</time>
      </trkpt>
      <trkpt lat="43.77178" lon="6.37729">
        <ele>1156.7</ele>
        <time>2021-07-06T10:13:43Z</time>
      </trkpt>
      <trkpt lat="43.77177" lon="6.37736">
        <ele>1155.6</ele>
        <time>2021-07-06T10:13:58Z</time>
      </trkpt>
      <trkpt lat="43.77176" lon="6.3774">
        <ele>1155.9</ele>
        <time>2021-07-06T10:14:05Z</time>
      </trkpt>
      <trkpt lat="43.77176" lon="6.37744">
        <ele>1155.6</ele>
        <time>2021-07-06T10:14:12Z</time>
      </trkpt>
      <trkpt lat="43.77176" lon="6.37747">
        <ele>1157.2</ele>
        <time>2021-07-06T10:14:19Z</time>
      </trkpt>
      <trkpt lat="43.77178" lon="6.37753">
        <ele>1159.7</ele>
        <time>2021-07-06T10:14:26Z</time>
      </trkpt>
      <trkpt lat="43.77177" lon="6.37753">
        <ele>1159.6</ele>
        <time>2021-07-06T10:14:32Z</time>
      </trkpt>
      <trkpt lat="43.77177" lon="6.37756">
        <ele>1158.3</ele>
        <time>2021-07-06T10:14:39Z</time>
      </trkpt>
      <trkpt lat="43.77177" lon="6.37756">
        <ele>1158.7</ele>
        <time>2021-07-06T10:14:40Z</time>
      </trkpt>
      <trkpt lat="43.77178" lon="6.37754">
        <ele>1158.9</ele>
        <time>2021-07-06T10:15:02Z</time>
      </trkpt>
      <trkpt lat="43.77178" lon="6.37757">
        <ele>1136</ele>
        <time>2021-07-06T10:15:09Z</time>
      </trkpt>
      <trkpt lat="43.77178" lon="6.37759">
        <ele>1155.1</ele>
        <time>2021-07-06T10:15:16Z</time>
      </trkpt>
      <trkpt lat="43.77178" lon="6.37759">
        <ele>1158.7</ele>
        <time>2021-07-06T10:15:21Z</time>
      </trkpt>
      <trkpt lat="43.77178" lon="6.37762">
        <ele>1160.2</ele>
        <time>2021-07-06T10:15:33Z</time>
      </trkpt>
      <trkpt lat="43.77178" lon="6.37763">
        <ele>1160.6</ele>
        <time>2021-07-06T10:15:39Z</time>
      </trkpt>
      <trkpt lat="43.77179" lon="6.37768">
        <ele>1161.4</ele>
        <time>2021-07-06T10:15:47Z</time>
      </trkpt>
      <trkpt lat="43.77178" lon="6.37768">
        <ele>1161.6</ele>
        <time>2021-07-06T10:15:52Z</time>
      </trkpt>
      <trkpt lat="43.77178" lon="6.37773">
        <ele>1162.3</ele>
        <time>2021-07-06T10:16:01Z</time>
      </trkpt>
      <trkpt lat="43.77176" lon="6.3778">
        <ele>1163.1</ele>
        <time>2021-07-06T10:16:08Z</time>
      </trkpt>
      <trkpt lat="43.77176" lon="6.37783">
        <ele>1163.7</ele>
        <time>2021-07-06T10:16:15Z</time>
      </trkpt>
      <trkpt lat="43.77176" lon="6.37787">
        <ele>1163.6</ele>
        <time>2021-07-06T10:16:22Z</time>
      </trkpt>
      <trkpt lat="43.77176" lon="6.37787">
        <ele>1163.5</ele>
        <time>2021-07-06T10:16:24Z</time>
      </trkpt>
      <trkpt lat="43.77178" lon="6.37792">
        <ele>1163.8</ele>
        <time>2021-07-06T10:16:40Z</time>
      </trkpt>
      <trkpt lat="43.77178" lon="6.37792">
        <ele>1163.7</ele>
        <time>2021-07-06T10:16:42Z</time>
      </trkpt>
      <trkpt lat="43.77179" lon="6.37794">
        <ele>1160.6</ele>
        <time>2021-07-06T10:16:50Z</time>
      </trkpt>
      <trkpt lat="43.77178" lon="6.37795">
        <ele>1160.7</ele>
        <time>2021-07-06T10:16:57Z</time>
      </trkpt>
      <trkpt lat="43.77177" lon="6.37795">
        <ele>1161.3</ele>
        <time>2021-07-06T10:16:59Z</time>
      </trkpt>
      <trkpt lat="43.77177" lon="6.37794">
        <ele>1161.6</ele>
        <time>2021-07-06T10:17:13Z</time>
      </trkpt>
      <trkpt lat="43.77177" lon="6.37794">
        <ele>1161.6</ele>
        <time>2021-07-06T10:17:14Z</time>
      </trkpt>
      <trkpt lat="43.77178" lon="6.3779">
        <ele>1161.6</ele>
        <time>2021-07-06T10:17:46Z</time>
      </trkpt>
      <trkpt lat="43.77178" lon="6.3779">
        <ele>1162.7</ele>
        <time>2021-07-06T10:17:49Z</time>
      </trkpt>
      <trkpt lat="43.77178" lon="6.37796">
        <ele>1161.3</ele>
        <time>2021-07-06T10:17:58Z</time>
      </trkpt>
      <trkpt lat="43.77177" lon="6.37797">
        <ele>1160.7</ele>
        <time>2021-07-06T10:18:03Z</time>
      </trkpt>
      <trkpt lat="43.77178" lon="6.37796">
        <ele>1160.1</ele>
        <time>2021-07-06T10:23:14Z</time>
      </trkpt>
      <trkpt lat="43.77177" lon="6.37796">
        <ele>1160.2</ele>
        <time>2021-07-06T10:23:19Z</time>
      </trkpt>
      <trkpt lat="43.77178" lon="6.37788">
        <ele>1161.4</ele>
        <time>2021-07-06T10:23:42Z</time>
      </trkpt>
      <trkpt lat="43.77179" lon="6.37782">
        <ele>1161.3</ele>
        <time>2021-07-06T10:23:49Z</time>
      </trkpt>
      <trkpt lat="43.77181" lon="6.37777">
        <ele>1160.5</ele>
        <time>2021-07-06T10:23:56Z</time>
      </trkpt>
      <trkpt lat="43.77181" lon="6.37773">
        <ele>1160.5</ele>
        <time>2021-07-06T10:24:03Z</time>
      </trkpt>
      <trkpt lat="43.77182" lon="6.37771">
        <ele>1160.8</ele>
        <time>2021-07-06T10:24:10Z</time>
      </trkpt>
      <trkpt lat="43.77182" lon="6.37771">
        <ele>1160</ele>
        <time>2021-07-06T10:24:11Z</time>
      </trkpt>
      <trkpt lat="43.7718" lon="6.37765">
        <ele>1160.6</ele>
        <time>2021-07-06T10:24:19Z</time>
      </trkpt>
      <trkpt lat="43.77181" lon="6.37761">
        <ele>1159.2</ele>
        <time>2021-07-06T10:24:26Z</time>
      </trkpt>
      <trkpt lat="43.77179" lon="6.37757">
        <ele>1157.1</ele>
        <time>2021-07-06T10:24:33Z</time>
      </trkpt>
      <trkpt lat="43.77178" lon="6.37753">
        <ele>1156</ele>
        <time>2021-07-06T10:24:40Z</time>
      </trkpt>
      <trkpt lat="43.77178" lon="6.37752">
        <ele>1154.5</ele>
        <time>2021-07-06T10:24:44Z</time>
      </trkpt>
      <trkpt lat="43.77178" lon="6.37746">
        <ele>1154.7</ele>
        <time>2021-07-06T10:24:52Z</time>
      </trkpt>
      <trkpt lat="43.77179" lon="6.37738">
        <ele>1158.5</ele>
        <time>2021-07-06T10:24:59Z</time>
      </trkpt>
      <trkpt lat="43.77177" lon="6.3773">
        <ele>1156.3</ele>
        <time>2021-07-06T10:25:06Z</time>
      </trkpt>
      <trkpt lat="43.77174" lon="6.37726">
        <ele>1156.4</ele>
        <time>2021-07-06T10:25:13Z</time>
      </trkpt>
      <trkpt lat="43.77168" lon="6.37724">
        <ele>1156.3</ele>
        <time>2021-07-06T10:25:20Z</time>
      </trkpt>
      <trkpt lat="43.77164" lon="6.37723">
        <ele>1156.9</ele>
        <time>2021-07-06T10:25:27Z</time>
      </trkpt>
      <trkpt lat="43.77159" lon="6.37723">
        <ele>1157</ele>
        <time>2021-07-06T10:25:34Z</time>
      </trkpt>
      <trkpt lat="43.77153" lon="6.37723">
        <ele>1157.6</ele>
        <time>2021-07-06T10:25:41Z</time>
      </trkpt>
      <trkpt lat="43.7715" lon="6.37719">
        <ele>1154.3</ele>
        <time>2021-07-06T10:25:48Z</time>
      </trkpt>
      <trkpt lat="43.77149" lon="6.37714">
        <ele>1129.6</ele>
        <time>2021-07-06T10:25:55Z</time>
      </trkpt>
      <trkpt lat="43.77148" lon="6.37712">
        <ele>1151.3</ele>
        <time>2021-07-06T10:26:02Z</time>
      </trkpt>
      <trkpt lat="43.77148" lon="6.37707">
        <ele>1152.8</ele>
        <time>2021-07-06T10:26:09Z</time>
      </trkpt>
      <trkpt lat="43.77147" lon="6.37699">
        <ele>1151.8</ele>
        <time>2021-07-06T10:26:16Z</time>
      </trkpt>
      <trkpt lat="43.77148" lon="6.37693">
        <ele>1153.1</ele>
        <time>2021-07-06T10:26:23Z</time>
      </trkpt>
      <trkpt lat="43.77149" lon="6.37687">
        <ele>1147.5</ele>
        <time>2021-07-06T10:26:30Z</time>
      </trkpt>
      <trkpt lat="43.77149" lon="6.37682">
        <ele>1149.4</ele>
        <time>2021-07-06T10:26:37Z</time>
      </trkpt>
      <trkpt lat="43.77149" lon="6.37676">
        <ele>1149.7</ele>
        <time>2021-07-06T10:26:44Z</time>
      </trkpt>
      <trkpt lat="43.77144" lon="6.37671">
        <ele>1150.8</ele>
        <time>2021-07-06T10:26:51Z</time>
      </trkpt>
      <trkpt lat="43.7714" lon="6.37668">
        <ele>1152.3</ele>
        <time>2021-07-06T10:26:58Z</time>
      </trkpt>
      <trkpt lat="43.77139" lon="6.37664">
        <ele>1152</ele>
        <time>2021-07-06T10:27:05Z</time>
      </trkpt>
      <trkpt lat="43.77138" lon="6.37663">
        <ele>1149.6</ele>
        <time>2021-07-06T10:27:12Z</time>
      </trkpt>
      <trkpt lat="43.77138" lon="6.37662">
        <ele>1148.3</ele>
        <time>2021-07-06T10:27:17Z</time>
      </trkpt>
      <trkpt lat="43.77139" lon="6.37656">
        <ele>1146.3</ele>
        <time>2021-07-06T10:27:43Z</time>
      </trkpt>
      <trkpt lat="43.77142" lon="6.37649">
        <ele>1142.7</ele>
        <time>2021-07-06T10:27:50Z</time>
      </trkpt>
      <trkpt lat="43.77144" lon="6.37641">
        <ele>1143.2</ele>
        <time>2021-07-06T10:27:57Z</time>
      </trkpt>
      <trkpt lat="43.77146" lon="6.37633">
        <ele>1144.6</ele>
        <time>2021-07-06T10:28:04Z</time>
      </trkpt>
      <trkpt lat="43.77145" lon="6.37623">
        <ele>1147.2</ele>
        <time>2021-07-06T10:28:11Z</time>
      </trkpt>
      <trkpt lat="43.77139" lon="6.37617">
        <ele>1146.2</ele>
        <time>2021-07-06T10:28:17Z</time>
      </trkpt>
      <trkpt lat="43.77135" lon="6.37609">
        <ele>1146.7</ele>
        <time>2021-07-06T10:28:22Z</time>
      </trkpt>
      <trkpt lat="43.77129" lon="6.37601">
        <ele>1147.5</ele>
        <time>2021-07-06T10:28:27Z</time>
      </trkpt>
      <trkpt lat="43.77124" lon="6.37591">
        <ele>1147.6</ele>
        <time>2021-07-06T10:28:32Z</time>
      </trkpt>
      <trkpt lat="43.77119" lon="6.37583">
        <ele>1149</ele>
        <time>2021-07-06T10:28:36Z</time>
      </trkpt>
      <trkpt lat="43.77114" lon="6.37574">
        <ele>1149</ele>
        <time>2021-07-06T10:28:41Z</time>
      </trkpt>
      <trkpt lat="43.7711" lon="6.37566">
        <ele>1147.7</ele>
        <time>2021-07-06T10:28:45Z</time>
      </trkpt>
      <trkpt lat="43.77105" lon="6.37558">
        <ele>1149</ele>
        <time>2021-07-06T10:28:49Z</time>
      </trkpt>
      <trkpt lat="43.771" lon="6.3755">
        <ele>1148.3</ele>
        <time>2021-07-06T10:28:53Z</time>
      </trkpt>
      <trkpt lat="43.77095" lon="6.3754">
        <ele>1150</ele>
        <time>2021-07-06T10:28:58Z</time>
      </trkpt>
      <trkpt lat="43.77091" lon="6.37531">
        <ele>1152</ele>
        <time>2021-07-06T10:29:02Z</time>
      </trkpt>
      <trkpt lat="43.77087" lon="6.37522">
        <ele>1154.6</ele>
        <time>2021-07-06T10:29:06Z</time>
      </trkpt>
      <trkpt lat="43.77083" lon="6.37512">
        <ele>1154.6</ele>
        <time>2021-07-06T10:29:10Z</time>
      </trkpt>
      <trkpt lat="43.77077" lon="6.37501">
        <ele>1156.1</ele>
        <time>2021-07-06T10:29:14Z</time>
      </trkpt>
      <trkpt lat="43.77072" lon="6.37492">
        <ele>1155.7</ele>
        <time>2021-07-06T10:29:18Z</time>
      </trkpt>
      <trkpt lat="43.77066" lon="6.37483">
        <ele>1157.4</ele>
        <time>2021-07-06T10:29:22Z</time>
      </trkpt>
      <trkpt lat="43.7706" lon="6.37474">
        <ele>1158.9</ele>
        <time>2021-07-06T10:29:26Z</time>
      </trkpt>
      <trkpt lat="43.77055" lon="6.37465">
        <ele>1160.7</ele>
        <time>2021-07-06T10:29:30Z</time>
      </trkpt>
      <trkpt lat="43.7705" lon="6.37456">
        <ele>1159.3</ele>
        <time>2021-07-06T10:29:34Z</time>
      </trkpt>
      <trkpt lat="43.77044" lon="6.37448">
        <ele>1159.9</ele>
        <time>2021-07-06T10:29:38Z</time>
      </trkpt>
      <trkpt lat="43.77038" lon="6.37439">
        <ele>1161.3</ele>
        <time>2021-07-06T10:29:42Z</time>
      </trkpt>
      <trkpt lat="43.77033" lon="6.37432">
        <ele>1162.3</ele>
        <time>2021-07-06T10:29:46Z</time>
      </trkpt>
      <trkpt lat="43.77028" lon="6.37424">
        <ele>1164.5</ele>
        <time>2021-07-06T10:29:50Z</time>
      </trkpt>
      <trkpt lat="43.77023" lon="6.37417">
        <ele>1165.1</ele>
        <time>2021-07-06T10:29:54Z</time>
      </trkpt>
      <trkpt lat="43.77018" lon="6.37409">
        <ele>1166.5</ele>
        <time>2021-07-06T10:29:58Z</time>
      </trkpt>
      <trkpt lat="43.77013" lon="6.37401">
        <ele>1166.1</ele>
        <time>2021-07-06T10:30:02Z</time>
      </trkpt>
      <trkpt lat="43.77009" lon="6.37393">
        <ele>1164.8</ele>
        <time>2021-07-06T10:30:06Z</time>
      </trkpt>
      <trkpt lat="43.77003" lon="6.37385">
        <ele>1166.8</ele>
        <time>2021-07-06T10:30:10Z</time>
      </trkpt>
      <trkpt lat="43.76997" lon="6.37377">
        <ele>1167.2</ele>
        <time>2021-07-06T10:30:14Z</time>
      </trkpt>
      <trkpt lat="43.76991" lon="6.37368">
        <ele>1168.2</ele>
        <time>2021-07-06T10:30:18Z</time>
      </trkpt>
      <trkpt lat="43.76986" lon="6.37358">
        <ele>1169.1</ele>
        <time>2021-07-06T10:30:22Z</time>
      </trkpt>
      <trkpt lat="43.7698" lon="6.37349">
        <ele>1170.5</ele>
        <time>2021-07-06T10:30:26Z</time>
      </trkpt>
      <trkpt lat="43.76975" lon="6.3734">
        <ele>1171.8</ele>
        <time>2021-07-06T10:30:30Z</time>
      </trkpt>
      <trkpt lat="43.76969" lon="6.3733">
        <ele>1172.6</ele>
        <time>2021-07-06T10:30:34Z</time>
      </trkpt>
      <trkpt lat="43.76964" lon="6.37321">
        <ele>1174.2</ele>
        <time>2021-07-06T10:30:38Z</time>
      </trkpt>
      <trkpt lat="43.76959" lon="6.37311">
        <ele>1176</ele>
        <time>2021-07-06T10:30:42Z</time>
      </trkpt>
      <trkpt lat="43.76954" lon="6.37301">
        <ele>1177.4</ele>
        <time>2021-07-06T10:30:46Z</time>
      </trkpt>
      <trkpt lat="43.76948" lon="6.37292">
        <ele>1178.2</ele>
        <time>2021-07-06T10:30:50Z</time>
      </trkpt>
      <trkpt lat="43.76943" lon="6.37283">
        <ele>1179.3</ele>
        <time>2021-07-06T10:30:54Z</time>
      </trkpt>
      <trkpt lat="43.76936" lon="6.37276">
        <ele>1181.3</ele>
        <time>2021-07-06T10:30:58Z</time>
      </trkpt>
      <trkpt lat="43.7693" lon="6.37268">
        <ele>1166.8</ele>
        <time>2021-07-06T10:31:02Z</time>
      </trkpt>
      <trkpt lat="43.76923" lon="6.37259">
        <ele>1180.1</ele>
        <time>2021-07-06T10:31:06Z</time>
      </trkpt>
      <trkpt lat="43.76916" lon="6.37252">
        <ele>1182.6</ele>
        <time>2021-07-06T10:31:10Z</time>
      </trkpt>
      <trkpt lat="43.7691" lon="6.37245">
        <ele>1183.5</ele>
        <time>2021-07-06T10:31:14Z</time>
      </trkpt>
      <trkpt lat="43.76903" lon="6.37238">
        <ele>1184.8</ele>
        <time>2021-07-06T10:31:19Z</time>
      </trkpt>
      <trkpt lat="43.76896" lon="6.37231">
        <ele>1173.9</ele>
        <time>2021-07-06T10:31:24Z</time>
      </trkpt>
      <trkpt lat="43.76888" lon="6.37224">
        <ele>1185</ele>
        <time>2021-07-06T10:31:29Z</time>
      </trkpt>
      <trkpt lat="43.76882" lon="6.37219">
        <ele>1189.1</ele>
        <time>2021-07-06T10:31:33Z</time>
      </trkpt>
      <trkpt lat="43.76876" lon="6.37212">
        <ele>1191.6</ele>
        <time>2021-07-06T10:31:37Z</time>
      </trkpt>
      <trkpt lat="43.7687" lon="6.37206">
        <ele>1193.9</ele>
        <time>2021-07-06T10:31:41Z</time>
      </trkpt>
      <trkpt lat="43.76863" lon="6.372">
        <ele>1195.1</ele>
        <time>2021-07-06T10:31:45Z</time>
      </trkpt>
      <trkpt lat="43.76856" lon="6.37194">
        <ele>1197.2</ele>
        <time>2021-07-06T10:31:49Z</time>
      </trkpt>
      <trkpt lat="43.76851" lon="6.37188">
        <ele>1199.4</ele>
        <time>2021-07-06T10:31:53Z</time>
      </trkpt>
      <trkpt lat="43.76844" lon="6.37182">
        <ele>1201.2</ele>
        <time>2021-07-06T10:31:57Z</time>
      </trkpt>
      <trkpt lat="43.76838" lon="6.37175">
        <ele>1202</ele>
        <time>2021-07-06T10:32:01Z</time>
      </trkpt>
      <trkpt lat="43.76832" lon="6.37171">
        <ele>1202.9</ele>
        <time>2021-07-06T10:32:05Z</time>
      </trkpt>
      <trkpt lat="43.76825" lon="6.37165">
        <ele>1204.4</ele>
        <time>2021-07-06T10:32:09Z</time>
      </trkpt>
      <trkpt lat="43.76818" lon="6.37158">
        <ele>1205.1</ele>
        <time>2021-07-06T10:32:13Z</time>
      </trkpt>
      <trkpt lat="43.76811" lon="6.37152">
        <ele>1205.7</ele>
        <time>2021-07-06T10:32:17Z</time>
      </trkpt>
      <trkpt lat="43.76804" lon="6.37146">
        <ele>1206.2</ele>
        <time>2021-07-06T10:32:21Z</time>
      </trkpt>
      <trkpt lat="43.76798" lon="6.3714">
        <ele>1208</ele>
        <time>2021-07-06T10:32:25Z</time>
      </trkpt>
      <trkpt lat="43.76792" lon="6.37133">
        <ele>1208.5</ele>
        <time>2021-07-06T10:32:29Z</time>
      </trkpt>
      <trkpt lat="43.76785" lon="6.37126">
        <ele>1207.9</ele>
        <time>2021-07-06T10:32:33Z</time>
      </trkpt>
      <trkpt lat="43.76778" lon="6.3712">
        <ele>1208.6</ele>
        <time>2021-07-06T10:32:37Z</time>
      </trkpt>
      <trkpt lat="43.76771" lon="6.37114">
        <ele>1209.5</ele>
        <time>2021-07-06T10:32:41Z</time>
      </trkpt>
      <trkpt lat="43.76764" lon="6.37106">
        <ele>1210.4</ele>
        <time>2021-07-06T10:32:46Z</time>
      </trkpt>
      <trkpt lat="43.76758" lon="6.371">
        <ele>1211</ele>
        <time>2021-07-06T10:32:50Z</time>
      </trkpt>
      <trkpt lat="43.76751" lon="6.37093">
        <ele>1211.7</ele>
        <time>2021-07-06T10:32:54Z</time>
      </trkpt>
      <trkpt lat="43.76745" lon="6.37085">
        <ele>1211.8</ele>
        <time>2021-07-06T10:32:58Z</time>
      </trkpt>
      <trkpt lat="43.76739" lon="6.37078">
        <ele>1212.6</ele>
        <time>2021-07-06T10:33:02Z</time>
      </trkpt>
      <trkpt lat="43.76733" lon="6.3707">
        <ele>1213.9</ele>
        <time>2021-07-06T10:33:06Z</time>
      </trkpt>
      <trkpt lat="43.76727" lon="6.37061">
        <ele>1214.8</ele>
        <time>2021-07-06T10:33:10Z</time>
      </trkpt>
      <trkpt lat="43.76721" lon="6.37052">
        <ele>1215.4</ele>
        <time>2021-07-06T10:33:14Z</time>
      </trkpt>
      <trkpt lat="43.76715" lon="6.37042">
        <ele>1215</ele>
        <time>2021-07-06T10:33:18Z</time>
      </trkpt>
      <trkpt lat="43.7671" lon="6.37034">
        <ele>1215.2</ele>
        <time>2021-07-06T10:33:21Z</time>
      </trkpt>
      <trkpt lat="43.76704" lon="6.37026">
        <ele>1217.7</ele>
        <time>2021-07-06T10:33:25Z</time>
      </trkpt>
      <trkpt lat="43.76699" lon="6.37018">
        <ele>1218.6</ele>
        <time>2021-07-06T10:33:29Z</time>
      </trkpt>
      <trkpt lat="43.76693" lon="6.3701">
        <ele>1220.2</ele>
        <time>2021-07-06T10:33:33Z</time>
      </trkpt>
      <trkpt lat="43.76687" lon="6.37001">
        <ele>1220.9</ele>
        <time>2021-07-06T10:33:37Z</time>
      </trkpt>
      <trkpt lat="43.76681" lon="6.36992">
        <ele>1221.1</ele>
        <time>2021-07-06T10:33:41Z</time>
      </trkpt>
      <trkpt lat="43.76675" lon="6.36983">
        <ele>1222.3</ele>
        <time>2021-07-06T10:33:45Z</time>
      </trkpt>
      <trkpt lat="43.76669" lon="6.36974">
        <ele>1221.6</ele>
        <time>2021-07-06T10:33:49Z</time>
      </trkpt>
      <trkpt lat="43.76662" lon="6.36967">
        <ele>1220.9</ele>
        <time>2021-07-06T10:33:53Z</time>
      </trkpt>
      <trkpt lat="43.76656" lon="6.36959">
        <ele>1222.8</ele>
        <time>2021-07-06T10:33:57Z</time>
      </trkpt>
      <trkpt lat="43.76649" lon="6.36952">
        <ele>1225.2</ele>
        <time>2021-07-06T10:34:01Z</time>
      </trkpt>
      <trkpt lat="43.76643" lon="6.36945">
        <ele>1226.5</ele>
        <time>2021-07-06T10:34:05Z</time>
      </trkpt>
      <trkpt lat="43.76637" lon="6.36937">
        <ele>1226.8</ele>
        <time>2021-07-06T10:34:09Z</time>
      </trkpt>
      <trkpt lat="43.7663" lon="6.36929">
        <ele>1229.3</ele>
        <time>2021-07-06T10:34:13Z</time>
      </trkpt>
      <trkpt lat="43.76623" lon="6.36921">
        <ele>1230.4</ele>
        <time>2021-07-06T10:34:17Z</time>
      </trkpt>
      <trkpt lat="43.76615" lon="6.36915">
        <ele>1231.1</ele>
        <time>2021-07-06T10:34:21Z</time>
      </trkpt>
      <trkpt lat="43.76608" lon="6.36908">
        <ele>1232.9</ele>
        <time>2021-07-06T10:34:25Z</time>
      </trkpt>
      <trkpt lat="43.76602" lon="6.36901">
        <ele>1233.6</ele>
        <time>2021-07-06T10:34:29Z</time>
      </trkpt>
      <trkpt lat="43.76595" lon="6.36894">
        <ele>1234.9</ele>
        <time>2021-07-06T10:34:33Z</time>
      </trkpt>
      <trkpt lat="43.76589" lon="6.36886">
        <ele>1236.5</ele>
        <time>2021-07-06T10:34:37Z</time>
      </trkpt>
      <trkpt lat="43.76582" lon="6.3688">
        <ele>1238.5</ele>
        <time>2021-07-06T10:34:41Z</time>
      </trkpt>
      <trkpt lat="43.76574" lon="6.36874">
        <ele>1238.9</ele>
        <time>2021-07-06T10:34:45Z</time>
      </trkpt>
      <trkpt lat="43.76567" lon="6.36867">
        <ele>1239.3</ele>
        <time>2021-07-06T10:34:49Z</time>
      </trkpt>
      <trkpt lat="43.76561" lon="6.36859">
        <ele>1240</ele>
        <time>2021-07-06T10:34:53Z</time>
      </trkpt>
      <trkpt lat="43.76554" lon="6.36851">
        <ele>1241.3</ele>
        <time>2021-07-06T10:34:57Z</time>
      </trkpt>
      <trkpt lat="43.76548" lon="6.36843">
        <ele>1241.6</ele>
        <time>2021-07-06T10:35:01Z</time>
      </trkpt>
      <trkpt lat="43.76543" lon="6.36834">
        <ele>1241.4</ele>
        <time>2021-07-06T10:35:05Z</time>
      </trkpt>
      <trkpt lat="43.76536" lon="6.36828">
        <ele>1242</ele>
        <time>2021-07-06T10:35:09Z</time>
      </trkpt>
      <trkpt lat="43.76528" lon="6.36828">
        <ele>1243.2</ele>
        <time>2021-07-06T10:35:13Z</time>
      </trkpt>
      <trkpt lat="43.76521" lon="6.36833">
        <ele>1244.8</ele>
        <time>2021-07-06T10:35:17Z</time>
      </trkpt>
      <trkpt lat="43.76517" lon="6.36844">
        <ele>1245.2</ele>
        <time>2021-07-06T10:35:21Z</time>
      </trkpt>
      <trkpt lat="43.76517" lon="6.36855">
        <ele>1245.5</ele>
        <time>2021-07-06T10:35:25Z</time>
      </trkpt>
      <trkpt lat="43.7652" lon="6.36865">
        <ele>1245.4</ele>
        <time>2021-07-06T10:35:28Z</time>
      </trkpt>
      <trkpt lat="43.76523" lon="6.36874">
        <ele>1244.8</ele>
        <time>2021-07-06T10:35:31Z</time>
      </trkpt>
      <trkpt lat="43.76528" lon="6.36882">
        <ele>1244.5</ele>
        <time>2021-07-06T10:35:34Z</time>
      </trkpt>
      <trkpt lat="43.7653" lon="6.36895">
        <ele>1245</ele>
        <time>2021-07-06T10:35:38Z</time>
      </trkpt>
      <trkpt lat="43.7653" lon="6.36907">
        <ele>1246.2</ele>
        <time>2021-07-06T10:35:42Z</time>
      </trkpt>
      <trkpt lat="43.7653" lon="6.36919">
        <ele>1247.1</ele>
        <time>2021-07-06T10:35:46Z</time>
      </trkpt>
      <trkpt lat="43.76531" lon="6.36931">
        <ele>1247.5</ele>
        <time>2021-07-06T10:35:50Z</time>
      </trkpt>
      <trkpt lat="43.7653" lon="6.36942">
        <ele>1248.7</ele>
        <time>2021-07-06T10:35:54Z</time>
      </trkpt>
      <trkpt lat="43.7653" lon="6.36955">
        <ele>1250.5</ele>
        <time>2021-07-06T10:35:58Z</time>
      </trkpt>
      <trkpt lat="43.76532" lon="6.36966">
        <ele>1252.1</ele>
        <time>2021-07-06T10:36:02Z</time>
      </trkpt>
      <trkpt lat="43.76532" lon="6.36978">
        <ele>1253.5</ele>
        <time>2021-07-06T10:36:06Z</time>
      </trkpt>
      <trkpt lat="43.76532" lon="6.36989">
        <ele>1255.1</ele>
        <time>2021-07-06T10:36:10Z</time>
      </trkpt>
      <trkpt lat="43.76532" lon="6.37">
        <ele>1256</ele>
        <time>2021-07-06T10:36:14Z</time>
      </trkpt>
      <trkpt lat="43.76531" lon="6.37012">
        <ele>1256</ele>
        <time>2021-07-06T10:36:18Z</time>
      </trkpt>
      <trkpt lat="43.76532" lon="6.37024">
        <ele>1257.3</ele>
        <time>2021-07-06T10:36:22Z</time>
      </trkpt>
      <trkpt lat="43.76531" lon="6.37035">
        <ele>1258.6</ele>
        <time>2021-07-06T10:36:26Z</time>
      </trkpt>
      <trkpt lat="43.76531" lon="6.37048">
        <ele>1259.8</ele>
        <time>2021-07-06T10:36:30Z</time>
      </trkpt>
      <trkpt lat="43.76531" lon="6.37061">
        <ele>1261.2</ele>
        <time>2021-07-06T10:36:34Z</time>
      </trkpt>
      <trkpt lat="43.76532" lon="6.37073">
        <ele>1262.3</ele>
        <time>2021-07-06T10:36:38Z</time>
      </trkpt>
      <trkpt lat="43.76533" lon="6.37086">
        <ele>1263.4</ele>
        <time>2021-07-06T10:36:42Z</time>
      </trkpt>
      <trkpt lat="43.76532" lon="6.37098">
        <ele>1264</ele>
        <time>2021-07-06T10:36:46Z</time>
      </trkpt>
      <trkpt lat="43.76532" lon="6.3711">
        <ele>1264.9</ele>
        <time>2021-07-06T10:36:50Z</time>
      </trkpt>
      <trkpt lat="43.76532" lon="6.37123">
        <ele>1265.2</ele>
        <time>2021-07-06T10:36:54Z</time>
      </trkpt>
      <trkpt lat="43.76532" lon="6.37135">
        <ele>1266.3</ele>
        <time>2021-07-06T10:36:58Z</time>
      </trkpt>
      <trkpt lat="43.76532" lon="6.37147">
        <ele>1267.8</ele>
        <time>2021-07-06T10:37:02Z</time>
      </trkpt>
      <trkpt lat="43.76533" lon="6.3716">
        <ele>1269.5</ele>
        <time>2021-07-06T10:37:06Z</time>
      </trkpt>
      <trkpt lat="43.76534" lon="6.37173">
        <ele>1271.5</ele>
        <time>2021-07-06T10:37:10Z</time>
      </trkpt>
      <trkpt lat="43.76534" lon="6.37186">
        <ele>1272.3</ele>
        <time>2021-07-06T10:37:14Z</time>
      </trkpt>
      <trkpt lat="43.76534" lon="6.37198">
        <ele>1273.9</ele>
        <time>2021-07-06T10:37:18Z</time>
      </trkpt>
      <trkpt lat="43.76534" lon="6.3721">
        <ele>1274.9</ele>
        <time>2021-07-06T10:37:22Z</time>
      </trkpt>
      <trkpt lat="43.76535" lon="6.37224">
        <ele>1277.2</ele>
        <time>2021-07-06T10:37:26Z</time>
      </trkpt>
      <trkpt lat="43.76535" lon="6.37237">
        <ele>1278.2</ele>
        <time>2021-07-06T10:37:30Z</time>
      </trkpt>
      <trkpt lat="43.76536" lon="6.37249">
        <ele>1279.4</ele>
        <time>2021-07-06T10:37:34Z</time>
      </trkpt>
      <trkpt lat="43.76536" lon="6.37262">
        <ele>1280.4</ele>
        <time>2021-07-06T10:37:38Z</time>
      </trkpt>
      <trkpt lat="43.76538" lon="6.37275">
        <ele>1281.6</ele>
        <time>2021-07-06T10:37:42Z</time>
      </trkpt>
      <trkpt lat="43.76538" lon="6.37286">
        <ele>1282.5</ele>
        <time>2021-07-06T10:37:45Z</time>
      </trkpt>
      <trkpt lat="43.76539" lon="6.37296">
        <ele>1281.7</ele>
        <time>2021-07-06T10:37:48Z</time>
      </trkpt>
      <trkpt lat="43.76541" lon="6.37309">
        <ele>1282.5</ele>
        <time>2021-07-06T10:37:52Z</time>
      </trkpt>
      <trkpt lat="43.76542" lon="6.37318">
        <ele>1282.8</ele>
        <time>2021-07-06T10:37:55Z</time>
      </trkpt>
      <trkpt lat="43.7654" lon="6.37329">
        <ele>1283.5</ele>
        <time>2021-07-06T10:37:59Z</time>
      </trkpt>
      <trkpt lat="43.76533" lon="6.37332">
        <ele>1263.4</ele>
        <time>2021-07-06T10:38:04Z</time>
      </trkpt>
      <trkpt lat="43.76527" lon="6.37331">
        <ele>1277.9</ele>
        <time>2021-07-06T10:38:11Z</time>
      </trkpt>
      <trkpt lat="43.76528" lon="6.3733">
        <ele>1282.5</ele>
        <time>2021-07-06T10:38:18Z</time>
      </trkpt>
      <trkpt lat="43.76528" lon="6.37331">
        <ele>1282.5</ele>
        <time>2021-07-06T10:38:19Z</time>
      </trkpt>
      <trkpt lat="43.76528" lon="6.37332">
        <ele>1285.3</ele>
        <time>2021-07-06T10:38:42Z</time>
      </trkpt>
      <trkpt lat="43.76529" lon="6.37332">
        <ele>1285.2</ele>
        <time>2021-07-06T10:38:48Z</time>
      </trkpt>
      <trkpt lat="43.76529" lon="6.37331">
        <ele>1285.2</ele>
        <time>2021-07-06T10:38:59Z</time>
      </trkpt>
      <trkpt lat="43.76529" lon="6.37331">
        <ele>1285.2</ele>
        <time>2021-07-06T10:39:01Z</time>
      </trkpt>
      <trkpt lat="43.76533" lon="6.37331">
        <ele>1285.8</ele>
        <time>2021-07-06T10:39:26Z</time>
      </trkpt>
      <trkpt lat="43.76533" lon="6.3733">
        <ele>1286.5</ele>
        <time>2021-07-06T10:39:33Z</time>
      </trkpt>
      <trkpt lat="43.76536" lon="6.37331">
        <ele>1283.9</ele>
        <time>2021-07-06T10:39:50Z</time>
      </trkpt>
      <trkpt lat="43.76536" lon="6.37331">
        <ele>1283.7</ele>
        <time>2021-07-06T10:39:52Z</time>
      </trkpt>
      <trkpt lat="43.76537" lon="6.37335">
        <ele>1285.4</ele>
        <time>2021-07-06T10:40:00Z</time>
      </trkpt>
      <trkpt lat="43.76537" lon="6.37336">
        <ele>1285.6</ele>
        <time>2021-07-06T10:40:05Z</time>
      </trkpt>
      <trkpt lat="43.76537" lon="6.37337">
        <ele>1285.1</ele>
        <time>2021-07-06T10:40:17Z</time>
      </trkpt>
      <trkpt lat="43.76537" lon="6.37337">
        <ele>1285.1</ele>
        <time>2021-07-06T10:40:18Z</time>
      </trkpt>
      <trkpt lat="43.76537" lon="6.3734">
        <ele>1284.9</ele>
        <time>2021-07-06T10:42:27Z</time>
      </trkpt>
      <trkpt lat="43.76538" lon="6.3734">
        <ele>1285.9</ele>
        <time>2021-07-06T10:42:27Z</time>
      </trkpt>
      <trkpt lat="43.76538" lon="6.37341">
        <ele>1285.3</ele>
        <time>2021-07-06T10:42:37Z</time>
      </trkpt>
      <trkpt lat="43.76538" lon="6.37341">
        <ele>1285.3</ele>
        <time>2021-07-06T10:42:38Z</time>
      </trkpt>
      <trkpt lat="43.76537" lon="6.37341">
        <ele>1285.4</ele>
        <time>2021-07-06T10:42:46Z</time>
      </trkpt>
      <trkpt lat="43.76538" lon="6.37341">
        <ele>1285.9</ele>
        <time>2021-07-06T10:42:48Z</time>
      </trkpt>
      <trkpt lat="43.76539" lon="6.37344">
        <ele>1284.3</ele>
        <time>2021-07-06T10:42:54Z</time>
      </trkpt>
      <trkpt lat="43.76539" lon="6.37345">
        <ele>1284.2</ele>
        <time>2021-07-06T10:42:59Z</time>
      </trkpt>
      <trkpt lat="43.76539" lon="6.37344">
        <ele>1284.3</ele>
        <time>2021-07-06T10:43:34Z</time>
      </trkpt>
      <trkpt lat="43.76539" lon="6.37344">
        <ele>1284.3</ele>
        <time>2021-07-06T10:43:35Z</time>
      </trkpt>
      <trkpt lat="43.76537" lon="6.37344">
        <ele>1279.9</ele>
        <time>2021-07-06T10:43:54Z</time>
      </trkpt>
      <trkpt lat="43.76537" lon="6.37344">
        <ele>1280.4</ele>
        <time>2021-07-06T10:43:54Z</time>
      </trkpt>
      <trkpt lat="43.76538" lon="6.37344">
        <ele>1282.3</ele>
        <time>2021-07-06T10:44:44Z</time>
      </trkpt>
      <trkpt lat="43.76538" lon="6.37343">
        <ele>1281.4</ele>
        <time>2021-07-06T10:44:45Z</time>
      </trkpt>
      <trkpt lat="43.76538" lon="6.37341">
        <ele>1282</ele>
        <time>2021-07-06T10:44:53Z</time>
      </trkpt>
      <trkpt lat="43.76538" lon="6.37341">
        <ele>1282.1</ele>
        <time>2021-07-06T10:44:54Z</time>
      </trkpt>
      <trkpt lat="43.76538" lon="6.37342">
        <ele>1283.3</ele>
        <time>2021-07-06T10:45:11Z</time>
      </trkpt>
      <trkpt lat="43.76538" lon="6.37342">
        <ele>1283.3</ele>
        <time>2021-07-06T10:45:12Z</time>
      </trkpt>
      <trkpt lat="43.76538" lon="6.37344">
        <ele>1282.1</ele>
        <time>2021-07-06T10:45:38Z</time>
      </trkpt>
      <trkpt lat="43.76538" lon="6.37345">
        <ele>1282.1</ele>
        <time>2021-07-06T10:45:39Z</time>
      </trkpt>
      <trkpt lat="43.76535" lon="6.37341">
        <ele>1284.3</ele>
        <time>2021-07-06T10:47:58Z</time>
      </trkpt>
      <trkpt lat="43.76534" lon="6.37334">
        <ele>1285.8</ele>
        <time>2021-07-06T10:48:05Z</time>
      </trkpt>
      <trkpt lat="43.76531" lon="6.37332">
        <ele>1286.6</ele>
        <time>2021-07-06T10:48:12Z</time>
      </trkpt>
      <trkpt lat="43.76525" lon="6.37331">
        <ele>1287</ele>
        <time>2021-07-06T10:48:19Z</time>
      </trkpt>
      <trkpt lat="43.76521" lon="6.37326">
        <ele>1286.8</ele>
        <time>2021-07-06T10:48:26Z</time>
      </trkpt>
      <trkpt lat="43.7652" lon="6.37324">
        <ele>1288.1</ele>
        <time>2021-07-06T10:48:33Z</time>
      </trkpt>
      <trkpt lat="43.7652" lon="6.37324">
        <ele>1287.8</ele>
        <time>2021-07-06T10:48:34Z</time>
      </trkpt>
      <trkpt lat="43.76521" lon="6.37322">
        <ele>1287.9</ele>
        <time>2021-07-06T10:48:43Z</time>
      </trkpt>
      <trkpt lat="43.76521" lon="6.37322">
        <ele>1287.8</ele>
        <time>2021-07-06T10:48:44Z</time>
      </trkpt>
      <trkpt lat="43.76522" lon="6.37327">
        <ele>1286.1</ele>
        <time>2021-07-06T10:50:13Z</time>
      </trkpt>
      <trkpt lat="43.76527" lon="6.37331">
        <ele>1285.6</ele>
        <time>2021-07-06T10:50:20Z</time>
      </trkpt>
      <trkpt lat="43.76529" lon="6.37334">
        <ele>1286.3</ele>
        <time>2021-07-06T10:50:27Z</time>
      </trkpt>
      <trkpt lat="43.76529" lon="6.37334">
        <ele>1286.3</ele>
        <time>2021-07-06T10:50:30Z</time>
      </trkpt>
      <trkpt lat="43.76529" lon="6.37332">
        <ele>1286.6</ele>
        <time>2021-07-06T10:50:41Z</time>
      </trkpt>
      <trkpt lat="43.76529" lon="6.37332">
        <ele>1286.6</ele>
        <time>2021-07-06T10:50:42Z</time>
      </trkpt>
      <trkpt lat="43.76526" lon="6.37329">
        <ele>1286.9</ele>
        <time>2021-07-06T10:50:55Z</time>
      </trkpt>
      <trkpt lat="43.76523" lon="6.37324">
        <ele>1288.3</ele>
        <time>2021-07-06T10:51:02Z</time>
      </trkpt>
      <trkpt lat="43.76522" lon="6.37318">
        <ele>1289.3</ele>
        <time>2021-07-06T10:51:09Z</time>
      </trkpt>
      <trkpt lat="43.76521" lon="6.37314">
        <ele>1287.3</ele>
        <time>2021-07-06T10:51:16Z</time>
      </trkpt>
      <trkpt lat="43.76522" lon="6.37304">
        <ele>1245</ele>
        <time>2021-07-06T10:51:20Z</time>
      </trkpt>
      <trkpt lat="43.76525" lon="6.37292">
        <ele>1277</ele>
        <time>2021-07-06T10:51:24Z</time>
      </trkpt>
      <trkpt lat="43.76523" lon="6.37282">
        <ele>1284.8</ele>
        <time>2021-07-06T10:51:30Z</time>
      </trkpt>
      <trkpt lat="43.76521" lon="6.37272">
        <ele>1283.5</ele>
        <time>2021-07-06T10:51:33Z</time>
      </trkpt>
      <trkpt lat="43.76522" lon="6.3726">
        <ele>1284.6</ele>
        <time>2021-07-06T10:51:37Z</time>
      </trkpt>
      <trkpt lat="43.76521" lon="6.37247">
        <ele>1285.3</ele>
        <time>2021-07-06T10:51:41Z</time>
      </trkpt>
      <trkpt lat="43.76517" lon="6.37235">
        <ele>1287.3</ele>
        <time>2021-07-06T10:51:45Z</time>
      </trkpt>
      <trkpt lat="43.76514" lon="6.37226">
        <ele>1287.2</ele>
        <time>2021-07-06T10:51:48Z</time>
      </trkpt>
      <trkpt lat="43.7651" lon="6.37217">
        <ele>1285.7</ele>
        <time>2021-07-06T10:51:51Z</time>
      </trkpt>
      <trkpt lat="43.76507" lon="6.37206">
        <ele>1285.6</ele>
        <time>2021-07-06T10:51:54Z</time>
      </trkpt>
      <trkpt lat="43.76504" lon="6.37196">
        <ele>1286.2</ele>
        <time>2021-07-06T10:51:57Z</time>
      </trkpt>
      <trkpt lat="43.765" lon="6.37187">
        <ele>1286.1</ele>
        <time>2021-07-06T10:52:00Z</time>
      </trkpt>
      <trkpt lat="43.76496" lon="6.37177">
        <ele>1287</ele>
        <time>2021-07-06T10:52:03Z</time>
      </trkpt>
      <trkpt lat="43.76492" lon="6.37169">
        <ele>1287.8</ele>
        <time>2021-07-06T10:52:06Z</time>
      </trkpt>
      <trkpt lat="43.76486" lon="6.37159">
        <ele>1289</ele>
        <time>2021-07-06T10:52:10Z</time>
      </trkpt>
      <trkpt lat="43.76482" lon="6.37149">
        <ele>1289.7</ele>
        <time>2021-07-06T10:52:14Z</time>
      </trkpt>
      <trkpt lat="43.76476" lon="6.37139">
        <ele>1289.5</ele>
        <time>2021-07-06T10:52:18Z</time>
      </trkpt>
      <trkpt lat="43.76471" lon="6.37131">
        <ele>1289.4</ele>
        <time>2021-07-06T10:52:21Z</time>
      </trkpt>
      <trkpt lat="43.76464" lon="6.37122">
        <ele>1288.8</ele>
        <time>2021-07-06T10:52:24Z</time>
      </trkpt>
      <trkpt lat="43.76458" lon="6.37114">
        <ele>1288.3</ele>
        <time>2021-07-06T10:52:27Z</time>
      </trkpt>
      <trkpt lat="43.76452" lon="6.37105">
        <ele>1288.7</ele>
        <time>2021-07-06T10:52:30Z</time>
      </trkpt>
      <trkpt lat="43.76447" lon="6.37096">
        <ele>1289.2</ele>
        <time>2021-07-06T10:52:33Z</time>
      </trkpt>
      <trkpt lat="43.7644" lon="6.37088">
        <ele>1289.5</ele>
        <time>2021-07-06T10:52:36Z</time>
      </trkpt>
      <trkpt lat="43.76435" lon="6.3708">
        <ele>1289.8</ele>
        <time>2021-07-06T10:52:39Z</time>
      </trkpt>
      <trkpt lat="43.76429" lon="6.37071">
        <ele>1291.5</ele>
        <time>2021-07-06T10:52:42Z</time>
      </trkpt>
      <trkpt lat="43.76424" lon="6.37063">
        <ele>1291.2</ele>
        <time>2021-07-06T10:52:45Z</time>
      </trkpt>
      <trkpt lat="43.76419" lon="6.37055">
        <ele>1291.5</ele>
        <time>2021-07-06T10:52:48Z</time>
      </trkpt>
      <trkpt lat="43.76413" lon="6.37047">
        <ele>1292.6</ele>
        <time>2021-07-06T10:52:51Z</time>
      </trkpt>
      <trkpt lat="43.76407" lon="6.3704">
        <ele>1293.8</ele>
        <time>2021-07-06T10:52:54Z</time>
      </trkpt>
      <trkpt lat="43.76401" lon="6.37033">
        <ele>1208.6</ele>
        <time>2021-07-06T10:52:57Z</time>
      </trkpt>
      <trkpt lat="43.76393" lon="6.37026">
        <ele>1280</ele>
        <time>2021-07-06T10:53:01Z</time>
      </trkpt>
      <trkpt lat="43.76386" lon="6.37021">
        <ele>1288.1</ele>
        <time>2021-07-06T10:53:04Z</time>
      </trkpt>
      <trkpt lat="43.76379" lon="6.37015">
        <ele>1292.7</ele>
        <time>2021-07-06T10:53:08Z</time>
      </trkpt>
      <trkpt lat="43.7637" lon="6.37009">
        <ele>1294.9</ele>
        <time>2021-07-06T10:53:12Z</time>
      </trkpt>
      <trkpt lat="43.76362" lon="6.37002">
        <ele>1296</ele>
        <time>2021-07-06T10:53:16Z</time>
      </trkpt>
      <trkpt lat="43.76354" lon="6.36998">
        <ele>1298.7</ele>
        <time>2021-07-06T10:53:20Z</time>
      </trkpt>
      <trkpt lat="43.76346" lon="6.36993">
        <ele>1300.3</ele>
        <time>2021-07-06T10:53:24Z</time>
      </trkpt>
      <trkpt lat="43.76338" lon="6.36987">
        <ele>1300.9</ele>
        <time>2021-07-06T10:53:28Z</time>
      </trkpt>
      <trkpt lat="43.7633" lon="6.36982">
        <ele>1302.6</ele>
        <time>2021-07-06T10:53:32Z</time>
      </trkpt>
      <trkpt lat="43.76322" lon="6.36976">
        <ele>1304.4</ele>
        <time>2021-07-06T10:53:36Z</time>
      </trkpt>
      <trkpt lat="43.76314" lon="6.36971">
        <ele>1305.7</ele>
        <time>2021-07-06T10:53:40Z</time>
      </trkpt>
      <trkpt lat="43.76306" lon="6.36966">
        <ele>1306.4</ele>
        <time>2021-07-06T10:53:44Z</time>
      </trkpt>
      <trkpt lat="43.76298" lon="6.36961">
        <ele>1307.4</ele>
        <time>2021-07-06T10:53:48Z</time>
      </trkpt>
      <trkpt lat="43.7629" lon="6.36955">
        <ele>1309.1</ele>
        <time>2021-07-06T10:53:52Z</time>
      </trkpt>
      <trkpt lat="43.76282" lon="6.3695">
        <ele>1310.6</ele>
        <time>2021-07-06T10:53:56Z</time>
      </trkpt>
      <trkpt lat="43.76275" lon="6.36945">
        <ele>1311</ele>
        <time>2021-07-06T10:54:00Z</time>
      </trkpt>
      <trkpt lat="43.76268" lon="6.3694">
        <ele>1312</ele>
        <time>2021-07-06T10:54:03Z</time>
      </trkpt>
      <trkpt lat="43.76262" lon="6.36936">
        <ele>1312.5</ele>
        <time>2021-07-06T10:54:06Z</time>
      </trkpt>
      <trkpt lat="43.76254" lon="6.3693">
        <ele>1312.8</ele>
        <time>2021-07-06T10:54:09Z</time>
      </trkpt>
      <trkpt lat="43.76248" lon="6.36924">
        <ele>1313.9</ele>
        <time>2021-07-06T10:54:12Z</time>
      </trkpt>
      <trkpt lat="43.76241" lon="6.36916">
        <ele>1314.1</ele>
        <time>2021-07-06T10:54:15Z</time>
      </trkpt>
      <trkpt lat="43.76236" lon="6.36906">
        <ele>1313.7</ele>
        <time>2021-07-06T10:54:18Z</time>
      </trkpt>
      <trkpt lat="43.7623" lon="6.36898">
        <ele>1313.9</ele>
        <time>2021-07-06T10:54:21Z</time>
      </trkpt>
      <trkpt lat="43.76225" lon="6.36889">
        <ele>1314.8</ele>
        <time>2021-07-06T10:54:24Z</time>
      </trkpt>
      <trkpt lat="43.76219" lon="6.3688">
        <ele>1314.8</ele>
        <time>2021-07-06T10:54:27Z</time>
      </trkpt>
      <trkpt lat="43.76215" lon="6.36872">
        <ele>1314.9</ele>
        <time>2021-07-06T10:54:30Z</time>
      </trkpt>
      <trkpt lat="43.7621" lon="6.36864">
        <ele>1316.2</ele>
        <time>2021-07-06T10:54:33Z</time>
      </trkpt>
      <trkpt lat="43.76204" lon="6.36855">
        <ele>1316.6</ele>
        <time>2021-07-06T10:54:36Z</time>
      </trkpt>
      <trkpt lat="43.76198" lon="6.36847">
        <ele>1316.6</ele>
        <time>2021-07-06T10:54:39Z</time>
      </trkpt>
      <trkpt lat="43.76194" lon="6.36838">
        <ele>1317.6</ele>
        <time>2021-07-06T10:54:42Z</time>
      </trkpt>
      <trkpt lat="43.76188" lon="6.36828">
        <ele>1317.9</ele>
        <time>2021-07-06T10:54:45Z</time>
      </trkpt>
      <trkpt lat="43.76182" lon="6.36819">
        <ele>1318</ele>
        <time>2021-07-06T10:54:48Z</time>
      </trkpt>
      <trkpt lat="43.76177" lon="6.3681">
        <ele>1317.6</ele>
        <time>2021-07-06T10:54:51Z</time>
      </trkpt>
      <trkpt lat="43.76171" lon="6.36801">
        <ele>1318.2</ele>
        <time>2021-07-06T10:54:54Z</time>
      </trkpt>
      <trkpt lat="43.76165" lon="6.36792">
        <ele>1318.2</ele>
        <time>2021-07-06T10:54:57Z</time>
      </trkpt>
      <trkpt lat="43.7616" lon="6.36782">
        <ele>1317.4</ele>
        <time>2021-07-06T10:55:00Z</time>
      </trkpt>
      <trkpt lat="43.76155" lon="6.36773">
        <ele>1317.6</ele>
        <time>2021-07-06T10:55:03Z</time>
      </trkpt>
      <trkpt lat="43.7615" lon="6.36763">
        <ele>1318.4</ele>
        <time>2021-07-06T10:55:06Z</time>
      </trkpt>
      <trkpt lat="43.76144" lon="6.36754">
        <ele>1318.7</ele>
        <time>2021-07-06T10:55:09Z</time>
      </trkpt>
      <trkpt lat="43.76138" lon="6.36744">
        <ele>1318.6</ele>
        <time>2021-07-06T10:55:12Z</time>
      </trkpt>
      <trkpt lat="43.76131" lon="6.36736">
        <ele>1319.2</ele>
        <time>2021-07-06T10:55:15Z</time>
      </trkpt>
      <trkpt lat="43.76123" lon="6.3673">
        <ele>1319.4</ele>
        <time>2021-07-06T10:55:18Z</time>
      </trkpt>
      <trkpt lat="43.76114" lon="6.36726">
        <ele>1319.8</ele>
        <time>2021-07-06T10:55:21Z</time>
      </trkpt>
      <trkpt lat="43.76104" lon="6.36726">
        <ele>1319.1</ele>
        <time>2021-07-06T10:55:24Z</time>
      </trkpt>
      <trkpt lat="43.76095" lon="6.36731">
        <ele>1318.8</ele>
        <time>2021-07-06T10:55:27Z</time>
      </trkpt>
      <trkpt lat="43.76087" lon="6.36739">
        <ele>1318.9</ele>
        <time>2021-07-06T10:55:30Z</time>
      </trkpt>
      <trkpt lat="43.7608" lon="6.3675">
        <ele>1319.1</ele>
        <time>2021-07-06T10:55:33Z</time>
      </trkpt>
      <trkpt lat="43.76077" lon="6.36759">
        <ele>1319.7</ele>
        <time>2021-07-06T10:55:35Z</time>
      </trkpt>
      <trkpt lat="43.76075" lon="6.36768">
        <ele>1319.1</ele>
        <time>2021-07-06T10:55:37Z</time>
      </trkpt>
      <trkpt lat="43.76074" lon="6.36778">
        <ele>1318.7</ele>
        <time>2021-07-06T10:55:39Z</time>
      </trkpt>
      <trkpt lat="43.76073" lon="6.36793">
        <ele>1318.9</ele>
        <time>2021-07-06T10:55:42Z</time>
      </trkpt>
      <trkpt lat="43.76071" lon="6.36807">
        <ele>1318.9</ele>
        <time>2021-07-06T10:55:45Z</time>
      </trkpt>
      <trkpt lat="43.7607" lon="6.3682">
        <ele>1319.6</ele>
        <time>2021-07-06T10:55:48Z</time>
      </trkpt>
      <trkpt lat="43.76068" lon="6.36832">
        <ele>1320.1</ele>
        <time>2021-07-06T10:55:51Z</time>
      </trkpt>
      <trkpt lat="43.76068" lon="6.36844">
        <ele>1321.1</ele>
        <time>2021-07-06T10:55:54Z</time>
      </trkpt>
      <trkpt lat="43.76067" lon="6.36855">
        <ele>1320.5</ele>
        <time>2021-07-06T10:55:57Z</time>
      </trkpt>
      <trkpt lat="43.76066" lon="6.36866">
        <ele>1321.5</ele>
        <time>2021-07-06T10:56:00Z</time>
      </trkpt>
      <trkpt lat="43.76065" lon="6.36878">
        <ele>1322.7</ele>
        <time>2021-07-06T10:56:03Z</time>
      </trkpt>
      <trkpt lat="43.76064" lon="6.36889">
        <ele>1323.4</ele>
        <time>2021-07-06T10:56:06Z</time>
      </trkpt>
      <trkpt lat="43.76062" lon="6.369">
        <ele>1325.9</ele>
        <time>2021-07-06T10:56:09Z</time>
      </trkpt>
      <trkpt lat="43.7606" lon="6.36911">
        <ele>1327.8</ele>
        <time>2021-07-06T10:56:12Z</time>
      </trkpt>
      <trkpt lat="43.7606" lon="6.36924">
        <ele>1328.3</ele>
        <time>2021-07-06T10:56:15Z</time>
      </trkpt>
      <trkpt lat="43.76059" lon="6.36936">
        <ele>1328.7</ele>
        <time>2021-07-06T10:56:18Z</time>
      </trkpt>
      <trkpt lat="43.76057" lon="6.36946">
        <ele>1329.6</ele>
        <time>2021-07-06T10:56:21Z</time>
      </trkpt>
      <trkpt lat="43.76054" lon="6.36957">
        <ele>1330</ele>
        <time>2021-07-06T10:56:24Z</time>
      </trkpt>
      <trkpt lat="43.7605" lon="6.36969">
        <ele>1331.3</ele>
        <time>2021-07-06T10:56:27Z</time>
      </trkpt>
      <trkpt lat="43.76044" lon="6.36978">
        <ele>1332.5</ele>
        <time>2021-07-06T10:56:30Z</time>
      </trkpt>
      <trkpt lat="43.76037" lon="6.36984">
        <ele>1332.5</ele>
        <time>2021-07-06T10:56:33Z</time>
      </trkpt>
      <trkpt lat="43.76029" lon="6.36987">
        <ele>1333.4</ele>
        <time>2021-07-06T10:56:36Z</time>
      </trkpt>
      <trkpt lat="43.7602" lon="6.36988">
        <ele>1334.7</ele>
        <time>2021-07-06T10:56:39Z</time>
      </trkpt>
      <trkpt lat="43.76012" lon="6.36988">
        <ele>1335</ele>
        <time>2021-07-06T10:56:42Z</time>
      </trkpt>
      <trkpt lat="43.76004" lon="6.36985">
        <ele>1334.6</ele>
        <time>2021-07-06T10:56:46Z</time>
      </trkpt>
      <trkpt lat="43.76003" lon="6.36988">
        <ele>1336</ele>
        <time>2021-07-06T10:56:53Z</time>
      </trkpt>
      <trkpt lat="43.76001" lon="6.3699">
        <ele>1336.8</ele>
        <time>2021-07-06T10:57:00Z</time>
      </trkpt>
      <trkpt lat="43.75999" lon="6.36989">
        <ele>1336.1</ele>
        <time>2021-07-06T10:57:07Z</time>
      </trkpt>
      <trkpt lat="43.75999" lon="6.36989">
        <ele>1335.9</ele>
        <time>2021-07-06T10:57:12Z</time>
      </trkpt>
      <trkpt lat="43.75999" lon="6.36993">
        <ele>1337.7</ele>
        <time>2021-07-06T10:57:22Z</time>
      </trkpt>
      <trkpt lat="43.75997" lon="6.36996">
        <ele>1338.5</ele>
        <time>2021-07-06T10:57:29Z</time>
      </trkpt>
      <trkpt lat="43.75997" lon="6.36998">
        <ele>1336.4</ele>
        <time>2021-07-06T10:57:34Z</time>
      </trkpt>
      <trkpt lat="43.75995" lon="6.36998">
        <ele>1336.2</ele>
        <time>2021-07-06T10:57:43Z</time>
      </trkpt>
      <trkpt lat="43.75994" lon="6.36998">
        <ele>1336</ele>
        <time>2021-07-06T10:57:45Z</time>
      </trkpt>
      <trkpt lat="43.75991" lon="6.36999">
        <ele>1336.7</ele>
        <time>2021-07-06T10:57:53Z</time>
      </trkpt>
      <trkpt lat="43.75991" lon="6.36999">
        <ele>1336.3</ele>
        <time>2021-07-06T10:57:57Z</time>
      </trkpt>
      <trkpt lat="43.75994" lon="6.37">
        <ele>1335.3</ele>
        <time>2021-07-06T10:59:52Z</time>
      </trkpt>
      <trkpt lat="43.75997" lon="6.37003">
        <ele>1335</ele>
        <time>2021-07-06T10:59:59Z</time>
      </trkpt>
      <trkpt lat="43.75998" lon="6.37006">
        <ele>1333.9</ele>
        <time>2021-07-06T11:00:06Z</time>
      </trkpt>
      <trkpt lat="43.75998" lon="6.37007">
        <ele>1332.5</ele>
        <time>2021-07-06T11:00:13Z</time>
      </trkpt>
      <trkpt lat="43.75999" lon="6.37008">
        <ele>1333.2</ele>
        <time>2021-07-06T11:00:22Z</time>
      </trkpt>
      <trkpt lat="43.75999" lon="6.37008">
        <ele>1333.2</ele>
        <time>2021-07-06T11:00:23Z</time>
      </trkpt>
      <trkpt lat="43.75999" lon="6.37007">
        <ele>1333.6</ele>
        <time>2021-07-06T11:00:34Z</time>
      </trkpt>
      <trkpt lat="43.76" lon="6.37007">
        <ele>1333.8</ele>
        <time>2021-07-06T11:00:35Z</time>
      </trkpt>
      <trkpt lat="43.75998" lon="6.37006">
        <ele>1333.3</ele>
        <time>2021-07-06T11:00:44Z</time>
      </trkpt>
      <trkpt lat="43.75998" lon="6.37006">
        <ele>1333.3</ele>
        <time>2021-07-06T11:00:45Z</time>
      </trkpt>
      <trkpt lat="43.75998" lon="6.37003">
        <ele>1332.4</ele>
        <time>2021-07-06T11:02:04Z</time>
      </trkpt>
      <trkpt lat="43.75998" lon="6.37003">
        <ele>1332.4</ele>
        <time>2021-07-06T11:02:11Z</time>
      </trkpt>
      <trkpt lat="43.75999" lon="6.37">
        <ele>1332.6</ele>
        <time>2021-07-06T11:02:19Z</time>
      </trkpt>
      <trkpt lat="43.75999" lon="6.37001">
        <ele>1332.6</ele>
        <time>2021-07-06T11:02:26Z</time>
      </trkpt>
      <trkpt lat="43.75998" lon="6.36993">
        <ele>1330.6</ele>
        <time>2021-07-06T11:02:37Z</time>
      </trkpt>
      <trkpt lat="43.75998" lon="6.36992">
        <ele>1331.9</ele>
        <time>2021-07-06T11:02:44Z</time>
      </trkpt>
      <trkpt lat="43.75998" lon="6.36992">
        <ele>1332.1</ele>
        <time>2021-07-06T11:02:45Z</time>
      </trkpt>
      <trkpt lat="43.75997" lon="6.36991">
        <ele>1332</ele>
        <time>2021-07-06T11:03:09Z</time>
      </trkpt>
      <trkpt lat="43.75992" lon="6.36984">
        <ele>1333.5</ele>
        <time>2021-07-06T11:03:14Z</time>
      </trkpt>
      <trkpt lat="43.75987" lon="6.36975">
        <ele>1335.5</ele>
        <time>2021-07-06T11:03:18Z</time>
      </trkpt>
      <trkpt lat="43.75983" lon="6.36967">
        <ele>1336.7</ele>
        <time>2021-07-06T11:03:22Z</time>
      </trkpt>
      <trkpt lat="43.75978" lon="6.36956">
        <ele>1339.2</ele>
        <time>2021-07-06T11:03:27Z</time>
      </trkpt>
      <trkpt lat="43.75973" lon="6.3695">
        <ele>1338.9</ele>
        <time>2021-07-06T11:03:34Z</time>
      </trkpt>
      <trkpt lat="43.75972" lon="6.36952">
        <ele>1338.8</ele>
        <time>2021-07-06T11:03:40Z</time>
      </trkpt>
      <trkpt lat="43.75967" lon="6.36944">
        <ele>1338.6</ele>
        <time>2021-07-06T11:03:48Z</time>
      </trkpt>
      <trkpt lat="43.75961" lon="6.36936">
        <ele>1338.8</ele>
        <time>2021-07-06T11:03:53Z</time>
      </trkpt>
      <trkpt lat="43.75956" lon="6.36928">
        <ele>1339</ele>
        <time>2021-07-06T11:03:57Z</time>
      </trkpt>
      <trkpt lat="43.7595" lon="6.3692">
        <ele>1340.1</ele>
        <time>2021-07-06T11:04:01Z</time>
      </trkpt>
      <trkpt lat="43.75945" lon="6.36912">
        <ele>1341.1</ele>
        <time>2021-07-06T11:04:05Z</time>
      </trkpt>
      <trkpt lat="43.75939" lon="6.36905">
        <ele>1341.3</ele>
        <time>2021-07-06T11:04:09Z</time>
      </trkpt>
      <trkpt lat="43.75933" lon="6.36898">
        <ele>1342</ele>
        <time>2021-07-06T11:04:13Z</time>
      </trkpt>
      <trkpt lat="43.75927" lon="6.36889">
        <ele>1342.4</ele>
        <time>2021-07-06T11:04:17Z</time>
      </trkpt>
      <trkpt lat="43.75921" lon="6.3688">
        <ele>1342.8</ele>
        <time>2021-07-06T11:04:21Z</time>
      </trkpt>
      <trkpt lat="43.75916" lon="6.36872">
        <ele>1344.4</ele>
        <time>2021-07-06T11:04:25Z</time>
      </trkpt>
      <trkpt lat="43.7591" lon="6.36862">
        <ele>1344.5</ele>
        <time>2021-07-06T11:04:29Z</time>
      </trkpt>
      <trkpt lat="43.75904" lon="6.36854">
        <ele>1345.2</ele>
        <time>2021-07-06T11:04:33Z</time>
      </trkpt>
      <trkpt lat="43.75898" lon="6.36844">
        <ele>1345.3</ele>
        <time>2021-07-06T11:04:37Z</time>
      </trkpt>
      <trkpt lat="43.75894" lon="6.36833">
        <ele>1346.5</ele>
        <time>2021-07-06T11:04:41Z</time>
      </trkpt>
      <trkpt lat="43.75889" lon="6.36824">
        <ele>1346.5</ele>
        <time>2021-07-06T11:04:45Z</time>
      </trkpt>
      <trkpt lat="43.75884" lon="6.36813">
        <ele>1347.5</ele>
        <time>2021-07-06T11:04:49Z</time>
      </trkpt>
      <trkpt lat="43.75878" lon="6.36803">
        <ele>1347</ele>
        <time>2021-07-06T11:04:53Z</time>
      </trkpt>
      <trkpt lat="43.75873" lon="6.36793">
        <ele>1347.5</ele>
        <time>2021-07-06T11:04:57Z</time>
      </trkpt>
      <trkpt lat="43.75867" lon="6.36783">
        <ele>1347.7</ele>
        <time>2021-07-06T11:05:01Z</time>
      </trkpt>
      <trkpt lat="43.75863" lon="6.36774">
        <ele>1347</ele>
        <time>2021-07-06T11:05:04Z</time>
      </trkpt>
      <trkpt lat="43.7586" lon="6.36765">
        <ele>1347.9</ele>
        <time>2021-07-06T11:05:07Z</time>
      </trkpt>
      <trkpt lat="43.75856" lon="6.36756">
        <ele>1349.3</ele>
        <time>2021-07-06T11:05:10Z</time>
      </trkpt>
      <trkpt lat="43.7585" lon="6.36747">
        <ele>1349.7</ele>
        <time>2021-07-06T11:05:14Z</time>
      </trkpt>
      <trkpt lat="43.75844" lon="6.36738">
        <ele>1350.9</ele>
        <time>2021-07-06T11:05:18Z</time>
      </trkpt>
      <trkpt lat="43.7584" lon="6.36727">
        <ele>1350.4</ele>
        <time>2021-07-06T11:05:22Z</time>
      </trkpt>
      <trkpt lat="43.75835" lon="6.36716">
        <ele>1351.7</ele>
        <time>2021-07-06T11:05:26Z</time>
      </trkpt>
      <trkpt lat="43.75832" lon="6.36705">
        <ele>1352.7</ele>
        <time>2021-07-06T11:05:30Z</time>
      </trkpt>
      <trkpt lat="43.75827" lon="6.36696">
        <ele>1354.5</ele>
        <time>2021-07-06T11:05:34Z</time>
      </trkpt>
      <trkpt lat="43.75823" lon="6.36687">
        <ele>1354.9</ele>
        <time>2021-07-06T11:05:37Z</time>
      </trkpt>
      <trkpt lat="43.75818" lon="6.36677">
        <ele>1356.9</ele>
        <time>2021-07-06T11:05:41Z</time>
      </trkpt>
      <trkpt lat="43.75814" lon="6.36666">
        <ele>1357.6</ele>
        <time>2021-07-06T11:05:45Z</time>
      </trkpt>
      <trkpt lat="43.75808" lon="6.36656">
        <ele>1359.5</ele>
        <time>2021-07-06T11:05:49Z</time>
      </trkpt>
      <trkpt lat="43.75802" lon="6.36647">
        <ele>1361.2</ele>
        <time>2021-07-06T11:05:53Z</time>
      </trkpt>
      <trkpt lat="43.75796" lon="6.36641">
        <ele>1362</ele>
        <time>2021-07-06T11:05:56Z</time>
      </trkpt>
      <trkpt lat="43.75787" lon="6.36637">
        <ele>1363.3</ele>
        <time>2021-07-06T11:06:00Z</time>
      </trkpt>
      <trkpt lat="43.75779" lon="6.36633">
        <ele>1364.4</ele>
        <time>2021-07-06T11:06:04Z</time>
      </trkpt>
      <trkpt lat="43.7577" lon="6.36635">
        <ele>1363</ele>
        <time>2021-07-06T11:06:08Z</time>
      </trkpt>
      <trkpt lat="43.75761" lon="6.36635">
        <ele>1363.9</ele>
        <time>2021-07-06T11:06:12Z</time>
      </trkpt>
      <trkpt lat="43.75753" lon="6.36638">
        <ele>1364.6</ele>
        <time>2021-07-06T11:06:15Z</time>
      </trkpt>
      <trkpt lat="43.75745" lon="6.36639">
        <ele>1365.4</ele>
        <time>2021-07-06T11:06:19Z</time>
      </trkpt>
      <trkpt lat="43.75737" lon="6.3664">
        <ele>1365.9</ele>
        <time>2021-07-06T11:06:22Z</time>
      </trkpt>
      <trkpt lat="43.75729" lon="6.36641">
        <ele>1365.2</ele>
        <time>2021-07-06T11:06:25Z</time>
      </trkpt>
      <trkpt lat="43.7572" lon="6.36641">
        <ele>1366.4</ele>
        <time>2021-07-06T11:06:29Z</time>
      </trkpt>
      <trkpt lat="43.75713" lon="6.36638">
        <ele>1367.8</ele>
        <time>2021-07-06T11:06:33Z</time>
      </trkpt>
      <trkpt lat="43.75706" lon="6.3663">
        <ele>1367.2</ele>
        <time>2021-07-06T11:06:37Z</time>
      </trkpt>
      <trkpt lat="43.75699" lon="6.36625">
        <ele>1366</ele>
        <time>2021-07-06T11:06:40Z</time>
      </trkpt>
      <trkpt lat="43.75693" lon="6.36619">
        <ele>1366.5</ele>
        <time>2021-07-06T11:06:43Z</time>
      </trkpt>
      <trkpt lat="43.75687" lon="6.36613">
        <ele>1367.3</ele>
        <time>2021-07-06T11:06:46Z</time>
      </trkpt>
      <trkpt lat="43.7568" lon="6.36608">
        <ele>1367.7</ele>
        <time>2021-07-06T11:06:50Z</time>
      </trkpt>
      <trkpt lat="43.75672" lon="6.36605">
        <ele>1368.5</ele>
        <time>2021-07-06T11:06:53Z</time>
      </trkpt>
      <trkpt lat="43.75665" lon="6.36603">
        <ele>1368.5</ele>
        <time>2021-07-06T11:06:56Z</time>
      </trkpt>
      <trkpt lat="43.75656" lon="6.36601">
        <ele>1369.1</ele>
        <time>2021-07-06T11:06:59Z</time>
      </trkpt>
      <trkpt lat="43.75647" lon="6.366">
        <ele>1369.2</ele>
        <time>2021-07-06T11:07:02Z</time>
      </trkpt>
      <trkpt lat="43.75638" lon="6.36601">
        <ele>1369</ele>
        <time>2021-07-06T11:07:05Z</time>
      </trkpt>
      <trkpt lat="43.75628" lon="6.36607">
        <ele>1369.1</ele>
        <time>2021-07-06T11:07:08Z</time>
      </trkpt>
      <trkpt lat="43.75621" lon="6.36614">
        <ele>1367.9</ele>
        <time>2021-07-06T11:07:11Z</time>
      </trkpt>
      <trkpt lat="43.75614" lon="6.36622">
        <ele>1367.3</ele>
        <time>2021-07-06T11:07:14Z</time>
      </trkpt>
      <trkpt lat="43.7561" lon="6.36631">
        <ele>1367.4</ele>
        <time>2021-07-06T11:07:17Z</time>
      </trkpt>
      <trkpt lat="43.75608" lon="6.36643">
        <ele>1369.8</ele>
        <time>2021-07-06T11:07:21Z</time>
      </trkpt>
      <trkpt lat="43.75608" lon="6.36655">
        <ele>1371.2</ele>
        <time>2021-07-06T11:07:25Z</time>
      </trkpt>
      <trkpt lat="43.75609" lon="6.36669">
        <ele>1369.9</ele>
        <time>2021-07-06T11:07:28Z</time>
      </trkpt>
      <trkpt lat="43.75612" lon="6.36681">
        <ele>1368.9</ele>
        <time>2021-07-06T11:07:30Z</time>
      </trkpt>
      <trkpt lat="43.75613" lon="6.36692">
        <ele>1367.9</ele>
        <time>2021-07-06T11:07:32Z</time>
      </trkpt>
      <trkpt lat="43.75614" lon="6.36704">
        <ele>1367.9</ele>
        <time>2021-07-06T11:07:34Z</time>
      </trkpt>
      <trkpt lat="43.75616" lon="6.36715">
        <ele>1365.4</ele>
        <time>2021-07-06T11:07:36Z</time>
      </trkpt>
      <trkpt lat="43.75617" lon="6.36726">
        <ele>1366.1</ele>
        <time>2021-07-06T11:07:38Z</time>
      </trkpt>
      <trkpt lat="43.75618" lon="6.36738">
        <ele>1364.8</ele>
        <time>2021-07-06T11:07:40Z</time>
      </trkpt>
      <trkpt lat="43.75617" lon="6.3675">
        <ele>1364.7</ele>
        <time>2021-07-06T11:07:42Z</time>
      </trkpt>
      <trkpt lat="43.75614" lon="6.36761">
        <ele>1364.2</ele>
        <time>2021-07-06T11:07:44Z</time>
      </trkpt>
      <trkpt lat="43.75612" lon="6.36772">
        <ele>1362.9</ele>
        <time>2021-07-06T11:07:46Z</time>
      </trkpt>
      <trkpt lat="43.75608" lon="6.36782">
        <ele>1361.8</ele>
        <time>2021-07-06T11:07:48Z</time>
      </trkpt>
      <trkpt lat="43.75603" lon="6.36792">
        <ele>1343.9</ele>
        <time>2021-07-06T11:07:50Z</time>
      </trkpt>
      <trkpt lat="43.75597" lon="6.36803">
        <ele>1351.8</ele>
        <time>2021-07-06T11:07:52Z</time>
      </trkpt>
      <trkpt lat="43.7559" lon="6.36813">
        <ele>1355.5</ele>
        <time>2021-07-06T11:07:54Z</time>
      </trkpt>
      <trkpt lat="43.75582" lon="6.36821">
        <ele>1356.1</ele>
        <time>2021-07-06T11:07:56Z</time>
      </trkpt>
      <trkpt lat="43.75574" lon="6.36828">
        <ele>1355.1</ele>
        <time>2021-07-06T11:07:58Z</time>
      </trkpt>
      <trkpt lat="43.75565" lon="6.36832">
        <ele>1354.1</ele>
        <time>2021-07-06T11:08:00Z</time>
      </trkpt>
      <trkpt lat="43.75557" lon="6.36835">
        <ele>1353.2</ele>
        <time>2021-07-06T11:08:02Z</time>
      </trkpt>
      <trkpt lat="43.75546" lon="6.36838">
        <ele>1353.4</ele>
        <time>2021-07-06T11:08:05Z</time>
      </trkpt>
      <trkpt lat="43.75538" lon="6.36839">
        <ele>1352.6</ele>
        <time>2021-07-06T11:08:08Z</time>
      </trkpt>
      <trkpt lat="43.75534" lon="6.36839">
        <ele>1351.5</ele>
        <time>2021-07-06T11:08:15Z</time>
      </trkpt>
      <trkpt lat="43.75534" lon="6.36839">
        <ele>1351</ele>
        <time>2021-07-06T11:08:20Z</time>
      </trkpt>
      <trkpt lat="43.75537" lon="6.36843">
        <ele>1348.5</ele>
        <time>2021-07-06T11:08:35Z</time>
      </trkpt>
      <trkpt lat="43.75538" lon="6.36843">
        <ele>1349</ele>
        <time>2021-07-06T11:08:42Z</time>
      </trkpt>
      <trkpt lat="43.75538" lon="6.36844">
        <ele>1350.2</ele>
        <time>2021-07-06T11:08:56Z</time>
      </trkpt>
      <trkpt lat="43.75538" lon="6.36843">
        <ele>1349.8</ele>
        <time>2021-07-06T11:37:40Z</time>
      </trkpt>
      <trkpt lat="43.75538" lon="6.36843">
        <ele>1349.2</ele>
        <time>2021-07-06T11:37:41Z</time>
      </trkpt>
      <trkpt lat="43.75535" lon="6.36839">
        <ele>1348.3</ele>
        <time>2021-07-06T11:38:26Z</time>
      </trkpt>
      <trkpt lat="43.75534" lon="6.36838">
        <ele>1348.9</ele>
        <time>2021-07-06T11:38:32Z</time>
      </trkpt>
      <trkpt lat="43.75534" lon="6.36839">
        <ele>1348.8</ele>
        <time>2021-07-06T11:41:36Z</time>
      </trkpt>
      <trkpt lat="43.75534" lon="6.36839">
        <ele>1348.7</ele>
        <time>2021-07-06T11:41:38Z</time>
      </trkpt>
      <trkpt lat="43.75527" lon="6.3683">
        <ele>1348.3</ele>
        <time>2021-07-06T11:42:15Z</time>
      </trkpt>
      <trkpt lat="43.75519" lon="6.36823">
        <ele>1347.5</ele>
        <time>2021-07-06T11:42:18Z</time>
      </trkpt>
      <trkpt lat="43.75513" lon="6.36813">
        <ele>1346.6</ele>
        <time>2021-07-06T11:42:21Z</time>
      </trkpt>
      <trkpt lat="43.75507" lon="6.36806">
        <ele>1346.6</ele>
        <time>2021-07-06T11:42:23Z</time>
      </trkpt>
      <trkpt lat="43.75499" lon="6.36797">
        <ele>1346</ele>
        <time>2021-07-06T11:42:26Z</time>
      </trkpt>
      <trkpt lat="43.75495" lon="6.36791">
        <ele>1346.2</ele>
        <time>2021-07-06T11:42:33Z</time>
      </trkpt>
      <trkpt lat="43.75495" lon="6.36792">
        <ele>1346.2</ele>
        <time>2021-07-06T11:42:38Z</time>
      </trkpt>
      <trkpt lat="43.75489" lon="6.36785">
        <ele>1345.2</ele>
        <time>2021-07-06T11:42:46Z</time>
      </trkpt>
      <trkpt lat="43.75483" lon="6.36778">
        <ele>1345</ele>
        <time>2021-07-06T11:42:48Z</time>
      </trkpt>
      <trkpt lat="43.75476" lon="6.3677">
        <ele>1344.2</ele>
        <time>2021-07-06T11:42:50Z</time>
      </trkpt>
      <trkpt lat="43.75468" lon="6.36761">
        <ele>1343</ele>
        <time>2021-07-06T11:42:52Z</time>
      </trkpt>
      <trkpt lat="43.7546" lon="6.36751">
        <ele>1341.9</ele>
        <time>2021-07-06T11:42:54Z</time>
      </trkpt>
      <trkpt lat="43.75452" lon="6.3674">
        <ele>1340.5</ele>
        <time>2021-07-06T11:42:56Z</time>
      </trkpt>
      <trkpt lat="43.75445" lon="6.36727">
        <ele>1339.4</ele>
        <time>2021-07-06T11:42:58Z</time>
      </trkpt>
      <trkpt lat="43.75441" lon="6.36718">
        <ele>1338.6</ele>
        <time>2021-07-06T11:42:59Z</time>
      </trkpt>
      <trkpt lat="43.75436" lon="6.367">
        <ele>1337.6</ele>
        <time>2021-07-06T11:43:01Z</time>
      </trkpt>
      <trkpt lat="43.7543" lon="6.36684">
        <ele>1337</ele>
        <time>2021-07-06T11:43:03Z</time>
      </trkpt>
      <trkpt lat="43.75423" lon="6.36669">
        <ele>1335.9</ele>
        <time>2021-07-06T11:43:05Z</time>
      </trkpt>
      <trkpt lat="43.75416" lon="6.36652">
        <ele>1334.3</ele>
        <time>2021-07-06T11:43:07Z</time>
      </trkpt>
      <trkpt lat="43.75409" lon="6.3664">
        <ele>1333.1</ele>
        <time>2021-07-06T11:43:09Z</time>
      </trkpt>
      <trkpt lat="43.75403" lon="6.36632">
        <ele>1333.6</ele>
        <time>2021-07-06T11:43:11Z</time>
      </trkpt>
      <trkpt lat="43.75396" lon="6.36627">
        <ele>1333.4</ele>
        <time>2021-07-06T11:43:15Z</time>
      </trkpt>
      <trkpt lat="43.75387" lon="6.36632">
        <ele>1333.4</ele>
        <time>2021-07-06T11:43:19Z</time>
      </trkpt>
      <trkpt lat="43.75384" lon="6.36642">
        <ele>1332.1</ele>
        <time>2021-07-06T11:43:22Z</time>
      </trkpt>
      <trkpt lat="43.75387" lon="6.36654">
        <ele>1331</ele>
        <time>2021-07-06T11:43:25Z</time>
      </trkpt>
      <trkpt lat="43.75393" lon="6.36665">
        <ele>1326.7</ele>
        <time>2021-07-06T11:43:28Z</time>
      </trkpt>
      <trkpt lat="43.75398" lon="6.36673">
        <ele>1325.8</ele>
        <time>2021-07-06T11:43:31Z</time>
      </trkpt>
      <trkpt lat="43.75403" lon="6.36683">
        <ele>1324.6</ele>
        <time>2021-07-06T11:43:34Z</time>
      </trkpt>
      <trkpt lat="43.75407" lon="6.36695">
        <ele>1323.2</ele>
        <time>2021-07-06T11:43:37Z</time>
      </trkpt>
      <trkpt lat="43.75411" lon="6.36707">
        <ele>1322.6</ele>
        <time>2021-07-06T11:43:40Z</time>
      </trkpt>
      <trkpt lat="43.75414" lon="6.36722">
        <ele>1320.7</ele>
        <time>2021-07-06T11:43:43Z</time>
      </trkpt>
      <trkpt lat="43.75416" lon="6.36732">
        <ele>1320.2</ele>
        <time>2021-07-06T11:43:45Z</time>
      </trkpt>
      <trkpt lat="43.7542" lon="6.36745">
        <ele>1319.6</ele>
        <time>2021-07-06T11:43:48Z</time>
      </trkpt>
      <trkpt lat="43.75421" lon="6.36755">
        <ele>1319.2</ele>
        <time>2021-07-06T11:43:50Z</time>
      </trkpt>
      <trkpt lat="43.75423" lon="6.3677">
        <ele>1318.4</ele>
        <time>2021-07-06T11:43:53Z</time>
      </trkpt>
      <trkpt lat="43.75424" lon="6.36781">
        <ele>1318.2</ele>
        <time>2021-07-06T11:43:55Z</time>
      </trkpt>
      <trkpt lat="43.75426" lon="6.36795">
        <ele>1318.2</ele>
        <time>2021-07-06T11:43:57Z</time>
      </trkpt>
      <trkpt lat="43.75429" lon="6.36807">
        <ele>1317.7</ele>
        <time>2021-07-06T11:43:59Z</time>
      </trkpt>
      <trkpt lat="43.75433" lon="6.3682">
        <ele>1316.5</ele>
        <time>2021-07-06T11:44:01Z</time>
      </trkpt>
      <trkpt lat="43.75437" lon="6.36833">
        <ele>1315.6</ele>
        <time>2021-07-06T11:44:03Z</time>
      </trkpt>
      <trkpt lat="43.75441" lon="6.36846">
        <ele>1315.3</ele>
        <time>2021-07-06T11:44:05Z</time>
      </trkpt>
      <trkpt lat="43.75444" lon="6.3686">
        <ele>1312.7</ele>
        <time>2021-07-06T11:44:07Z</time>
      </trkpt>
      <trkpt lat="43.75448" lon="6.36873">
        <ele>1311.4</ele>
        <time>2021-07-06T11:44:09Z</time>
      </trkpt>
      <trkpt lat="43.75453" lon="6.36886">
        <ele>1310.6</ele>
        <time>2021-07-06T11:44:11Z</time>
      </trkpt>
      <trkpt lat="43.75459" lon="6.36897">
        <ele>1309.4</ele>
        <time>2021-07-06T11:44:13Z</time>
      </trkpt>
      <trkpt lat="43.75463" lon="6.36906">
        <ele>1309.1</ele>
        <time>2021-07-06T11:44:15Z</time>
      </trkpt>
      <trkpt lat="43.75468" lon="6.36915">
        <ele>1309.5</ele>
        <time>2021-07-06T11:44:17Z</time>
      </trkpt>
      <trkpt lat="43.75473" lon="6.36924">
        <ele>1309</ele>
        <time>2021-07-06T11:44:19Z</time>
      </trkpt>
      <trkpt lat="43.75479" lon="6.36932">
        <ele>1308.5</ele>
        <time>2021-07-06T11:44:21Z</time>
      </trkpt>
      <trkpt lat="43.75485" lon="6.36942">
        <ele>1306.6</ele>
        <time>2021-07-06T11:44:23Z</time>
      </trkpt>
      <trkpt lat="43.75493" lon="6.3695">
        <ele>1306.2</ele>
        <time>2021-07-06T11:44:25Z</time>
      </trkpt>
      <trkpt lat="43.755" lon="6.36953">
        <ele>1306</ele>
        <time>2021-07-06T11:44:27Z</time>
      </trkpt>
      <trkpt lat="43.75507" lon="6.3696">
        <ele>1305.7</ele>
        <time>2021-07-06T11:44:29Z</time>
      </trkpt>
      <trkpt lat="43.75516" lon="6.36964">
        <ele>1304</ele>
        <time>2021-07-06T11:44:31Z</time>
      </trkpt>
      <trkpt lat="43.75527" lon="6.36969">
        <ele>1303.2</ele>
        <time>2021-07-06T11:44:33Z</time>
      </trkpt>
      <trkpt lat="43.75538" lon="6.36973">
        <ele>1298.9</ele>
        <time>2021-07-06T11:44:35Z</time>
      </trkpt>
      <trkpt lat="43.75548" lon="6.36977">
        <ele>1300.9</ele>
        <time>2021-07-06T11:44:37Z</time>
      </trkpt>
      <trkpt lat="43.75555" lon="6.36985">
        <ele>1301.5</ele>
        <time>2021-07-06T11:44:39Z</time>
      </trkpt>
      <trkpt lat="43.75558" lon="6.36996">
        <ele>1300.3</ele>
        <time>2021-07-06T11:44:41Z</time>
      </trkpt>
      <trkpt lat="43.75559" lon="6.37006">
        <ele>1297.3</ele>
        <time>2021-07-06T11:44:45Z</time>
      </trkpt>
      <trkpt lat="43.75554" lon="6.37009">
        <ele>1297.4</ele>
        <time>2021-07-06T11:44:52Z</time>
      </trkpt>
      <trkpt lat="43.75554" lon="6.37008">
        <ele>1298.8</ele>
        <time>2021-07-06T11:44:55Z</time>
      </trkpt>
      <trkpt lat="43.7556" lon="6.37007">
        <ele>1300.6</ele>
        <time>2021-07-06T11:45:26Z</time>
      </trkpt>
      <trkpt lat="43.75567" lon="6.3701">
        <ele>1300.7</ele>
        <time>2021-07-06T11:45:33Z</time>
      </trkpt>
      <trkpt lat="43.75573" lon="6.37014">
        <ele>1299.1</ele>
        <time>2021-07-06T11:45:40Z</time>
      </trkpt>
      <trkpt lat="43.75576" lon="6.37014">
        <ele>1299.7</ele>
        <time>2021-07-06T11:45:47Z</time>
      </trkpt>
      <trkpt lat="43.75576" lon="6.37015">
        <ele>1300</ele>
        <time>2021-07-06T11:45:50Z</time>
      </trkpt>
      <trkpt lat="43.7557" lon="6.37016">
        <ele>1302.9</ele>
        <time>2021-07-06T11:46:30Z</time>
      </trkpt>
      <trkpt lat="43.75568" lon="6.37021">
        <ele>1301.7</ele>
        <time>2021-07-06T11:46:37Z</time>
      </trkpt>
      <trkpt lat="43.7557" lon="6.37026">
        <ele>1298.6</ele>
        <time>2021-07-06T11:46:44Z</time>
      </trkpt>
      <trkpt lat="43.75573" lon="6.37026">
        <ele>1297.3</ele>
        <time>2021-07-06T11:46:51Z</time>
      </trkpt>
      <trkpt lat="43.75573" lon="6.37027">
        <ele>1297</ele>
        <time>2021-07-06T11:46:52Z</time>
      </trkpt>
      <trkpt lat="43.7557" lon="6.3703">
        <ele>1297.8</ele>
        <time>2021-07-06T11:47:01Z</time>
      </trkpt>
      <trkpt lat="43.7557" lon="6.37029">
        <ele>1297.4</ele>
        <time>2021-07-06T11:47:08Z</time>
      </trkpt>
      <trkpt lat="43.7557" lon="6.37029">
        <ele>1297.6</ele>
        <time>2021-07-06T11:47:09Z</time>
      </trkpt>
      <trkpt lat="43.7557" lon="6.37031">
        <ele>1298</ele>
        <time>2021-07-06T11:47:24Z</time>
      </trkpt>
      <trkpt lat="43.75569" lon="6.37031">
        <ele>1297.9</ele>
        <time>2021-07-06T11:47:25Z</time>
      </trkpt>
      <trkpt lat="43.75569" lon="6.3703">
        <ele>1297.2</ele>
        <time>2021-07-06T11:47:46Z</time>
      </trkpt>
      <trkpt lat="43.75569" lon="6.3703">
        <ele>1297.4</ele>
        <time>2021-07-06T11:47:47Z</time>
      </trkpt>
      <trkpt lat="43.75568" lon="6.37029">
        <ele>1297.9</ele>
        <time>2021-07-06T11:48:01Z</time>
      </trkpt>
      <trkpt lat="43.75569" lon="6.37029">
        <ele>1296.4</ele>
        <time>2021-07-06T11:48:07Z</time>
      </trkpt>
      <trkpt lat="43.75569" lon="6.37031">
        <ele>1296.6</ele>
        <time>2021-07-06T11:48:17Z</time>
      </trkpt>
      <trkpt lat="43.75569" lon="6.37031">
        <ele>1296.6</ele>
        <time>2021-07-06T11:48:18Z</time>
      </trkpt>
      <trkpt lat="43.75569" lon="6.3703">
        <ele>1295.9</ele>
        <time>2021-07-06T11:49:00Z</time>
      </trkpt>
      <trkpt lat="43.75569" lon="6.3703">
        <ele>1296.4</ele>
        <time>2021-07-06T11:49:01Z</time>
      </trkpt>
      <trkpt lat="43.75567" lon="6.37029">
        <ele>1296</ele>
        <time>2021-07-06T11:49:10Z</time>
      </trkpt>
      <trkpt lat="43.75568" lon="6.37029">
        <ele>1296.4</ele>
        <time>2021-07-06T11:49:13Z</time>
      </trkpt>
      <trkpt lat="43.75569" lon="6.37031">
        <ele>1296.7</ele>
        <time>2021-07-06T11:49:21Z</time>
      </trkpt>
      <trkpt lat="43.75568" lon="6.37031">
        <ele>1296.3</ele>
        <time>2021-07-06T11:49:22Z</time>
      </trkpt>
      <trkpt lat="43.7557" lon="6.37029">
        <ele>1294.8</ele>
        <time>2021-07-06T11:49:30Z</time>
      </trkpt>
      <trkpt lat="43.7557" lon="6.37029">
        <ele>1294.9</ele>
        <time>2021-07-06T11:49:33Z</time>
      </trkpt>
      <trkpt lat="43.75572" lon="6.37026">
        <ele>1296.4</ele>
        <time>2021-07-06T11:50:26Z</time>
      </trkpt>
      <trkpt lat="43.75572" lon="6.37026">
        <ele>1297.2</ele>
        <time>2021-07-06T11:50:32Z</time>
      </trkpt>
      <trkpt lat="43.75567" lon="6.37021">
        <ele>1300.5</ele>
        <time>2021-07-06T11:50:43Z</time>
      </trkpt>
      <trkpt lat="43.75567" lon="6.37017">
        <ele>1302.7</ele>
        <time>2021-07-06T11:50:50Z</time>
      </trkpt>
      <trkpt lat="43.75568" lon="6.37017">
        <ele>1302.9</ele>
        <time>2021-07-06T11:50:54Z</time>
      </trkpt>
      <trkpt lat="43.75564" lon="6.37013">
        <ele>1305.2</ele>
        <time>2021-07-06T11:51:04Z</time>
      </trkpt>
      <trkpt lat="43.75559" lon="6.37012">
        <ele>1307.1</ele>
        <time>2021-07-06T11:51:11Z</time>
      </trkpt>
      <trkpt lat="43.75555" lon="6.37012">
        <ele>1306.6</ele>
        <time>2021-07-06T11:51:18Z</time>
      </trkpt>
      <trkpt lat="43.75558" lon="6.37011">
        <ele>1306.5</ele>
        <time>2021-07-06T11:51:25Z</time>
      </trkpt>
      <trkpt lat="43.75558" lon="6.3701">
        <ele>1305.7</ele>
        <time>2021-07-06T11:51:30Z</time>
      </trkpt>
      <trkpt lat="43.75556" lon="6.3701">
        <ele>1304.6</ele>
        <time>2021-07-06T11:53:22Z</time>
      </trkpt>
      <trkpt lat="43.75549" lon="6.37006">
        <ele>1305</ele>
        <time>2021-07-06T11:53:28Z</time>
      </trkpt>
      <trkpt lat="43.75541" lon="6.37003">
        <ele>1303.5</ele>
        <time>2021-07-06T11:53:31Z</time>
      </trkpt>
      <trkpt lat="43.75531" lon="6.36999">
        <ele>1304</ele>
        <time>2021-07-06T11:53:34Z</time>
      </trkpt>
      <trkpt lat="43.75523" lon="6.36995">
        <ele>1302.3</ele>
        <time>2021-07-06T11:53:37Z</time>
      </trkpt>
      <trkpt lat="43.75514" lon="6.36993">
        <ele>1301.7</ele>
        <time>2021-07-06T11:53:40Z</time>
      </trkpt>
      <trkpt lat="43.75505" lon="6.36991">
        <ele>1302.1</ele>
        <time>2021-07-06T11:53:43Z</time>
      </trkpt>
      <trkpt lat="43.75497" lon="6.3699">
        <ele>1300.4</ele>
        <time>2021-07-06T11:53:46Z</time>
      </trkpt>
      <trkpt lat="43.7549" lon="6.36984">
        <ele>1298.7</ele>
        <time>2021-07-06T11:53:49Z</time>
      </trkpt>
      <trkpt lat="43.75482" lon="6.3698">
        <ele>1298.5</ele>
        <time>2021-07-06T11:53:52Z</time>
      </trkpt>
      <trkpt lat="43.75476" lon="6.36974">
        <ele>1298.5</ele>
        <time>2021-07-06T11:53:55Z</time>
      </trkpt>
      <trkpt lat="43.75469" lon="6.36965">
        <ele>1298.5</ele>
        <time>2021-07-06T11:53:59Z</time>
      </trkpt>
      <trkpt lat="43.75464" lon="6.36955">
        <ele>1298.9</ele>
        <time>2021-07-06T11:54:02Z</time>
      </trkpt>
      <trkpt lat="43.75457" lon="6.36946">
        <ele>1298.2</ele>
        <time>2021-07-06T11:54:05Z</time>
      </trkpt>
      <trkpt lat="43.75448" lon="6.36938">
        <ele>1297.8</ele>
        <time>2021-07-06T11:54:08Z</time>
      </trkpt>
      <trkpt lat="43.7544" lon="6.36931">
        <ele>1297.6</ele>
        <time>2021-07-06T11:54:11Z</time>
      </trkpt>
      <trkpt lat="43.75432" lon="6.36921">
        <ele>1297</ele>
        <time>2021-07-06T11:54:14Z</time>
      </trkpt>
      <trkpt lat="43.75424" lon="6.36913">
        <ele>1296.9</ele>
        <time>2021-07-06T11:54:17Z</time>
      </trkpt>
      <trkpt lat="43.75419" lon="6.36905">
        <ele>1296.7</ele>
        <time>2021-07-06T11:54:20Z</time>
      </trkpt>
      <trkpt lat="43.75414" lon="6.36894">
        <ele>1296.1</ele>
        <time>2021-07-06T11:54:23Z</time>
      </trkpt>
      <trkpt lat="43.75409" lon="6.36883">
        <ele>1294.8</ele>
        <time>2021-07-06T11:54:26Z</time>
      </trkpt>
      <trkpt lat="43.75402" lon="6.36873">
        <ele>1294</ele>
        <time>2021-07-06T11:54:29Z</time>
      </trkpt>
      <trkpt lat="43.75397" lon="6.36864">
        <ele>1293.3</ele>
        <time>2021-07-06T11:54:31Z</time>
      </trkpt>
      <trkpt lat="43.75392" lon="6.36853">
        <ele>1292</ele>
        <time>2021-07-06T11:54:33Z</time>
      </trkpt>
      <trkpt lat="43.75387" lon="6.36842">
        <ele>1290.8</ele>
        <time>2021-07-06T11:54:35Z</time>
      </trkpt>
      <trkpt lat="43.75383" lon="6.36831">
        <ele>1288.8</ele>
        <time>2021-07-06T11:54:37Z</time>
      </trkpt>
      <trkpt lat="43.75378" lon="6.36819">
        <ele>1287.6</ele>
        <time>2021-07-06T11:54:39Z</time>
      </trkpt>
      <trkpt lat="43.75375" lon="6.36807">
        <ele>1286.4</ele>
        <time>2021-07-06T11:54:41Z</time>
      </trkpt>
      <trkpt lat="43.75373" lon="6.36793">
        <ele>1285.9</ele>
        <time>2021-07-06T11:54:43Z</time>
      </trkpt>
      <trkpt lat="43.75371" lon="6.36781">
        <ele>1285.4</ele>
        <time>2021-07-06T11:54:45Z</time>
      </trkpt>
      <trkpt lat="43.75368" lon="6.36768">
        <ele>1285.2</ele>
        <time>2021-07-06T11:54:47Z</time>
      </trkpt>
      <trkpt lat="43.75362" lon="6.36756">
        <ele>1284.6</ele>
        <time>2021-07-06T11:54:49Z</time>
      </trkpt>
      <trkpt lat="43.75352" lon="6.3675">
        <ele>1283.7</ele>
        <time>2021-07-06T11:54:51Z</time>
      </trkpt>
      <trkpt lat="43.75341" lon="6.36747">
        <ele>1284.1</ele>
        <time>2021-07-06T11:54:53Z</time>
      </trkpt>
      <trkpt lat="43.75329" lon="6.36745">
        <ele>1283.3</ele>
        <time>2021-07-06T11:54:55Z</time>
      </trkpt>
      <trkpt lat="43.75318" lon="6.36739">
        <ele>1283.2</ele>
        <time>2021-07-06T11:54:57Z</time>
      </trkpt>
      <trkpt lat="43.7531" lon="6.36729">
        <ele>1282.9</ele>
        <time>2021-07-06T11:54:59Z</time>
      </trkpt>
      <trkpt lat="43.75305" lon="6.36718">
        <ele>1282.2</ele>
        <time>2021-07-06T11:55:01Z</time>
      </trkpt>
      <trkpt lat="43.75302" lon="6.36704">
        <ele>1282.5</ele>
        <time>2021-07-06T11:55:03Z</time>
      </trkpt>
      <trkpt lat="43.75296" lon="6.36692">
        <ele>1281.6</ele>
        <time>2021-07-06T11:55:05Z</time>
      </trkpt>
      <trkpt lat="43.75291" lon="6.3668">
        <ele>1280.2</ele>
        <time>2021-07-06T11:55:07Z</time>
      </trkpt>
      <trkpt lat="43.75285" lon="6.36665">
        <ele>1279.7</ele>
        <time>2021-07-06T11:55:09Z</time>
      </trkpt>
      <trkpt lat="43.7528" lon="6.3665">
        <ele>1278.7</ele>
        <time>2021-07-06T11:55:11Z</time>
      </trkpt>
      <trkpt lat="43.75274" lon="6.36635">
        <ele>1276.4</ele>
        <time>2021-07-06T11:55:13Z</time>
      </trkpt>
      <trkpt lat="43.75267" lon="6.36623">
        <ele>1275.7</ele>
        <time>2021-07-06T11:55:15Z</time>
      </trkpt>
      <trkpt lat="43.75259" lon="6.36612">
        <ele>1275.2</ele>
        <time>2021-07-06T11:55:17Z</time>
      </trkpt>
      <trkpt lat="43.75251" lon="6.36601">
        <ele>1274.4</ele>
        <time>2021-07-06T11:55:19Z</time>
      </trkpt>
      <trkpt lat="43.75244" lon="6.36592">
        <ele>1273.4</ele>
        <time>2021-07-06T11:55:21Z</time>
      </trkpt>
      <trkpt lat="43.75237" lon="6.36585">
        <ele>1272.3</ele>
        <time>2021-07-06T11:55:23Z</time>
      </trkpt>
      <trkpt lat="43.7523" lon="6.36576">
        <ele>1270.7</ele>
        <time>2021-07-06T11:55:25Z</time>
      </trkpt>
      <trkpt lat="43.75223" lon="6.36568">
        <ele>1269.6</ele>
        <time>2021-07-06T11:55:27Z</time>
      </trkpt>
      <trkpt lat="43.75214" lon="6.36559">
        <ele>1268.7</ele>
        <time>2021-07-06T11:55:29Z</time>
      </trkpt>
      <trkpt lat="43.75205" lon="6.3655">
        <ele>1267.2</ele>
        <time>2021-07-06T11:55:31Z</time>
      </trkpt>
      <trkpt lat="43.75198" lon="6.36542">
        <ele>1266.8</ele>
        <time>2021-07-06T11:55:33Z</time>
      </trkpt>
      <trkpt lat="43.75191" lon="6.36535">
        <ele>1267.1</ele>
        <time>2021-07-06T11:55:35Z</time>
      </trkpt>
      <trkpt lat="43.75182" lon="6.36529">
        <ele>1266.8</ele>
        <time>2021-07-06T11:55:38Z</time>
      </trkpt>
      <trkpt lat="43.75177" lon="6.36519">
        <ele>1265.8</ele>
        <time>2021-07-06T11:55:41Z</time>
      </trkpt>
      <trkpt lat="43.75172" lon="6.36511">
        <ele>1263.4</ele>
        <time>2021-07-06T11:55:44Z</time>
      </trkpt>
      <trkpt lat="43.75169" lon="6.36506">
        <ele>1262.6</ele>
        <time>2021-07-06T11:55:51Z</time>
      </trkpt>
      <trkpt lat="43.75167" lon="6.36505">
        <ele>1262.1</ele>
        <time>2021-07-06T11:55:58Z</time>
      </trkpt>
      <trkpt lat="43.75166" lon="6.36504">
        <ele>1260.5</ele>
        <time>2021-07-06T11:56:05Z</time>
      </trkpt>
      <trkpt lat="43.75164" lon="6.36498">
        <ele>1259.9</ele>
        <time>2021-07-06T11:56:14Z</time>
      </trkpt>
      <trkpt lat="43.75163" lon="6.36495">
        <ele>1258.1</ele>
        <time>2021-07-06T11:56:21Z</time>
      </trkpt>
      <trkpt lat="43.75162" lon="6.36499">
        <ele>1260.3</ele>
        <time>2021-07-06T11:56:28Z</time>
      </trkpt>
      <trkpt lat="43.7516" lon="6.36504">
        <ele>1261.7</ele>
        <time>2021-07-06T11:56:35Z</time>
      </trkpt>
      <trkpt lat="43.75157" lon="6.36504">
        <ele>1259.2</ele>
        <time>2021-07-06T11:56:42Z</time>
      </trkpt>
      <trkpt lat="43.75156" lon="6.36506">
        <ele>1259.4</ele>
        <time>2021-07-06T11:56:49Z</time>
      </trkpt>
      <trkpt lat="43.75156" lon="6.36506">
        <ele>1259.4</ele>
        <time>2021-07-06T11:56:53Z</time>
      </trkpt>
      <trkpt lat="43.75158" lon="6.36501">
        <ele>1256.6</ele>
        <time>2021-07-06T11:57:01Z</time>
      </trkpt>
      <trkpt lat="43.75155" lon="6.36503">
        <ele>1255.6</ele>
        <time>2021-07-06T11:57:08Z</time>
      </trkpt>
      <trkpt lat="43.75155" lon="6.36504">
        <ele>1255.9</ele>
        <time>2021-07-06T11:57:13Z</time>
      </trkpt>
      <trkpt lat="43.75159" lon="6.36502">
        <ele>1258.1</ele>
        <time>2021-07-06T11:57:44Z</time>
      </trkpt>
      <trkpt lat="43.75162" lon="6.36508">
        <ele>1257.4</ele>
        <time>2021-07-06T11:57:51Z</time>
      </trkpt>
      <trkpt lat="43.75161" lon="6.36508">
        <ele>1259.5</ele>
        <time>2021-07-06T11:57:57Z</time>
      </trkpt>
      <trkpt lat="43.75164" lon="6.36506">
        <ele>1256.1</ele>
        <time>2021-07-06T11:58:05Z</time>
      </trkpt>
      <trkpt lat="43.75164" lon="6.36507">
        <ele>1256.2</ele>
        <time>2021-07-06T11:58:11Z</time>
      </trkpt>
      <trkpt lat="43.75164" lon="6.36506">
        <ele>1256.9</ele>
        <time>2021-07-06T11:59:08Z</time>
      </trkpt>
      <trkpt lat="43.75165" lon="6.36506">
        <ele>1256.6</ele>
        <time>2021-07-06T11:59:09Z</time>
      </trkpt>
      <trkpt lat="43.75164" lon="6.36507">
        <ele>1257.2</ele>
        <time>2021-07-06T12:00:02Z</time>
      </trkpt>
      <trkpt lat="43.75164" lon="6.36507">
        <ele>1257.2</ele>
        <time>2021-07-06T12:00:03Z</time>
      </trkpt>
      <trkpt lat="43.75163" lon="6.36506">
        <ele>1259.7</ele>
        <time>2021-07-06T12:01:59Z</time>
      </trkpt>
      <trkpt lat="43.75163" lon="6.36506">
        <ele>1259.4</ele>
        <time>2021-07-06T12:02:00Z</time>
      </trkpt>
      <trkpt lat="43.75167" lon="6.36501">
        <ele>1260</ele>
        <time>2021-07-06T12:02:08Z</time>
      </trkpt>
      <trkpt lat="43.75167" lon="6.36489">
        <ele>1259.9</ele>
        <time>2021-07-06T12:02:14Z</time>
      </trkpt>
      <trkpt lat="43.75161" lon="6.3648">
        <ele>1259.7</ele>
        <time>2021-07-06T12:02:19Z</time>
      </trkpt>
      <trkpt lat="43.7511" lon="6.36388">
        <ele>1260.4</ele>
        <time>2021-07-06T12:02:38Z</time>
      </trkpt>
      <trkpt lat="43.75102" lon="6.36384">
        <ele>1263.2</ele>
        <time>2021-07-06T12:02:42Z</time>
      </trkpt>
      <trkpt lat="43.75095" lon="6.36384">
        <ele>1260.4</ele>
        <time>2021-07-06T12:02:44Z</time>
      </trkpt>
      <trkpt lat="43.75087" lon="6.36383">
        <ele>1261.1</ele>
        <time>2021-07-06T12:02:49Z</time>
      </trkpt>
      <trkpt lat="43.7508" lon="6.3638">
        <ele>1261.5</ele>
        <time>2021-07-06T12:02:53Z</time>
      </trkpt>
      <trkpt lat="43.75072" lon="6.36377">
        <ele>1263.7</ele>
        <time>2021-07-06T12:02:57Z</time>
      </trkpt>
      <trkpt lat="43.75064" lon="6.36378">
        <ele>1261.6</ele>
        <time>2021-07-06T12:03:01Z</time>
      </trkpt>
      <trkpt lat="43.75056" lon="6.36377">
        <ele>1259.1</ele>
        <time>2021-07-06T12:03:05Z</time>
      </trkpt>
      <trkpt lat="43.75051" lon="6.36373">
        <ele>1256.8</ele>
        <time>2021-07-06T12:03:12Z</time>
      </trkpt>
      <trkpt lat="43.75051" lon="6.3637">
        <ele>1256.7</ele>
        <time>2021-07-06T12:03:19Z</time>
      </trkpt>
      <trkpt lat="43.75051" lon="6.36371">
        <ele>1257</ele>
        <time>2021-07-06T12:03:21Z</time>
      </trkpt>
      <trkpt lat="43.75048" lon="6.36374">
        <ele>1257.7</ele>
        <time>2021-07-06T12:04:16Z</time>
      </trkpt>
      <trkpt lat="43.75048" lon="6.36374">
        <ele>1256.6</ele>
        <time>2021-07-06T12:04:21Z</time>
      </trkpt>
      <trkpt lat="43.75047" lon="6.36373">
        <ele>1255</ele>
        <time>2021-07-06T12:04:28Z</time>
      </trkpt>
      <trkpt lat="43.75047" lon="6.36373">
        <ele>1255</ele>
        <time>2021-07-06T12:04:30Z</time>
      </trkpt>
      <trkpt lat="43.75045" lon="6.36372">
        <ele>1253.8</ele>
        <time>2021-07-06T12:06:43Z</time>
      </trkpt>
      <trkpt lat="43.75043" lon="6.36373">
        <ele>1254.5</ele>
        <time>2021-07-06T12:06:50Z</time>
      </trkpt>
      <trkpt lat="43.75039" lon="6.36368">
        <ele>1253.3</ele>
        <time>2021-07-06T12:06:57Z</time>
      </trkpt>
      <trkpt lat="43.75036" lon="6.36362">
        <ele>1250.8</ele>
        <time>2021-07-06T12:07:04Z</time>
      </trkpt>
      <trkpt lat="43.75034" lon="6.36358">
        <ele>1250.3</ele>
        <time>2021-07-06T12:07:11Z</time>
      </trkpt>
      <trkpt lat="43.7503" lon="6.36346">
        <ele>1249.5</ele>
        <time>2021-07-06T12:07:17Z</time>
      </trkpt>
      <trkpt lat="43.75025" lon="6.3634">
        <ele>1251.1</ele>
        <time>2021-07-06T12:07:21Z</time>
      </trkpt>
      <trkpt lat="43.7502" lon="6.36341">
        <ele>1251.3</ele>
        <time>2021-07-06T12:07:28Z</time>
      </trkpt>
      <trkpt lat="43.75019" lon="6.36339">
        <ele>1251.9</ele>
        <time>2021-07-06T12:07:35Z</time>
      </trkpt>
      <trkpt lat="43.75015" lon="6.36337">
        <ele>1250</ele>
        <time>2021-07-06T12:07:42Z</time>
      </trkpt>
      <trkpt lat="43.75015" lon="6.36337">
        <ele>1252.3</ele>
        <time>2021-07-06T12:07:48Z</time>
      </trkpt>
      <trkpt lat="43.75016" lon="6.36336">
        <ele>1249</ele>
        <time>2021-07-06T12:08:00Z</time>
      </trkpt>
      <trkpt lat="43.75016" lon="6.36338">
        <ele>1247</ele>
        <time>2021-07-06T12:08:07Z</time>
      </trkpt>
      <trkpt lat="43.75016" lon="6.36338">
        <ele>1246.7</ele>
        <time>2021-07-06T12:08:09Z</time>
      </trkpt>
      <trkpt lat="43.75016" lon="6.36332">
        <ele>1245.7</ele>
        <time>2021-07-06T12:08:16Z</time>
      </trkpt>
      <trkpt lat="43.75014" lon="6.36323">
        <ele>1246.7</ele>
        <time>2021-07-06T12:08:23Z</time>
      </trkpt>
      <trkpt lat="43.75013" lon="6.36314">
        <ele>1245.9</ele>
        <time>2021-07-06T12:08:28Z</time>
      </trkpt>
      <trkpt lat="43.75011" lon="6.36304">
        <ele>1245.7</ele>
        <time>2021-07-06T12:08:32Z</time>
      </trkpt>
      <trkpt lat="43.75009" lon="6.36292">
        <ele>1243.9</ele>
        <time>2021-07-06T12:08:36Z</time>
      </trkpt>
      <trkpt lat="43.75006" lon="6.36282">
        <ele>1242.9</ele>
        <time>2021-07-06T12:08:39Z</time>
      </trkpt>
      <trkpt lat="43.75004" lon="6.3627">
        <ele>1242.4</ele>
        <time>2021-07-06T12:08:42Z</time>
      </trkpt>
      <trkpt lat="43.75003" lon="6.36258">
        <ele>1241.8</ele>
        <time>2021-07-06T12:08:45Z</time>
      </trkpt>
      <trkpt lat="43.75004" lon="6.36247">
        <ele>1240.3</ele>
        <time>2021-07-06T12:08:48Z</time>
      </trkpt>
      <trkpt lat="43.75004" lon="6.36236">
        <ele>1240.7</ele>
        <time>2021-07-06T12:08:51Z</time>
      </trkpt>
      <trkpt lat="43.75003" lon="6.36225">
        <ele>1240.2</ele>
        <time>2021-07-06T12:08:54Z</time>
      </trkpt>
      <trkpt lat="43.74999" lon="6.36216">
        <ele>1240.3</ele>
        <time>2021-07-06T12:08:57Z</time>
      </trkpt>
      <trkpt lat="43.74995" lon="6.36209">
        <ele>1240.7</ele>
        <time>2021-07-06T12:09:02Z</time>
      </trkpt>
      <trkpt lat="43.74992" lon="6.36208">
        <ele>1240.7</ele>
        <time>2021-07-06T12:09:09Z</time>
      </trkpt>
      <trkpt lat="43.74991" lon="6.36207">
        <ele>1247.3</ele>
        <time>2021-07-06T12:09:16Z</time>
      </trkpt>
      <trkpt lat="43.74991" lon="6.36207">
        <ele>1244.9</ele>
        <time>2021-07-06T12:09:18Z</time>
      </trkpt>
      <trkpt lat="43.74984" lon="6.36201">
        <ele>1243.9</ele>
        <time>2021-07-06T12:09:36Z</time>
      </trkpt>
      <trkpt lat="43.74983" lon="6.36191">
        <ele>1244.4</ele>
        <time>2021-07-06T12:09:41Z</time>
      </trkpt>
      <trkpt lat="43.74983" lon="6.36181">
        <ele>1244.3</ele>
        <time>2021-07-06T12:09:45Z</time>
      </trkpt>
      <trkpt lat="43.74985" lon="6.36169">
        <ele>1244.8</ele>
        <time>2021-07-06T12:09:49Z</time>
      </trkpt>
      <trkpt lat="43.74961" lon="6.36075">
        <ele>1248.7</ele>
        <time>2021-07-06T12:09:56Z</time>
      </trkpt>
      <trkpt lat="43.74957" lon="6.36096">
        <ele>1245.9</ele>
        <time>2021-07-06T12:09:57Z</time>
      </trkpt>
      <trkpt lat="43.7495" lon="6.36089">
        <ele>1236.9</ele>
        <time>2021-07-06T12:10:01Z</time>
      </trkpt>
      <trkpt lat="43.74946" lon="6.36079">
        <ele>1235.4</ele>
        <time>2021-07-06T12:10:04Z</time>
      </trkpt>
      <trkpt lat="43.74941" lon="6.36078">
        <ele>1234.8</ele>
        <time>2021-07-06T12:10:11Z</time>
      </trkpt>
      <trkpt lat="43.7494" lon="6.36077">
        <ele>1236.4</ele>
        <time>2021-07-06T12:10:17Z</time>
      </trkpt>
      <trkpt lat="43.74949" lon="6.36102">
        <ele>1229</ele>
        <time>2021-07-06T12:12:47Z</time>
      </trkpt>
      <trkpt lat="43.74947" lon="6.36094">
        <ele>1230.2</ele>
        <time>2021-07-06T12:12:54Z</time>
      </trkpt>
      <trkpt lat="43.74945" lon="6.36082">
        <ele>1230.3</ele>
        <time>2021-07-06T12:13:01Z</time>
      </trkpt>
      <trkpt lat="43.7494" lon="6.36073">
        <ele>1228.4</ele>
        <time>2021-07-06T12:13:06Z</time>
      </trkpt>
      <trkpt lat="43.74937" lon="6.36076">
        <ele>1231.9</ele>
        <time>2021-07-06T12:13:13Z</time>
      </trkpt>
      <trkpt lat="43.74937" lon="6.36075">
        <ele>1234.7</ele>
        <time>2021-07-06T12:13:17Z</time>
      </trkpt>
      <trkpt lat="43.74937" lon="6.36076">
        <ele>1236</ele>
        <time>2021-07-06T12:13:25Z</time>
      </trkpt>
      <trkpt lat="43.74937" lon="6.3607">
        <ele>1234.5</ele>
        <time>2021-07-06T12:13:32Z</time>
      </trkpt>
      <trkpt lat="43.74936" lon="6.36059">
        <ele>1234.2</ele>
        <time>2021-07-06T12:13:35Z</time>
      </trkpt>
      <trkpt lat="43.74936" lon="6.36048">
        <ele>1234.3</ele>
        <time>2021-07-06T12:13:38Z</time>
      </trkpt>
      <trkpt lat="43.74935" lon="6.36036">
        <ele>1234.5</ele>
        <time>2021-07-06T12:13:41Z</time>
      </trkpt>
      <trkpt lat="43.74935" lon="6.36022">
        <ele>1233</ele>
        <time>2021-07-06T12:13:44Z</time>
      </trkpt>
      <trkpt lat="43.74935" lon="6.36012">
        <ele>1232.8</ele>
        <time>2021-07-06T12:13:46Z</time>
      </trkpt>
      <trkpt lat="43.74935" lon="6.36002">
        <ele>1232.1</ele>
        <time>2021-07-06T12:13:48Z</time>
      </trkpt>
      <trkpt lat="43.74936" lon="6.35987">
        <ele>1230.3</ele>
        <time>2021-07-06T12:13:51Z</time>
      </trkpt>
      <trkpt lat="43.74936" lon="6.35976">
        <ele>1229.2</ele>
        <time>2021-07-06T12:13:54Z</time>
      </trkpt>
      <trkpt lat="43.74932" lon="6.35962">
        <ele>1227.8</ele>
        <time>2021-07-06T12:13:57Z</time>
      </trkpt>
      <trkpt lat="43.74927" lon="6.35953">
        <ele>1226.6</ele>
        <time>2021-07-06T12:13:59Z</time>
      </trkpt>
      <trkpt lat="43.74921" lon="6.35945">
        <ele>1226.6</ele>
        <time>2021-07-06T12:14:01Z</time>
      </trkpt>
      <trkpt lat="43.74914" lon="6.35939">
        <ele>1226.9</ele>
        <time>2021-07-06T12:14:03Z</time>
      </trkpt>
      <trkpt lat="43.74906" lon="6.35936">
        <ele>1227.3</ele>
        <time>2021-07-06T12:14:05Z</time>
      </trkpt>
      <trkpt lat="43.74899" lon="6.35933">
        <ele>1227.3</ele>
        <time>2021-07-06T12:14:07Z</time>
      </trkpt>
      <trkpt lat="43.74891" lon="6.35931">
        <ele>1227.1</ele>
        <time>2021-07-06T12:14:09Z</time>
      </trkpt>
      <trkpt lat="43.74883" lon="6.3593">
        <ele>1227.9</ele>
        <time>2021-07-06T12:14:11Z</time>
      </trkpt>
      <trkpt lat="43.74873" lon="6.35926">
        <ele>1225.7</ele>
        <time>2021-07-06T12:14:14Z</time>
      </trkpt>
      <trkpt lat="43.74866" lon="6.3592">
        <ele>1222.3</ele>
        <time>2021-07-06T12:14:16Z</time>
      </trkpt>
      <trkpt lat="43.7486" lon="6.35915">
        <ele>1221</ele>
        <time>2021-07-06T12:14:18Z</time>
      </trkpt>
      <trkpt lat="43.74854" lon="6.35905">
        <ele>1220.9</ele>
        <time>2021-07-06T12:14:21Z</time>
      </trkpt>
      <trkpt lat="43.74848" lon="6.35893">
        <ele>1218.5</ele>
        <time>2021-07-06T12:14:24Z</time>
      </trkpt>
      <trkpt lat="43.74843" lon="6.35883">
        <ele>1216.7</ele>
        <time>2021-07-06T12:14:26Z</time>
      </trkpt>
      <trkpt lat="43.74836" lon="6.35872">
        <ele>1215.2</ele>
        <time>2021-07-06T12:14:28Z</time>
      </trkpt>
      <trkpt lat="43.74828" lon="6.35865">
        <ele>1214.7</ele>
        <time>2021-07-06T12:14:30Z</time>
      </trkpt>
      <trkpt lat="43.74822" lon="6.35858">
        <ele>1214.2</ele>
        <time>2021-07-06T12:14:32Z</time>
      </trkpt>
      <trkpt lat="43.74816" lon="6.35852">
        <ele>1213.6</ele>
        <time>2021-07-06T12:14:34Z</time>
      </trkpt>
      <trkpt lat="43.74809" lon="6.35844">
        <ele>1212.6</ele>
        <time>2021-07-06T12:14:36Z</time>
      </trkpt>
      <trkpt lat="43.74801" lon="6.35836">
        <ele>1212.5</ele>
        <time>2021-07-06T12:14:39Z</time>
      </trkpt>
      <trkpt lat="43.74794" lon="6.35829">
        <ele>1211.1</ele>
        <time>2021-07-06T12:14:42Z</time>
      </trkpt>
      <trkpt lat="43.74786" lon="6.35821">
        <ele>1210.4</ele>
        <time>2021-07-06T12:14:46Z</time>
      </trkpt>
      <trkpt lat="43.74783" lon="6.35816">
        <ele>1210.6</ele>
        <time>2021-07-06T12:14:53Z</time>
      </trkpt>
      <trkpt lat="43.74781" lon="6.35821">
        <ele>1210.8</ele>
        <time>2021-07-06T12:15:00Z</time>
      </trkpt>
      <trkpt lat="43.74781" lon="6.35822">
        <ele>1210.9</ele>
        <time>2021-07-06T12:15:07Z</time>
      </trkpt>
      <trkpt lat="43.7478" lon="6.35822">
        <ele>1211.3</ele>
        <time>2021-07-06T12:15:18Z</time>
      </trkpt>
      <trkpt lat="43.7478" lon="6.35822">
        <ele>1211.3</ele>
        <time>2021-07-06T12:15:19Z</time>
      </trkpt>
      <trkpt lat="43.74779" lon="6.3582">
        <ele>1209.6</ele>
        <time>2021-07-06T12:15:33Z</time>
      </trkpt>
      <trkpt lat="43.74779" lon="6.3582">
        <ele>1209.7</ele>
        <time>2021-07-06T12:15:34Z</time>
      </trkpt>
      <trkpt lat="43.74781" lon="6.3582">
        <ele>1210.9</ele>
        <time>2021-07-06T12:15:43Z</time>
      </trkpt>
      <trkpt lat="43.74783" lon="6.35821">
        <ele>1211.4</ele>
        <time>2021-07-06T12:15:50Z</time>
      </trkpt>
      <trkpt lat="43.74783" lon="6.35821">
        <ele>1211.4</ele>
        <time>2021-07-06T12:15:52Z</time>
      </trkpt>
      <trkpt lat="43.74782" lon="6.3582">
        <ele>1212.6</ele>
        <time>2021-07-06T12:16:03Z</time>
      </trkpt>
      <trkpt lat="43.74782" lon="6.3582">
        <ele>1212.6</ele>
        <time>2021-07-06T12:16:04Z</time>
      </trkpt>
      <trkpt lat="43.74784" lon="6.3582">
        <ele>1213.1</ele>
        <time>2021-07-06T12:17:25Z</time>
      </trkpt>
      <trkpt lat="43.74784" lon="6.3582">
        <ele>1212.7</ele>
        <time>2021-07-06T12:17:26Z</time>
      </trkpt>
      <trkpt lat="43.74785" lon="6.35819">
        <ele>1211.2</ele>
        <time>2021-07-06T12:17:35Z</time>
      </trkpt>
      <trkpt lat="43.74785" lon="6.35819">
        <ele>1211.3</ele>
        <time>2021-07-06T12:17:36Z</time>
      </trkpt>
      <trkpt lat="43.74783" lon="6.35816">
        <ele>1211.4</ele>
        <time>2021-07-06T12:18:24Z</time>
      </trkpt>
      <trkpt lat="43.74782" lon="6.35816">
        <ele>1213.2</ele>
        <time>2021-07-06T12:18:31Z</time>
      </trkpt>
      <trkpt lat="43.74781" lon="6.35816">
        <ele>1208.9</ele>
        <time>2021-07-06T12:18:39Z</time>
      </trkpt>
      <trkpt lat="43.74781" lon="6.35816">
        <ele>1208.8</ele>
        <time>2021-07-06T12:18:40Z</time>
      </trkpt>
      <trkpt lat="43.74783" lon="6.35805">
        <ele>1208.1</ele>
        <time>2021-07-06T12:18:52Z</time>
      </trkpt>
      <trkpt lat="43.74779" lon="6.35795">
        <ele>1207.7</ele>
        <time>2021-07-06T12:18:55Z</time>
      </trkpt>
      <trkpt lat="43.74778" lon="6.35784">
        <ele>1207.5</ele>
        <time>2021-07-06T12:18:59Z</time>
      </trkpt>
      <trkpt lat="43.7478" lon="6.35773">
        <ele>1206.9</ele>
        <time>2021-07-06T12:19:02Z</time>
      </trkpt>
      <trkpt lat="43.74779" lon="6.35759">
        <ele>1206.1</ele>
        <time>2021-07-06T12:19:05Z</time>
      </trkpt>
      <trkpt lat="43.74777" lon="6.3575">
        <ele>1205.2</ele>
        <time>2021-07-06T12:19:07Z</time>
      </trkpt>
      <trkpt lat="43.74774" lon="6.35739">
        <ele>1203.8</ele>
        <time>2021-07-06T12:19:09Z</time>
      </trkpt>
      <trkpt lat="43.7477" lon="6.35729">
        <ele>1203</ele>
        <time>2021-07-06T12:19:11Z</time>
      </trkpt>
      <trkpt lat="43.74767" lon="6.3572">
        <ele>1202.3</ele>
        <time>2021-07-06T12:19:13Z</time>
      </trkpt>
      <trkpt lat="43.74764" lon="6.35711">
        <ele>1201.2</ele>
        <time>2021-07-06T12:19:15Z</time>
      </trkpt>
      <trkpt lat="43.74761" lon="6.35701">
        <ele>1200.4</ele>
        <time>2021-07-06T12:19:17Z</time>
      </trkpt>
      <trkpt lat="43.74758" lon="6.35692">
        <ele>1200.7</ele>
        <time>2021-07-06T12:19:19Z</time>
      </trkpt>
      <trkpt lat="43.74755" lon="6.35678">
        <ele>1196.3</ele>
        <time>2021-07-06T12:19:22Z</time>
      </trkpt>
      <trkpt lat="43.7475" lon="6.35667">
        <ele>1196.2</ele>
        <time>2021-07-06T12:19:25Z</time>
      </trkpt>
      <trkpt lat="43.74749" lon="6.35656">
        <ele>1195.3</ele>
        <time>2021-07-06T12:19:28Z</time>
      </trkpt>
      <trkpt lat="43.74749" lon="6.35645">
        <ele>1193.6</ele>
        <time>2021-07-06T12:19:31Z</time>
      </trkpt>
      <trkpt lat="43.74751" lon="6.35632">
        <ele>1191.6</ele>
        <time>2021-07-06T12:19:34Z</time>
      </trkpt>
      <trkpt lat="43.74752" lon="6.35622">
        <ele>1191.1</ele>
        <time>2021-07-06T12:19:36Z</time>
      </trkpt>
      <trkpt lat="43.74754" lon="6.3561">
        <ele>1189.7</ele>
        <time>2021-07-06T12:19:39Z</time>
      </trkpt>
      <trkpt lat="43.74757" lon="6.35599">
        <ele>1186.3</ele>
        <time>2021-07-06T12:19:42Z</time>
      </trkpt>
      <trkpt lat="43.74759" lon="6.35585">
        <ele>1185.1</ele>
        <time>2021-07-06T12:19:45Z</time>
      </trkpt>
      <trkpt lat="43.74761" lon="6.35571">
        <ele>1184.1</ele>
        <time>2021-07-06T12:19:48Z</time>
      </trkpt>
      <trkpt lat="43.74765" lon="6.35558">
        <ele>1183.2</ele>
        <time>2021-07-06T12:19:51Z</time>
      </trkpt>
      <trkpt lat="43.7477" lon="6.35548">
        <ele>1182.5</ele>
        <time>2021-07-06T12:19:54Z</time>
      </trkpt>
      <trkpt lat="43.74776" lon="6.35539">
        <ele>1181</ele>
        <time>2021-07-06T12:19:57Z</time>
      </trkpt>
      <trkpt lat="43.74783" lon="6.35531">
        <ele>1179.8</ele>
        <time>2021-07-06T12:20:00Z</time>
      </trkpt>
      <trkpt lat="43.74789" lon="6.35523">
        <ele>1178.9</ele>
        <time>2021-07-06T12:20:03Z</time>
      </trkpt>
      <trkpt lat="43.74795" lon="6.35515">
        <ele>1177</ele>
        <time>2021-07-06T12:20:06Z</time>
      </trkpt>
      <trkpt lat="43.74802" lon="6.35507">
        <ele>1174.8</ele>
        <time>2021-07-06T12:20:09Z</time>
      </trkpt>
      <trkpt lat="43.74808" lon="6.35498">
        <ele>1175.4</ele>
        <time>2021-07-06T12:20:12Z</time>
      </trkpt>
      <trkpt lat="43.74815" lon="6.35493">
        <ele>1173.7</ele>
        <time>2021-07-06T12:20:15Z</time>
      </trkpt>
      <trkpt lat="43.74824" lon="6.35489">
        <ele>1173.1</ele>
        <time>2021-07-06T12:20:18Z</time>
      </trkpt>
      <trkpt lat="43.74833" lon="6.35487">
        <ele>1172.3</ele>
        <time>2021-07-06T12:20:21Z</time>
      </trkpt>
      <trkpt lat="43.7484" lon="6.35485">
        <ele>1171.5</ele>
        <time>2021-07-06T12:20:24Z</time>
      </trkpt>
      <trkpt lat="43.74851" lon="6.35479">
        <ele>1170.8</ele>
        <time>2021-07-06T12:20:27Z</time>
      </trkpt>
      <trkpt lat="43.74858" lon="6.35477">
        <ele>1170.2</ele>
        <time>2021-07-06T12:20:29Z</time>
      </trkpt>
      <trkpt lat="43.74868" lon="6.35476">
        <ele>1169.2</ele>
        <time>2021-07-06T12:20:32Z</time>
      </trkpt>
      <trkpt lat="43.74878" lon="6.35474">
        <ele>1168.5</ele>
        <time>2021-07-06T12:20:35Z</time>
      </trkpt>
      <trkpt lat="43.74886" lon="6.35471">
        <ele>1167.9</ele>
        <time>2021-07-06T12:20:37Z</time>
      </trkpt>
      <trkpt lat="43.74893" lon="6.35465">
        <ele>1167</ele>
        <time>2021-07-06T12:20:39Z</time>
      </trkpt>
      <trkpt lat="43.74899" lon="6.35458">
        <ele>1166.6</ele>
        <time>2021-07-06T12:20:41Z</time>
      </trkpt>
      <trkpt lat="43.74903" lon="6.35447">
        <ele>1167</ele>
        <time>2021-07-06T12:20:43Z</time>
      </trkpt>
      <trkpt lat="43.74907" lon="6.35433">
        <ele>1168.5</ele>
        <time>2021-07-06T12:20:45Z</time>
      </trkpt>
      <trkpt lat="43.74906" lon="6.35423">
        <ele>1168.9</ele>
        <time>2021-07-06T12:20:48Z</time>
      </trkpt>
      <trkpt lat="43.74905" lon="6.35415">
        <ele>1172.5</ele>
        <time>2021-07-06T12:20:55Z</time>
      </trkpt>
      <trkpt lat="43.74898" lon="6.3542">
        <ele>1166.6</ele>
        <time>2021-07-06T12:21:01Z</time>
      </trkpt>
      <trkpt lat="43.74898" lon="6.35421">
        <ele>1164.4</ele>
        <time>2021-07-06T12:21:08Z</time>
      </trkpt>
      <trkpt lat="43.74898" lon="6.35421">
        <ele>1164</ele>
        <time>2021-07-06T12:21:09Z</time>
      </trkpt>
      <trkpt lat="43.74897" lon="6.3542">
        <ele>1164.9</ele>
        <time>2021-07-06T12:21:18Z</time>
      </trkpt>
      <trkpt lat="43.74897" lon="6.3542">
        <ele>1164.9</ele>
        <time>2021-07-06T12:21:19Z</time>
      </trkpt>
      <trkpt lat="43.74896" lon="6.35419">
        <ele>1164.7</ele>
        <time>2021-07-06T12:21:38Z</time>
      </trkpt>
      <trkpt lat="43.74896" lon="6.35419">
        <ele>1164.7</ele>
        <time>2021-07-06T12:21:39Z</time>
      </trkpt>
      <trkpt lat="43.74896" lon="6.3542">
        <ele>1164.5</ele>
        <time>2021-07-06T12:21:56Z</time>
      </trkpt>
      <trkpt lat="43.74896" lon="6.3542">
        <ele>1164.5</ele>
        <time>2021-07-06T12:21:57Z</time>
      </trkpt>
      <trkpt lat="43.74893" lon="6.35429">
        <ele>1163.5</ele>
        <time>2021-07-06T12:22:09Z</time>
      </trkpt>
      <trkpt lat="43.74886" lon="6.35437">
        <ele>1163.5</ele>
        <time>2021-07-06T12:22:12Z</time>
      </trkpt>
      <trkpt lat="43.74879" lon="6.35441">
        <ele>1162.4</ele>
        <time>2021-07-06T12:22:15Z</time>
      </trkpt>
      <trkpt lat="43.74871" lon="6.35447">
        <ele>1161.5</ele>
        <time>2021-07-06T12:22:18Z</time>
      </trkpt>
      <trkpt lat="43.74863" lon="6.35449">
        <ele>1161.6</ele>
        <time>2021-07-06T12:22:21Z</time>
      </trkpt>
      <trkpt lat="43.74854" lon="6.3545">
        <ele>1161.1</ele>
        <time>2021-07-06T12:22:24Z</time>
      </trkpt>
      <trkpt lat="43.74844" lon="6.3545">
        <ele>1160.1</ele>
        <time>2021-07-06T12:22:27Z</time>
      </trkpt>
      <trkpt lat="43.74835" lon="6.35452">
        <ele>1159.1</ele>
        <time>2021-07-06T12:22:30Z</time>
      </trkpt>
      <trkpt lat="43.74826" lon="6.35452">
        <ele>1158.3</ele>
        <time>2021-07-06T12:22:33Z</time>
      </trkpt>
      <trkpt lat="43.74816" lon="6.35452">
        <ele>1156.6</ele>
        <time>2021-07-06T12:22:36Z</time>
      </trkpt>
      <trkpt lat="43.74807" lon="6.35453">
        <ele>1156.3</ele>
        <time>2021-07-06T12:22:39Z</time>
      </trkpt>
      <trkpt lat="43.74797" lon="6.35455">
        <ele>1154.5</ele>
        <time>2021-07-06T12:22:42Z</time>
      </trkpt>
      <trkpt lat="43.74787" lon="6.35461">
        <ele>1153.9</ele>
        <time>2021-07-06T12:22:45Z</time>
      </trkpt>
      <trkpt lat="43.7478" lon="6.35466">
        <ele>1152.9</ele>
        <time>2021-07-06T12:22:47Z</time>
      </trkpt>
      <trkpt lat="43.74774" lon="6.35472">
        <ele>1152.3</ele>
        <time>2021-07-06T12:22:49Z</time>
      </trkpt>
      <trkpt lat="43.74767" lon="6.35477">
        <ele>1155.5</ele>
        <time>2021-07-06T12:22:51Z</time>
      </trkpt>
      <trkpt lat="43.74761" lon="6.35484">
        <ele>1151.7</ele>
        <time>2021-07-06T12:22:53Z</time>
      </trkpt>
      <trkpt lat="43.74754" lon="6.35491">
        <ele>1150.4</ele>
        <time>2021-07-06T12:22:55Z</time>
      </trkpt>
      <trkpt lat="43.74748" lon="6.35497">
        <ele>1150.3</ele>
        <time>2021-07-06T12:22:57Z</time>
      </trkpt>
      <trkpt lat="43.74741" lon="6.35504">
        <ele>1149.8</ele>
        <time>2021-07-06T12:22:59Z</time>
      </trkpt>
      <trkpt lat="43.74735" lon="6.35513">
        <ele>1149.1</ele>
        <time>2021-07-06T12:23:01Z</time>
      </trkpt>
      <trkpt lat="43.74727" lon="6.3552">
        <ele>1148.2</ele>
        <time>2021-07-06T12:23:03Z</time>
      </trkpt>
      <trkpt lat="43.7472" lon="6.35529">
        <ele>1147.2</ele>
        <time>2021-07-06T12:23:05Z</time>
      </trkpt>
      <trkpt lat="43.74713" lon="6.35539">
        <ele>1145.7</ele>
        <time>2021-07-06T12:23:07Z</time>
      </trkpt>
      <trkpt lat="43.74708" lon="6.35551">
        <ele>1144.5</ele>
        <time>2021-07-06T12:23:09Z</time>
      </trkpt>
      <trkpt lat="43.74705" lon="6.35564">
        <ele>1144</ele>
        <time>2021-07-06T12:23:11Z</time>
      </trkpt>
      <trkpt lat="43.74704" lon="6.35579">
        <ele>1143.5</ele>
        <time>2021-07-06T12:23:13Z</time>
      </trkpt>
      <trkpt lat="43.74706" lon="6.35592">
        <ele>1141.6</ele>
        <time>2021-07-06T12:23:15Z</time>
      </trkpt>
      <trkpt lat="43.74707" lon="6.35605">
        <ele>1140.2</ele>
        <time>2021-07-06T12:23:17Z</time>
      </trkpt>
      <trkpt lat="43.74707" lon="6.35617">
        <ele>1139.8</ele>
        <time>2021-07-06T12:23:19Z</time>
      </trkpt>
      <trkpt lat="43.74705" lon="6.35628">
        <ele>1139.9</ele>
        <time>2021-07-06T12:23:22Z</time>
      </trkpt>
      <trkpt lat="43.74696" lon="6.35634">
        <ele>1139.9</ele>
        <time>2021-07-06T12:23:25Z</time>
      </trkpt>
      <trkpt lat="43.74692" lon="6.35641">
        <ele>1138.4</ele>
        <time>2021-07-06T12:23:29Z</time>
      </trkpt>
      <trkpt lat="43.74691" lon="6.35642">
        <ele>1138.1</ele>
        <time>2021-07-06T12:23:36Z</time>
      </trkpt>
      <trkpt lat="43.74694" lon="6.35634">
        <ele>1138.2</ele>
        <time>2021-07-06T12:23:44Z</time>
      </trkpt>
      <trkpt lat="43.74688" lon="6.35625">
        <ele>1138.7</ele>
        <time>2021-07-06T12:23:50Z</time>
      </trkpt>
      <trkpt lat="43.74685" lon="6.35615">
        <ele>1138.3</ele>
        <time>2021-07-06T12:23:55Z</time>
      </trkpt>
      <trkpt lat="43.74686" lon="6.35604">
        <ele>1138.8</ele>
        <time>2021-07-06T12:23:59Z</time>
      </trkpt>
      <trkpt lat="43.74687" lon="6.35593">
        <ele>1138.8</ele>
        <time>2021-07-06T12:24:01Z</time>
      </trkpt>
      <trkpt lat="43.74686" lon="6.35577">
        <ele>1138.1</ele>
        <time>2021-07-06T12:24:03Z</time>
      </trkpt>
      <trkpt lat="43.74684" lon="6.35563">
        <ele>1137.8</ele>
        <time>2021-07-06T12:24:05Z</time>
      </trkpt>
      <trkpt lat="43.7468" lon="6.35548">
        <ele>1136.8</ele>
        <time>2021-07-06T12:24:07Z</time>
      </trkpt>
      <trkpt lat="43.74675" lon="6.35535">
        <ele>1137</ele>
        <time>2021-07-06T12:24:09Z</time>
      </trkpt>
      <trkpt lat="43.74669" lon="6.35521">
        <ele>1135.9</ele>
        <time>2021-07-06T12:24:11Z</time>
      </trkpt>
      <trkpt lat="43.74663" lon="6.35509">
        <ele>1134.2</ele>
        <time>2021-07-06T12:24:13Z</time>
      </trkpt>
      <trkpt lat="43.74655" lon="6.35497">
        <ele>1133.7</ele>
        <time>2021-07-06T12:24:15Z</time>
      </trkpt>
      <trkpt lat="43.74646" lon="6.35484">
        <ele>1131.5</ele>
        <time>2021-07-06T12:24:17Z</time>
      </trkpt>
      <trkpt lat="43.74639" lon="6.35473">
        <ele>1129.5</ele>
        <time>2021-07-06T12:24:19Z</time>
      </trkpt>
      <trkpt lat="43.74633" lon="6.35464">
        <ele>1129</ele>
        <time>2021-07-06T12:24:21Z</time>
      </trkpt>
      <trkpt lat="43.74627" lon="6.35456">
        <ele>1127.8</ele>
        <time>2021-07-06T12:24:23Z</time>
      </trkpt>
      <trkpt lat="43.74621" lon="6.35445">
        <ele>1127.1</ele>
        <time>2021-07-06T12:24:26Z</time>
      </trkpt>
      <trkpt lat="43.74617" lon="6.35433">
        <ele>1126.3</ele>
        <time>2021-07-06T12:24:30Z</time>
      </trkpt>
      <trkpt lat="43.74614" lon="6.35429">
        <ele>1124.5</ele>
        <time>2021-07-06T12:24:37Z</time>
      </trkpt>
      <trkpt lat="43.74614" lon="6.35429">
        <ele>1124.8</ele>
        <time>2021-07-06T12:24:40Z</time>
      </trkpt>
      <trkpt lat="43.74607" lon="6.35429">
        <ele>1124.4</ele>
        <time>2021-07-06T12:24:47Z</time>
      </trkpt>
      <trkpt lat="43.74599" lon="6.3543">
        <ele>1124.1</ele>
        <time>2021-07-06T12:24:50Z</time>
      </trkpt>
      <trkpt lat="43.74593" lon="6.35434">
        <ele>1123.1</ele>
        <time>2021-07-06T12:24:57Z</time>
      </trkpt>
      <trkpt lat="43.74594" lon="6.35434">
        <ele>1122.8</ele>
        <time>2021-07-06T12:25:02Z</time>
      </trkpt>
      <trkpt lat="43.74594" lon="6.35434">
        <ele>1123.2</ele>
        <time>2021-07-06T12:25:15Z</time>
      </trkpt>
      <trkpt lat="43.74594" lon="6.35434">
        <ele>1123.2</ele>
        <time>2021-07-06T12:25:16Z</time>
      </trkpt>
      <trkpt lat="43.74585" lon="6.35441">
        <ele>1122.2</ele>
        <time>2021-07-06T12:25:35Z</time>
      </trkpt>
      <trkpt lat="43.74576" lon="6.35446">
        <ele>1119.9</ele>
        <time>2021-07-06T12:25:38Z</time>
      </trkpt>
      <trkpt lat="43.7457" lon="6.3545">
        <ele>1118.1</ele>
        <time>2021-07-06T12:25:40Z</time>
      </trkpt>
      <trkpt lat="43.74562" lon="6.35455">
        <ele>1116.6</ele>
        <time>2021-07-06T12:25:42Z</time>
      </trkpt>
      <trkpt lat="43.74555" lon="6.35462">
        <ele>1116.2</ele>
        <time>2021-07-06T12:25:44Z</time>
      </trkpt>
      <trkpt lat="43.74546" lon="6.35471">
        <ele>1115.1</ele>
        <time>2021-07-06T12:25:46Z</time>
      </trkpt>
      <trkpt lat="43.74537" lon="6.35481">
        <ele>1113.7</ele>
        <time>2021-07-06T12:25:48Z</time>
      </trkpt>
      <trkpt lat="43.74528" lon="6.35491">
        <ele>1112</ele>
        <time>2021-07-06T12:25:50Z</time>
      </trkpt>
      <trkpt lat="43.7452" lon="6.355">
        <ele>1110.6</ele>
        <time>2021-07-06T12:25:52Z</time>
      </trkpt>
      <trkpt lat="43.74511" lon="6.3551">
        <ele>1109.2</ele>
        <time>2021-07-06T12:25:54Z</time>
      </trkpt>
      <trkpt lat="43.74504" lon="6.35519">
        <ele>1107.9</ele>
        <time>2021-07-06T12:25:56Z</time>
      </trkpt>
      <trkpt lat="43.74496" lon="6.35529">
        <ele>1106.9</ele>
        <time>2021-07-06T12:25:58Z</time>
      </trkpt>
      <trkpt lat="43.74488" lon="6.35539">
        <ele>1105.9</ele>
        <time>2021-07-06T12:26:00Z</time>
      </trkpt>
      <trkpt lat="43.7448" lon="6.35549">
        <ele>1104.7</ele>
        <time>2021-07-06T12:26:02Z</time>
      </trkpt>
      <trkpt lat="43.74472" lon="6.3556">
        <ele>1102.8</ele>
        <time>2021-07-06T12:26:04Z</time>
      </trkpt>
      <trkpt lat="43.74464" lon="6.35573">
        <ele>1100.6</ele>
        <time>2021-07-06T12:26:06Z</time>
      </trkpt>
      <trkpt lat="43.74455" lon="6.35589">
        <ele>1098.7</ele>
        <time>2021-07-06T12:26:08Z</time>
      </trkpt>
      <trkpt lat="43.74448" lon="6.35603">
        <ele>1097.1</ele>
        <time>2021-07-06T12:26:10Z</time>
      </trkpt>
      <trkpt lat="43.74441" lon="6.35618">
        <ele>1095.5</ele>
        <time>2021-07-06T12:26:12Z</time>
      </trkpt>
      <trkpt lat="43.74435" lon="6.35633">
        <ele>1093.4</ele>
        <time>2021-07-06T12:26:14Z</time>
      </trkpt>
      <trkpt lat="43.74428" lon="6.35649">
        <ele>1092.1</ele>
        <time>2021-07-06T12:26:16Z</time>
      </trkpt>
      <trkpt lat="43.74421" lon="6.35665">
        <ele>1091</ele>
        <time>2021-07-06T12:26:18Z</time>
      </trkpt>
      <trkpt lat="43.74415" lon="6.35682">
        <ele>1089.9</ele>
        <time>2021-07-06T12:26:20Z</time>
      </trkpt>
      <trkpt lat="43.74411" lon="6.35691">
        <ele>1089.1</ele>
        <time>2021-07-06T12:26:21Z</time>
      </trkpt>
      <trkpt lat="43.74408" lon="6.357">
        <ele>1088.3</ele>
        <time>2021-07-06T12:26:22Z</time>
      </trkpt>
      <trkpt lat="43.74401" lon="6.35717">
        <ele>1087.2</ele>
        <time>2021-07-06T12:26:24Z</time>
      </trkpt>
      <trkpt lat="43.74396" lon="6.35734">
        <ele>1085.8</ele>
        <time>2021-07-06T12:26:26Z</time>
      </trkpt>
      <trkpt lat="43.74396" lon="6.3575">
        <ele>1084.5</ele>
        <time>2021-07-06T12:26:28Z</time>
      </trkpt>
      <trkpt lat="43.74396" lon="6.35763">
        <ele>1083.6</ele>
        <time>2021-07-06T12:26:30Z</time>
      </trkpt>
      <trkpt lat="43.74393" lon="6.35774">
        <ele>1083.1</ele>
        <time>2021-07-06T12:26:32Z</time>
      </trkpt>
      <trkpt lat="43.74386" lon="6.3578">
        <ele>1083.8</ele>
        <time>2021-07-06T12:26:35Z</time>
      </trkpt>
      <trkpt lat="43.7438" lon="6.35782">
        <ele>1085.3</ele>
        <time>2021-07-06T12:26:42Z</time>
      </trkpt>
      <trkpt lat="43.74379" lon="6.35783">
        <ele>1085.2</ele>
        <time>2021-07-06T12:26:46Z</time>
      </trkpt>
      <trkpt lat="43.74378" lon="6.35781">
        <ele>1085.8</ele>
        <time>2021-07-06T12:26:54Z</time>
      </trkpt>
      <trkpt lat="43.74382" lon="6.35785">
        <ele>1085.5</ele>
        <time>2021-07-06T12:27:01Z</time>
      </trkpt>
      <trkpt lat="43.7438" lon="6.35793">
        <ele>1084.5</ele>
        <time>2021-07-06T12:27:08Z</time>
      </trkpt>
      <trkpt lat="43.74373" lon="6.358">
        <ele>1082.3</ele>
        <time>2021-07-06T12:27:15Z</time>
      </trkpt>
      <trkpt lat="43.74367" lon="6.35805">
        <ele>1081.3</ele>
        <time>2021-07-06T12:27:22Z</time>
      </trkpt>
      <trkpt lat="43.74363" lon="6.35812">
        <ele>1079.9</ele>
        <time>2021-07-06T12:27:29Z</time>
      </trkpt>
      <trkpt lat="43.74363" lon="6.35816">
        <ele>1080.8</ele>
        <time>2021-07-06T12:27:36Z</time>
      </trkpt>
      <trkpt lat="43.74363" lon="6.35816">
        <ele>1080.7</ele>
        <time>2021-07-06T12:27:40Z</time>
      </trkpt>
      <trkpt lat="43.74364" lon="6.35811">
        <ele>1079.4</ele>
        <time>2021-07-06T12:27:56Z</time>
      </trkpt>
      <trkpt lat="43.74368" lon="6.35805">
        <ele>1080</ele>
        <time>2021-07-06T12:28:03Z</time>
      </trkpt>
      <trkpt lat="43.74373" lon="6.35802">
        <ele>1083.5</ele>
        <time>2021-07-06T12:28:10Z</time>
      </trkpt>
      <trkpt lat="43.74376" lon="6.35796">
        <ele>1086.1</ele>
        <time>2021-07-06T12:28:17Z</time>
      </trkpt>
      <trkpt lat="43.74378" lon="6.35789">
        <ele>1087.7</ele>
        <time>2021-07-06T12:28:24Z</time>
      </trkpt>
      <trkpt lat="43.74381" lon="6.35786">
        <ele>1089</ele>
        <time>2021-07-06T12:28:31Z</time>
      </trkpt>
      <trkpt lat="43.74379" lon="6.35782">
        <ele>1087.7</ele>
        <time>2021-07-06T12:28:38Z</time>
      </trkpt>
      <trkpt lat="43.74379" lon="6.35782">
        <ele>1086.9</ele>
        <time>2021-07-06T12:28:44Z</time>
      </trkpt>
      <trkpt lat="43.74372" lon="6.35775">
        <ele>1094.3</ele>
        <time>2021-07-06T12:28:49Z</time>
      </trkpt>
      <trkpt lat="43.7437" lon="6.35764">
        <ele>1087.8</ele>
        <time>2021-07-06T12:28:54Z</time>
      </trkpt>
      <trkpt lat="43.74372" lon="6.35753">
        <ele>1086.3</ele>
        <time>2021-07-06T12:28:57Z</time>
      </trkpt>
      <trkpt lat="43.74375" lon="6.3574">
        <ele>1085.2</ele>
        <time>2021-07-06T12:29:00Z</time>
      </trkpt>
      <trkpt lat="43.74376" lon="6.35729">
        <ele>1084.5</ele>
        <time>2021-07-06T12:29:03Z</time>
      </trkpt>
      <trkpt lat="43.74375" lon="6.35718">
        <ele>1083.3</ele>
        <time>2021-07-06T12:29:06Z</time>
      </trkpt>
      <trkpt lat="43.74375" lon="6.35708">
        <ele>1082.1</ele>
        <time>2021-07-06T12:29:09Z</time>
      </trkpt>
      <trkpt lat="43.74377" lon="6.35697">
        <ele>1080.5</ele>
        <time>2021-07-06T12:29:12Z</time>
      </trkpt>
      <trkpt lat="43.74378" lon="6.35685">
        <ele>1079.8</ele>
        <time>2021-07-06T12:29:16Z</time>
      </trkpt>
      <trkpt lat="43.74378" lon="6.35674">
        <ele>1079.3</ele>
        <time>2021-07-06T12:29:20Z</time>
      </trkpt>
      <trkpt lat="43.74378" lon="6.35662">
        <ele>1078.7</ele>
        <time>2021-07-06T12:29:24Z</time>
      </trkpt>
      <trkpt lat="43.74378" lon="6.35648">
        <ele>1077.5</ele>
        <time>2021-07-06T12:29:28Z</time>
      </trkpt>
      <trkpt lat="43.7438" lon="6.35636">
        <ele>1076.8</ele>
        <time>2021-07-06T12:29:31Z</time>
      </trkpt>
      <trkpt lat="43.74381" lon="6.35624">
        <ele>1090.3</ele>
        <time>2021-07-06T12:29:34Z</time>
      </trkpt>
      <trkpt lat="43.74382" lon="6.35612">
        <ele>1081.7</ele>
        <time>2021-07-06T12:29:37Z</time>
      </trkpt>
      <trkpt lat="43.74383" lon="6.35601">
        <ele>1077.8</ele>
        <time>2021-07-06T12:29:40Z</time>
      </trkpt>
      <trkpt lat="43.74385" lon="6.35587">
        <ele>1074.3</ele>
        <time>2021-07-06T12:29:43Z</time>
      </trkpt>
      <trkpt lat="43.74388" lon="6.35573">
        <ele>1072.7</ele>
        <time>2021-07-06T12:29:46Z</time>
      </trkpt>
      <trkpt lat="43.74391" lon="6.35561">
        <ele>1072</ele>
        <time>2021-07-06T12:29:48Z</time>
      </trkpt>
      <trkpt lat="43.74393" lon="6.3555">
        <ele>1070.5</ele>
        <time>2021-07-06T12:29:50Z</time>
      </trkpt>
      <trkpt lat="43.74396" lon="6.35539">
        <ele>1069</ele>
        <time>2021-07-06T12:29:52Z</time>
      </trkpt>
      <trkpt lat="43.74399" lon="6.3553">
        <ele>1067.3</ele>
        <time>2021-07-06T12:29:54Z</time>
      </trkpt>
      <trkpt lat="43.74401" lon="6.3552">
        <ele>1066.8</ele>
        <time>2021-07-06T12:29:56Z</time>
      </trkpt>
      <trkpt lat="43.74405" lon="6.3551">
        <ele>1065.5</ele>
        <time>2021-07-06T12:29:58Z</time>
      </trkpt>
      <trkpt lat="43.74408" lon="6.35499">
        <ele>1064.5</ele>
        <time>2021-07-06T12:30:00Z</time>
      </trkpt>
      <trkpt lat="43.74412" lon="6.35487">
        <ele>1063.6</ele>
        <time>2021-07-06T12:30:02Z</time>
      </trkpt>
      <trkpt lat="43.74414" lon="6.35476">
        <ele>1062.2</ele>
        <time>2021-07-06T12:30:04Z</time>
      </trkpt>
      <trkpt lat="43.74418" lon="6.35465">
        <ele>1060.8</ele>
        <time>2021-07-06T12:30:06Z</time>
      </trkpt>
      <trkpt lat="43.74424" lon="6.35453">
        <ele>1059.6</ele>
        <time>2021-07-06T12:30:08Z</time>
      </trkpt>
      <trkpt lat="43.7443" lon="6.35446">
        <ele>1058.2</ele>
        <time>2021-07-06T12:30:10Z</time>
      </trkpt>
      <trkpt lat="43.74437" lon="6.3544">
        <ele>1058.3</ele>
        <time>2021-07-06T12:30:12Z</time>
      </trkpt>
      <trkpt lat="43.74443" lon="6.35432">
        <ele>1057.9</ele>
        <time>2021-07-06T12:30:14Z</time>
      </trkpt>
      <trkpt lat="43.74446" lon="6.35423">
        <ele>1058.2</ele>
        <time>2021-07-06T12:30:16Z</time>
      </trkpt>
      <trkpt lat="43.74445" lon="6.35411">
        <ele>1058</ele>
        <time>2021-07-06T12:30:19Z</time>
      </trkpt>
      <trkpt lat="43.74439" lon="6.35404">
        <ele>1055.9</ele>
        <time>2021-07-06T12:30:23Z</time>
      </trkpt>
      <trkpt lat="43.74436" lon="6.35403">
        <ele>1057.7</ele>
        <time>2021-07-06T12:30:30Z</time>
      </trkpt>
      <trkpt lat="43.74436" lon="6.35403">
        <ele>1057.9</ele>
        <time>2021-07-06T12:30:32Z</time>
      </trkpt>
      <trkpt lat="43.74437" lon="6.35403">
        <ele>1056.2</ele>
        <time>2021-07-06T12:30:42Z</time>
      </trkpt>
      <trkpt lat="43.74437" lon="6.35403">
        <ele>1056.2</ele>
        <time>2021-07-06T12:30:43Z</time>
      </trkpt>
      <trkpt lat="43.7443" lon="6.3541">
        <ele>1054.3</ele>
        <time>2021-07-06T12:31:25Z</time>
      </trkpt>
      <trkpt lat="43.74427" lon="6.35421">
        <ele>1053.2</ele>
        <time>2021-07-06T12:31:28Z</time>
      </trkpt>
      <trkpt lat="43.74423" lon="6.35434">
        <ele>1052.5</ele>
        <time>2021-07-06T12:31:31Z</time>
      </trkpt>
      <trkpt lat="43.74419" lon="6.35442">
        <ele>1052.4</ele>
        <time>2021-07-06T12:31:33Z</time>
      </trkpt>
      <trkpt lat="43.74414" lon="6.35452">
        <ele>1051.3</ele>
        <time>2021-07-06T12:31:35Z</time>
      </trkpt>
      <trkpt lat="43.74408" lon="6.35461">
        <ele>1050.5</ele>
        <time>2021-07-06T12:31:37Z</time>
      </trkpt>
      <trkpt lat="43.744" lon="6.3547">
        <ele>1050.9</ele>
        <time>2021-07-06T12:31:39Z</time>
      </trkpt>
      <trkpt lat="43.74394" lon="6.35479">
        <ele>1050.5</ele>
        <time>2021-07-06T12:31:41Z</time>
      </trkpt>
      <trkpt lat="43.74388" lon="6.35488">
        <ele>1048.5</ele>
        <time>2021-07-06T12:31:43Z</time>
      </trkpt>
      <trkpt lat="43.74383" lon="6.35497">
        <ele>1047.8</ele>
        <time>2021-07-06T12:31:45Z</time>
      </trkpt>
      <trkpt lat="43.74375" lon="6.35507">
        <ele>1047.8</ele>
        <time>2021-07-06T12:31:47Z</time>
      </trkpt>
      <trkpt lat="43.74368" lon="6.35518">
        <ele>1046.4</ele>
        <time>2021-07-06T12:31:49Z</time>
      </trkpt>
      <trkpt lat="43.74361" lon="6.35528">
        <ele>1045.2</ele>
        <time>2021-07-06T12:31:51Z</time>
      </trkpt>
      <trkpt lat="43.74355" lon="6.35536">
        <ele>1044.9</ele>
        <time>2021-07-06T12:31:53Z</time>
      </trkpt>
      <trkpt lat="43.74349" lon="6.35545">
        <ele>1044.5</ele>
        <time>2021-07-06T12:31:55Z</time>
      </trkpt>
      <trkpt lat="43.74342" lon="6.35553">
        <ele>1044.2</ele>
        <time>2021-07-06T12:31:57Z</time>
      </trkpt>
      <trkpt lat="43.74336" lon="6.3556">
        <ele>1044</ele>
        <time>2021-07-06T12:31:59Z</time>
      </trkpt>
      <trkpt lat="43.74331" lon="6.35568">
        <ele>1042.7</ele>
        <time>2021-07-06T12:32:01Z</time>
      </trkpt>
      <trkpt lat="43.74326" lon="6.35576">
        <ele>1042.2</ele>
        <time>2021-07-06T12:32:03Z</time>
      </trkpt>
      <trkpt lat="43.74321" lon="6.35584">
        <ele>1042</ele>
        <time>2021-07-06T12:32:05Z</time>
      </trkpt>
      <trkpt lat="43.74316" lon="6.35593">
        <ele>1041.7</ele>
        <time>2021-07-06T12:32:07Z</time>
      </trkpt>
      <trkpt lat="43.74313" lon="6.35603">
        <ele>1041.5</ele>
        <time>2021-07-06T12:32:09Z</time>
      </trkpt>
      <trkpt lat="43.74309" lon="6.35616">
        <ele>1040.7</ele>
        <time>2021-07-06T12:32:12Z</time>
      </trkpt>
      <trkpt lat="43.74304" lon="6.35629">
        <ele>1039.5</ele>
        <time>2021-07-06T12:32:15Z</time>
      </trkpt>
      <trkpt lat="43.74298" lon="6.3564">
        <ele>1039.6</ele>
        <time>2021-07-06T12:32:18Z</time>
      </trkpt>
      <trkpt lat="43.74289" lon="6.35641">
        <ele>1039.3</ele>
        <time>2021-07-06T12:32:21Z</time>
      </trkpt>
      <trkpt lat="43.74284" lon="6.35636">
        <ele>1038.3</ele>
        <time>2021-07-06T12:32:28Z</time>
      </trkpt>
      <trkpt lat="43.74284" lon="6.35635">
        <ele>1038.6</ele>
        <time>2021-07-06T12:32:32Z</time>
      </trkpt>
      <trkpt lat="43.74282" lon="6.35625">
        <ele>1038.2</ele>
        <time>2021-07-06T12:33:19Z</time>
      </trkpt>
      <trkpt lat="43.74285" lon="6.35613">
        <ele>1038.7</ele>
        <time>2021-07-06T12:33:22Z</time>
      </trkpt>
      <trkpt lat="43.74291" lon="6.35606">
        <ele>1037.8</ele>
        <time>2021-07-06T12:33:25Z</time>
      </trkpt>
      <trkpt lat="43.74297" lon="6.35597">
        <ele>1037.2</ele>
        <time>2021-07-06T12:33:28Z</time>
      </trkpt>
      <trkpt lat="43.74304" lon="6.35586">
        <ele>1036.9</ele>
        <time>2021-07-06T12:33:31Z</time>
      </trkpt>
      <trkpt lat="43.74308" lon="6.35576">
        <ele>1036.8</ele>
        <time>2021-07-06T12:33:33Z</time>
      </trkpt>
      <trkpt lat="43.74311" lon="6.35567">
        <ele>1036.5</ele>
        <time>2021-07-06T12:33:35Z</time>
      </trkpt>
      <trkpt lat="43.74314" lon="6.35558">
        <ele>1035.9</ele>
        <time>2021-07-06T12:33:37Z</time>
      </trkpt>
      <trkpt lat="43.74317" lon="6.35548">
        <ele>1035.6</ele>
        <time>2021-07-06T12:33:39Z</time>
      </trkpt>
      <trkpt lat="43.7432" lon="6.35539">
        <ele>1035</ele>
        <time>2021-07-06T12:33:41Z</time>
      </trkpt>
      <trkpt lat="43.74322" lon="6.3553">
        <ele>1034.2</ele>
        <time>2021-07-06T12:33:43Z</time>
      </trkpt>
      <trkpt lat="43.74325" lon="6.3552">
        <ele>1074.1</ele>
        <time>2021-07-06T12:33:45Z</time>
      </trkpt>
      <trkpt lat="43.74328" lon="6.3551">
        <ele>1052.1</ele>
        <time>2021-07-06T12:33:47Z</time>
      </trkpt>
      <trkpt lat="43.74332" lon="6.35499">
        <ele>1043.3</ele>
        <time>2021-07-06T12:33:49Z</time>
      </trkpt>
      <trkpt lat="43.74335" lon="6.35488">
        <ele>1040.2</ele>
        <time>2021-07-06T12:33:51Z</time>
      </trkpt>
      <trkpt lat="43.74337" lon="6.35476">
        <ele>1038.1</ele>
        <time>2021-07-06T12:33:53Z</time>
      </trkpt>
      <trkpt lat="43.74342" lon="6.35464">
        <ele>1035.4</ele>
        <time>2021-07-06T12:33:55Z</time>
      </trkpt>
      <trkpt lat="43.74346" lon="6.35449">
        <ele>1034.5</ele>
        <time>2021-07-06T12:33:57Z</time>
      </trkpt>
      <trkpt lat="43.7435" lon="6.35437">
        <ele>1033.7</ele>
        <time>2021-07-06T12:33:59Z</time>
      </trkpt>
      <trkpt lat="43.74354" lon="6.35424">
        <ele>1033</ele>
        <time>2021-07-06T12:34:01Z</time>
      </trkpt>
      <trkpt lat="43.74359" lon="6.35411">
        <ele>1031.6</ele>
        <time>2021-07-06T12:34:03Z</time>
      </trkpt>
      <trkpt lat="43.74364" lon="6.35395">
        <ele>1029.5</ele>
        <time>2021-07-06T12:34:05Z</time>
      </trkpt>
      <trkpt lat="43.74369" lon="6.35379">
        <ele>1028.3</ele>
        <time>2021-07-06T12:34:07Z</time>
      </trkpt>
      <trkpt lat="43.74371" lon="6.35369">
        <ele>1027.5</ele>
        <time>2021-07-06T12:34:08Z</time>
      </trkpt>
      <trkpt lat="43.74374" lon="6.3536">
        <ele>1026.8</ele>
        <time>2021-07-06T12:34:09Z</time>
      </trkpt>
      <trkpt lat="43.7438" lon="6.35342">
        <ele>1024.7</ele>
        <time>2021-07-06T12:34:11Z</time>
      </trkpt>
      <trkpt lat="43.74386" lon="6.35324">
        <ele>1024.5</ele>
        <time>2021-07-06T12:34:13Z</time>
      </trkpt>
      <trkpt lat="43.74389" lon="6.35314">
        <ele>1024</ele>
        <time>2021-07-06T12:34:14Z</time>
      </trkpt>
      <trkpt lat="43.74394" lon="6.35295">
        <ele>1023</ele>
        <time>2021-07-06T12:34:16Z</time>
      </trkpt>
      <trkpt lat="43.744" lon="6.35277">
        <ele>1021.5</ele>
        <time>2021-07-06T12:34:18Z</time>
      </trkpt>
      <trkpt lat="43.74403" lon="6.35266">
        <ele>1019.2</ele>
        <time>2021-07-06T12:34:19Z</time>
      </trkpt>
      <trkpt lat="43.74406" lon="6.35256">
        <ele>1018.5</ele>
        <time>2021-07-06T12:34:20Z</time>
      </trkpt>
      <trkpt lat="43.74408" lon="6.35247">
        <ele>1017.9</ele>
        <time>2021-07-06T12:34:21Z</time>
      </trkpt>
      <trkpt lat="43.74412" lon="6.35237">
        <ele>1017.2</ele>
        <time>2021-07-06T12:34:22Z</time>
      </trkpt>
      <trkpt lat="43.74418" lon="6.35219">
        <ele>1016</ele>
        <time>2021-07-06T12:34:24Z</time>
      </trkpt>
      <trkpt lat="43.74423" lon="6.35202">
        <ele>1015</ele>
        <time>2021-07-06T12:34:26Z</time>
      </trkpt>
      <trkpt lat="43.74425" lon="6.35191">
        <ele>1012</ele>
        <time>2021-07-06T12:34:27Z</time>
      </trkpt>
      <trkpt lat="43.74427" lon="6.35181">
        <ele>1011.3</ele>
        <time>2021-07-06T12:34:28Z</time>
      </trkpt>
      <trkpt lat="43.74433" lon="6.35164">
        <ele>1009.3</ele>
        <time>2021-07-06T12:34:30Z</time>
      </trkpt>
      <trkpt lat="43.74436" lon="6.35154">
        <ele>1007.7</ele>
        <time>2021-07-06T12:34:31Z</time>
      </trkpt>
      <trkpt lat="43.74439" lon="6.35145">
        <ele>1005.5</ele>
        <time>2021-07-06T12:34:32Z</time>
      </trkpt>
      <trkpt lat="43.74445" lon="6.35128">
        <ele>1005</ele>
        <time>2021-07-06T12:34:34Z</time>
      </trkpt>
      <trkpt lat="43.7445" lon="6.35112">
        <ele>1002.5</ele>
        <time>2021-07-06T12:34:36Z</time>
      </trkpt>
      <trkpt lat="43.74458" lon="6.35099">
        <ele>1001.2</ele>
        <time>2021-07-06T12:34:38Z</time>
      </trkpt>
      <trkpt lat="43.74466" lon="6.35088">
        <ele>1000.4</ele>
        <time>2021-07-06T12:34:40Z</time>
      </trkpt>
      <trkpt lat="43.74474" lon="6.35077">
        <ele>998.9</ele>
        <time>2021-07-06T12:34:42Z</time>
      </trkpt>
      <trkpt lat="43.74485" lon="6.35067">
        <ele>997.6</ele>
        <time>2021-07-06T12:34:44Z</time>
      </trkpt>
      <trkpt lat="43.74495" lon="6.35061">
        <ele>996.6</ele>
        <time>2021-07-06T12:34:46Z</time>
      </trkpt>
      <trkpt lat="43.74507" lon="6.35056">
        <ele>996.5</ele>
        <time>2021-07-06T12:34:48Z</time>
      </trkpt>
      <trkpt lat="43.74522" lon="6.35055">
        <ele>995.1</ele>
        <time>2021-07-06T12:34:50Z</time>
      </trkpt>
      <trkpt lat="43.7453" lon="6.35056">
        <ele>994.4</ele>
        <time>2021-07-06T12:34:51Z</time>
      </trkpt>
      <trkpt lat="43.74539" lon="6.35059">
        <ele>993.2</ele>
        <time>2021-07-06T12:34:52Z</time>
      </trkpt>
      <trkpt lat="43.74548" lon="6.3506">
        <ele>993</ele>
        <time>2021-07-06T12:34:53Z</time>
      </trkpt>
      <trkpt lat="43.74558" lon="6.35062">
        <ele>992.3</ele>
        <time>2021-07-06T12:34:54Z</time>
      </trkpt>
      <trkpt lat="43.74568" lon="6.35065">
        <ele>991.3</ele>
        <time>2021-07-06T12:34:55Z</time>
      </trkpt>
      <trkpt lat="43.74579" lon="6.35066">
        <ele>990.4</ele>
        <time>2021-07-06T12:34:56Z</time>
      </trkpt>
      <trkpt lat="43.74588" lon="6.35068">
        <ele>989</ele>
        <time>2021-07-06T12:34:57Z</time>
      </trkpt>
      <trkpt lat="43.74598" lon="6.35071">
        <ele>987.9</ele>
        <time>2021-07-06T12:34:58Z</time>
      </trkpt>
      <trkpt lat="43.74607" lon="6.35072">
        <ele>987.2</ele>
        <time>2021-07-06T12:34:59Z</time>
      </trkpt>
      <trkpt lat="43.74617" lon="6.35075">
        <ele>986.2</ele>
        <time>2021-07-06T12:35:00Z</time>
      </trkpt>
      <trkpt lat="43.74627" lon="6.35076">
        <ele>985.7</ele>
        <time>2021-07-06T12:35:01Z</time>
      </trkpt>
      <trkpt lat="43.74636" lon="6.35078">
        <ele>984.7</ele>
        <time>2021-07-06T12:35:02Z</time>
      </trkpt>
      <trkpt lat="43.74646" lon="6.35079">
        <ele>983.4</ele>
        <time>2021-07-06T12:35:03Z</time>
      </trkpt>
      <trkpt lat="43.74655" lon="6.35079">
        <ele>982.7</ele>
        <time>2021-07-06T12:35:04Z</time>
      </trkpt>
      <trkpt lat="43.74664" lon="6.35078">
        <ele>983</ele>
        <time>2021-07-06T12:35:05Z</time>
      </trkpt>
      <trkpt lat="43.74674" lon="6.35077">
        <ele>981.8</ele>
        <time>2021-07-06T12:35:06Z</time>
      </trkpt>
      <trkpt lat="43.74684" lon="6.35074">
        <ele>980.9</ele>
        <time>2021-07-06T12:35:07Z</time>
      </trkpt>
      <trkpt lat="43.74693" lon="6.35072">
        <ele>980</ele>
        <time>2021-07-06T12:35:08Z</time>
      </trkpt>
      <trkpt lat="43.74703" lon="6.35071">
        <ele>979.4</ele>
        <time>2021-07-06T12:35:09Z</time>
      </trkpt>
      <trkpt lat="43.74713" lon="6.3507">
        <ele>979</ele>
        <time>2021-07-06T12:35:10Z</time>
      </trkpt>
      <trkpt lat="43.74723" lon="6.35071">
        <ele>978.9</ele>
        <time>2021-07-06T12:35:11Z</time>
      </trkpt>
      <trkpt lat="43.74733" lon="6.3507">
        <ele>977.8</ele>
        <time>2021-07-06T12:35:12Z</time>
      </trkpt>
      <trkpt lat="43.74744" lon="6.35068">
        <ele>977</ele>
        <time>2021-07-06T12:35:13Z</time>
      </trkpt>
      <trkpt lat="43.74754" lon="6.35065">
        <ele>976.7</ele>
        <time>2021-07-06T12:35:14Z</time>
      </trkpt>
      <trkpt lat="43.74763" lon="6.35059">
        <ele>975.5</ele>
        <time>2021-07-06T12:35:15Z</time>
      </trkpt>
      <trkpt lat="43.74772" lon="6.35052">
        <ele>975.2</ele>
        <time>2021-07-06T12:35:16Z</time>
      </trkpt>
      <trkpt lat="43.7478" lon="6.35046">
        <ele>974.4</ele>
        <time>2021-07-06T12:35:17Z</time>
      </trkpt>
      <trkpt lat="43.74787" lon="6.35036">
        <ele>974</ele>
        <time>2021-07-06T12:35:18Z</time>
      </trkpt>
      <trkpt lat="43.74791" lon="6.35023">
        <ele>973.9</ele>
        <time>2021-07-06T12:35:19Z</time>
      </trkpt>
      <trkpt lat="43.74793" lon="6.35011">
        <ele>974.1</ele>
        <time>2021-07-06T12:35:20Z</time>
      </trkpt>
      <trkpt lat="43.74793" lon="6.34999">
        <ele>974.5</ele>
        <time>2021-07-06T12:35:21Z</time>
      </trkpt>
      <trkpt lat="43.74791" lon="6.34986">
        <ele>975</ele>
        <time>2021-07-06T12:35:22Z</time>
      </trkpt>
      <trkpt lat="43.74789" lon="6.34973">
        <ele>974.6</ele>
        <time>2021-07-06T12:35:23Z</time>
      </trkpt>
      <trkpt lat="43.74786" lon="6.34962">
        <ele>974.7</ele>
        <time>2021-07-06T12:35:24Z</time>
      </trkpt>
      <trkpt lat="43.74781" lon="6.34951">
        <ele>974.7</ele>
        <time>2021-07-06T12:35:25Z</time>
      </trkpt>
      <trkpt lat="43.74777" lon="6.3494">
        <ele>975.4</ele>
        <time>2021-07-06T12:35:26Z</time>
      </trkpt>
      <trkpt lat="43.74774" lon="6.34926">
        <ele>975</ele>
        <time>2021-07-06T12:35:27Z</time>
      </trkpt>
      <trkpt lat="43.74773" lon="6.34914">
        <ele>974.8</ele>
        <time>2021-07-06T12:35:28Z</time>
      </trkpt>
      <trkpt lat="43.74774" lon="6.34902">
        <ele>972.9</ele>
        <time>2021-07-06T12:35:29Z</time>
      </trkpt>
      <trkpt lat="43.74777" lon="6.3489">
        <ele>971.2</ele>
        <time>2021-07-06T12:35:30Z</time>
      </trkpt>
      <trkpt lat="43.7478" lon="6.34878">
        <ele>969.6</ele>
        <time>2021-07-06T12:35:31Z</time>
      </trkpt>
      <trkpt lat="43.74786" lon="6.34868">
        <ele>968.2</ele>
        <time>2021-07-06T12:35:32Z</time>
      </trkpt>
      <trkpt lat="43.74791" lon="6.34857">
        <ele>967.6</ele>
        <time>2021-07-06T12:35:33Z</time>
      </trkpt>
      <trkpt lat="43.74797" lon="6.34848">
        <ele>965.5</ele>
        <time>2021-07-06T12:35:34Z</time>
      </trkpt>
      <trkpt lat="43.74803" lon="6.34839">
        <ele>963.6</ele>
        <time>2021-07-06T12:35:35Z</time>
      </trkpt>
      <trkpt lat="43.7481" lon="6.3483">
        <ele>961.9</ele>
        <time>2021-07-06T12:35:36Z</time>
      </trkpt>
      <trkpt lat="43.74817" lon="6.34821">
        <ele>961.8</ele>
        <time>2021-07-06T12:35:37Z</time>
      </trkpt>
      <trkpt lat="43.74824" lon="6.34813">
        <ele>960.5</ele>
        <time>2021-07-06T12:35:38Z</time>
      </trkpt>
      <trkpt lat="43.74831" lon="6.34802">
        <ele>959.3</ele>
        <time>2021-07-06T12:35:39Z</time>
      </trkpt>
      <trkpt lat="43.74836" lon="6.34793">
        <ele>958</ele>
        <time>2021-07-06T12:35:40Z</time>
      </trkpt>
      <trkpt lat="43.7484" lon="6.34782">
        <ele>956.5</ele>
        <time>2021-07-06T12:35:41Z</time>
      </trkpt>
      <trkpt lat="43.74843" lon="6.3477">
        <ele>956.5</ele>
        <time>2021-07-06T12:35:42Z</time>
      </trkpt>
      <trkpt lat="43.74843" lon="6.34758">
        <ele>956</ele>
        <time>2021-07-06T12:35:43Z</time>
      </trkpt>
      <trkpt lat="43.74842" lon="6.34747">
        <ele>955.7</ele>
        <time>2021-07-06T12:35:44Z</time>
      </trkpt>
      <trkpt lat="43.7484" lon="6.34735">
        <ele>955.4</ele>
        <time>2021-07-06T12:35:45Z</time>
      </trkpt>
      <trkpt lat="43.74838" lon="6.34725">
        <ele>955.6</ele>
        <time>2021-07-06T12:35:46Z</time>
      </trkpt>
      <trkpt lat="43.74838" lon="6.34714">
        <ele>955.7</ele>
        <time>2021-07-06T12:35:47Z</time>
      </trkpt>
      <trkpt lat="43.74837" lon="6.34704">
        <ele>955.7</ele>
        <time>2021-07-06T12:35:48Z</time>
      </trkpt>
      <trkpt lat="43.74837" lon="6.34694">
        <ele>955.7</ele>
        <time>2021-07-06T12:35:49Z</time>
      </trkpt>
      <trkpt lat="43.74837" lon="6.34683">
        <ele>955.4</ele>
        <time>2021-07-06T12:35:50Z</time>
      </trkpt>
      <trkpt lat="43.74837" lon="6.34673">
        <ele>955.2</ele>
        <time>2021-07-06T12:35:51Z</time>
      </trkpt>
      <trkpt lat="43.74835" lon="6.34653">
        <ele>954.4</ele>
        <time>2021-07-06T12:35:53Z</time>
      </trkpt>
      <trkpt lat="43.74825" lon="6.34637">
        <ele>954.1</ele>
        <time>2021-07-06T12:35:55Z</time>
      </trkpt>
      <trkpt lat="43.74813" lon="6.34628">
        <ele>953.6</ele>
        <time>2021-07-06T12:35:57Z</time>
      </trkpt>
      <trkpt lat="43.748" lon="6.34622">
        <ele>953</ele>
        <time>2021-07-06T12:35:59Z</time>
      </trkpt>
      <trkpt lat="43.74786" lon="6.34617">
        <ele>953</ele>
        <time>2021-07-06T12:36:01Z</time>
      </trkpt>
      <trkpt lat="43.74774" lon="6.34613">
        <ele>951.9</ele>
        <time>2021-07-06T12:36:03Z</time>
      </trkpt>
      <trkpt lat="43.74763" lon="6.34609">
        <ele>952.1</ele>
        <time>2021-07-06T12:36:05Z</time>
      </trkpt>
      <trkpt lat="43.74752" lon="6.34606">
        <ele>952</ele>
        <time>2021-07-06T12:36:07Z</time>
      </trkpt>
      <trkpt lat="43.74744" lon="6.34604">
        <ele>951.7</ele>
        <time>2021-07-06T12:36:09Z</time>
      </trkpt>
      <trkpt lat="43.74737" lon="6.34601">
        <ele>952</ele>
        <time>2021-07-06T12:36:11Z</time>
      </trkpt>
      <trkpt lat="43.7473" lon="6.34599">
        <ele>951.1</ele>
        <time>2021-07-06T12:36:13Z</time>
      </trkpt>
      <trkpt lat="43.74721" lon="6.34595">
        <ele>952.4</ele>
        <time>2021-07-06T12:36:16Z</time>
      </trkpt>
      <trkpt lat="43.74712" lon="6.34591">
        <ele>953.5</ele>
        <time>2021-07-06T12:36:20Z</time>
      </trkpt>
      <trkpt lat="43.74709" lon="6.34591">
        <ele>953.9</ele>
        <time>2021-07-06T12:36:27Z</time>
      </trkpt>
      <trkpt lat="43.74709" lon="6.34591">
        <ele>954.5</ele>
        <time>2021-07-06T12:36:31Z</time>
      </trkpt>
      <trkpt lat="43.74707" lon="6.34587">
        <ele>954.2</ele>
        <time>2021-07-06T12:36:44Z</time>
      </trkpt>
      <trkpt lat="43.74707" lon="6.34587">
        <ele>952.3</ele>
        <time>2021-07-06T12:36:48Z</time>
      </trkpt>
      <trkpt lat="43.74705" lon="6.34585">
        <ele>951.2</ele>
        <time>2021-07-06T12:36:56Z</time>
      </trkpt>
      <trkpt lat="43.74703" lon="6.34582">
        <ele>952.2</ele>
        <time>2021-07-06T12:37:03Z</time>
      </trkpt>
      <trkpt lat="43.74703" lon="6.34581">
        <ele>951.8</ele>
        <time>2021-07-06T12:37:08Z</time>
      </trkpt>
      <trkpt lat="43.74698" lon="6.34579">
        <ele>953.8</ele>
        <time>2021-07-06T12:37:18Z</time>
      </trkpt>
      <trkpt lat="43.74691" lon="6.34576">
        <ele>953.3</ele>
        <time>2021-07-06T12:37:23Z</time>
      </trkpt>
      <trkpt lat="43.74684" lon="6.3457">
        <ele>954.1</ele>
        <time>2021-07-06T12:37:28Z</time>
      </trkpt>
      <trkpt lat="43.74678" lon="6.34564">
        <ele>952.2</ele>
        <time>2021-07-06T12:37:33Z</time>
      </trkpt>
      <trkpt lat="43.74671" lon="6.34557">
        <ele>951.7</ele>
        <time>2021-07-06T12:37:37Z</time>
      </trkpt>
      <trkpt lat="43.74665" lon="6.34547">
        <ele>951.2</ele>
        <time>2021-07-06T12:37:41Z</time>
      </trkpt>
      <trkpt lat="43.74658" lon="6.34539">
        <ele>950.7</ele>
        <time>2021-07-06T12:37:44Z</time>
      </trkpt>
      <trkpt lat="43.74651" lon="6.34528">
        <ele>948.9</ele>
        <time>2021-07-06T12:37:47Z</time>
      </trkpt>
      <trkpt lat="43.74645" lon="6.34516">
        <ele>945.4</ele>
        <time>2021-07-06T12:37:50Z</time>
      </trkpt>
      <trkpt lat="43.74641" lon="6.34505">
        <ele>944.3</ele>
        <time>2021-07-06T12:37:53Z</time>
      </trkpt>
      <trkpt lat="43.7464" lon="6.34492">
        <ele>943.5</ele>
        <time>2021-07-06T12:37:56Z</time>
      </trkpt>
      <trkpt lat="43.74639" lon="6.34481">
        <ele>943.5</ele>
        <time>2021-07-06T12:37:59Z</time>
      </trkpt>
      <trkpt lat="43.74636" lon="6.34491">
        <ele>943.5</ele>
        <time>2021-07-06T12:38:06Z</time>
      </trkpt>
      <trkpt lat="43.74635" lon="6.34497">
        <ele>944</ele>
        <time>2021-07-06T12:38:13Z</time>
      </trkpt>
      <trkpt lat="43.74636" lon="6.34497">
        <ele>944</ele>
        <time>2021-07-06T12:38:17Z</time>
      </trkpt>
      <trkpt lat="43.74635" lon="6.34495">
        <ele>945</ele>
        <time>2021-07-06T12:38:28Z</time>
      </trkpt>
      <trkpt lat="43.74635" lon="6.34495">
        <ele>945</ele>
        <time>2021-07-06T12:38:29Z</time>
      </trkpt>
      <trkpt lat="43.74635" lon="6.34499">
        <ele>942.3</ele>
        <time>2021-07-06T12:38:37Z</time>
      </trkpt>
      <trkpt lat="43.74634" lon="6.345">
        <ele>941.7</ele>
        <time>2021-07-06T12:38:44Z</time>
      </trkpt>
      <trkpt lat="43.74629" lon="6.345">
        <ele>939.7</ele>
        <time>2021-07-06T12:38:51Z</time>
      </trkpt>
      <trkpt lat="43.74631" lon="6.345">
        <ele>940.2</ele>
        <time>2021-07-06T12:38:58Z</time>
      </trkpt>
      <trkpt lat="43.74633" lon="6.345">
        <ele>940.8</ele>
        <time>2021-07-06T12:39:05Z</time>
      </trkpt>
      <trkpt lat="43.74634" lon="6.34499">
        <ele>940.3</ele>
        <time>2021-07-06T12:39:09Z</time>
      </trkpt>
      <trkpt lat="43.74636" lon="6.34499">
        <ele>937</ele>
        <time>2021-07-06T12:39:20Z</time>
      </trkpt>
      <trkpt lat="43.74634" lon="6.34499">
        <ele>937.2</ele>
        <time>2021-07-06T12:39:27Z</time>
      </trkpt>
      <trkpt lat="43.74634" lon="6.34499">
        <ele>937.2</ele>
        <time>2021-07-06T12:39:31Z</time>
      </trkpt>
      <trkpt lat="43.74637" lon="6.3449">
        <ele>938.6</ele>
        <time>2021-07-06T12:40:04Z</time>
      </trkpt>
      <trkpt lat="43.74637" lon="6.34481">
        <ele>940.3</ele>
        <time>2021-07-06T12:40:11Z</time>
      </trkpt>
      <trkpt lat="43.74636" lon="6.34477">
        <ele>941.9</ele>
        <time>2021-07-06T12:40:18Z</time>
      </trkpt>
      <trkpt lat="43.74638" lon="6.34467">
        <ele>940.6</ele>
        <time>2021-07-06T12:40:24Z</time>
      </trkpt>
      <trkpt lat="43.74641" lon="6.34456">
        <ele>991.1</ele>
        <time>2021-07-06T12:40:27Z</time>
      </trkpt>
      <trkpt lat="43.74645" lon="6.34443">
        <ele>958.9</ele>
        <time>2021-07-06T12:40:30Z</time>
      </trkpt>
      <trkpt lat="43.74647" lon="6.34431">
        <ele>948.7</ele>
        <time>2021-07-06T12:40:33Z</time>
      </trkpt>
      <trkpt lat="43.74648" lon="6.3442">
        <ele>944.9</ele>
        <time>2021-07-06T12:40:36Z</time>
      </trkpt>
      <trkpt lat="43.74647" lon="6.34406">
        <ele>941.2</ele>
        <time>2021-07-06T12:40:40Z</time>
      </trkpt>
      <trkpt lat="43.74646" lon="6.34392">
        <ele>940.4</ele>
        <time>2021-07-06T12:40:43Z</time>
      </trkpt>
      <trkpt lat="43.74646" lon="6.3438">
        <ele>939.2</ele>
        <time>2021-07-06T12:40:45Z</time>
      </trkpt>
      <trkpt lat="43.74647" lon="6.34369">
        <ele>937.6</ele>
        <time>2021-07-06T12:40:47Z</time>
      </trkpt>
      <trkpt lat="43.74648" lon="6.34357">
        <ele>936</ele>
        <time>2021-07-06T12:40:49Z</time>
      </trkpt>
      <trkpt lat="43.7465" lon="6.34347">
        <ele>935.3</ele>
        <time>2021-07-06T12:40:51Z</time>
      </trkpt>
      <trkpt lat="43.7465" lon="6.34336">
        <ele>935.4</ele>
        <time>2021-07-06T12:40:53Z</time>
      </trkpt>
      <trkpt lat="43.74649" lon="6.34325">
        <ele>934.5</ele>
        <time>2021-07-06T12:40:55Z</time>
      </trkpt>
      <trkpt lat="43.74646" lon="6.34314">
        <ele>934.3</ele>
        <time>2021-07-06T12:40:57Z</time>
      </trkpt>
      <trkpt lat="43.74643" lon="6.34301">
        <ele>932.9</ele>
        <time>2021-07-06T12:40:59Z</time>
      </trkpt>
      <trkpt lat="43.74641" lon="6.34287">
        <ele>933.7</ele>
        <time>2021-07-06T12:41:01Z</time>
      </trkpt>
      <trkpt lat="43.7464" lon="6.34275">
        <ele>931.6</ele>
        <time>2021-07-06T12:41:03Z</time>
      </trkpt>
      <trkpt lat="43.74638" lon="6.34262">
        <ele>930.5</ele>
        <time>2021-07-06T12:41:05Z</time>
      </trkpt>
      <trkpt lat="43.74636" lon="6.3425">
        <ele>929.3</ele>
        <time>2021-07-06T12:41:07Z</time>
      </trkpt>
      <trkpt lat="43.74632" lon="6.34238">
        <ele>928</ele>
        <time>2021-07-06T12:41:09Z</time>
      </trkpt>
      <trkpt lat="43.74628" lon="6.34226">
        <ele>926.5</ele>
        <time>2021-07-06T12:41:11Z</time>
      </trkpt>
      <trkpt lat="43.74624" lon="6.34213">
        <ele>925.9</ele>
        <time>2021-07-06T12:41:13Z</time>
      </trkpt>
      <trkpt lat="43.74619" lon="6.34202">
        <ele>925.3</ele>
        <time>2021-07-06T12:41:15Z</time>
      </trkpt>
      <trkpt lat="43.74614" lon="6.34191">
        <ele>924.8</ele>
        <time>2021-07-06T12:41:18Z</time>
      </trkpt>
      <trkpt lat="43.74608" lon="6.34182">
        <ele>952.9</ele>
        <time>2021-07-06T12:41:21Z</time>
      </trkpt>
      <trkpt lat="43.74603" lon="6.34175">
        <ele>935.4</ele>
        <time>2021-07-06T12:41:24Z</time>
      </trkpt>
      <trkpt lat="43.74597" lon="6.34166">
        <ele>927.6</ele>
        <time>2021-07-06T12:41:29Z</time>
      </trkpt>
      <trkpt lat="43.74591" lon="6.34158">
        <ele>925.3</ele>
        <time>2021-07-06T12:41:33Z</time>
      </trkpt>
      <trkpt lat="43.74586" lon="6.34151">
        <ele>923.1</ele>
        <time>2021-07-06T12:41:37Z</time>
      </trkpt>
      <trkpt lat="43.74579" lon="6.34141">
        <ele>921.7</ele>
        <time>2021-07-06T12:41:41Z</time>
      </trkpt>
      <trkpt lat="43.74573" lon="6.34132">
        <ele>921.2</ele>
        <time>2021-07-06T12:41:45Z</time>
      </trkpt>
      <trkpt lat="43.74569" lon="6.34124">
        <ele>920.9</ele>
        <time>2021-07-06T12:41:48Z</time>
      </trkpt>
      <trkpt lat="43.74565" lon="6.34116">
        <ele>919.9</ele>
        <time>2021-07-06T12:41:51Z</time>
      </trkpt>
      <trkpt lat="43.74561" lon="6.34105">
        <ele>919.3</ele>
        <time>2021-07-06T12:41:55Z</time>
      </trkpt>
      <trkpt lat="43.74563" lon="6.34094">
        <ele>917.7</ele>
        <time>2021-07-06T12:41:58Z</time>
      </trkpt>
      <trkpt lat="43.74567" lon="6.34082">
        <ele>917.2</ele>
        <time>2021-07-06T12:42:01Z</time>
      </trkpt>
      <trkpt lat="43.74571" lon="6.3407">
        <ele>916.6</ele>
        <time>2021-07-06T12:42:04Z</time>
      </trkpt>
      <trkpt lat="43.74576" lon="6.34059">
        <ele>916</ele>
        <time>2021-07-06T12:42:07Z</time>
      </trkpt>
      <trkpt lat="43.74581" lon="6.34045">
        <ele>914.2</ele>
        <time>2021-07-06T12:42:10Z</time>
      </trkpt>
      <trkpt lat="43.74582" lon="6.34034">
        <ele>913.5</ele>
        <time>2021-07-06T12:42:12Z</time>
      </trkpt>
      <trkpt lat="43.7458" lon="6.34022">
        <ele>912.7</ele>
        <time>2021-07-06T12:42:14Z</time>
      </trkpt>
      <trkpt lat="43.74575" lon="6.34012">
        <ele>912.1</ele>
        <time>2021-07-06T12:42:16Z</time>
      </trkpt>
      <trkpt lat="43.74569" lon="6.34001">
        <ele>911.2</ele>
        <time>2021-07-06T12:42:18Z</time>
      </trkpt>
      <trkpt lat="43.74565" lon="6.3399">
        <ele>910.5</ele>
        <time>2021-07-06T12:42:20Z</time>
      </trkpt>
      <trkpt lat="43.74563" lon="6.33979">
        <ele>909.8</ele>
        <time>2021-07-06T12:42:22Z</time>
      </trkpt>
      <trkpt lat="43.7456" lon="6.33968">
        <ele>909.2</ele>
        <time>2021-07-06T12:42:24Z</time>
      </trkpt>
      <trkpt lat="43.74557" lon="6.33956">
        <ele>908.7</ele>
        <time>2021-07-06T12:42:26Z</time>
      </trkpt>
      <trkpt lat="43.74555" lon="6.33945">
        <ele>908.1</ele>
        <time>2021-07-06T12:42:28Z</time>
      </trkpt>
      <trkpt lat="43.74553" lon="6.33934">
        <ele>907.8</ele>
        <time>2021-07-06T12:42:30Z</time>
      </trkpt>
      <trkpt lat="43.74556" lon="6.33921">
        <ele>906.8</ele>
        <time>2021-07-06T12:42:33Z</time>
      </trkpt>
      <trkpt lat="43.7456" lon="6.33911">
        <ele>906</ele>
        <time>2021-07-06T12:42:35Z</time>
      </trkpt>
      <trkpt lat="43.74564" lon="6.33899">
        <ele>905.9</ele>
        <time>2021-07-06T12:42:37Z</time>
      </trkpt>
      <trkpt lat="43.74561" lon="6.33884">
        <ele>905.6</ele>
        <time>2021-07-06T12:42:39Z</time>
      </trkpt>
      <trkpt lat="43.74556" lon="6.33869">
        <ele>904.5</ele>
        <time>2021-07-06T12:42:41Z</time>
      </trkpt>
      <trkpt lat="43.7455" lon="6.33854">
        <ele>903.7</ele>
        <time>2021-07-06T12:42:43Z</time>
      </trkpt>
      <trkpt lat="43.74544" lon="6.3384">
        <ele>903.4</ele>
        <time>2021-07-06T12:42:45Z</time>
      </trkpt>
      <trkpt lat="43.74539" lon="6.33829">
        <ele>902.7</ele>
        <time>2021-07-06T12:42:47Z</time>
      </trkpt>
      <trkpt lat="43.74534" lon="6.3382">
        <ele>902.1</ele>
        <time>2021-07-06T12:42:49Z</time>
      </trkpt>
      <trkpt lat="43.7453" lon="6.33809">
        <ele>902</ele>
        <time>2021-07-06T12:42:52Z</time>
      </trkpt>
      <trkpt lat="43.74524" lon="6.33801">
        <ele>901.3</ele>
        <time>2021-07-06T12:42:56Z</time>
      </trkpt>
      <trkpt lat="43.74523" lon="6.33801">
        <ele>900.4</ele>
        <time>2021-07-06T12:43:03Z</time>
      </trkpt>
      <trkpt lat="43.74523" lon="6.33801">
        <ele>900.3</ele>
        <time>2021-07-06T12:43:04Z</time>
      </trkpt>
      <trkpt lat="43.74525" lon="6.33801">
        <ele>901.4</ele>
        <time>2021-07-06T12:43:12Z</time>
      </trkpt>
      <trkpt lat="43.74525" lon="6.33801">
        <ele>900.6</ele>
        <time>2021-07-06T12:43:15Z</time>
      </trkpt>
      <trkpt lat="43.74525" lon="6.33799">
        <ele>901.3</ele>
        <time>2021-07-06T12:43:23Z</time>
      </trkpt>
      <trkpt lat="43.74525" lon="6.33799">
        <ele>900.6</ele>
        <time>2021-07-06T12:43:24Z</time>
      </trkpt>
      <trkpt lat="43.74525" lon="6.338">
        <ele>899.6</ele>
        <time>2021-07-06T12:43:33Z</time>
      </trkpt>
      <trkpt lat="43.74525" lon="6.338">
        <ele>899.7</ele>
        <time>2021-07-06T12:43:34Z</time>
      </trkpt>
      <trkpt lat="43.74526" lon="6.33799">
        <ele>900.4</ele>
        <time>2021-07-06T12:43:43Z</time>
      </trkpt>
      <trkpt lat="43.74526" lon="6.33799">
        <ele>900.3</ele>
        <time>2021-07-06T12:43:44Z</time>
      </trkpt>
      <trkpt lat="43.74532" lon="6.33793">
        <ele>899.7</ele>
        <time>2021-07-06T12:43:52Z</time>
      </trkpt>
      <trkpt lat="43.74537" lon="6.33782">
        <ele>899.8</ele>
        <time>2021-07-06T12:43:55Z</time>
      </trkpt>
      <trkpt lat="43.7454" lon="6.33772">
        <ele>900.1</ele>
        <time>2021-07-06T12:43:57Z</time>
      </trkpt>
      <trkpt lat="43.74542" lon="6.33758">
        <ele>900.3</ele>
        <time>2021-07-06T12:44:00Z</time>
      </trkpt>
      <trkpt lat="43.74543" lon="6.33748">
        <ele>900.6</ele>
        <time>2021-07-06T12:44:04Z</time>
      </trkpt>
      <trkpt lat="43.74543" lon="6.33742">
        <ele>901.1</ele>
        <time>2021-07-06T12:44:11Z</time>
      </trkpt>
      <trkpt lat="43.74542" lon="6.33743">
        <ele>901.5</ele>
        <time>2021-07-06T12:44:16Z</time>
      </trkpt>
      <trkpt lat="43.74551" lon="6.33737">
        <ele>900</ele>
        <time>2021-07-06T12:44:56Z</time>
      </trkpt>
      <trkpt lat="43.74559" lon="6.33729">
        <ele>899.7</ele>
        <time>2021-07-06T12:44:59Z</time>
      </trkpt>
      <trkpt lat="43.74567" lon="6.33719">
        <ele>899.1</ele>
        <time>2021-07-06T12:45:02Z</time>
      </trkpt>
      <trkpt lat="43.74572" lon="6.33709">
        <ele>912.2</ele>
        <time>2021-07-06T12:45:04Z</time>
      </trkpt>
      <trkpt lat="43.74574" lon="6.33699">
        <ele>905.6</ele>
        <time>2021-07-06T12:45:06Z</time>
      </trkpt>
      <trkpt lat="43.74575" lon="6.33687">
        <ele>903.2</ele>
        <time>2021-07-06T12:45:08Z</time>
      </trkpt>
      <trkpt lat="43.74575" lon="6.33676">
        <ele>902.7</ele>
        <time>2021-07-06T12:45:10Z</time>
      </trkpt>
      <trkpt lat="43.74578" lon="6.33664">
        <ele>901.5</ele>
        <time>2021-07-06T12:45:12Z</time>
      </trkpt>
      <trkpt lat="43.74586" lon="6.33654">
        <ele>899.9</ele>
        <time>2021-07-06T12:45:14Z</time>
      </trkpt>
      <trkpt lat="43.74592" lon="6.33644">
        <ele>899.2</ele>
        <time>2021-07-06T12:45:16Z</time>
      </trkpt>
      <trkpt lat="43.746" lon="6.33636">
        <ele>899</ele>
        <time>2021-07-06T12:45:18Z</time>
      </trkpt>
      <trkpt lat="43.74609" lon="6.33628">
        <ele>898.6</ele>
        <time>2021-07-06T12:45:20Z</time>
      </trkpt>
      <trkpt lat="43.74618" lon="6.3362">
        <ele>898.4</ele>
        <time>2021-07-06T12:45:22Z</time>
      </trkpt>
      <trkpt lat="43.74628" lon="6.33616">
        <ele>898.5</ele>
        <time>2021-07-06T12:45:24Z</time>
      </trkpt>
      <trkpt lat="43.74638" lon="6.33608">
        <ele>898</ele>
        <time>2021-07-06T12:45:26Z</time>
      </trkpt>
      <trkpt lat="43.74648" lon="6.33601">
        <ele>898.2</ele>
        <time>2021-07-06T12:45:28Z</time>
      </trkpt>
      <trkpt lat="43.74655" lon="6.33591">
        <ele>898.9</ele>
        <time>2021-07-06T12:45:30Z</time>
      </trkpt>
      <trkpt lat="43.74662" lon="6.33579">
        <ele>1069</ele>
        <time>2021-07-06T12:45:32Z</time>
      </trkpt>
      <trkpt lat="43.74665" lon="6.33568">
        <ele>965.1</ele>
        <time>2021-07-06T12:45:34Z</time>
      </trkpt>
      <trkpt lat="43.74669" lon="6.33558">
        <ele>933</ele>
        <time>2021-07-06T12:45:36Z</time>
      </trkpt>
      <trkpt lat="43.74671" lon="6.33547">
        <ele>924.8</ele>
        <time>2021-07-06T12:45:38Z</time>
      </trkpt>
      <trkpt lat="43.74667" lon="6.33533">
        <ele>910.7</ele>
        <time>2021-07-06T12:45:40Z</time>
      </trkpt>
      <trkpt lat="43.74663" lon="6.33524">
        <ele>905.8</ele>
        <time>2021-07-06T12:45:42Z</time>
      </trkpt>
      <trkpt lat="43.74658" lon="6.33515">
        <ele>902.7</ele>
        <time>2021-07-06T12:45:44Z</time>
      </trkpt>
      <trkpt lat="43.74651" lon="6.33508">
        <ele>901.4</ele>
        <time>2021-07-06T12:45:47Z</time>
      </trkpt>
      <trkpt lat="43.74643" lon="6.33502">
        <ele>900.8</ele>
        <time>2021-07-06T12:45:51Z</time>
      </trkpt>
      <trkpt lat="43.74642" lon="6.33499">
        <ele>901</ele>
        <time>2021-07-06T12:45:58Z</time>
      </trkpt>
      <trkpt lat="43.74642" lon="6.33499">
        <ele>900.5</ele>
        <time>2021-07-06T12:46:00Z</time>
      </trkpt>
      <trkpt lat="43.74643" lon="6.33498">
        <ele>897.8</ele>
        <time>2021-07-06T12:49:06Z</time>
      </trkpt>
      <trkpt lat="43.74643" lon="6.33498">
        <ele>897.5</ele>
        <time>2021-07-06T12:49:08Z</time>
      </trkpt>
      <trkpt lat="43.74643" lon="6.33499">
        <ele>907.5</ele>
        <time>2021-07-06T12:49:21Z</time>
      </trkpt>
      <trkpt lat="43.74643" lon="6.33499">
        <ele>907.5</ele>
        <time>2021-07-06T12:49:22Z</time>
      </trkpt>
      <trkpt lat="43.74642" lon="6.33496">
        <ele>896.2</ele>
        <time>2021-07-06T12:58:01Z</time>
      </trkpt>
      <trkpt lat="43.74649" lon="6.33489">
        <ele>895.1</ele>
        <time>2021-07-06T12:58:08Z</time>
      </trkpt>
      <trkpt lat="43.74651" lon="6.33477">
        <ele>895.5</ele>
        <time>2021-07-06T12:58:12Z</time>
      </trkpt>
      <trkpt lat="43.74648" lon="6.33467">
        <ele>895.4</ele>
        <time>2021-07-06T12:58:16Z</time>
      </trkpt>
      <trkpt lat="43.74643" lon="6.33461">
        <ele>893.7</ele>
        <time>2021-07-06T12:58:23Z</time>
      </trkpt>
      <trkpt lat="43.74643" lon="6.3346">
        <ele>894.3</ele>
        <time>2021-07-06T12:58:27Z</time>
      </trkpt>
      <trkpt lat="43.74642" lon="6.3346">
        <ele>894</ele>
        <time>2021-07-06T12:58:36Z</time>
      </trkpt>
      <trkpt lat="43.74642" lon="6.3346">
        <ele>894</ele>
        <time>2021-07-06T12:58:37Z</time>
      </trkpt>
      <trkpt lat="43.74647" lon="6.33458">
        <ele>890.3</ele>
        <time>2021-07-06T12:59:00Z</time>
      </trkpt>
      <trkpt lat="43.74655" lon="6.33455">
        <ele>890.3</ele>
        <time>2021-07-06T12:59:03Z</time>
      </trkpt>
      <trkpt lat="43.74663" lon="6.33447">
        <ele>890.5</ele>
        <time>2021-07-06T12:59:06Z</time>
      </trkpt>
      <trkpt lat="43.74667" lon="6.33437">
        <ele>890.4</ele>
        <time>2021-07-06T12:59:08Z</time>
      </trkpt>
      <trkpt lat="43.74672" lon="6.33425">
        <ele>890.5</ele>
        <time>2021-07-06T12:59:10Z</time>
      </trkpt>
      <trkpt lat="43.74678" lon="6.33414">
        <ele>890.8</ele>
        <time>2021-07-06T12:59:12Z</time>
      </trkpt>
      <trkpt lat="43.74683" lon="6.33402">
        <ele>890.4</ele>
        <time>2021-07-06T12:59:14Z</time>
      </trkpt>
      <trkpt lat="43.74685" lon="6.33391">
        <ele>890.3</ele>
        <time>2021-07-06T12:59:16Z</time>
      </trkpt>
      <trkpt lat="43.74683" lon="6.3338">
        <ele>890</ele>
        <time>2021-07-06T12:59:18Z</time>
      </trkpt>
      <trkpt lat="43.7468" lon="6.33365">
        <ele>889.2</ele>
        <time>2021-07-06T12:59:21Z</time>
      </trkpt>
      <trkpt lat="43.74678" lon="6.3335">
        <ele>888.4</ele>
        <time>2021-07-06T12:59:24Z</time>
      </trkpt>
      <trkpt lat="43.74676" lon="6.3334">
        <ele>887.2</ele>
        <time>2021-07-06T12:59:26Z</time>
      </trkpt>
      <trkpt lat="43.74674" lon="6.3333">
        <ele>886.7</ele>
        <time>2021-07-06T12:59:28Z</time>
      </trkpt>
      <trkpt lat="43.74672" lon="6.3332">
        <ele>886</ele>
        <time>2021-07-06T12:59:30Z</time>
      </trkpt>
      <trkpt lat="43.74671" lon="6.33308">
        <ele>884.7</ele>
        <time>2021-07-06T12:59:33Z</time>
      </trkpt>
      <trkpt lat="43.7467" lon="6.33297">
        <ele>885.7</ele>
        <time>2021-07-06T12:59:37Z</time>
      </trkpt>
      <trkpt lat="43.74675" lon="6.33287">
        <ele>886.2</ele>
        <time>2021-07-06T12:59:42Z</time>
      </trkpt>
      <trkpt lat="43.74682" lon="6.33275">
        <ele>885.9</ele>
        <time>2021-07-06T12:59:45Z</time>
      </trkpt>
      <trkpt lat="43.74689" lon="6.33264">
        <ele>885.3</ele>
        <time>2021-07-06T12:59:47Z</time>
      </trkpt>
      <trkpt lat="43.74694" lon="6.33252">
        <ele>885.3</ele>
        <time>2021-07-06T12:59:49Z</time>
      </trkpt>
      <trkpt lat="43.74697" lon="6.33237">
        <ele>884.3</ele>
        <time>2021-07-06T12:59:51Z</time>
      </trkpt>
      <trkpt lat="43.74697" lon="6.33223">
        <ele>884.1</ele>
        <time>2021-07-06T12:59:53Z</time>
      </trkpt>
      <trkpt lat="43.74696" lon="6.3321">
        <ele>883.2</ele>
        <time>2021-07-06T12:59:55Z</time>
      </trkpt>
      <trkpt lat="43.74694" lon="6.33197">
        <ele>882.3</ele>
        <time>2021-07-06T12:59:57Z</time>
      </trkpt>
      <trkpt lat="43.74694" lon="6.33184">
        <ele>882.2</ele>
        <time>2021-07-06T12:59:59Z</time>
      </trkpt>
      <trkpt lat="43.74694" lon="6.33171">
        <ele>881.8</ele>
        <time>2021-07-06T13:00:01Z</time>
      </trkpt>
      <trkpt lat="43.74695" lon="6.33159">
        <ele>881.7</ele>
        <time>2021-07-06T13:00:03Z</time>
      </trkpt>
      <trkpt lat="43.74696" lon="6.33148">
        <ele>883</ele>
        <time>2021-07-06T13:00:05Z</time>
      </trkpt>
      <trkpt lat="43.74696" lon="6.33136">
        <ele>882.5</ele>
        <time>2021-07-06T13:00:07Z</time>
      </trkpt>
      <trkpt lat="43.74697" lon="6.33126">
        <ele>882.2</ele>
        <time>2021-07-06T13:00:09Z</time>
      </trkpt>
      <trkpt lat="43.74697" lon="6.33111">
        <ele>882.2</ele>
        <time>2021-07-06T13:00:12Z</time>
      </trkpt>
      <trkpt lat="43.74698" lon="6.331">
        <ele>881.8</ele>
        <time>2021-07-06T13:00:16Z</time>
      </trkpt>
      <trkpt lat="43.747" lon="6.33098">
        <ele>879</ele>
        <time>2021-07-06T13:00:23Z</time>
      </trkpt>
      <trkpt lat="43.74701" lon="6.33099">
        <ele>878.8</ele>
        <time>2021-07-06T13:00:27Z</time>
      </trkpt>
      <trkpt lat="43.74704" lon="6.33087">
        <ele>878.8</ele>
        <time>2021-07-06T13:00:40Z</time>
      </trkpt>
      <trkpt lat="43.74712" lon="6.33077">
        <ele>878.6</ele>
        <time>2021-07-06T13:00:43Z</time>
      </trkpt>
      <trkpt lat="43.7472" lon="6.33067">
        <ele>877.7</ele>
        <time>2021-07-06T13:00:46Z</time>
      </trkpt>
      <trkpt lat="43.74727" lon="6.33062">
        <ele>876.9</ele>
        <time>2021-07-06T13:00:48Z</time>
      </trkpt>
      <trkpt lat="43.74734" lon="6.33057">
        <ele>876.9</ele>
        <time>2021-07-06T13:00:50Z</time>
      </trkpt>
      <trkpt lat="43.7474" lon="6.33048">
        <ele>877.1</ele>
        <time>2021-07-06T13:00:52Z</time>
      </trkpt>
      <trkpt lat="43.74744" lon="6.33038">
        <ele>877.4</ele>
        <time>2021-07-06T13:00:54Z</time>
      </trkpt>
      <trkpt lat="43.74748" lon="6.33027">
        <ele>877.9</ele>
        <time>2021-07-06T13:00:56Z</time>
      </trkpt>
      <trkpt lat="43.7475" lon="6.33017">
        <ele>876.9</ele>
        <time>2021-07-06T13:00:58Z</time>
      </trkpt>
      <trkpt lat="43.74753" lon="6.33006">
        <ele>877.5</ele>
        <time>2021-07-06T13:01:00Z</time>
      </trkpt>
      <trkpt lat="43.74754" lon="6.32994">
        <ele>877.6</ele>
        <time>2021-07-06T13:01:02Z</time>
      </trkpt>
      <trkpt lat="43.74755" lon="6.32982">
        <ele>877.4</ele>
        <time>2021-07-06T13:01:04Z</time>
      </trkpt>
      <trkpt lat="43.74756" lon="6.32969">
        <ele>877.4</ele>
        <time>2021-07-06T13:01:06Z</time>
      </trkpt>
      <trkpt lat="43.74756" lon="6.32955">
        <ele>877.6</ele>
        <time>2021-07-06T13:01:08Z</time>
      </trkpt>
      <trkpt lat="43.74757" lon="6.32941">
        <ele>877.7</ele>
        <time>2021-07-06T13:01:10Z</time>
      </trkpt>
      <trkpt lat="43.74759" lon="6.3293">
        <ele>878.1</ele>
        <time>2021-07-06T13:01:12Z</time>
      </trkpt>
      <trkpt lat="43.74764" lon="6.32919">
        <ele>877.6</ele>
        <time>2021-07-06T13:01:14Z</time>
      </trkpt>
      <trkpt lat="43.7477" lon="6.32908">
        <ele>877.7</ele>
        <time>2021-07-06T13:01:17Z</time>
      </trkpt>
      <trkpt lat="43.74778" lon="6.32902">
        <ele>877</ele>
        <time>2021-07-06T13:01:20Z</time>
      </trkpt>
      <trkpt lat="43.74784" lon="6.32893">
        <ele>876.5</ele>
        <time>2021-07-06T13:01:24Z</time>
      </trkpt>
      <trkpt lat="43.74786" lon="6.32889">
        <ele>876.2</ele>
        <time>2021-07-06T13:01:31Z</time>
      </trkpt>
      <trkpt lat="43.74786" lon="6.32889">
        <ele>876.5</ele>
        <time>2021-07-06T13:01:34Z</time>
      </trkpt>
      <trkpt lat="43.74786" lon="6.32889">
        <ele>876.1</ele>
        <time>2021-07-06T13:01:45Z</time>
      </trkpt>
      <trkpt lat="43.74786" lon="6.32889">
        <ele>876.1</ele>
        <time>2021-07-06T13:01:46Z</time>
      </trkpt>
      <trkpt lat="43.74782" lon="6.32898">
        <ele>876.8</ele>
        <time>2021-07-06T13:02:28Z</time>
      </trkpt>
      <trkpt lat="43.74775" lon="6.32893">
        <ele>874.4</ele>
        <time>2021-07-06T13:02:35Z</time>
      </trkpt>
      <trkpt lat="43.74774" lon="6.32891">
        <ele>873.5</ele>
        <time>2021-07-06T13:02:42Z</time>
      </trkpt>
      <trkpt lat="43.74774" lon="6.32889">
        <ele>873.3</ele>
        <time>2021-07-06T13:02:49Z</time>
      </trkpt>
      <trkpt lat="43.74774" lon="6.32889">
        <ele>872.5</ele>
        <time>2021-07-06T13:02:52Z</time>
      </trkpt>
      <trkpt lat="43.7478" lon="6.32894">
        <ele>872.9</ele>
        <time>2021-07-06T13:03:09Z</time>
      </trkpt>
      <trkpt lat="43.74787" lon="6.32889">
        <ele>873.8</ele>
        <time>2021-07-06T13:03:16Z</time>
      </trkpt>
      <trkpt lat="43.74787" lon="6.32885">
        <ele>873.5</ele>
        <time>2021-07-06T13:03:23Z</time>
      </trkpt>
      <trkpt lat="43.74787" lon="6.32886">
        <ele>873.7</ele>
        <time>2021-07-06T13:03:27Z</time>
      </trkpt>
      <trkpt lat="43.74793" lon="6.32877">
        <ele>873.9</ele>
        <time>2021-07-06T13:03:34Z</time>
      </trkpt>
      <trkpt lat="43.74798" lon="6.32869">
        <ele>873.1</ele>
        <time>2021-07-06T13:03:39Z</time>
      </trkpt>
      <trkpt lat="43.74801" lon="6.32859">
        <ele>872.6</ele>
        <time>2021-07-06T13:03:43Z</time>
      </trkpt>
      <trkpt lat="43.74805" lon="6.32857">
        <ele>874.1</ele>
        <time>2021-07-06T13:03:50Z</time>
      </trkpt>
      <trkpt lat="43.74807" lon="6.32855">
        <ele>875.8</ele>
        <time>2021-07-06T13:03:57Z</time>
      </trkpt>
      <trkpt lat="43.74806" lon="6.32851">
        <ele>878.9</ele>
        <time>2021-07-06T13:04:04Z</time>
      </trkpt>
      <trkpt lat="43.74806" lon="6.32851">
        <ele>961.9</ele>
        <time>2021-07-06T13:04:08Z</time>
      </trkpt>
      <trkpt lat="43.74808" lon="6.3285">
        <ele>881.1</ele>
        <time>2021-07-06T13:04:18Z</time>
      </trkpt>
      <trkpt lat="43.74808" lon="6.3285">
        <ele>878.6</ele>
        <time>2021-07-06T13:04:20Z</time>
      </trkpt>
      <trkpt lat="43.74812" lon="6.32848">
        <ele>875.9</ele>
        <time>2021-07-06T13:04:28Z</time>
      </trkpt>
      <trkpt lat="43.74817" lon="6.32844">
        <ele>875.4</ele>
        <time>2021-07-06T13:04:35Z</time>
      </trkpt>
      <trkpt lat="43.74821" lon="6.32839">
        <ele>875.3</ele>
        <time>2021-07-06T13:04:42Z</time>
      </trkpt>
      <trkpt lat="43.74824" lon="6.32835">
        <ele>877.6</ele>
        <time>2021-07-06T13:04:49Z</time>
      </trkpt>
      <trkpt lat="43.74828" lon="6.32831">
        <ele>876.9</ele>
        <time>2021-07-06T13:04:56Z</time>
      </trkpt>
      <trkpt lat="43.74835" lon="6.32827">
        <ele>873.8</ele>
        <time>2021-07-06T13:05:03Z</time>
      </trkpt>
      <trkpt lat="43.7484" lon="6.32826">
        <ele>875.7</ele>
        <time>2021-07-06T13:05:10Z</time>
      </trkpt>
      <trkpt lat="43.74846" lon="6.32829">
        <ele>875.2</ele>
        <time>2021-07-06T13:05:17Z</time>
      </trkpt>
      <trkpt lat="43.74853" lon="6.32832">
        <ele>873.3</ele>
        <time>2021-07-06T13:05:24Z</time>
      </trkpt>
      <trkpt lat="43.74857" lon="6.32835">
        <ele>873.3</ele>
        <time>2021-07-06T13:05:31Z</time>
      </trkpt>
      <trkpt lat="43.74857" lon="6.32835">
        <ele>874.7</ele>
        <time>2021-07-06T13:05:38Z</time>
      </trkpt>
      <trkpt lat="43.74856" lon="6.32836">
        <ele>875</ele>
        <time>2021-07-06T13:05:46Z</time>
      </trkpt>
      <trkpt lat="43.74856" lon="6.32836">
        <ele>874.3</ele>
        <time>2021-07-06T13:05:47Z</time>
      </trkpt>
      <trkpt lat="43.74856" lon="6.32837">
        <ele>875.6</ele>
        <time>2021-07-06T13:06:17Z</time>
      </trkpt>
      <trkpt lat="43.74854" lon="6.32835">
        <ele>875.9</ele>
        <time>2021-07-06T13:06:24Z</time>
      </trkpt>
      <trkpt lat="43.74854" lon="6.32835">
        <ele>876.2</ele>
        <time>2021-07-06T13:06:26Z</time>
      </trkpt>
      <trkpt lat="43.7486" lon="6.32838">
        <ele>875.7</ele>
        <time>2021-07-06T13:06:35Z</time>
      </trkpt>
      <trkpt lat="43.74866" lon="6.32842">
        <ele>873.2</ele>
        <time>2021-07-06T13:06:41Z</time>
      </trkpt>
      <trkpt lat="43.74869" lon="6.32844">
        <ele>873</ele>
        <time>2021-07-06T13:06:48Z</time>
      </trkpt>
      <trkpt lat="43.74869" lon="6.32844">
        <ele>872.6</ele>
        <time>2021-07-06T13:06:51Z</time>
      </trkpt>
      <trkpt lat="43.74876" lon="6.32851">
        <ele>874.5</ele>
        <time>2021-07-06T13:07:11Z</time>
      </trkpt>
      <trkpt lat="43.74884" lon="6.32858">
        <ele>875</ele>
        <time>2021-07-06T13:07:15Z</time>
      </trkpt>
      <trkpt lat="43.74892" lon="6.32865">
        <ele>875</ele>
        <time>2021-07-06T13:07:19Z</time>
      </trkpt>
      <trkpt lat="43.74898" lon="6.32875">
        <ele>875</ele>
        <time>2021-07-06T13:07:23Z</time>
      </trkpt>
      <trkpt lat="43.74903" lon="6.32882">
        <ele>875.7</ele>
        <time>2021-07-06T13:07:26Z</time>
      </trkpt>
      <trkpt lat="43.7491" lon="6.32888">
        <ele>874.3</ele>
        <time>2021-07-06T13:07:30Z</time>
      </trkpt>
      <trkpt lat="43.74918" lon="6.32892">
        <ele>874</ele>
        <time>2021-07-06T13:07:34Z</time>
      </trkpt>
      <trkpt lat="43.74923" lon="6.32899">
        <ele>875.1</ele>
        <time>2021-07-06T13:07:38Z</time>
      </trkpt>
      <trkpt lat="43.74932" lon="6.32907">
        <ele>876.5</ele>
        <time>2021-07-06T13:07:44Z</time>
      </trkpt>
      <trkpt lat="43.74939" lon="6.32912">
        <ele>876.4</ele>
        <time>2021-07-06T13:07:47Z</time>
      </trkpt>
      <trkpt lat="43.74945" lon="6.32921">
        <ele>877.5</ele>
        <time>2021-07-06T13:07:52Z</time>
      </trkpt>
      <trkpt lat="43.74953" lon="6.32925">
        <ele>876.3</ele>
        <time>2021-07-06T13:07:56Z</time>
      </trkpt>
      <trkpt lat="43.74962" lon="6.3293">
        <ele>879.3</ele>
        <time>2021-07-06T13:08:00Z</time>
      </trkpt>
      <trkpt lat="43.74971" lon="6.32935">
        <ele>879.9</ele>
        <time>2021-07-06T13:08:03Z</time>
      </trkpt>
      <trkpt lat="43.74978" lon="6.32937">
        <ele>881.3</ele>
        <time>2021-07-06T13:08:05Z</time>
      </trkpt>
      <trkpt lat="43.74988" lon="6.3294">
        <ele>879.9</ele>
        <time>2021-07-06T13:08:08Z</time>
      </trkpt>
      <trkpt lat="43.74996" lon="6.32944">
        <ele>880.7</ele>
        <time>2021-07-06T13:08:11Z</time>
      </trkpt>
      <trkpt lat="43.75003" lon="6.32948">
        <ele>880.3</ele>
        <time>2021-07-06T13:08:14Z</time>
      </trkpt>
      <trkpt lat="43.7501" lon="6.32951">
        <ele>881.9</ele>
        <time>2021-07-06T13:08:17Z</time>
      </trkpt>
      <trkpt lat="43.75018" lon="6.32955">
        <ele>883.4</ele>
        <time>2021-07-06T13:08:20Z</time>
      </trkpt>
      <trkpt lat="43.75025" lon="6.32963">
        <ele>884.9</ele>
        <time>2021-07-06T13:08:24Z</time>
      </trkpt>
      <trkpt lat="43.7503" lon="6.32969">
        <ele>886.3</ele>
        <time>2021-07-06T13:08:27Z</time>
      </trkpt>
      <trkpt lat="43.75036" lon="6.32976">
        <ele>887.2</ele>
        <time>2021-07-06T13:08:30Z</time>
      </trkpt>
      <trkpt lat="43.7504" lon="6.32985">
        <ele>886.7</ele>
        <time>2021-07-06T13:08:33Z</time>
      </trkpt>
      <trkpt lat="43.75045" lon="6.32994">
        <ele>887.6</ele>
        <time>2021-07-06T13:08:36Z</time>
      </trkpt>
      <trkpt lat="43.75049" lon="6.33002">
        <ele>887.9</ele>
        <time>2021-07-06T13:08:39Z</time>
      </trkpt>
      <trkpt lat="43.75054" lon="6.3301">
        <ele>888.1</ele>
        <time>2021-07-06T13:08:42Z</time>
      </trkpt>
      <trkpt lat="43.7506" lon="6.3302">
        <ele>889.6</ele>
        <time>2021-07-06T13:08:46Z</time>
      </trkpt>
      <trkpt lat="43.75066" lon="6.33027">
        <ele>890.8</ele>
        <time>2021-07-06T13:08:49Z</time>
      </trkpt>
      <trkpt lat="43.75072" lon="6.33034">
        <ele>890.2</ele>
        <time>2021-07-06T13:08:52Z</time>
      </trkpt>
      <trkpt lat="43.75079" lon="6.3304">
        <ele>890.5</ele>
        <time>2021-07-06T13:08:55Z</time>
      </trkpt>
      <trkpt lat="43.75086" lon="6.33044">
        <ele>890.6</ele>
        <time>2021-07-06T13:08:58Z</time>
      </trkpt>
      <trkpt lat="43.75094" lon="6.33047">
        <ele>891.4</ele>
        <time>2021-07-06T13:09:01Z</time>
      </trkpt>
      <trkpt lat="43.75102" lon="6.3305">
        <ele>892.8</ele>
        <time>2021-07-06T13:09:04Z</time>
      </trkpt>
      <trkpt lat="43.75108" lon="6.33055">
        <ele>892.8</ele>
        <time>2021-07-06T13:09:07Z</time>
      </trkpt>
      <trkpt lat="43.75116" lon="6.33058">
        <ele>893.3</ele>
        <time>2021-07-06T13:09:10Z</time>
      </trkpt>
      <trkpt lat="43.75123" lon="6.33061">
        <ele>894.5</ele>
        <time>2021-07-06T13:09:13Z</time>
      </trkpt>
      <trkpt lat="43.75132" lon="6.33064">
        <ele>894.9</ele>
        <time>2021-07-06T13:09:16Z</time>
      </trkpt>
      <trkpt lat="43.75141" lon="6.33064">
        <ele>894.5</ele>
        <time>2021-07-06T13:09:19Z</time>
      </trkpt>
      <trkpt lat="43.7515" lon="6.33058">
        <ele>895.5</ele>
        <time>2021-07-06T13:09:22Z</time>
      </trkpt>
      <trkpt lat="43.75156" lon="6.33048">
        <ele>895.6</ele>
        <time>2021-07-06T13:09:25Z</time>
      </trkpt>
      <trkpt lat="43.7516" lon="6.33037">
        <ele>896.4</ele>
        <time>2021-07-06T13:09:28Z</time>
      </trkpt>
      <trkpt lat="43.75158" lon="6.33024">
        <ele>896.2</ele>
        <time>2021-07-06T13:09:31Z</time>
      </trkpt>
      <trkpt lat="43.75154" lon="6.33013">
        <ele>926.3</ele>
        <time>2021-07-06T13:09:34Z</time>
      </trkpt>
      <trkpt lat="43.7515" lon="6.33003">
        <ele>912.3</ele>
        <time>2021-07-06T13:09:37Z</time>
      </trkpt>
      <trkpt lat="43.75148" lon="6.32992">
        <ele>904</ele>
        <time>2021-07-06T13:09:40Z</time>
      </trkpt>
      <trkpt lat="43.75144" lon="6.32982">
        <ele>902.1</ele>
        <time>2021-07-06T13:09:43Z</time>
      </trkpt>
      <trkpt lat="43.75142" lon="6.3297">
        <ele>901.9</ele>
        <time>2021-07-06T13:09:46Z</time>
      </trkpt>
      <trkpt lat="43.75144" lon="6.32958">
        <ele>901.9</ele>
        <time>2021-07-06T13:09:49Z</time>
      </trkpt>
      <trkpt lat="43.75144" lon="6.32946">
        <ele>901.4</ele>
        <time>2021-07-06T13:09:52Z</time>
      </trkpt>
      <trkpt lat="43.75147" lon="6.32934">
        <ele>901.8</ele>
        <time>2021-07-06T13:09:55Z</time>
      </trkpt>
      <trkpt lat="43.7515" lon="6.32923">
        <ele>902.7</ele>
        <time>2021-07-06T13:09:58Z</time>
      </trkpt>
      <trkpt lat="43.75153" lon="6.32912">
        <ele>903.5</ele>
        <time>2021-07-06T13:10:01Z</time>
      </trkpt>
      <trkpt lat="43.75156" lon="6.32901">
        <ele>903.9</ele>
        <time>2021-07-06T13:10:04Z</time>
      </trkpt>
      <trkpt lat="43.7516" lon="6.3289">
        <ele>903.4</ele>
        <time>2021-07-06T13:10:07Z</time>
      </trkpt>
      <trkpt lat="43.75165" lon="6.32879">
        <ele>903.9</ele>
        <time>2021-07-06T13:10:10Z</time>
      </trkpt>
      <trkpt lat="43.7517" lon="6.3287">
        <ele>905.1</ele>
        <time>2021-07-06T13:10:13Z</time>
      </trkpt>
      <trkpt lat="43.75175" lon="6.32859">
        <ele>905.2</ele>
        <time>2021-07-06T13:10:16Z</time>
      </trkpt>
      <trkpt lat="43.75181" lon="6.32849">
        <ele>905</ele>
        <time>2021-07-06T13:10:19Z</time>
      </trkpt>
      <trkpt lat="43.75187" lon="6.3284">
        <ele>904.9</ele>
        <time>2021-07-06T13:10:22Z</time>
      </trkpt>
      <trkpt lat="43.75195" lon="6.32834">
        <ele>904.5</ele>
        <time>2021-07-06T13:10:25Z</time>
      </trkpt>
      <trkpt lat="43.75203" lon="6.32828">
        <ele>905.5</ele>
        <time>2021-07-06T13:10:29Z</time>
      </trkpt>
      <trkpt lat="43.75207" lon="6.32826">
        <ele>905.8</ele>
        <time>2021-07-06T13:10:36Z</time>
      </trkpt>
      <trkpt lat="43.75207" lon="6.32826">
        <ele>906.3</ele>
        <time>2021-07-06T13:10:40Z</time>
      </trkpt>
      <trkpt lat="43.7521" lon="6.32829">
        <ele>904.6</ele>
        <time>2021-07-06T13:11:18Z</time>
      </trkpt>
      <trkpt lat="43.75217" lon="6.32835">
        <ele>903.8</ele>
        <time>2021-07-06T13:11:22Z</time>
      </trkpt>
      <trkpt lat="43.75226" lon="6.32838">
        <ele>903.7</ele>
        <time>2021-07-06T13:11:25Z</time>
      </trkpt>
      <trkpt lat="43.75234" lon="6.32839">
        <ele>903.3</ele>
        <time>2021-07-06T13:11:28Z</time>
      </trkpt>
      <trkpt lat="43.75244" lon="6.3284">
        <ele>903</ele>
        <time>2021-07-06T13:11:31Z</time>
      </trkpt>
      <trkpt lat="43.75253" lon="6.32841">
        <ele>902.7</ele>
        <time>2021-07-06T13:11:34Z</time>
      </trkpt>
      <trkpt lat="43.75262" lon="6.32842">
        <ele>903</ele>
        <time>2021-07-06T13:11:37Z</time>
      </trkpt>
      <trkpt lat="43.75272" lon="6.32843">
        <ele>903</ele>
        <time>2021-07-06T13:11:40Z</time>
      </trkpt>
      <trkpt lat="43.75282" lon="6.32842">
        <ele>903.7</ele>
        <time>2021-07-06T13:11:43Z</time>
      </trkpt>
      <trkpt lat="43.75291" lon="6.32841">
        <ele>904.8</ele>
        <time>2021-07-06T13:11:46Z</time>
      </trkpt>
      <trkpt lat="43.75301" lon="6.32842">
        <ele>904.1</ele>
        <time>2021-07-06T13:11:49Z</time>
      </trkpt>
      <trkpt lat="43.75312" lon="6.32843">
        <ele>905.1</ele>
        <time>2021-07-06T13:11:52Z</time>
      </trkpt>
      <trkpt lat="43.7532" lon="6.32838">
        <ele>906.4</ele>
        <time>2021-07-06T13:11:55Z</time>
      </trkpt>
      <trkpt lat="43.75328" lon="6.32828">
        <ele>906</ele>
        <time>2021-07-06T13:11:58Z</time>
      </trkpt>
      <trkpt lat="43.75331" lon="6.32814">
        <ele>907</ele>
        <time>2021-07-06T13:12:01Z</time>
      </trkpt>
      <trkpt lat="43.75332" lon="6.328">
        <ele>907.7</ele>
        <time>2021-07-06T13:12:04Z</time>
      </trkpt>
      <trkpt lat="43.75334" lon="6.32786">
        <ele>907.9</ele>
        <time>2021-07-06T13:12:07Z</time>
      </trkpt>
      <trkpt lat="43.75335" lon="6.32772">
        <ele>907.6</ele>
        <time>2021-07-06T13:12:10Z</time>
      </trkpt>
      <trkpt lat="43.75336" lon="6.32758">
        <ele>907.8</ele>
        <time>2021-07-06T13:12:13Z</time>
      </trkpt>
      <trkpt lat="43.75337" lon="6.32748">
        <ele>907.9</ele>
        <time>2021-07-06T13:12:15Z</time>
      </trkpt>
      <trkpt lat="43.75339" lon="6.32737">
        <ele>908.5</ele>
        <time>2021-07-06T13:12:17Z</time>
      </trkpt>
      <trkpt lat="43.7534" lon="6.32727">
        <ele>908.4</ele>
        <time>2021-07-06T13:12:19Z</time>
      </trkpt>
      <trkpt lat="43.75342" lon="6.32717">
        <ele>908.5</ele>
        <time>2021-07-06T13:12:21Z</time>
      </trkpt>
      <trkpt lat="43.75345" lon="6.32707">
        <ele>908.4</ele>
        <time>2021-07-06T13:12:23Z</time>
      </trkpt>
      <trkpt lat="43.75348" lon="6.32697">
        <ele>908.4</ele>
        <time>2021-07-06T13:12:25Z</time>
      </trkpt>
      <trkpt lat="43.75355" lon="6.32689">
        <ele>909.2</ele>
        <time>2021-07-06T13:12:27Z</time>
      </trkpt>
      <trkpt lat="43.75362" lon="6.32685">
        <ele>908.5</ele>
        <time>2021-07-06T13:12:29Z</time>
      </trkpt>
      <trkpt lat="43.75371" lon="6.32683">
        <ele>908.7</ele>
        <time>2021-07-06T13:12:31Z</time>
      </trkpt>
      <trkpt lat="43.7538" lon="6.32682">
        <ele>908.5</ele>
        <time>2021-07-06T13:12:33Z</time>
      </trkpt>
      <trkpt lat="43.75389" lon="6.32683">
        <ele>909.1</ele>
        <time>2021-07-06T13:12:35Z</time>
      </trkpt>
      <trkpt lat="43.75398" lon="6.32682">
        <ele>908.5</ele>
        <time>2021-07-06T13:12:37Z</time>
      </trkpt>
      <trkpt lat="43.75407" lon="6.3268">
        <ele>908.3</ele>
        <time>2021-07-06T13:12:39Z</time>
      </trkpt>
      <trkpt lat="43.75414" lon="6.32673">
        <ele>907.5</ele>
        <time>2021-07-06T13:12:41Z</time>
      </trkpt>
      <trkpt lat="43.7542" lon="6.32663">
        <ele>906.6</ele>
        <time>2021-07-06T13:12:43Z</time>
      </trkpt>
      <trkpt lat="43.75424" lon="6.32651">
        <ele>906.4</ele>
        <time>2021-07-06T13:12:45Z</time>
      </trkpt>
      <trkpt lat="43.75424" lon="6.32638">
        <ele>906.2</ele>
        <time>2021-07-06T13:12:47Z</time>
      </trkpt>
      <trkpt lat="43.75423" lon="6.32625">
        <ele>905.3</ele>
        <time>2021-07-06T13:12:49Z</time>
      </trkpt>
      <trkpt lat="43.75421" lon="6.3261">
        <ele>904.9</ele>
        <time>2021-07-06T13:12:51Z</time>
      </trkpt>
      <trkpt lat="43.75422" lon="6.32596">
        <ele>904</ele>
        <time>2021-07-06T13:12:53Z</time>
      </trkpt>
      <trkpt lat="43.75428" lon="6.32583">
        <ele>901.6</ele>
        <time>2021-07-06T13:12:55Z</time>
      </trkpt>
      <trkpt lat="43.75439" lon="6.32573">
        <ele>900.9</ele>
        <time>2021-07-06T13:12:57Z</time>
      </trkpt>
      <trkpt lat="43.75452" lon="6.32565">
        <ele>898.7</ele>
        <time>2021-07-06T13:12:59Z</time>
      </trkpt>
      <trkpt lat="43.75459" lon="6.32562">
        <ele>898.8</ele>
        <time>2021-07-06T13:13:00Z</time>
      </trkpt>
      <trkpt lat="43.75467" lon="6.32559">
        <ele>897.4</ele>
        <time>2021-07-06T13:13:01Z</time>
      </trkpt>
      <trkpt lat="43.75475" lon="6.32557">
        <ele>896.1</ele>
        <time>2021-07-06T13:13:02Z</time>
      </trkpt>
      <trkpt lat="43.75483" lon="6.32555">
        <ele>895.5</ele>
        <time>2021-07-06T13:13:03Z</time>
      </trkpt>
      <trkpt lat="43.75491" lon="6.32553">
        <ele>895.3</ele>
        <time>2021-07-06T13:13:04Z</time>
      </trkpt>
      <trkpt lat="43.75498" lon="6.32551">
        <ele>895.2</ele>
        <time>2021-07-06T13:13:05Z</time>
      </trkpt>
      <trkpt lat="43.75506" lon="6.32547">
        <ele>894.9</ele>
        <time>2021-07-06T13:13:06Z</time>
      </trkpt>
      <trkpt lat="43.75514" lon="6.32543">
        <ele>894.1</ele>
        <time>2021-07-06T13:13:07Z</time>
      </trkpt>
      <trkpt lat="43.7552" lon="6.32536">
        <ele>893.2</ele>
        <time>2021-07-06T13:13:08Z</time>
      </trkpt>
      <trkpt lat="43.75526" lon="6.32529">
        <ele>893.1</ele>
        <time>2021-07-06T13:13:09Z</time>
      </trkpt>
      <trkpt lat="43.75531" lon="6.32522">
        <ele>892.4</ele>
        <time>2021-07-06T13:13:10Z</time>
      </trkpt>
      <trkpt lat="43.75537" lon="6.32514">
        <ele>891.9</ele>
        <time>2021-07-06T13:13:11Z</time>
      </trkpt>
      <trkpt lat="43.75542" lon="6.32507">
        <ele>891.3</ele>
        <time>2021-07-06T13:13:12Z</time>
      </trkpt>
      <trkpt lat="43.75548" lon="6.325">
        <ele>890.9</ele>
        <time>2021-07-06T13:13:13Z</time>
      </trkpt>
      <trkpt lat="43.75554" lon="6.32493">
        <ele>890.6</ele>
        <time>2021-07-06T13:13:14Z</time>
      </trkpt>
      <trkpt lat="43.7556" lon="6.32487">
        <ele>890.3</ele>
        <time>2021-07-06T13:13:15Z</time>
      </trkpt>
      <trkpt lat="43.75572" lon="6.32473">
        <ele>889</ele>
        <time>2021-07-06T13:13:17Z</time>
      </trkpt>
      <trkpt lat="43.75578" lon="6.32467">
        <ele>888.4</ele>
        <time>2021-07-06T13:13:18Z</time>
      </trkpt>
      <trkpt lat="43.75589" lon="6.32452">
        <ele>886.9</ele>
        <time>2021-07-06T13:13:20Z</time>
      </trkpt>
      <trkpt lat="43.75596" lon="6.32447">
        <ele>886.8</ele>
        <time>2021-07-06T13:13:21Z</time>
      </trkpt>
      <trkpt lat="43.75602" lon="6.32441">
        <ele>886.6</ele>
        <time>2021-07-06T13:13:22Z</time>
      </trkpt>
      <trkpt lat="43.75607" lon="6.32435">
        <ele>886.7</ele>
        <time>2021-07-06T13:13:23Z</time>
      </trkpt>
      <trkpt lat="43.75612" lon="6.32426">
        <ele>886.6</ele>
        <time>2021-07-06T13:13:24Z</time>
      </trkpt>
      <trkpt lat="43.75611" lon="6.32415">
        <ele>885.7</ele>
        <time>2021-07-06T13:13:25Z</time>
      </trkpt>
      <trkpt lat="43.75611" lon="6.32403">
        <ele>885.5</ele>
        <time>2021-07-06T13:13:26Z</time>
      </trkpt>
      <trkpt lat="43.75609" lon="6.32391">
        <ele>885.4</ele>
        <time>2021-07-06T13:13:27Z</time>
      </trkpt>
      <trkpt lat="43.75607" lon="6.32381">
        <ele>884.7</ele>
        <time>2021-07-06T13:13:28Z</time>
      </trkpt>
      <trkpt lat="43.75605" lon="6.32365">
        <ele>884.2</ele>
        <time>2021-07-06T13:13:30Z</time>
      </trkpt>
      <trkpt lat="43.75604" lon="6.32351">
        <ele>884.1</ele>
        <time>2021-07-06T13:13:32Z</time>
      </trkpt>
      <trkpt lat="43.75604" lon="6.32338">
        <ele>884.4</ele>
        <time>2021-07-06T13:13:34Z</time>
      </trkpt>
      <trkpt lat="43.75604" lon="6.32327">
        <ele>884.4</ele>
        <time>2021-07-06T13:13:36Z</time>
      </trkpt>
      <trkpt lat="43.75606" lon="6.32317">
        <ele>884</ele>
        <time>2021-07-06T13:13:38Z</time>
      </trkpt>
      <trkpt lat="43.75609" lon="6.32306">
        <ele>884.1</ele>
        <time>2021-07-06T13:13:40Z</time>
      </trkpt>
      <trkpt lat="43.7561" lon="6.32294">
        <ele>883.4</ele>
        <time>2021-07-06T13:13:42Z</time>
      </trkpt>
      <trkpt lat="43.75609" lon="6.32282">
        <ele>883.3</ele>
        <time>2021-07-06T13:13:44Z</time>
      </trkpt>
      <trkpt lat="43.75608" lon="6.32271">
        <ele>882.7</ele>
        <time>2021-07-06T13:13:46Z</time>
      </trkpt>
      <trkpt lat="43.75606" lon="6.3226">
        <ele>883.1</ele>
        <time>2021-07-06T13:13:48Z</time>
      </trkpt>
      <trkpt lat="43.75604" lon="6.32249">
        <ele>882.8</ele>
        <time>2021-07-06T13:13:50Z</time>
      </trkpt>
      <trkpt lat="43.75602" lon="6.32239">
        <ele>882.9</ele>
        <time>2021-07-06T13:13:52Z</time>
      </trkpt>
      <trkpt lat="43.75601" lon="6.32228">
        <ele>882.4</ele>
        <time>2021-07-06T13:13:54Z</time>
      </trkpt>
      <trkpt lat="43.756" lon="6.32217">
        <ele>882.1</ele>
        <time>2021-07-06T13:13:56Z</time>
      </trkpt>
      <trkpt lat="43.75601" lon="6.32202">
        <ele>882.2</ele>
        <time>2021-07-06T13:13:59Z</time>
      </trkpt>
      <trkpt lat="43.75603" lon="6.3219">
        <ele>882.1</ele>
        <time>2021-07-06T13:14:01Z</time>
      </trkpt>
      <trkpt lat="43.75604" lon="6.3218">
        <ele>882.5</ele>
        <time>2021-07-06T13:14:03Z</time>
      </trkpt>
      <trkpt lat="43.75606" lon="6.3217">
        <ele>882.8</ele>
        <time>2021-07-06T13:14:05Z</time>
      </trkpt>
      <trkpt lat="43.75608" lon="6.32156">
        <ele>882.3</ele>
        <time>2021-07-06T13:14:08Z</time>
      </trkpt>
      <trkpt lat="43.75608" lon="6.32146">
        <ele>882.4</ele>
        <time>2021-07-06T13:14:10Z</time>
      </trkpt>
      <trkpt lat="43.75607" lon="6.32136">
        <ele>882</ele>
        <time>2021-07-06T13:14:12Z</time>
      </trkpt>
      <trkpt lat="43.75606" lon="6.32126">
        <ele>882</ele>
        <time>2021-07-06T13:14:14Z</time>
      </trkpt>
      <trkpt lat="43.75605" lon="6.32115">
        <ele>882.5</ele>
        <time>2021-07-06T13:14:16Z</time>
      </trkpt>
      <trkpt lat="43.75604" lon="6.32105">
        <ele>882</ele>
        <time>2021-07-06T13:14:18Z</time>
      </trkpt>
      <trkpt lat="43.75601" lon="6.32093">
        <ele>881.5</ele>
        <time>2021-07-06T13:14:21Z</time>
      </trkpt>
      <trkpt lat="43.75598" lon="6.32082">
        <ele>880.7</ele>
        <time>2021-07-06T13:14:25Z</time>
      </trkpt>
      <trkpt lat="43.75595" lon="6.32078">
        <ele>881.1</ele>
        <time>2021-07-06T13:14:32Z</time>
      </trkpt>
      <trkpt lat="43.75594" lon="6.32076">
        <ele>880.7</ele>
        <time>2021-07-06T13:14:39Z</time>
      </trkpt>
      <trkpt lat="43.75595" lon="6.32076">
        <ele>880.6</ele>
        <time>2021-07-06T13:14:43Z</time>
      </trkpt>
      <trkpt lat="43.7559" lon="6.32072">
        <ele>878.5</ele>
        <time>2021-07-06T13:15:38Z</time>
      </trkpt>
      <trkpt lat="43.7559" lon="6.3207">
        <ele>879</ele>
        <time>2021-07-06T13:15:44Z</time>
      </trkpt>
      <trkpt lat="43.7559" lon="6.3206">
        <ele>879.1</ele>
        <time>2021-07-06T13:16:17Z</time>
      </trkpt>
      <trkpt lat="43.75587" lon="6.32049">
        <ele>877.8</ele>
        <time>2021-07-06T13:16:22Z</time>
      </trkpt>
      <trkpt lat="43.75585" lon="6.32047">
        <ele>878.3</ele>
        <time>2021-07-06T13:16:29Z</time>
      </trkpt>
      <trkpt lat="43.75585" lon="6.32047">
        <ele>877.9</ele>
        <time>2021-07-06T13:16:31Z</time>
      </trkpt>
      <trkpt lat="43.75588" lon="6.32035">
        <ele>877.6</ele>
        <time>2021-07-06T13:16:44Z</time>
      </trkpt>
      <trkpt lat="43.75587" lon="6.3203">
        <ele>878.8</ele>
        <time>2021-07-06T13:16:51Z</time>
      </trkpt>
      <trkpt lat="43.75589" lon="6.32028">
        <ele>880.5</ele>
        <time>2021-07-06T13:16:58Z</time>
      </trkpt>
      <trkpt lat="43.75588" lon="6.32028">
        <ele>880.3</ele>
        <time>2021-07-06T13:17:01Z</time>
      </trkpt>
      <trkpt lat="43.75583" lon="6.3203">
        <ele>881.4</ele>
        <time>2021-07-06T13:17:21Z</time>
      </trkpt>
      <trkpt lat="43.75581" lon="6.32022">
        <ele>878.6</ele>
        <time>2021-07-06T13:17:28Z</time>
      </trkpt>
      <trkpt lat="43.75581" lon="6.32022">
        <ele>878.5</ele>
        <time>2021-07-06T13:17:35Z</time>
      </trkpt>
      <trkpt lat="43.75576" lon="6.32017">
        <ele>878.5</ele>
        <time>2021-07-06T13:17:50Z</time>
      </trkpt>
      <trkpt lat="43.75573" lon="6.32013">
        <ele>878.2</ele>
        <time>2021-07-06T13:17:57Z</time>
      </trkpt>
      <trkpt lat="43.75574" lon="6.32012">
        <ele>877.9</ele>
        <time>2021-07-06T13:18:02Z</time>
      </trkpt>
      <trkpt lat="43.75578" lon="6.32008">
        <ele>878.3</ele>
        <time>2021-07-06T13:18:12Z</time>
      </trkpt>
      <trkpt lat="43.75575" lon="6.32003">
        <ele>877.1</ele>
        <time>2021-07-06T13:18:19Z</time>
      </trkpt>
      <trkpt lat="43.75573" lon="6.31999">
        <ele>878.6</ele>
        <time>2021-07-06T13:18:26Z</time>
      </trkpt>
      <trkpt lat="43.7557" lon="6.31996">
        <ele>877.4</ele>
        <time>2021-07-06T13:18:33Z</time>
      </trkpt>
      <trkpt lat="43.75569" lon="6.31997">
        <ele>877.8</ele>
        <time>2021-07-06T13:18:39Z</time>
      </trkpt>
      <trkpt lat="43.75571" lon="6.31998">
        <ele>876.8</ele>
        <time>2021-07-06T13:18:48Z</time>
      </trkpt>
      <trkpt lat="43.75576" lon="6.32">
        <ele>874.5</ele>
        <time>2021-07-06T13:18:55Z</time>
      </trkpt>
      <trkpt lat="43.75578" lon="6.32006">
        <ele>873</ele>
        <time>2021-07-06T13:19:02Z</time>
      </trkpt>
      <trkpt lat="43.75577" lon="6.32014">
        <ele>872.7</ele>
        <time>2021-07-06T13:19:09Z</time>
      </trkpt>
      <trkpt lat="43.75582" lon="6.3202">
        <ele>872.8</ele>
        <time>2021-07-06T13:19:16Z</time>
      </trkpt>
      <trkpt lat="43.75581" lon="6.3202">
        <ele>873.1</ele>
        <time>2021-07-06T13:19:23Z</time>
      </trkpt>
      <trkpt lat="43.7558" lon="6.32021">
        <ele>873.1</ele>
        <time>2021-07-06T13:19:31Z</time>
      </trkpt>
      <trkpt lat="43.7558" lon="6.32021">
        <ele>872.9</ele>
        <time>2021-07-06T13:19:32Z</time>
      </trkpt>
      <trkpt lat="43.75579" lon="6.32021">
        <ele>872.7</ele>
        <time>2021-07-06T13:19:42Z</time>
      </trkpt>
      <trkpt lat="43.75579" lon="6.32021">
        <ele>955.9</ele>
        <time>2021-07-06T13:19:43Z</time>
      </trkpt>
      <trkpt lat="43.75577" lon="6.32028">
        <ele>878.3</ele>
        <time>2021-07-06T13:19:55Z</time>
      </trkpt>
      <trkpt lat="43.75576" lon="6.32033">
        <ele>873.3</ele>
        <time>2021-07-06T13:20:02Z</time>
      </trkpt>
      <trkpt lat="43.75575" lon="6.32035">
        <ele>869.7</ele>
        <time>2021-07-06T13:20:09Z</time>
      </trkpt>
      <trkpt lat="43.75574" lon="6.32035">
        <ele>869.6</ele>
        <time>2021-07-06T13:20:12Z</time>
      </trkpt>
      <trkpt lat="43.75575" lon="6.3204">
        <ele>869.4</ele>
        <time>2021-07-06T13:20:24Z</time>
      </trkpt>
      <trkpt lat="43.75576" lon="6.32034">
        <ele>870.3</ele>
        <time>2021-07-06T13:20:31Z</time>
      </trkpt>
      <trkpt lat="43.75577" lon="6.3203">
        <ele>870.7</ele>
        <time>2021-07-06T13:20:38Z</time>
      </trkpt>
      <trkpt lat="43.7558" lon="6.32029">
        <ele>872.5</ele>
        <time>2021-07-06T13:20:45Z</time>
      </trkpt>
      <trkpt lat="43.7558" lon="6.32029">
        <ele>873.6</ele>
        <time>2021-07-06T13:20:47Z</time>
      </trkpt>
      <trkpt lat="43.75583" lon="6.32029">
        <ele>873.7</ele>
        <time>2021-07-06T13:20:55Z</time>
      </trkpt>
      <trkpt lat="43.75583" lon="6.32028">
        <ele>874.8</ele>
        <time>2021-07-06T13:20:59Z</time>
      </trkpt>
      <trkpt lat="43.75585" lon="6.32027">
        <ele>875.6</ele>
        <time>2021-07-06T13:21:07Z</time>
      </trkpt>
      <trkpt lat="43.75585" lon="6.32027">
        <ele>876.3</ele>
        <time>2021-07-06T13:21:09Z</time>
      </trkpt>
      <trkpt lat="43.75585" lon="6.32027">
        <ele>877.4</ele>
        <time>2021-07-06T13:21:18Z</time>
      </trkpt>
      <trkpt lat="43.75586" lon="6.32028">
        <ele>878.9</ele>
        <time>2021-07-06T13:21:25Z</time>
      </trkpt>
      <trkpt lat="43.75586" lon="6.32028">
        <ele>879</ele>
        <time>2021-07-06T13:21:28Z</time>
      </trkpt>
      <trkpt lat="43.75587" lon="6.32027">
        <ele>878.9</ele>
        <time>2021-07-06T13:21:38Z</time>
      </trkpt>
      <trkpt lat="43.75587" lon="6.32027">
        <ele>878.9</ele>
        <time>2021-07-06T13:21:39Z</time>
      </trkpt>
      <trkpt lat="43.75593" lon="6.32025">
        <ele>877.9</ele>
        <time>2021-07-06T13:21:55Z</time>
      </trkpt>
      <trkpt lat="43.75597" lon="6.32025">
        <ele>876.3</ele>
        <time>2021-07-06T13:22:02Z</time>
      </trkpt>
      <trkpt lat="43.75601" lon="6.32024">
        <ele>876.9</ele>
        <time>2021-07-06T13:22:09Z</time>
      </trkpt>
      <trkpt lat="43.75607" lon="6.32025">
        <ele>873.6</ele>
        <time>2021-07-06T13:22:16Z</time>
      </trkpt>
      <trkpt lat="43.75608" lon="6.32023">
        <ele>873.6</ele>
        <time>2021-07-06T13:22:23Z</time>
      </trkpt>
      <trkpt lat="43.75608" lon="6.32023">
        <ele>873.8</ele>
        <time>2021-07-06T13:22:24Z</time>
      </trkpt>
      <trkpt lat="43.75608" lon="6.32023">
        <ele>873.6</ele>
        <time>2021-07-06T13:22:33Z</time>
      </trkpt>
      <trkpt lat="43.75608" lon="6.32023">
        <ele>873.6</ele>
        <time>2021-07-06T13:22:34Z</time>
      </trkpt>
      <trkpt lat="43.75616" lon="6.32028">
        <ele>872.7</ele>
        <time>2021-07-06T13:22:55Z</time>
      </trkpt>
      <trkpt lat="43.75621" lon="6.32034">
        <ele>871.4</ele>
        <time>2021-07-06T13:23:01Z</time>
      </trkpt>
      <trkpt lat="43.75628" lon="6.3204">
        <ele>871.1</ele>
        <time>2021-07-06T13:23:07Z</time>
      </trkpt>
      <trkpt lat="43.75632" lon="6.32043">
        <ele>871.3</ele>
        <time>2021-07-06T13:23:14Z</time>
      </trkpt>
      <trkpt lat="43.75633" lon="6.32044">
        <ele>871.1</ele>
        <time>2021-07-06T13:23:20Z</time>
      </trkpt>
      <trkpt lat="43.75635" lon="6.32045">
        <ele>871</ele>
        <time>2021-07-06T13:23:30Z</time>
      </trkpt>
      <trkpt lat="43.75641" lon="6.3205">
        <ele>870.5</ele>
        <time>2021-07-06T13:23:37Z</time>
      </trkpt>
      <trkpt lat="43.75651" lon="6.32055">
        <ele>870.1</ele>
        <time>2021-07-06T13:23:40Z</time>
      </trkpt>
      <trkpt lat="43.75659" lon="6.32056">
        <ele>869.5</ele>
        <time>2021-07-06T13:23:42Z</time>
      </trkpt>
      <trkpt lat="43.7567" lon="6.32058">
        <ele>869</ele>
        <time>2021-07-06T13:23:44Z</time>
      </trkpt>
      <trkpt lat="43.7568" lon="6.32062">
        <ele>868</ele>
        <time>2021-07-06T13:23:46Z</time>
      </trkpt>
      <trkpt lat="43.75691" lon="6.32068">
        <ele>866.4</ele>
        <time>2021-07-06T13:23:48Z</time>
      </trkpt>
      <trkpt lat="43.75702" lon="6.32073">
        <ele>865.6</ele>
        <time>2021-07-06T13:23:50Z</time>
      </trkpt>
      <trkpt lat="43.75714" lon="6.32074">
        <ele>863</ele>
        <time>2021-07-06T13:23:52Z</time>
      </trkpt>
      <trkpt lat="43.75724" lon="6.32074">
        <ele>861.9</ele>
        <time>2021-07-06T13:23:54Z</time>
      </trkpt>
      <trkpt lat="43.75733" lon="6.32074">
        <ele>861.4</ele>
        <time>2021-07-06T13:23:56Z</time>
      </trkpt>
      <trkpt lat="43.75744" lon="6.32071">
        <ele>860.4</ele>
        <time>2021-07-06T13:23:59Z</time>
      </trkpt>
      <trkpt lat="43.7575" lon="6.32063">
        <ele>859.9</ele>
        <time>2021-07-06T13:24:01Z</time>
      </trkpt>
      <trkpt lat="43.75754" lon="6.32052">
        <ele>860.5</ele>
        <time>2021-07-06T13:24:04Z</time>
      </trkpt>
      <trkpt lat="43.75753" lon="6.32048">
        <ele>860.5</ele>
        <time>2021-07-06T13:24:11Z</time>
      </trkpt>
      <trkpt lat="43.75753" lon="6.32047">
        <ele>860.8</ele>
        <time>2021-07-06T13:24:14Z</time>
      </trkpt>
      <trkpt lat="43.75754" lon="6.32047">
        <ele>860.4</ele>
        <time>2021-07-06T13:24:32Z</time>
      </trkpt>
      <trkpt lat="43.75754" lon="6.32047">
        <ele>860.4</ele>
        <time>2021-07-06T13:24:33Z</time>
      </trkpt>
      <trkpt lat="43.75754" lon="6.32048">
        <ele>861.4</ele>
        <time>2021-07-06T13:27:21Z</time>
      </trkpt>
      <trkpt lat="43.75754" lon="6.32049">
        <ele>863.8</ele>
        <time>2021-07-06T13:27:28Z</time>
      </trkpt>
      <trkpt lat="43.75754" lon="6.32049">
        <ele>866.4</ele>
        <time>2021-07-06T13:27:32Z</time>
      </trkpt>
      <trkpt lat="43.75753" lon="6.32047">
        <ele>867.7</ele>
        <time>2021-07-06T13:27:41Z</time>
      </trkpt>
      <trkpt lat="43.75753" lon="6.32047">
        <ele>867.5</ele>
        <time>2021-07-06T13:27:42Z</time>
      </trkpt>
      <trkpt lat="43.75752" lon="6.32047">
        <ele>865.3</ele>
        <time>2021-07-06T13:29:17Z</time>
      </trkpt>
      <trkpt lat="43.75752" lon="6.32047">
        <ele>864.8</ele>
        <time>2021-07-06T13:29:18Z</time>
      </trkpt>
      <trkpt lat="43.75754" lon="6.32049">
        <ele>862.4</ele>
        <time>2021-07-06T13:29:25Z</time>
      </trkpt>
      <trkpt lat="43.75754" lon="6.32049">
        <ele>862.3</ele>
        <time>2021-07-06T13:29:27Z</time>
      </trkpt>
      <trkpt lat="43.75755" lon="6.32049">
        <ele>862.3</ele>
        <time>2021-07-06T13:29:52Z</time>
      </trkpt>
      <trkpt lat="43.75756" lon="6.32048">
        <ele>860.5</ele>
        <time>2021-07-06T13:29:58Z</time>
      </trkpt>
      <trkpt lat="43.75761" lon="6.32048">
        <ele>860.2</ele>
        <time>2021-07-06T13:32:34Z</time>
      </trkpt>
      <trkpt lat="43.75768" lon="6.32053">
        <ele>859.9</ele>
        <time>2021-07-06T13:32:38Z</time>
      </trkpt>
      <trkpt lat="43.75776" lon="6.32047">
        <ele>860</ele>
        <time>2021-07-06T13:32:41Z</time>
      </trkpt>
      <trkpt lat="43.75782" lon="6.32041">
        <ele>859.5</ele>
        <time>2021-07-06T13:32:43Z</time>
      </trkpt>
      <trkpt lat="43.75786" lon="6.32032">
        <ele>859</ele>
        <time>2021-07-06T13:32:45Z</time>
      </trkpt>
      <trkpt lat="43.75791" lon="6.32025">
        <ele>858.7</ele>
        <time>2021-07-06T13:32:47Z</time>
      </trkpt>
      <trkpt lat="43.75796" lon="6.32017">
        <ele>858.3</ele>
        <time>2021-07-06T13:32:49Z</time>
      </trkpt>
      <trkpt lat="43.75802" lon="6.32007">
        <ele>856.3</ele>
        <time>2021-07-06T13:32:51Z</time>
      </trkpt>
      <trkpt lat="43.75807" lon="6.31999">
        <ele>855.1</ele>
        <time>2021-07-06T13:32:53Z</time>
      </trkpt>
      <trkpt lat="43.75813" lon="6.31987">
        <ele>854.6</ele>
        <time>2021-07-06T13:32:55Z</time>
      </trkpt>
      <trkpt lat="43.7582" lon="6.3198">
        <ele>854.1</ele>
        <time>2021-07-06T13:32:57Z</time>
      </trkpt>
      <trkpt lat="43.75828" lon="6.31973">
        <ele>853.6</ele>
        <time>2021-07-06T13:32:59Z</time>
      </trkpt>
      <trkpt lat="43.75835" lon="6.31967">
        <ele>852.8</ele>
        <time>2021-07-06T13:33:01Z</time>
      </trkpt>
      <trkpt lat="43.75842" lon="6.31959">
        <ele>852.3</ele>
        <time>2021-07-06T13:33:04Z</time>
      </trkpt>
      <trkpt lat="43.75844" lon="6.31949">
        <ele>852.3</ele>
        <time>2021-07-06T13:33:09Z</time>
      </trkpt>
      <trkpt lat="43.75842" lon="6.31948">
        <ele>853.5</ele>
        <time>2021-07-06T13:33:16Z</time>
      </trkpt>
      <trkpt lat="43.75842" lon="6.31947">
        <ele>851.7</ele>
        <time>2021-07-06T13:33:20Z</time>
      </trkpt>
      <trkpt lat="43.7585" lon="6.31943">
        <ele>850.4</ele>
        <time>2021-07-06T13:33:28Z</time>
      </trkpt>
      <trkpt lat="43.75856" lon="6.31942">
        <ele>850.5</ele>
        <time>2021-07-06T13:33:35Z</time>
      </trkpt>
      <trkpt lat="43.75864" lon="6.31942">
        <ele>850.6</ele>
        <time>2021-07-06T13:33:41Z</time>
      </trkpt>
      <trkpt lat="43.75874" lon="6.31944">
        <ele>849.8</ele>
        <time>2021-07-06T13:33:45Z</time>
      </trkpt>
      <trkpt lat="43.75882" lon="6.31948">
        <ele>848.1</ele>
        <time>2021-07-06T13:33:48Z</time>
      </trkpt>
      <trkpt lat="43.75891" lon="6.31955">
        <ele>847.9</ele>
        <time>2021-07-06T13:33:51Z</time>
      </trkpt>
      <trkpt lat="43.75899" lon="6.31963">
        <ele>848.5</ele>
        <time>2021-07-06T13:33:54Z</time>
      </trkpt>
      <trkpt lat="43.75907" lon="6.31969">
        <ele>848</ele>
        <time>2021-07-06T13:33:57Z</time>
      </trkpt>
      <trkpt lat="43.75915" lon="6.31975">
        <ele>847.1</ele>
        <time>2021-07-06T13:34:00Z</time>
      </trkpt>
      <trkpt lat="43.75922" lon="6.31979">
        <ele>846.9</ele>
        <time>2021-07-06T13:34:03Z</time>
      </trkpt>
      <trkpt lat="43.7593" lon="6.31981">
        <ele>847.1</ele>
        <time>2021-07-06T13:34:06Z</time>
      </trkpt>
      <trkpt lat="43.75938" lon="6.31979">
        <ele>846.9</ele>
        <time>2021-07-06T13:34:09Z</time>
      </trkpt>
      <trkpt lat="43.75946" lon="6.31971">
        <ele>847.4</ele>
        <time>2021-07-06T13:34:12Z</time>
      </trkpt>
      <trkpt lat="43.75951" lon="6.31962">
        <ele>847.2</ele>
        <time>2021-07-06T13:34:15Z</time>
      </trkpt>
      <trkpt lat="43.75958" lon="6.31955">
        <ele>846.9</ele>
        <time>2021-07-06T13:34:18Z</time>
      </trkpt>
      <trkpt lat="43.75964" lon="6.31948">
        <ele>846.5</ele>
        <time>2021-07-06T13:34:21Z</time>
      </trkpt>
      <trkpt lat="43.7597" lon="6.31942">
        <ele>846.5</ele>
        <time>2021-07-06T13:34:24Z</time>
      </trkpt>
      <trkpt lat="43.75977" lon="6.31934">
        <ele>846.4</ele>
        <time>2021-07-06T13:34:28Z</time>
      </trkpt>
      <trkpt lat="43.75983" lon="6.31928">
        <ele>847</ele>
        <time>2021-07-06T13:34:31Z</time>
      </trkpt>
      <trkpt lat="43.75988" lon="6.31918">
        <ele>847.7</ele>
        <time>2021-07-06T13:34:34Z</time>
      </trkpt>
      <trkpt lat="43.75992" lon="6.31907">
        <ele>848.3</ele>
        <time>2021-07-06T13:34:37Z</time>
      </trkpt>
      <trkpt lat="43.75994" lon="6.31893">
        <ele>849</ele>
        <time>2021-07-06T13:34:40Z</time>
      </trkpt>
      <trkpt lat="43.75994" lon="6.31879">
        <ele>849.1</ele>
        <time>2021-07-06T13:34:43Z</time>
      </trkpt>
      <trkpt lat="43.75989" lon="6.3187">
        <ele>848.9</ele>
        <time>2021-07-06T13:34:46Z</time>
      </trkpt>
      <trkpt lat="43.75987" lon="6.3186">
        <ele>849.3</ele>
        <time>2021-07-06T13:34:51Z</time>
      </trkpt>
      <trkpt lat="43.75986" lon="6.3185">
        <ele>849.4</ele>
        <time>2021-07-06T13:34:54Z</time>
      </trkpt>
      <trkpt lat="43.75985" lon="6.31838">
        <ele>848.8</ele>
        <time>2021-07-06T13:34:57Z</time>
      </trkpt>
      <trkpt lat="43.75983" lon="6.31825">
        <ele>849.2</ele>
        <time>2021-07-06T13:35:00Z</time>
      </trkpt>
      <trkpt lat="43.75982" lon="6.31812">
        <ele>848.9</ele>
        <time>2021-07-06T13:35:03Z</time>
      </trkpt>
      <trkpt lat="43.75979" lon="6.31799">
        <ele>849.6</ele>
        <time>2021-07-06T13:35:06Z</time>
      </trkpt>
      <trkpt lat="43.75976" lon="6.31787">
        <ele>849.3</ele>
        <time>2021-07-06T13:35:09Z</time>
      </trkpt>
      <trkpt lat="43.75972" lon="6.31774">
        <ele>849.2</ele>
        <time>2021-07-06T13:35:12Z</time>
      </trkpt>
      <trkpt lat="43.75968" lon="6.31765">
        <ele>849.2</ele>
        <time>2021-07-06T13:35:15Z</time>
      </trkpt>
      <trkpt lat="43.75965" lon="6.31755">
        <ele>849.9</ele>
        <time>2021-07-06T13:35:18Z</time>
      </trkpt>
      <trkpt lat="43.75963" lon="6.31745">
        <ele>850.8</ele>
        <time>2021-07-06T13:35:21Z</time>
      </trkpt>
      <trkpt lat="43.75961" lon="6.31735">
        <ele>851.3</ele>
        <time>2021-07-06T13:35:24Z</time>
      </trkpt>
      <trkpt lat="43.75961" lon="6.31722">
        <ele>852.2</ele>
        <time>2021-07-06T13:35:28Z</time>
      </trkpt>
      <trkpt lat="43.75961" lon="6.31711">
        <ele>853.2</ele>
        <time>2021-07-06T13:35:32Z</time>
      </trkpt>
      <trkpt lat="43.75959" lon="6.31704">
        <ele>853.1</ele>
        <time>2021-07-06T13:35:39Z</time>
      </trkpt>
      <trkpt lat="43.75958" lon="6.31704">
        <ele>853.1</ele>
        <time>2021-07-06T13:35:44Z</time>
      </trkpt>
      <trkpt lat="43.75964" lon="6.31697">
        <ele>851.8</ele>
        <time>2021-07-06T13:36:31Z</time>
      </trkpt>
      <trkpt lat="43.7597" lon="6.31688">
        <ele>852.7</ele>
        <time>2021-07-06T13:36:35Z</time>
      </trkpt>
      <trkpt lat="43.75977" lon="6.3168">
        <ele>853.9</ele>
        <time>2021-07-06T13:36:38Z</time>
      </trkpt>
      <trkpt lat="43.75983" lon="6.3167">
        <ele>854.8</ele>
        <time>2021-07-06T13:36:41Z</time>
      </trkpt>
      <trkpt lat="43.75989" lon="6.3166">
        <ele>855.3</ele>
        <time>2021-07-06T13:36:44Z</time>
      </trkpt>
      <trkpt lat="43.75995" lon="6.3165">
        <ele>855.4</ele>
        <time>2021-07-06T13:36:47Z</time>
      </trkpt>
      <trkpt lat="43.76" lon="6.31641">
        <ele>856.3</ele>
        <time>2021-07-06T13:36:51Z</time>
      </trkpt>
      <trkpt lat="43.75999" lon="6.31641">
        <ele>855.9</ele>
        <time>2021-07-06T13:36:58Z</time>
      </trkpt>
      <trkpt lat="43.75999" lon="6.31641">
        <ele>856.2</ele>
        <time>2021-07-06T13:37:01Z</time>
      </trkpt>
      <trkpt lat="43.76006" lon="6.31631">
        <ele>856.9</ele>
        <time>2021-07-06T13:37:07Z</time>
      </trkpt>
      <trkpt lat="43.7601" lon="6.31622">
        <ele>857.8</ele>
        <time>2021-07-06T13:37:10Z</time>
      </trkpt>
      <trkpt lat="43.76014" lon="6.31612">
        <ele>858.3</ele>
        <time>2021-07-06T13:37:14Z</time>
      </trkpt>
      <trkpt lat="43.76018" lon="6.31604">
        <ele>858.5</ele>
        <time>2021-07-06T13:37:17Z</time>
      </trkpt>
      <trkpt lat="43.76022" lon="6.31596">
        <ele>859</ele>
        <time>2021-07-06T13:37:20Z</time>
      </trkpt>
      <trkpt lat="43.76026" lon="6.31588">
        <ele>859.6</ele>
        <time>2021-07-06T13:37:24Z</time>
      </trkpt>
      <trkpt lat="43.76035" lon="6.31585">
        <ele>859.6</ele>
        <time>2021-07-06T13:37:29Z</time>
      </trkpt>
      <trkpt lat="43.76043" lon="6.31589">
        <ele>859.5</ele>
        <time>2021-07-06T13:37:34Z</time>
      </trkpt>
      <trkpt lat="43.7605" lon="6.31592">
        <ele>859.7</ele>
        <time>2021-07-06T13:37:37Z</time>
      </trkpt>
      <trkpt lat="43.76058" lon="6.31595">
        <ele>857.7</ele>
        <time>2021-07-06T13:37:40Z</time>
      </trkpt>
      <trkpt lat="43.76066" lon="6.31599">
        <ele>858.6</ele>
        <time>2021-07-06T13:37:43Z</time>
      </trkpt>
      <trkpt lat="43.76074" lon="6.31604">
        <ele>858.8</ele>
        <time>2021-07-06T13:37:47Z</time>
      </trkpt>
      <trkpt lat="43.76081" lon="6.31607">
        <ele>857.1</ele>
        <time>2021-07-06T13:37:51Z</time>
      </trkpt>
      <trkpt lat="43.76088" lon="6.31612">
        <ele>856.3</ele>
        <time>2021-07-06T13:37:54Z</time>
      </trkpt>
      <trkpt lat="43.76093" lon="6.31616">
        <ele>856.6</ele>
        <time>2021-07-06T13:38:01Z</time>
      </trkpt>
      <trkpt lat="43.76093" lon="6.31616">
        <ele>856.4</ele>
        <time>2021-07-06T13:38:05Z</time>
      </trkpt>
      <trkpt lat="43.76093" lon="6.31617">
        <ele>856.5</ele>
        <time>2021-07-06T13:38:14Z</time>
      </trkpt>
      <trkpt lat="43.76093" lon="6.31617">
        <ele>856.5</ele>
        <time>2021-07-06T13:38:15Z</time>
      </trkpt>
      <trkpt lat="43.76098" lon="6.31628">
        <ele>857.4</ele>
        <time>2021-07-06T13:38:50Z</time>
      </trkpt>
      <trkpt lat="43.76105" lon="6.31634">
        <ele>857</ele>
        <time>2021-07-06T13:38:53Z</time>
      </trkpt>
      <trkpt lat="43.76112" lon="6.31641">
        <ele>856.9</ele>
        <time>2021-07-06T13:38:56Z</time>
      </trkpt>
      <trkpt lat="43.7612" lon="6.31649">
        <ele>857.2</ele>
        <time>2021-07-06T13:38:59Z</time>
      </trkpt>
      <trkpt lat="43.76127" lon="6.31657">
        <ele>856.8</ele>
        <time>2021-07-06T13:39:02Z</time>
      </trkpt>
      <trkpt lat="43.76135" lon="6.31665">
        <ele>856.5</ele>
        <time>2021-07-06T13:39:05Z</time>
      </trkpt>
      <trkpt lat="43.76144" lon="6.31672">
        <ele>856.2</ele>
        <time>2021-07-06T13:39:08Z</time>
      </trkpt>
      <trkpt lat="43.76152" lon="6.31678">
        <ele>856.4</ele>
        <time>2021-07-06T13:39:11Z</time>
      </trkpt>
      <trkpt lat="43.76161" lon="6.31682">
        <ele>856.1</ele>
        <time>2021-07-06T13:39:14Z</time>
      </trkpt>
      <trkpt lat="43.76171" lon="6.31685">
        <ele>855.7</ele>
        <time>2021-07-06T13:39:17Z</time>
      </trkpt>
      <trkpt lat="43.76181" lon="6.31688">
        <ele>856</ele>
        <time>2021-07-06T13:39:20Z</time>
      </trkpt>
      <trkpt lat="43.7619" lon="6.31689">
        <ele>856.9</ele>
        <time>2021-07-06T13:39:23Z</time>
      </trkpt>
      <trkpt lat="43.76199" lon="6.31689">
        <ele>857.5</ele>
        <time>2021-07-06T13:39:26Z</time>
      </trkpt>
      <trkpt lat="43.76208" lon="6.31687">
        <ele>857.9</ele>
        <time>2021-07-06T13:39:29Z</time>
      </trkpt>
      <trkpt lat="43.76216" lon="6.31682">
        <ele>856.7</ele>
        <time>2021-07-06T13:39:32Z</time>
      </trkpt>
      <trkpt lat="43.76223" lon="6.31675">
        <ele>857.4</ele>
        <time>2021-07-06T13:39:35Z</time>
      </trkpt>
      <trkpt lat="43.7623" lon="6.31668">
        <ele>857.8</ele>
        <time>2021-07-06T13:39:38Z</time>
      </trkpt>
      <trkpt lat="43.76238" lon="6.31662">
        <ele>858.1</ele>
        <time>2021-07-06T13:39:41Z</time>
      </trkpt>
      <trkpt lat="43.76246" lon="6.31658">
        <ele>857.2</ele>
        <time>2021-07-06T13:39:44Z</time>
      </trkpt>
      <trkpt lat="43.76254" lon="6.31658">
        <ele>856.8</ele>
        <time>2021-07-06T13:39:47Z</time>
      </trkpt>
      <trkpt lat="43.76262" lon="6.31662">
        <ele>856.2</ele>
        <time>2021-07-06T13:39:50Z</time>
      </trkpt>
      <trkpt lat="43.76269" lon="6.31669">
        <ele>855.7</ele>
        <time>2021-07-06T13:39:53Z</time>
      </trkpt>
      <trkpt lat="43.76275" lon="6.31677">
        <ele>856.3</ele>
        <time>2021-07-06T13:39:57Z</time>
      </trkpt>
      <trkpt lat="43.76281" lon="6.31682">
        <ele>856.4</ele>
        <time>2021-07-06T13:40:02Z</time>
      </trkpt>
      <trkpt lat="43.76284" lon="6.31694">
        <ele>857.3</ele>
        <time>2021-07-06T13:40:06Z</time>
      </trkpt>
      <trkpt lat="43.76286" lon="6.31706">
        <ele>856.9</ele>
        <time>2021-07-06T13:40:09Z</time>
      </trkpt>
      <trkpt lat="43.76288" lon="6.31717">
        <ele>859.6</ele>
        <time>2021-07-06T13:40:12Z</time>
      </trkpt>
      <trkpt lat="43.76294" lon="6.3173">
        <ele>858.3</ele>
        <time>2021-07-06T13:40:15Z</time>
      </trkpt>
      <trkpt lat="43.763" lon="6.31738">
        <ele>858.6</ele>
        <time>2021-07-06T13:40:17Z</time>
      </trkpt>
      <trkpt lat="43.76306" lon="6.31747">
        <ele>858.4</ele>
        <time>2021-07-06T13:40:19Z</time>
      </trkpt>
      <trkpt lat="43.76314" lon="6.31753">
        <ele>857.7</ele>
        <time>2021-07-06T13:40:21Z</time>
      </trkpt>
      <trkpt lat="43.7632" lon="6.31759">
        <ele>858.2</ele>
        <time>2021-07-06T13:40:23Z</time>
      </trkpt>
      <trkpt lat="43.76329" lon="6.31765">
        <ele>859.2</ele>
        <time>2021-07-06T13:40:26Z</time>
      </trkpt>
      <trkpt lat="43.76336" lon="6.31767">
        <ele>858.6</ele>
        <time>2021-07-06T13:40:28Z</time>
      </trkpt>
      <trkpt lat="43.76346" lon="6.3177">
        <ele>858.9</ele>
        <time>2021-07-06T13:40:31Z</time>
      </trkpt>
      <trkpt lat="43.76354" lon="6.31773">
        <ele>859.4</ele>
        <time>2021-07-06T13:40:34Z</time>
      </trkpt>
      <trkpt lat="43.76363" lon="6.31777">
        <ele>859.5</ele>
        <time>2021-07-06T13:40:37Z</time>
      </trkpt>
      <trkpt lat="43.76373" lon="6.31784">
        <ele>860.5</ele>
        <time>2021-07-06T13:40:40Z</time>
      </trkpt>
      <trkpt lat="43.76379" lon="6.3179">
        <ele>859.2</ele>
        <time>2021-07-06T13:40:42Z</time>
      </trkpt>
      <trkpt lat="43.76387" lon="6.31799">
        <ele>858.8</ele>
        <time>2021-07-06T13:40:45Z</time>
      </trkpt>
      <trkpt lat="43.76394" lon="6.31808">
        <ele>858.8</ele>
        <time>2021-07-06T13:40:48Z</time>
      </trkpt>
      <trkpt lat="43.764" lon="6.31817">
        <ele>860.3</ele>
        <time>2021-07-06T13:40:51Z</time>
      </trkpt>
      <trkpt lat="43.76406" lon="6.31825">
        <ele>861.4</ele>
        <time>2021-07-06T13:40:54Z</time>
      </trkpt>
      <trkpt lat="43.76411" lon="6.31834">
        <ele>862.1</ele>
        <time>2021-07-06T13:40:57Z</time>
      </trkpt>
      <trkpt lat="43.76414" lon="6.31844">
        <ele>862.5</ele>
        <time>2021-07-06T13:41:00Z</time>
      </trkpt>
      <trkpt lat="43.76418" lon="6.31852">
        <ele>862.9</ele>
        <time>2021-07-06T13:41:03Z</time>
      </trkpt>
      <trkpt lat="43.76423" lon="6.31864">
        <ele>865.1</ele>
        <time>2021-07-06T13:41:07Z</time>
      </trkpt>
      <trkpt lat="43.76428" lon="6.31875">
        <ele>864</ele>
        <time>2021-07-06T13:41:10Z</time>
      </trkpt>
      <trkpt lat="43.76432" lon="6.31883">
        <ele>862.2</ele>
        <time>2021-07-06T13:41:12Z</time>
      </trkpt>
      <trkpt lat="43.7644" lon="6.31892">
        <ele>862.2</ele>
        <time>2021-07-06T13:41:15Z</time>
      </trkpt>
      <trkpt lat="43.76447" lon="6.31899">
        <ele>863.4</ele>
        <time>2021-07-06T13:41:18Z</time>
      </trkpt>
      <trkpt lat="43.76456" lon="6.31907">
        <ele>864.4</ele>
        <time>2021-07-06T13:41:21Z</time>
      </trkpt>
      <trkpt lat="43.76462" lon="6.31913">
        <ele>864.3</ele>
        <time>2021-07-06T13:41:23Z</time>
      </trkpt>
      <trkpt lat="43.7647" lon="6.31922">
        <ele>864.7</ele>
        <time>2021-07-06T13:41:26Z</time>
      </trkpt>
      <trkpt lat="43.76475" lon="6.31931">
        <ele>867.4</ele>
        <time>2021-07-06T13:41:29Z</time>
      </trkpt>
      <trkpt lat="43.7648" lon="6.31941">
        <ele>868.1</ele>
        <time>2021-07-06T13:41:32Z</time>
      </trkpt>
      <trkpt lat="43.76484" lon="6.31951">
        <ele>869.6</ele>
        <time>2021-07-06T13:41:35Z</time>
      </trkpt>
      <trkpt lat="43.76487" lon="6.3196">
        <ele>868.4</ele>
        <time>2021-07-06T13:41:38Z</time>
      </trkpt>
      <trkpt lat="43.7649" lon="6.31972">
        <ele>869.8</ele>
        <time>2021-07-06T13:41:41Z</time>
      </trkpt>
      <trkpt lat="43.76492" lon="6.31982">
        <ele>868.6</ele>
        <time>2021-07-06T13:41:43Z</time>
      </trkpt>
      <trkpt lat="43.76495" lon="6.31994">
        <ele>869.1</ele>
        <time>2021-07-06T13:41:46Z</time>
      </trkpt>
      <trkpt lat="43.76499" lon="6.32004">
        <ele>869.3</ele>
        <time>2021-07-06T13:41:49Z</time>
      </trkpt>
      <trkpt lat="43.76505" lon="6.32014">
        <ele>869.9</ele>
        <time>2021-07-06T13:41:52Z</time>
      </trkpt>
      <trkpt lat="43.76512" lon="6.32023">
        <ele>870.2</ele>
        <time>2021-07-06T13:41:55Z</time>
      </trkpt>
      <trkpt lat="43.76519" lon="6.32034">
        <ele>869.3</ele>
        <time>2021-07-06T13:41:58Z</time>
      </trkpt>
      <trkpt lat="43.76526" lon="6.32044">
        <ele>870.2</ele>
        <time>2021-07-06T13:42:01Z</time>
      </trkpt>
      <trkpt lat="43.76533" lon="6.32054">
        <ele>870.6</ele>
        <time>2021-07-06T13:42:04Z</time>
      </trkpt>
      <trkpt lat="43.76539" lon="6.32064">
        <ele>870.8</ele>
        <time>2021-07-06T13:42:07Z</time>
      </trkpt>
      <trkpt lat="43.76545" lon="6.32075">
        <ele>871.7</ele>
        <time>2021-07-06T13:42:10Z</time>
      </trkpt>
      <trkpt lat="43.76552" lon="6.32085">
        <ele>870.7</ele>
        <time>2021-07-06T13:42:13Z</time>
      </trkpt>
      <trkpt lat="43.76558" lon="6.32095">
        <ele>871.5</ele>
        <time>2021-07-06T13:42:16Z</time>
      </trkpt>
      <trkpt lat="43.76565" lon="6.32106">
        <ele>870.9</ele>
        <time>2021-07-06T13:42:19Z</time>
      </trkpt>
      <trkpt lat="43.76572" lon="6.32116">
        <ele>870.8</ele>
        <time>2021-07-06T13:42:22Z</time>
      </trkpt>
      <trkpt lat="43.76578" lon="6.32127">
        <ele>870.3</ele>
        <time>2021-07-06T13:42:25Z</time>
      </trkpt>
      <trkpt lat="43.76583" lon="6.32136">
        <ele>869.2</ele>
        <time>2021-07-06T13:42:27Z</time>
      </trkpt>
      <trkpt lat="43.76588" lon="6.32145">
        <ele>868</ele>
        <time>2021-07-06T13:42:29Z</time>
      </trkpt>
      <trkpt lat="43.76593" lon="6.32152">
        <ele>867.7</ele>
        <time>2021-07-06T13:42:31Z</time>
      </trkpt>
      <trkpt lat="43.76598" lon="6.32161">
        <ele>867</ele>
        <time>2021-07-06T13:42:33Z</time>
      </trkpt>
      <trkpt lat="43.76602" lon="6.32169">
        <ele>866.5</ele>
        <time>2021-07-06T13:42:35Z</time>
      </trkpt>
      <trkpt lat="43.76608" lon="6.3218">
        <ele>868.9</ele>
        <time>2021-07-06T13:42:38Z</time>
      </trkpt>
      <trkpt lat="43.76613" lon="6.32193">
        <ele>868.6</ele>
        <time>2021-07-06T13:42:41Z</time>
      </trkpt>
      <trkpt lat="43.76618" lon="6.32204">
        <ele>870.6</ele>
        <time>2021-07-06T13:42:44Z</time>
      </trkpt>
      <trkpt lat="43.76622" lon="6.32215">
        <ele>872.6</ele>
        <time>2021-07-06T13:42:47Z</time>
      </trkpt>
      <trkpt lat="43.76627" lon="6.32227">
        <ele>874</ele>
        <time>2021-07-06T13:42:50Z</time>
      </trkpt>
      <trkpt lat="43.7663" lon="6.32238">
        <ele>873.2</ele>
        <time>2021-07-06T13:42:52Z</time>
      </trkpt>
      <trkpt lat="43.76633" lon="6.32249">
        <ele>873.6</ele>
        <time>2021-07-06T13:42:54Z</time>
      </trkpt>
      <trkpt lat="43.76637" lon="6.32261">
        <ele>876.8</ele>
        <time>2021-07-06T13:42:57Z</time>
      </trkpt>
      <trkpt lat="43.76641" lon="6.32274">
        <ele>880</ele>
        <time>2021-07-06T13:43:00Z</time>
      </trkpt>
      <trkpt lat="43.76644" lon="6.32284">
        <ele>879.9</ele>
        <time>2021-07-06T13:43:03Z</time>
      </trkpt>
      <trkpt lat="43.7665" lon="6.32296">
        <ele>885.4</ele>
        <time>2021-07-06T13:43:07Z</time>
      </trkpt>
      <trkpt lat="43.76655" lon="6.32307">
        <ele>887</ele>
        <time>2021-07-06T13:43:10Z</time>
      </trkpt>
      <trkpt lat="43.7666" lon="6.32319">
        <ele>890.5</ele>
        <time>2021-07-06T13:43:13Z</time>
      </trkpt>
      <trkpt lat="43.76664" lon="6.32327">
        <ele>892.8</ele>
        <time>2021-07-06T13:43:15Z</time>
      </trkpt>
      <trkpt lat="43.76669" lon="6.32337">
        <ele>891.9</ele>
        <time>2021-07-06T13:43:17Z</time>
      </trkpt>
      <trkpt lat="43.76674" lon="6.32346">
        <ele>892.6</ele>
        <time>2021-07-06T13:43:19Z</time>
      </trkpt>
      <trkpt lat="43.76679" lon="6.32357">
        <ele>890.5</ele>
        <time>2021-07-06T13:43:21Z</time>
      </trkpt>
      <trkpt lat="43.76684" lon="6.32367">
        <ele>892</ele>
        <time>2021-07-06T13:43:23Z</time>
      </trkpt>
      <trkpt lat="43.76689" lon="6.32376">
        <ele>892.6</ele>
        <time>2021-07-06T13:43:25Z</time>
      </trkpt>
      <trkpt lat="43.76693" lon="6.32384">
        <ele>889.7</ele>
        <time>2021-07-06T13:43:27Z</time>
      </trkpt>
      <trkpt lat="43.76699" lon="6.32394">
        <ele>887.1</ele>
        <time>2021-07-06T13:43:29Z</time>
      </trkpt>
      <trkpt lat="43.76705" lon="6.32404">
        <ele>886.5</ele>
        <time>2021-07-06T13:43:31Z</time>
      </trkpt>
      <trkpt lat="43.76711" lon="6.32415">
        <ele>885.9</ele>
        <time>2021-07-06T13:43:33Z</time>
      </trkpt>
      <trkpt lat="43.76716" lon="6.32426">
        <ele>885.5</ele>
        <time>2021-07-06T13:43:35Z</time>
      </trkpt>
      <trkpt lat="43.7672" lon="6.32437">
        <ele>886.6</ele>
        <time>2021-07-06T13:43:37Z</time>
      </trkpt>
      <trkpt lat="43.76723" lon="6.32448">
        <ele>886.4</ele>
        <time>2021-07-06T13:43:39Z</time>
      </trkpt>
      <trkpt lat="43.76725" lon="6.3246">
        <ele>886.5</ele>
        <time>2021-07-06T13:43:41Z</time>
      </trkpt>
      <trkpt lat="43.76727" lon="6.3247">
        <ele>887.3</ele>
        <time>2021-07-06T13:43:43Z</time>
      </trkpt>
      <trkpt lat="43.76731" lon="6.32484">
        <ele>888.3</ele>
        <time>2021-07-06T13:43:46Z</time>
      </trkpt>
      <trkpt lat="43.76735" lon="6.32493">
        <ele>889</ele>
        <time>2021-07-06T13:43:48Z</time>
      </trkpt>
      <trkpt lat="43.76741" lon="6.32501">
        <ele>889.8</ele>
        <time>2021-07-06T13:43:50Z</time>
      </trkpt>
      <trkpt lat="43.76748" lon="6.3251">
        <ele>889.5</ele>
        <time>2021-07-06T13:43:53Z</time>
      </trkpt>
      <trkpt lat="43.76753" lon="6.32519">
        <ele>889.7</ele>
        <time>2021-07-06T13:43:55Z</time>
      </trkpt>
      <trkpt lat="43.76757" lon="6.32528">
        <ele>889.4</ele>
        <time>2021-07-06T13:43:57Z</time>
      </trkpt>
      <trkpt lat="43.76761" lon="6.32537">
        <ele>889</ele>
        <time>2021-07-06T13:43:59Z</time>
      </trkpt>
      <trkpt lat="43.76764" lon="6.32546">
        <ele>888.9</ele>
        <time>2021-07-06T13:44:01Z</time>
      </trkpt>
      <trkpt lat="43.76767" lon="6.32557">
        <ele>887.5</ele>
        <time>2021-07-06T13:44:03Z</time>
      </trkpt>
      <trkpt lat="43.76767" lon="6.32567">
        <ele>889.8</ele>
        <time>2021-07-06T13:44:05Z</time>
      </trkpt>
      <trkpt lat="43.76767" lon="6.3258">
        <ele>890</ele>
        <time>2021-07-06T13:44:07Z</time>
      </trkpt>
      <trkpt lat="43.76767" lon="6.32592">
        <ele>888.3</ele>
        <time>2021-07-06T13:44:09Z</time>
      </trkpt>
      <trkpt lat="43.76766" lon="6.32603">
        <ele>888</ele>
        <time>2021-07-06T13:44:11Z</time>
      </trkpt>
      <trkpt lat="43.76766" lon="6.32614">
        <ele>888.1</ele>
        <time>2021-07-06T13:44:13Z</time>
      </trkpt>
      <trkpt lat="43.76766" lon="6.32625">
        <ele>887.6</ele>
        <time>2021-07-06T13:44:15Z</time>
      </trkpt>
      <trkpt lat="43.76766" lon="6.32636">
        <ele>889.4</ele>
        <time>2021-07-06T13:44:17Z</time>
      </trkpt>
      <trkpt lat="43.76768" lon="6.32647">
        <ele>890.6</ele>
        <time>2021-07-06T13:44:19Z</time>
      </trkpt>
      <trkpt lat="43.76771" lon="6.32658">
        <ele>890.4</ele>
        <time>2021-07-06T13:44:21Z</time>
      </trkpt>
      <trkpt lat="43.76775" lon="6.32668">
        <ele>892.9</ele>
        <time>2021-07-06T13:44:23Z</time>
      </trkpt>
      <trkpt lat="43.76778" lon="6.32677">
        <ele>891.5</ele>
        <time>2021-07-06T13:44:25Z</time>
      </trkpt>
      <trkpt lat="43.76782" lon="6.32685">
        <ele>892.7</ele>
        <time>2021-07-06T13:44:28Z</time>
      </trkpt>
      <trkpt lat="43.76787" lon="6.32693">
        <ele>898.6</ele>
        <time>2021-07-06T13:44:32Z</time>
      </trkpt>
      <trkpt lat="43.76789" lon="6.32705">
        <ele>902.6</ele>
        <time>2021-07-06T13:44:35Z</time>
      </trkpt>
      <trkpt lat="43.76788" lon="6.32719">
        <ele>902.8</ele>
        <time>2021-07-06T13:44:38Z</time>
      </trkpt>
      <trkpt lat="43.76783" lon="6.32733">
        <ele>899.5</ele>
        <time>2021-07-06T13:44:41Z</time>
      </trkpt>
      <trkpt lat="43.76778" lon="6.32742">
        <ele>901</ele>
        <time>2021-07-06T13:44:43Z</time>
      </trkpt>
      <trkpt lat="43.76774" lon="6.32751">
        <ele>899.8</ele>
        <time>2021-07-06T13:44:45Z</time>
      </trkpt>
      <trkpt lat="43.76772" lon="6.32761">
        <ele>899</ele>
        <time>2021-07-06T13:44:47Z</time>
      </trkpt>
      <trkpt lat="43.76772" lon="6.32772">
        <ele>901.8</ele>
        <time>2021-07-06T13:44:49Z</time>
      </trkpt>
      <trkpt lat="43.76773" lon="6.32783">
        <ele>904.9</ele>
        <time>2021-07-06T13:44:52Z</time>
      </trkpt>
      <trkpt lat="43.76781" lon="6.32793">
        <ele>903.8</ele>
        <time>2021-07-06T13:44:55Z</time>
      </trkpt>
      <trkpt lat="43.76789" lon="6.32798">
        <ele>1078</ele>
        <time>2021-07-06T13:44:57Z</time>
      </trkpt>
      <trkpt lat="43.76796" lon="6.32798">
        <ele>984.3</ele>
        <time>2021-07-06T13:44:59Z</time>
      </trkpt>
      <trkpt lat="43.76804" lon="6.32792">
        <ele>934.4</ele>
        <time>2021-07-06T13:45:02Z</time>
      </trkpt>
      <trkpt lat="43.7681" lon="6.32783">
        <ele>919</ele>
        <time>2021-07-06T13:45:05Z</time>
      </trkpt>
      <trkpt lat="43.76816" lon="6.32773">
        <ele>911.9</ele>
        <time>2021-07-06T13:45:08Z</time>
      </trkpt>
      <trkpt lat="43.7682" lon="6.32762">
        <ele>907.6</ele>
        <time>2021-07-06T13:45:11Z</time>
      </trkpt>
      <trkpt lat="43.76824" lon="6.3275">
        <ele>906</ele>
        <time>2021-07-06T13:45:14Z</time>
      </trkpt>
      <trkpt lat="43.76832" lon="6.32743">
        <ele>901.8</ele>
        <time>2021-07-06T13:45:17Z</time>
      </trkpt>
      <trkpt lat="43.76842" lon="6.32747">
        <ele>900.6</ele>
        <time>2021-07-06T13:45:20Z</time>
      </trkpt>
      <trkpt lat="43.76844" lon="6.32757">
        <ele>899.9</ele>
        <time>2021-07-06T13:45:22Z</time>
      </trkpt>
      <trkpt lat="43.7684" lon="6.32767">
        <ele>899.9</ele>
        <time>2021-07-06T13:45:24Z</time>
      </trkpt>
      <trkpt lat="43.76834" lon="6.32778">
        <ele>902.3</ele>
        <time>2021-07-06T13:45:27Z</time>
      </trkpt>
      <trkpt lat="43.76829" lon="6.32789">
        <ele>905.8</ele>
        <time>2021-07-06T13:45:30Z</time>
      </trkpt>
      <trkpt lat="43.76826" lon="6.32798">
        <ele>906.4</ele>
        <time>2021-07-06T13:45:32Z</time>
      </trkpt>
      <trkpt lat="43.76823" lon="6.32809">
        <ele>907.8</ele>
        <time>2021-07-06T13:45:35Z</time>
      </trkpt>
      <trkpt lat="43.7682" lon="6.32821">
        <ele>910.5</ele>
        <time>2021-07-06T13:45:38Z</time>
      </trkpt>
      <trkpt lat="43.76815" lon="6.32834">
        <ele>911.9</ele>
        <time>2021-07-06T13:45:41Z</time>
      </trkpt>
      <trkpt lat="43.76812" lon="6.32848">
        <ele>912.8</ele>
        <time>2021-07-06T13:45:44Z</time>
      </trkpt>
      <trkpt lat="43.76809" lon="6.32862">
        <ele>912.6</ele>
        <time>2021-07-06T13:45:47Z</time>
      </trkpt>
      <trkpt lat="43.76807" lon="6.32871">
        <ele>911.8</ele>
        <time>2021-07-06T13:45:49Z</time>
      </trkpt>
      <trkpt lat="43.76805" lon="6.32883">
        <ele>913.7</ele>
        <time>2021-07-06T13:45:52Z</time>
      </trkpt>
      <trkpt lat="43.76805" lon="6.32895">
        <ele>915.9</ele>
        <time>2021-07-06T13:45:55Z</time>
      </trkpt>
      <trkpt lat="43.76805" lon="6.32905">
        <ele>919.2</ele>
        <time>2021-07-06T13:45:58Z</time>
      </trkpt>
      <trkpt lat="43.76806" lon="6.32918">
        <ele>919.5</ele>
        <time>2021-07-06T13:46:01Z</time>
      </trkpt>
      <trkpt lat="43.76808" lon="6.32932">
        <ele>919.8</ele>
        <time>2021-07-06T13:46:04Z</time>
      </trkpt>
      <trkpt lat="43.76811" lon="6.32946">
        <ele>915.4</ele>
        <time>2021-07-06T13:46:07Z</time>
      </trkpt>
      <trkpt lat="43.76814" lon="6.32957">
        <ele>913.1</ele>
        <time>2021-07-06T13:46:10Z</time>
      </trkpt>
      <trkpt lat="43.76818" lon="6.3297">
        <ele>914.1</ele>
        <time>2021-07-06T13:46:13Z</time>
      </trkpt>
      <trkpt lat="43.76822" lon="6.32978">
        <ele>914.6</ele>
        <time>2021-07-06T13:46:15Z</time>
      </trkpt>
      <trkpt lat="43.76827" lon="6.32987">
        <ele>914.5</ele>
        <time>2021-07-06T13:46:17Z</time>
      </trkpt>
      <trkpt lat="43.76834" lon="6.32993">
        <ele>913.8</ele>
        <time>2021-07-06T13:46:19Z</time>
      </trkpt>
      <trkpt lat="43.76841" lon="6.32999">
        <ele>913.5</ele>
        <time>2021-07-06T13:46:21Z</time>
      </trkpt>
      <trkpt lat="43.7685" lon="6.33005">
        <ele>913.1</ele>
        <time>2021-07-06T13:46:24Z</time>
      </trkpt>
      <trkpt lat="43.76857" lon="6.33011">
        <ele>913.1</ele>
        <time>2021-07-06T13:46:26Z</time>
      </trkpt>
      <trkpt lat="43.76863" lon="6.33019">
        <ele>913.8</ele>
        <time>2021-07-06T13:46:28Z</time>
      </trkpt>
      <trkpt lat="43.76868" lon="6.33027">
        <ele>913.5</ele>
        <time>2021-07-06T13:46:30Z</time>
      </trkpt>
      <trkpt lat="43.76874" lon="6.33036">
        <ele>913.1</ele>
        <time>2021-07-06T13:46:32Z</time>
      </trkpt>
      <trkpt lat="43.7688" lon="6.33043">
        <ele>914.2</ele>
        <time>2021-07-06T13:46:34Z</time>
      </trkpt>
      <trkpt lat="43.76887" lon="6.33049">
        <ele>912.8</ele>
        <time>2021-07-06T13:46:36Z</time>
      </trkpt>
      <trkpt lat="43.76894" lon="6.33054">
        <ele>913.1</ele>
        <time>2021-07-06T13:46:38Z</time>
      </trkpt>
      <trkpt lat="43.76903" lon="6.33057">
        <ele>913</ele>
        <time>2021-07-06T13:46:40Z</time>
      </trkpt>
      <trkpt lat="43.7691" lon="6.33059">
        <ele>914</ele>
        <time>2021-07-06T13:46:42Z</time>
      </trkpt>
      <trkpt lat="43.76917" lon="6.33061">
        <ele>914.6</ele>
        <time>2021-07-06T13:46:44Z</time>
      </trkpt>
      <trkpt lat="43.76924" lon="6.33064">
        <ele>915.9</ele>
        <time>2021-07-06T13:46:46Z</time>
      </trkpt>
      <trkpt lat="43.76932" lon="6.33069">
        <ele>917.3</ele>
        <time>2021-07-06T13:46:48Z</time>
      </trkpt>
      <trkpt lat="43.7694" lon="6.33074">
        <ele>916.5</ele>
        <time>2021-07-06T13:46:50Z</time>
      </trkpt>
      <trkpt lat="43.76948" lon="6.33078">
        <ele>917.2</ele>
        <time>2021-07-06T13:46:52Z</time>
      </trkpt>
      <trkpt lat="43.76955" lon="6.33083">
        <ele>916.5</ele>
        <time>2021-07-06T13:46:54Z</time>
      </trkpt>
      <trkpt lat="43.76961" lon="6.3309">
        <ele>916.5</ele>
        <time>2021-07-06T13:46:56Z</time>
      </trkpt>
      <trkpt lat="43.76967" lon="6.33097">
        <ele>916.4</ele>
        <time>2021-07-06T13:46:58Z</time>
      </trkpt>
      <trkpt lat="43.76973" lon="6.33104">
        <ele>916.9</ele>
        <time>2021-07-06T13:47:00Z</time>
      </trkpt>
      <trkpt lat="43.76978" lon="6.33112">
        <ele>917.2</ele>
        <time>2021-07-06T13:47:02Z</time>
      </trkpt>
      <trkpt lat="43.76983" lon="6.33119">
        <ele>917.5</ele>
        <time>2021-07-06T13:47:04Z</time>
      </trkpt>
      <trkpt lat="43.76988" lon="6.33127">
        <ele>918.3</ele>
        <time>2021-07-06T13:47:06Z</time>
      </trkpt>
      <trkpt lat="43.76993" lon="6.33134">
        <ele>919.2</ele>
        <time>2021-07-06T13:47:08Z</time>
      </trkpt>
      <trkpt lat="43.76999" lon="6.33142">
        <ele>920.2</ele>
        <time>2021-07-06T13:47:10Z</time>
      </trkpt>
      <trkpt lat="43.77004" lon="6.33149">
        <ele>921</ele>
        <time>2021-07-06T13:47:12Z</time>
      </trkpt>
      <trkpt lat="43.7701" lon="6.33156">
        <ele>921.2</ele>
        <time>2021-07-06T13:47:14Z</time>
      </trkpt>
      <trkpt lat="43.77015" lon="6.33164">
        <ele>921.5</ele>
        <time>2021-07-06T13:47:16Z</time>
      </trkpt>
      <trkpt lat="43.77021" lon="6.33172">
        <ele>921.6</ele>
        <time>2021-07-06T13:47:18Z</time>
      </trkpt>
      <trkpt lat="43.77026" lon="6.33179">
        <ele>922.3</ele>
        <time>2021-07-06T13:47:20Z</time>
      </trkpt>
      <trkpt lat="43.77031" lon="6.33186">
        <ele>922.5</ele>
        <time>2021-07-06T13:47:22Z</time>
      </trkpt>
      <trkpt lat="43.77037" lon="6.33194">
        <ele>923.7</ele>
        <time>2021-07-06T13:47:24Z</time>
      </trkpt>
      <trkpt lat="43.77044" lon="6.33205">
        <ele>925.8</ele>
        <time>2021-07-06T13:47:27Z</time>
      </trkpt>
      <trkpt lat="43.77049" lon="6.33213">
        <ele>925</ele>
        <time>2021-07-06T13:47:29Z</time>
      </trkpt>
      <trkpt lat="43.77054" lon="6.33222">
        <ele>925.1</ele>
        <time>2021-07-06T13:47:31Z</time>
      </trkpt>
      <trkpt lat="43.77059" lon="6.33231">
        <ele>924.7</ele>
        <time>2021-07-06T13:47:33Z</time>
      </trkpt>
      <trkpt lat="43.77063" lon="6.3324">
        <ele>925.3</ele>
        <time>2021-07-06T13:47:35Z</time>
      </trkpt>
      <trkpt lat="43.77068" lon="6.33248">
        <ele>926.1</ele>
        <time>2021-07-06T13:47:37Z</time>
      </trkpt>
      <trkpt lat="43.77072" lon="6.33256">
        <ele>926.7</ele>
        <time>2021-07-06T13:47:39Z</time>
      </trkpt>
      <trkpt lat="43.77077" lon="6.33265">
        <ele>926.7</ele>
        <time>2021-07-06T13:47:41Z</time>
      </trkpt>
      <trkpt lat="43.77082" lon="6.33274">
        <ele>926.9</ele>
        <time>2021-07-06T13:47:43Z</time>
      </trkpt>
      <trkpt lat="43.77087" lon="6.33282">
        <ele>927.6</ele>
        <time>2021-07-06T13:47:45Z</time>
      </trkpt>
      <trkpt lat="43.77093" lon="6.3329">
        <ele>928.1</ele>
        <time>2021-07-06T13:47:47Z</time>
      </trkpt>
      <trkpt lat="43.77098" lon="6.33297">
        <ele>928.4</ele>
        <time>2021-07-06T13:47:49Z</time>
      </trkpt>
      <trkpt lat="43.77103" lon="6.33305">
        <ele>928.4</ele>
        <time>2021-07-06T13:47:51Z</time>
      </trkpt>
      <trkpt lat="43.77109" lon="6.33313">
        <ele>928.9</ele>
        <time>2021-07-06T13:47:53Z</time>
      </trkpt>
      <trkpt lat="43.77114" lon="6.33323">
        <ele>928.9</ele>
        <time>2021-07-06T13:47:55Z</time>
      </trkpt>
      <trkpt lat="43.77118" lon="6.33333">
        <ele>929.2</ele>
        <time>2021-07-06T13:47:57Z</time>
      </trkpt>
      <trkpt lat="43.77121" lon="6.33342">
        <ele>930.7</ele>
        <time>2021-07-06T13:47:59Z</time>
      </trkpt>
      <trkpt lat="43.77125" lon="6.33352">
        <ele>931.5</ele>
        <time>2021-07-06T13:48:01Z</time>
      </trkpt>
      <trkpt lat="43.77129" lon="6.33361">
        <ele>932</ele>
        <time>2021-07-06T13:48:03Z</time>
      </trkpt>
      <trkpt lat="43.77133" lon="6.33372">
        <ele>932.8</ele>
        <time>2021-07-06T13:48:05Z</time>
      </trkpt>
      <trkpt lat="43.77136" lon="6.33383">
        <ele>933</ele>
        <time>2021-07-06T13:48:07Z</time>
      </trkpt>
      <trkpt lat="43.77137" lon="6.33395">
        <ele>933.5</ele>
        <time>2021-07-06T13:48:09Z</time>
      </trkpt>
      <trkpt lat="43.77138" lon="6.33407">
        <ele>931.6</ele>
        <time>2021-07-06T13:48:11Z</time>
      </trkpt>
      <trkpt lat="43.77139" lon="6.33419">
        <ele>932.6</ele>
        <time>2021-07-06T13:48:13Z</time>
      </trkpt>
      <trkpt lat="43.77141" lon="6.3343">
        <ele>934</ele>
        <time>2021-07-06T13:48:15Z</time>
      </trkpt>
      <trkpt lat="43.77145" lon="6.33439">
        <ele>934.8</ele>
        <time>2021-07-06T13:48:17Z</time>
      </trkpt>
      <trkpt lat="43.77151" lon="6.33448">
        <ele>934.7</ele>
        <time>2021-07-06T13:48:19Z</time>
      </trkpt>
      <trkpt lat="43.77158" lon="6.33455">
        <ele>934.3</ele>
        <time>2021-07-06T13:48:21Z</time>
      </trkpt>
      <trkpt lat="43.77166" lon="6.33459">
        <ele>934.8</ele>
        <time>2021-07-06T13:48:23Z</time>
      </trkpt>
      <trkpt lat="43.77174" lon="6.33463">
        <ele>934.4</ele>
        <time>2021-07-06T13:48:25Z</time>
      </trkpt>
      <trkpt lat="43.77182" lon="6.33466">
        <ele>935.2</ele>
        <time>2021-07-06T13:48:27Z</time>
      </trkpt>
      <trkpt lat="43.7719" lon="6.33471">
        <ele>935.7</ele>
        <time>2021-07-06T13:48:29Z</time>
      </trkpt>
      <trkpt lat="43.77197" lon="6.33477">
        <ele>936</ele>
        <time>2021-07-06T13:48:31Z</time>
      </trkpt>
      <trkpt lat="43.77203" lon="6.33486">
        <ele>936.3</ele>
        <time>2021-07-06T13:48:33Z</time>
      </trkpt>
      <trkpt lat="43.77208" lon="6.33496">
        <ele>937.2</ele>
        <time>2021-07-06T13:48:35Z</time>
      </trkpt>
      <trkpt lat="43.77212" lon="6.33506">
        <ele>938.1</ele>
        <time>2021-07-06T13:48:37Z</time>
      </trkpt>
      <trkpt lat="43.77216" lon="6.33517">
        <ele>938.4</ele>
        <time>2021-07-06T13:48:39Z</time>
      </trkpt>
      <trkpt lat="43.77219" lon="6.33528">
        <ele>939.1</ele>
        <time>2021-07-06T13:48:41Z</time>
      </trkpt>
      <trkpt lat="43.77221" lon="6.33539">
        <ele>939.3</ele>
        <time>2021-07-06T13:48:43Z</time>
      </trkpt>
      <trkpt lat="43.77225" lon="6.3355">
        <ele>939.5</ele>
        <time>2021-07-06T13:48:45Z</time>
      </trkpt>
      <trkpt lat="43.77227" lon="6.33561">
        <ele>940.7</ele>
        <time>2021-07-06T13:48:47Z</time>
      </trkpt>
      <trkpt lat="43.77229" lon="6.33571">
        <ele>940.1</ele>
        <time>2021-07-06T13:48:49Z</time>
      </trkpt>
      <trkpt lat="43.77232" lon="6.33581">
        <ele>941</ele>
        <time>2021-07-06T13:48:51Z</time>
      </trkpt>
      <trkpt lat="43.77235" lon="6.33591">
        <ele>939.9</ele>
        <time>2021-07-06T13:48:53Z</time>
      </trkpt>
      <trkpt lat="43.77239" lon="6.33599">
        <ele>939.7</ele>
        <time>2021-07-06T13:48:55Z</time>
      </trkpt>
      <trkpt lat="43.77246" lon="6.33606">
        <ele>940.3</ele>
        <time>2021-07-06T13:48:57Z</time>
      </trkpt>
      <trkpt lat="43.77253" lon="6.33609">
        <ele>940.1</ele>
        <time>2021-07-06T13:48:59Z</time>
      </trkpt>
      <trkpt lat="43.77261" lon="6.3361">
        <ele>940.8</ele>
        <time>2021-07-06T13:49:01Z</time>
      </trkpt>
      <trkpt lat="43.77269" lon="6.33608">
        <ele>942.6</ele>
        <time>2021-07-06T13:49:03Z</time>
      </trkpt>
      <trkpt lat="43.77276" lon="6.33603">
        <ele>943.4</ele>
        <time>2021-07-06T13:49:05Z</time>
      </trkpt>
      <trkpt lat="43.77284" lon="6.33596">
        <ele>944.2</ele>
        <time>2021-07-06T13:49:07Z</time>
      </trkpt>
      <trkpt lat="43.77291" lon="6.3359">
        <ele>945.3</ele>
        <time>2021-07-06T13:49:09Z</time>
      </trkpt>
      <trkpt lat="43.77299" lon="6.33587">
        <ele>946.5</ele>
        <time>2021-07-06T13:49:11Z</time>
      </trkpt>
      <trkpt lat="43.77306" lon="6.33587">
        <ele>947.6</ele>
        <time>2021-07-06T13:49:13Z</time>
      </trkpt>
      <trkpt lat="43.77314" lon="6.33591">
        <ele>948.3</ele>
        <time>2021-07-06T13:49:15Z</time>
      </trkpt>
      <trkpt lat="43.7732" lon="6.33599">
        <ele>948.8</ele>
        <time>2021-07-06T13:49:17Z</time>
      </trkpt>
      <trkpt lat="43.77325" lon="6.33609">
        <ele>949.6</ele>
        <time>2021-07-06T13:49:19Z</time>
      </trkpt>
      <trkpt lat="43.7733" lon="6.33618">
        <ele>950.7</ele>
        <time>2021-07-06T13:49:21Z</time>
      </trkpt>
      <trkpt lat="43.77335" lon="6.33628">
        <ele>950.8</ele>
        <time>2021-07-06T13:49:23Z</time>
      </trkpt>
      <trkpt lat="43.7734" lon="6.33637">
        <ele>951.3</ele>
        <time>2021-07-06T13:49:25Z</time>
      </trkpt>
      <trkpt lat="43.77346" lon="6.33647">
        <ele>952</ele>
        <time>2021-07-06T13:49:27Z</time>
      </trkpt>
      <trkpt lat="43.77352" lon="6.33655">
        <ele>952.5</ele>
        <time>2021-07-06T13:49:29Z</time>
      </trkpt>
      <trkpt lat="43.77358" lon="6.33663">
        <ele>952.8</ele>
        <time>2021-07-06T13:49:31Z</time>
      </trkpt>
      <trkpt lat="43.77365" lon="6.3367">
        <ele>953.7</ele>
        <time>2021-07-06T13:49:33Z</time>
      </trkpt>
      <trkpt lat="43.77372" lon="6.33674">
        <ele>954</ele>
        <time>2021-07-06T13:49:35Z</time>
      </trkpt>
      <trkpt lat="43.7738" lon="6.33679">
        <ele>955.3</ele>
        <time>2021-07-06T13:49:37Z</time>
      </trkpt>
      <trkpt lat="43.77387" lon="6.33683">
        <ele>955.9</ele>
        <time>2021-07-06T13:49:39Z</time>
      </trkpt>
      <trkpt lat="43.77394" lon="6.33686">
        <ele>956.5</ele>
        <time>2021-07-06T13:49:41Z</time>
      </trkpt>
      <trkpt lat="43.77401" lon="6.3369">
        <ele>957.6</ele>
        <time>2021-07-06T13:49:43Z</time>
      </trkpt>
      <trkpt lat="43.77409" lon="6.33693">
        <ele>958.7</ele>
        <time>2021-07-06T13:49:45Z</time>
      </trkpt>
      <trkpt lat="43.77416" lon="6.33697">
        <ele>959.4</ele>
        <time>2021-07-06T13:49:47Z</time>
      </trkpt>
      <trkpt lat="43.77423" lon="6.337">
        <ele>960</ele>
        <time>2021-07-06T13:49:49Z</time>
      </trkpt>
      <trkpt lat="43.77433" lon="6.33705">
        <ele>960.7</ele>
        <time>2021-07-06T13:49:52Z</time>
      </trkpt>
      <trkpt lat="43.77443" lon="6.33709">
        <ele>962</ele>
        <time>2021-07-06T13:49:55Z</time>
      </trkpt>
      <trkpt lat="43.77453" lon="6.33714">
        <ele>962.7</ele>
        <time>2021-07-06T13:49:58Z</time>
      </trkpt>
      <trkpt lat="43.77463" lon="6.33718">
        <ele>963.3</ele>
        <time>2021-07-06T13:50:01Z</time>
      </trkpt>
      <trkpt lat="43.77469" lon="6.33722">
        <ele>963.8</ele>
        <time>2021-07-06T13:50:03Z</time>
      </trkpt>
      <trkpt lat="43.77476" lon="6.33724">
        <ele>964.6</ele>
        <time>2021-07-06T13:50:05Z</time>
      </trkpt>
      <trkpt lat="43.77485" lon="6.33729">
        <ele>964.7</ele>
        <time>2021-07-06T13:50:08Z</time>
      </trkpt>
      <trkpt lat="43.77493" lon="6.33738">
        <ele>965.8</ele>
        <time>2021-07-06T13:50:11Z</time>
      </trkpt>
      <trkpt lat="43.77496" lon="6.33747">
        <ele>965.8</ele>
        <time>2021-07-06T13:50:13Z</time>
      </trkpt>
      <trkpt lat="43.77497" lon="6.33758">
        <ele>965.9</ele>
        <time>2021-07-06T13:50:15Z</time>
      </trkpt>
      <trkpt lat="43.77494" lon="6.33772">
        <ele>966.5</ele>
        <time>2021-07-06T13:50:18Z</time>
      </trkpt>
      <trkpt lat="43.77491" lon="6.33781">
        <ele>966.5</ele>
        <time>2021-07-06T13:50:20Z</time>
      </trkpt>
      <trkpt lat="43.77486" lon="6.3379">
        <ele>966.8</ele>
        <time>2021-07-06T13:50:22Z</time>
      </trkpt>
      <trkpt lat="43.77481" lon="6.33799">
        <ele>967.7</ele>
        <time>2021-07-06T13:50:24Z</time>
      </trkpt>
      <trkpt lat="43.77477" lon="6.33808">
        <ele>968.8</ele>
        <time>2021-07-06T13:50:26Z</time>
      </trkpt>
      <trkpt lat="43.77472" lon="6.33817">
        <ele>969.7</ele>
        <time>2021-07-06T13:50:28Z</time>
      </trkpt>
      <trkpt lat="43.77468" lon="6.33826">
        <ele>969.9</ele>
        <time>2021-07-06T13:50:30Z</time>
      </trkpt>
      <trkpt lat="43.77464" lon="6.33835">
        <ele>970.3</ele>
        <time>2021-07-06T13:50:32Z</time>
      </trkpt>
      <trkpt lat="43.7746" lon="6.33845">
        <ele>969.8</ele>
        <time>2021-07-06T13:50:34Z</time>
      </trkpt>
      <trkpt lat="43.77457" lon="6.33855">
        <ele>970.3</ele>
        <time>2021-07-06T13:50:36Z</time>
      </trkpt>
      <trkpt lat="43.77455" lon="6.33865">
        <ele>970.4</ele>
        <time>2021-07-06T13:50:38Z</time>
      </trkpt>
      <trkpt lat="43.77452" lon="6.33876">
        <ele>971</ele>
        <time>2021-07-06T13:50:40Z</time>
      </trkpt>
      <trkpt lat="43.77451" lon="6.33887">
        <ele>971.4</ele>
        <time>2021-07-06T13:50:42Z</time>
      </trkpt>
      <trkpt lat="43.77449" lon="6.33899">
        <ele>972.8</ele>
        <time>2021-07-06T13:50:44Z</time>
      </trkpt>
      <trkpt lat="43.77449" lon="6.33911">
        <ele>973.6</ele>
        <time>2021-07-06T13:50:46Z</time>
      </trkpt>
      <trkpt lat="43.77449" lon="6.33923">
        <ele>973.9</ele>
        <time>2021-07-06T13:50:48Z</time>
      </trkpt>
      <trkpt lat="43.77449" lon="6.33934">
        <ele>973.7</ele>
        <time>2021-07-06T13:50:50Z</time>
      </trkpt>
      <trkpt lat="43.7745" lon="6.33946">
        <ele>973.3</ele>
        <time>2021-07-06T13:50:52Z</time>
      </trkpt>
      <trkpt lat="43.77451" lon="6.33958">
        <ele>973.8</ele>
        <time>2021-07-06T13:50:54Z</time>
      </trkpt>
      <trkpt lat="43.77454" lon="6.33969">
        <ele>974.9</ele>
        <time>2021-07-06T13:50:56Z</time>
      </trkpt>
      <trkpt lat="43.77456" lon="6.3398">
        <ele>975.4</ele>
        <time>2021-07-06T13:50:58Z</time>
      </trkpt>
      <trkpt lat="43.77459" lon="6.33992">
        <ele>975.5</ele>
        <time>2021-07-06T13:51:00Z</time>
      </trkpt>
      <trkpt lat="43.77462" lon="6.34003">
        <ele>975.8</ele>
        <time>2021-07-06T13:51:02Z</time>
      </trkpt>
      <trkpt lat="43.77465" lon="6.34014">
        <ele>975.9</ele>
        <time>2021-07-06T13:51:04Z</time>
      </trkpt>
      <trkpt lat="43.77469" lon="6.34026">
        <ele>976.1</ele>
        <time>2021-07-06T13:51:06Z</time>
      </trkpt>
      <trkpt lat="43.77474" lon="6.34035">
        <ele>976.3</ele>
        <time>2021-07-06T13:51:08Z</time>
      </trkpt>
      <trkpt lat="43.77479" lon="6.34045">
        <ele>976.6</ele>
        <time>2021-07-06T13:51:10Z</time>
      </trkpt>
      <trkpt lat="43.77485" lon="6.34055">
        <ele>977.4</ele>
        <time>2021-07-06T13:51:12Z</time>
      </trkpt>
      <trkpt lat="43.77491" lon="6.34063">
        <ele>978.1</ele>
        <time>2021-07-06T13:51:14Z</time>
      </trkpt>
      <trkpt lat="43.77498" lon="6.34071">
        <ele>978.6</ele>
        <time>2021-07-06T13:51:16Z</time>
      </trkpt>
      <trkpt lat="43.77504" lon="6.34081">
        <ele>979.7</ele>
        <time>2021-07-06T13:51:18Z</time>
      </trkpt>
      <trkpt lat="43.77509" lon="6.34089">
        <ele>979.8</ele>
        <time>2021-07-06T13:51:20Z</time>
      </trkpt>
      <trkpt lat="43.77515" lon="6.34099">
        <ele>979.9</ele>
        <time>2021-07-06T13:51:22Z</time>
      </trkpt>
      <trkpt lat="43.7752" lon="6.34107">
        <ele>979.7</ele>
        <time>2021-07-06T13:51:24Z</time>
      </trkpt>
      <trkpt lat="43.77526" lon="6.34113">
        <ele>979.6</ele>
        <time>2021-07-06T13:51:26Z</time>
      </trkpt>
      <trkpt lat="43.77534" lon="6.34113">
        <ele>979.5</ele>
        <time>2021-07-06T13:51:28Z</time>
      </trkpt>
      <trkpt lat="43.77541" lon="6.34106">
        <ele>980.3</ele>
        <time>2021-07-06T13:51:30Z</time>
      </trkpt>
      <trkpt lat="43.77544" lon="6.34094">
        <ele>981.3</ele>
        <time>2021-07-06T13:51:32Z</time>
      </trkpt>
      <trkpt lat="43.77543" lon="6.34082">
        <ele>981.8</ele>
        <time>2021-07-06T13:51:34Z</time>
      </trkpt>
      <trkpt lat="43.77542" lon="6.34071">
        <ele>982.3</ele>
        <time>2021-07-06T13:51:36Z</time>
      </trkpt>
      <trkpt lat="43.77541" lon="6.34059">
        <ele>982</ele>
        <time>2021-07-06T13:51:38Z</time>
      </trkpt>
      <trkpt lat="43.77539" lon="6.34049">
        <ele>982.7</ele>
        <time>2021-07-06T13:51:40Z</time>
      </trkpt>
      <trkpt lat="43.77537" lon="6.34037">
        <ele>983.1</ele>
        <time>2021-07-06T13:51:42Z</time>
      </trkpt>
      <trkpt lat="43.77535" lon="6.34026">
        <ele>983.7</ele>
        <time>2021-07-06T13:51:44Z</time>
      </trkpt>
      <trkpt lat="43.77532" lon="6.34014">
        <ele>984.9</ele>
        <time>2021-07-06T13:51:46Z</time>
      </trkpt>
      <trkpt lat="43.7753" lon="6.34001">
        <ele>985.4</ele>
        <time>2021-07-06T13:51:48Z</time>
      </trkpt>
      <trkpt lat="43.77528" lon="6.33989">
        <ele>986.1</ele>
        <time>2021-07-06T13:51:50Z</time>
      </trkpt>
      <trkpt lat="43.77526" lon="6.33977">
        <ele>986.5</ele>
        <time>2021-07-06T13:51:52Z</time>
      </trkpt>
      <trkpt lat="43.77525" lon="6.33965">
        <ele>986.2</ele>
        <time>2021-07-06T13:51:54Z</time>
      </trkpt>
      <trkpt lat="43.77526" lon="6.33954">
        <ele>985.2</ele>
        <time>2021-07-06T13:51:56Z</time>
      </trkpt>
      <trkpt lat="43.77532" lon="6.33946">
        <ele>984.7</ele>
        <time>2021-07-06T13:51:58Z</time>
      </trkpt>
      <trkpt lat="43.7754" lon="6.33945">
        <ele>983.6</ele>
        <time>2021-07-06T13:52:00Z</time>
      </trkpt>
      <trkpt lat="43.77547" lon="6.33955">
        <ele>982.3</ele>
        <time>2021-07-06T13:52:02Z</time>
      </trkpt>
      <trkpt lat="43.77551" lon="6.33971">
        <ele>981.4</ele>
        <time>2021-07-06T13:52:04Z</time>
      </trkpt>
      <trkpt lat="43.77553" lon="6.33988">
        <ele>980</ele>
        <time>2021-07-06T13:52:06Z</time>
      </trkpt>
      <trkpt lat="43.77555" lon="6.33998">
        <ele>979.4</ele>
        <time>2021-07-06T13:52:07Z</time>
      </trkpt>
      <trkpt lat="43.77557" lon="6.34007">
        <ele>979</ele>
        <time>2021-07-06T13:52:08Z</time>
      </trkpt>
      <trkpt lat="43.77559" lon="6.34017">
        <ele>978.5</ele>
        <time>2021-07-06T13:52:09Z</time>
      </trkpt>
      <trkpt lat="43.77561" lon="6.34029">
        <ele>977.7</ele>
        <time>2021-07-06T13:52:10Z</time>
      </trkpt>
      <trkpt lat="43.77563" lon="6.34041">
        <ele>976.7</ele>
        <time>2021-07-06T13:52:11Z</time>
      </trkpt>
      <trkpt lat="43.77566" lon="6.34054">
        <ele>975.9</ele>
        <time>2021-07-06T13:52:12Z</time>
      </trkpt>
      <trkpt lat="43.77568" lon="6.34067">
        <ele>974.6</ele>
        <time>2021-07-06T13:52:13Z</time>
      </trkpt>
      <trkpt lat="43.77571" lon="6.3408">
        <ele>973.7</ele>
        <time>2021-07-06T13:52:14Z</time>
      </trkpt>
      <trkpt lat="43.77574" lon="6.34092">
        <ele>973</ele>
        <time>2021-07-06T13:52:15Z</time>
      </trkpt>
      <trkpt lat="43.77577" lon="6.34106">
        <ele>971.8</ele>
        <time>2021-07-06T13:52:16Z</time>
      </trkpt>
      <trkpt lat="43.7758" lon="6.34119">
        <ele>971.4</ele>
        <time>2021-07-06T13:52:17Z</time>
      </trkpt>
      <trkpt lat="43.77585" lon="6.34132">
        <ele>970.8</ele>
        <time>2021-07-06T13:52:18Z</time>
      </trkpt>
      <trkpt lat="43.77593" lon="6.34144">
        <ele>969.8</ele>
        <time>2021-07-06T13:52:19Z</time>
      </trkpt>
      <trkpt lat="43.77603" lon="6.34153">
        <ele>969</ele>
        <time>2021-07-06T13:52:20Z</time>
      </trkpt>
      <trkpt lat="43.77614" lon="6.34157">
        <ele>968.2</ele>
        <time>2021-07-06T13:52:21Z</time>
      </trkpt>
      <trkpt lat="43.77625" lon="6.34159">
        <ele>967.5</ele>
        <time>2021-07-06T13:52:22Z</time>
      </trkpt>
      <trkpt lat="43.77637" lon="6.34159">
        <ele>966.8</ele>
        <time>2021-07-06T13:52:23Z</time>
      </trkpt>
      <trkpt lat="43.77649" lon="6.3416">
        <ele>966.3</ele>
        <time>2021-07-06T13:52:24Z</time>
      </trkpt>
      <trkpt lat="43.77659" lon="6.34162">
        <ele>966.7</ele>
        <time>2021-07-06T13:52:25Z</time>
      </trkpt>
      <trkpt lat="43.7767" lon="6.34163">
        <ele>966.9</ele>
        <time>2021-07-06T13:52:26Z</time>
      </trkpt>
      <trkpt lat="43.77681" lon="6.34164">
        <ele>967.1</ele>
        <time>2021-07-06T13:52:27Z</time>
      </trkpt>
      <trkpt lat="43.77692" lon="6.34165">
        <ele>966.3</ele>
        <time>2021-07-06T13:52:28Z</time>
      </trkpt>
      <trkpt lat="43.77702" lon="6.34165">
        <ele>965.9</ele>
        <time>2021-07-06T13:52:29Z</time>
      </trkpt>
      <trkpt lat="43.77711" lon="6.34167">
        <ele>965.7</ele>
        <time>2021-07-06T13:52:30Z</time>
      </trkpt>
      <trkpt lat="43.77721" lon="6.34168">
        <ele>965.6</ele>
        <time>2021-07-06T13:52:31Z</time>
      </trkpt>
      <trkpt lat="43.7773" lon="6.34168">
        <ele>964.7</ele>
        <time>2021-07-06T13:52:32Z</time>
      </trkpt>
      <trkpt lat="43.77739" lon="6.34168">
        <ele>965</ele>
        <time>2021-07-06T13:52:33Z</time>
      </trkpt>
      <trkpt lat="43.77748" lon="6.34169">
        <ele>965.2</ele>
        <time>2021-07-06T13:52:34Z</time>
      </trkpt>
      <trkpt lat="43.77755" lon="6.3417">
        <ele>965.9</ele>
        <time>2021-07-06T13:52:35Z</time>
      </trkpt>
      <trkpt lat="43.77763" lon="6.34171">
        <ele>966.1</ele>
        <time>2021-07-06T13:52:36Z</time>
      </trkpt>
      <trkpt lat="43.77777" lon="6.34171">
        <ele>966.1</ele>
        <time>2021-07-06T13:52:38Z</time>
      </trkpt>
      <trkpt lat="43.77787" lon="6.3417">
        <ele>965.9</ele>
        <time>2021-07-06T13:52:40Z</time>
      </trkpt>
      <trkpt lat="43.778" lon="6.34171">
        <ele>966.3</ele>
        <time>2021-07-06T13:52:42Z</time>
      </trkpt>
      <trkpt lat="43.77811" lon="6.34172">
        <ele>965.9</ele>
        <time>2021-07-06T13:52:44Z</time>
      </trkpt>
      <trkpt lat="43.77819" lon="6.34174">
        <ele>966.2</ele>
        <time>2021-07-06T13:52:46Z</time>
      </trkpt>
      <trkpt lat="43.77829" lon="6.34175">
        <ele>966.3</ele>
        <time>2021-07-06T13:52:48Z</time>
      </trkpt>
      <trkpt lat="43.77837" lon="6.34175">
        <ele>966.7</ele>
        <time>2021-07-06T13:52:50Z</time>
      </trkpt>
      <trkpt lat="43.77848" lon="6.34175">
        <ele>967.5</ele>
        <time>2021-07-06T13:52:53Z</time>
      </trkpt>
      <trkpt lat="43.77856" lon="6.34176">
        <ele>968.3</ele>
        <time>2021-07-06T13:52:55Z</time>
      </trkpt>
      <trkpt lat="43.77866" lon="6.34175">
        <ele>969.3</ele>
        <time>2021-07-06T13:52:58Z</time>
      </trkpt>
      <trkpt lat="43.77874" lon="6.34171">
        <ele>969.3</ele>
        <time>2021-07-06T13:53:01Z</time>
      </trkpt>
      <trkpt lat="43.77879" lon="6.34164">
        <ele>969.3</ele>
        <time>2021-07-06T13:53:05Z</time>
      </trkpt>
      <trkpt lat="43.77885" lon="6.3416">
        <ele>969.5</ele>
        <time>2021-07-06T13:53:12Z</time>
      </trkpt>
      <trkpt lat="43.77887" lon="6.34149">
        <ele>970.3</ele>
        <time>2021-07-06T13:53:17Z</time>
      </trkpt>
      <trkpt lat="43.77891" lon="6.34136">
        <ele>971</ele>
        <time>2021-07-06T13:53:20Z</time>
      </trkpt>
      <trkpt lat="43.77893" lon="6.34122">
        <ele>971.4</ele>
        <time>2021-07-06T13:53:23Z</time>
      </trkpt>
      <trkpt lat="43.77896" lon="6.34112">
        <ele>971.8</ele>
        <time>2021-07-06T13:53:26Z</time>
      </trkpt>
      <trkpt lat="43.77899" lon="6.34101">
        <ele>972.4</ele>
        <time>2021-07-06T13:53:29Z</time>
      </trkpt>
      <trkpt lat="43.77902" lon="6.3409">
        <ele>974.6</ele>
        <time>2021-07-06T13:53:32Z</time>
      </trkpt>
      <trkpt lat="43.77905" lon="6.34081">
        <ele>974.4</ele>
        <time>2021-07-06T13:53:36Z</time>
      </trkpt>
      <trkpt lat="43.77909" lon="6.34072">
        <ele>975.2</ele>
        <time>2021-07-06T13:53:41Z</time>
      </trkpt>
      <trkpt lat="43.77912" lon="6.34062">
        <ele>977.5</ele>
        <time>2021-07-06T13:53:46Z</time>
      </trkpt>
      <trkpt lat="43.77918" lon="6.34054">
        <ele>978.9</ele>
        <time>2021-07-06T13:53:50Z</time>
      </trkpt>
      <trkpt lat="43.77923" lon="6.34045">
        <ele>978.3</ele>
        <time>2021-07-06T13:53:54Z</time>
      </trkpt>
      <trkpt lat="43.77932" lon="6.34039">
        <ele>978</ele>
        <time>2021-07-06T13:53:58Z</time>
      </trkpt>
      <trkpt lat="43.7794" lon="6.34034">
        <ele>979</ele>
        <time>2021-07-06T13:54:02Z</time>
      </trkpt>
      <trkpt lat="43.77947" lon="6.3403">
        <ele>980.6</ele>
        <time>2021-07-06T13:54:06Z</time>
      </trkpt>
      <trkpt lat="43.77954" lon="6.34022">
        <ele>983</ele>
        <time>2021-07-06T13:54:11Z</time>
      </trkpt>
      <trkpt lat="43.77961" lon="6.34017">
        <ele>984.6</ele>
        <time>2021-07-06T13:54:16Z</time>
      </trkpt>
      <trkpt lat="43.77966" lon="6.34014">
        <ele>986.4</ele>
        <time>2021-07-06T13:54:23Z</time>
      </trkpt>
      <trkpt lat="43.77965" lon="6.34015">
        <ele>986.5</ele>
        <time>2021-07-06T13:54:27Z</time>
      </trkpt>
      <trkpt lat="43.77966" lon="6.34016">
        <ele>986.2</ele>
        <time>2021-07-06T13:54:36Z</time>
      </trkpt>
      <trkpt lat="43.77961" lon="6.34025">
        <ele>986.3</ele>
        <time>2021-07-06T13:54:41Z</time>
      </trkpt>
      <trkpt lat="43.77953" lon="6.34029">
        <ele>985.2</ele>
        <time>2021-07-06T13:54:44Z</time>
      </trkpt>
      <trkpt lat="43.77945" lon="6.34033">
        <ele>985</ele>
        <time>2021-07-06T13:54:47Z</time>
      </trkpt>
      <trkpt lat="43.77938" lon="6.34037">
        <ele>985.1</ele>
        <time>2021-07-06T13:54:50Z</time>
      </trkpt>
      <trkpt lat="43.7793" lon="6.34043">
        <ele>983.9</ele>
        <time>2021-07-06T13:54:53Z</time>
      </trkpt>
      <trkpt lat="43.77922" lon="6.34052">
        <ele>982.5</ele>
        <time>2021-07-06T13:54:56Z</time>
      </trkpt>
      <trkpt lat="43.77917" lon="6.34059">
        <ele>981</ele>
        <time>2021-07-06T13:54:58Z</time>
      </trkpt>
      <trkpt lat="43.77911" lon="6.3407">
        <ele>978.9</ele>
        <time>2021-07-06T13:55:01Z</time>
      </trkpt>
      <trkpt lat="43.77907" lon="6.34081">
        <ele>978.5</ele>
        <time>2021-07-06T13:55:05Z</time>
      </trkpt>
      <trkpt lat="43.77904" lon="6.34091">
        <ele>975.2</ele>
        <time>2021-07-06T13:55:11Z</time>
      </trkpt>
      <trkpt lat="43.77905" lon="6.34091">
        <ele>974.9</ele>
        <time>2021-07-06T13:55:18Z</time>
      </trkpt>
      <trkpt lat="43.77906" lon="6.34091">
        <ele>974.9</ele>
        <time>2021-07-06T13:55:24Z</time>
      </trkpt>
      <trkpt lat="43.77909" lon="6.34087">
        <ele>975.3</ele>
        <time>2021-07-06T13:55:37Z</time>
      </trkpt>
      <trkpt lat="43.77909" lon="6.34087">
        <ele>975.8</ele>
        <time>2021-07-06T13:55:42Z</time>
      </trkpt>
      <trkpt lat="43.77906" lon="6.3409">
        <ele>977.1</ele>
        <time>2021-07-06T13:56:08Z</time>
      </trkpt>
      <trkpt lat="43.77911" lon="6.34092">
        <ele>976.6</ele>
        <time>2021-07-06T13:56:15Z</time>
      </trkpt>
      <trkpt lat="43.77914" lon="6.34087">
        <ele>980.3</ele>
        <time>2021-07-06T13:56:22Z</time>
      </trkpt>
      <trkpt lat="43.77913" lon="6.34088">
        <ele>979.9</ele>
        <time>2021-07-06T13:56:29Z</time>
      </trkpt>
      <trkpt lat="43.77912" lon="6.34088">
        <ele>979.8</ele>
        <time>2021-07-06T13:56:30Z</time>
      </trkpt>
    </trkseg>
  </trk>
</gpx>